GFSWCAN_500_temp_000.txt.gz
Temp
-18 -18 -18 -17 -17 -17 -16 -16 -16 -16 -16 -16 -16 -15 -15 -15 -15 -15 -15 -14 -14 -14 -14 -15 -14 -14 -14 -14 -14 -14 -14 -14 -13 -13 -13 -13 -13 -13 -13 -13 -14 -13 -13 -13 -13 -13 -13 -13 -12 -12 -12 -12 -12 -13
-18 -18 -18 -17 -17 -17 -17 -17 -17 -16 -16 -16 -16 -16 -15 -15 -15 -15 -15 -15 -14 -14 -14 -14 -14 -14 -14 -14 -14 -13 -14 -14 -14 -14 -14 -14 -14 -14 -14 -14 -14 -13 -13 -13 -13 -13 -13 -13 -13 -13 -13 -13 -13 -13
-18 -18 -18 -18 -18 -18 -17 -17 -17 -17 -17 -16 -16 -16 -16 -15 -15 -14 -15 -15 -15 -15 -14 -14 -14 -14 -14 -14 -14 -14 -14 -14 -14 -14 -13 -13 -13 -13 -14 -14 -13 -13 -14 -13 -13 -13 -13 -13 -13 -13 -13 -13 -13 -13
-18 -18 -18 -18 -18 -18 -18 -18 -18 -17 -17 -17 -16 -16 -16 -16 -15 -15 -14 -15 -15 -15 -15 -14 -14 -14 -14 -14 -14 -14 -14 -14 -14 -14 -13 -13 -14 -14 -14 -14 -13 -14 -13 -13 -13 -14 -14 -14 -13 -14 -14 -14 -14 -14
-18 -18 -18 -18 -18 -18 -18 -18 -18 -18 -17 -17 -17 -16 -16 -16 -16 -16 -15 -14 -14 -15 -15 -15 -15 -14 -14 -14 -14 -14 -14 -13 -14 -13 -14 -14 -14 -14 -14 -14 -14 -14 -14 -14 -14 -14 -14 -14 -14 -14 -14 -15 -15 -15
-18 -18 -18 -18 -18 -19 -19 -19 -18 -18 -18 -17 -17 -17 -16 -16 -17 -16 -16 -15 -15 -15 -14 -15 -15 -15 -15 -15 -15 -14 -14 -14 -14 -14 -14 -14 -14 -14 -14 -14 -14 -14 -14 -15 -15 -15 -15 -15 -15 -15 -15 -15 -15 -15
-19 -19 -19 -18 -18 -19 -19 -19 -19 -18 -18 -18 -18 -17 -17 -17 -17 -16 -16 -16 -16 -15 -15 -15 -15 -15 -14 -15 -15 -15 -14 -14 -14 -14 -14 -14 -14 -14 -14 -14 -14 -14 -14 -15 -15 -15 -15 -15 -15 -15 -15 -15 -15 -15
-19 -19 -19 -19 -18 -19 -19 -19 -19 -19 -18 -18 -18 -18 -17 -17 -17 -17 -17 -16 -16 -16 -15 -15 -15 -15 -15 -15 -15 -15 -15 -15 -15 -14 -14 -14 -14 -15 -15 -15 -15 -15 -15 -15 -15 -16 -15 -15 -15 -15 -15 -15 -16 -16
-19 -19 -19 -19 -19 -19 -19 -19 -19 -19 -18 -18 -18 -18 -18 -18 -17 -17 -17 -17 -16 -16 -15 -15 -15 -15 -15 -15 -15 -15 -15 -15 -15 -15 -15 -15 -15 -16 -16 -16 -16 -16 -16 -16 -16 -16 -16 -16 -16 -16 -16 -17 -17 -17
-20 -19 -19 -19 -19 -19 -19 -19 -19 -19 -19 -18 -18 -18 -19 -18 -18 -18 -17 -17 -16 -16 -16 -16 -16 -15 -15 -16 -16 -16 -16 -16 -16 -16 -16 -16 -17 -17 -17 -17 -17 -17 -17 -16 -16 -16 -16 -16 -17 -17 -17 -17 -18 -18
-20 -19 -19 -19 -19 -19 -19 -19 -19 -19 -19 -18 -19 -18 -19 -19 -19 -18 -18 -17 -17 -16 -16 -16 -16 -16 -16 -16 -16 -16 -16 -16 -16 -17 -17 -17 -17 -17 -17 -17 -17 -17 -17 -17 -17 -17 -17 -18 -18 -18 -18 -18 -18 -18
-20 -19 -19 -19 -20 -19 -19 -19 -19 -19 -19 -19 -19 -19 -19 -19 -19 -19 -18 -17 -17 -17 -17 -17 -17 -17 -17 -17 -17 -17 -17 -17 -17 -17 -17 -17 -18 -18 -18 -17 -17 -17 -17 -17 -17 -17 -18 -18 -18 -18 -18 -18 -18 -18
-21 -20 -19 -19 -20 -20 -19 -19 -19 -19 -19 -19 -19 -19 -19 -19 -19 -17 -17 -17 -18 -18 -18 -18 -18 -17 -17 -17 -17 -18 -18 -17 -18 -18 -18 -19 -19 -18 -18 -17 -17 -17 -17 -17 -18 -18 -18 -18 -19 -19 -19 -19 -19 -19
-22 -21 -20 -19 -20 -20 -19 -19 -19 -19 -19 -19 -19 -19 -19 -18 -18 -17 -18 -18 -18 -19 -18 -18 -18 -18 -18 -18 -17 -17 -17 -17 -17 -18 -18 -18 -18 -18 -17 -17 -17 -17 -17 -18 -18 -18 -19 -19 -19 -19 -19 -19 -19 -19
-23 -22 -21 -20 -20 -19 -20 -20 -19 -19 -19 -19 -19 -19 -18 -18 -18 -18 -18 -18 -18 -19 -19 -18 -18 -18 -18 -18 -18 -18 -18 -18 -18 -18 -18 -18 -17 -17 -17 -17 -18 -18 -18 -18 -19 -19 -19 -19 -19 -20 -20 -20 -20 -20
-23 -23 -22 -21 -20 -20 -19 -19 -19 -19 -20 -20 -19 -19 -18 -18 -18 -18 -18 -18 -18 -19 -19 -19 -19 -19 -19 -19 -18 -18 -18 -19 -19 -19 -18 -18 -17 -17 -18 -18 -18 -18 -19 -19 -19 -19 -20 -20 -20 -20 -20 -20 -20 -21
-24 -24 -23 -22 -21 -21 -20 -20 -20 -20 -20 -19 -19 -19 -19 -19 -19 -19 -19 -19 -19 -19 -19 -19 -19 -19 -19 -19 -19 -19 -19 -19 -19 -19 -18 -18 -18 -18 -18 -18 -18 -19 -19 -19 -20 -20 -20 -20 -21 -21 -21 -21 -21 -22
-25 -25 -24 -23 -22 -22 -22 -22 -21 -21 -20 -19 -19 -19 -20 -20 -20 -20 -20 -20 -19 -19 -19 -19 -19 -19 -19 -19 -19 -20 -20 -20 -20 -19 -19 -19 -19 -19 -19 -19 -19 -19 -20 -20 -21 -21 -21 -21 -21 -21 -22 -22 -23 -24
-26 -26 -25 -24 -23 -23 -23 -22 -23 -23 -22 -20 -20 -20 -20 -20 -20 -20 -20 -20 -20 -20 -20 -19 -19 -19 -20 -20 -20 -21 -20 -19 -19 -19 -19 -19 -19 -19 -20 -20 -20 -20 -21 -21 -22 -22 -22 -22 -22 -22 -23 -24 -25 -26
-27 -27 -26 -26 -25 -24 -23 -23 -24 -23 -23 -22 -21 -20 -20 -20 -20 -20 -20 -20 -20 -20 -20 -20 -20 -20 -20 -21 -21 -20 -20 -20 -20 -20 -20 -20 -20 -21 -21 -21 -21 -22 -22 -23 -23 -22 -22 -23 -23 -24 -25 -26 -27 -27
-28 -28 -28 -27 -26 -26 -25 -24 -25 -24 -24 -23 -22 -22 -22 -22 -21 -21 -21 -21 -20 -20 -20 -20 -21 -21 -22 -21 -20 -20 -21 -20 -20 -20 -20 -21 -22 -22 -22 -22 -23 -23 -23 -23 -23 -23 -24 -25 -26 -26 -27 -28 -28 -28
-31 -30 -30 -29 -28 -27 -27 -26 -26 -26 -26 -26 -25 -24 -23 -23 -23 -22 -22 -22 -21 -22 -23 -24 -24 -22 -21 -21 -21 -21 -21 -21 -21 -21 -22 -22 -22 -22 -22 -23 -23 -23 -23 -24 -24 -25 -26 -27 -27 -28 -28 -28 -28 -28
-32 -32 -31 -31 -30 -29 -28 -27 -27 -27 -26 -26 -26 -25 -25 -25 -25 -25 -25 -24 -24 -26 -25 -23 -23 -23 -23 -22 -22 -22 -22 -22 -22 -22 -22 -22 -23 -23 -24 -24 -24 -24 -25 -26 -27 -27 -28 -28 -28 -28 -28 -28 -29 -29
-33 -33 -32 -32 -31 -30 -29 -29 -29 -28 -27 -26 -26 -26 -26 -26 -26 -26 -25 -25 -25 -26 -25 -25 -24 -24 -24 -24 -24 -23 -23 -23 -23 -23 -23 -24 -24 -24 -25 -26 -26 -27 -27 -28 -28 -28 -28 -29 -29 -29 -29 -29 -29 -29
-34 -33 -33 -32 -32 -31 -31 -30 -30 -29 -28 -28 -28 -27 -27 -27 -27 -27 -25 -26 -27 -27 -26 -26 -26 -25 -25 -25 -24 -24 -24 -24 -24 -24 -25 -25 -26 -26 -27 -27 -28 -28 -29 -29 -29 -29 -29 -29 -29 -29 -29 -29 -29 -29
-35 -34 -33 -33 -32 -32 -32 -32 -31 -31 -31 -30 -29 -29 -28 -28 -28 -27 -27 -28 -28 -28 -28 -28 -28 -27 -26 -26 -25 -25 -25 -26 -26 -26 -26 -27 -27 -27 -28 -29 -29 -29 -29 -29 -29 -29 -29 -29 -29 -29 -29 -29 -29 -29
-35 -34 -34 -34 -33 -33 -32 -32 -32 -32 -32 -31 -31 -31 -30 -30 -29 -28 -28 -29 -29 -29 -29 -29 -29 -29 -28 -28 -27 -27 -27 -27 -27 -27 -28 -28 -29 -29 -29 -29 -29 -29 -30 -30 -30 -30 -30 -29 -29 -29 -29 -29 -30 -30
-35 -35 -35 -35 -34 -34 -33 -33 -33 -32 -32 -32 -31 -31 -31 -31 -30 -30 -29 -29 -29 -29 -30 -30 -29 -29 -29 -28 -28 -28 -28 -28 -29 -29 -29 -29 -29 -29 -29 -29 -30 -30 -30 -30 -30 -30 -29 -29 -30 -30 -30 -30 -30 -30
-35 -36 -35 -35 -35 -34 -34 -33 -33 -33 -33 -32 -32 -32 -32 -31 -31 -31 -30 -30 -30 -30 -30 -29 -29 -29 -29 -29 -29 -29 -30 -30 -30 -30 -30 -29 -29 -29 -29 -30 -30 -30 -30 -30 -30 -29 -30 -30 -30 -30 -30 -30 -31 -31
-36 -35 -35 -35 -35 -34 -34 -34 -34 -33 -33 -32 -32 -32 -32 -31 -31 -31 -30 -30 -30 -30 -30 -30 -30 -30 -30 -30 -30 -30 -30 -30 -30 -30 -30 -30 -30 -30 -30 -30 -30 -30 -30 -30 -30 -30 -30 -30 -30 -30 -31 -31 -32 -32
-34 -34 -34 -35 -35 -35 -35 -34 -34 -33 -33 -32 -32 -32 -32 -32 -32 -31 -31 -31 -31 -31 -31 -31 -31 -31 -30 -31 -31 -31 -30 -30 -30 -30 -30 -30 -30 -30 -30 -30 -30 -30 -30 -30 -30 -30 -31 -31 -31 -31 -32 -32 -32 -32
-33 -33 -34 -34 -34 -34 -34 -34 -33 -33 -33 -33 -33 -33 -33 -32 -32 -32 -32 -31 -31 -31 -31 -31 -31 -31 -31 -30 -30 -30 -30 -30 -30 -30 -30 -30 -30 -30 -30 -31 -31 -31 -31 -31 -31 -31 -31 -31 -32 -32 -32 -33 -33 -33
-32 -33 -33 -33 -33 -33 -33 -33 -33 -33 -33 -32 -32 -32 -32 -32 -32 -32 -32 -31 -31 -31 -31 -31 -31 -30 -30 -30 -30 -30 -30 -30 -30 -30 -31 -31 -31 -31 -31 -31 -31 -31 -31 -31 -31 -32 -32 -32 -32 -32 -33 -33 -33 -33

GFSWCAN_500_temp_003.txt.gz
Temp
-18 -18 -18 -18 -19 -18 -17 -17 -17 -17 -17 -17 -16 -16 -16 -17 -16 -16 -15 -15 -15 -14 -15 -15 -15 -15 -15 -14 -14 -14 -14 -14 -13 -13 -13 -13 -13 -13 -13 -13 -13 -13 -13 -13 -13 -13 -13 -13 -13 -13 -14 -14 -14 -13
-19 -18 -18 -19 -18 -18 -18 -18 -17 -17 -17 -17 -17 -16 -16 -17 -16 -16 -16 -15 -15 -15 -14 -14 -15 -15 -15 -15 -14 -14 -14 -14 -14 -13 -14 -14 -13 -14 -13 -13 -14 -14 -14 -14 -14 -13 -13 -13 -14 -14 -13 -14 -14 -14
-19 -18 -18 -18 -18 -18 -18 -18 -18 -17 -17 -17 -17 -16 -16 -17 -17 -16 -16 -16 -15 -15 -15 -15 -14 -15 -15 -15 -15 -14 -14 -14 -14 -14 -14 -14 -14 -14 -13 -13 -14 -14 -14 -14 -14 -13 -13 -13 -13 -13 -14 -13 -13 -13
-19 -18 -18 -18 -18 -18 -18 -18 -18 -18 -17 -17 -17 -17 -17 -16 -17 -17 -16 -16 -16 -16 -15 -15 -15 -14 -14 -14 -15 -15 -15 -14 -14 -14 -14 -14 -14 -14 -14 -14 -14 -14 -14 -14 -14 -14 -13 -13 -13 -14 -14 -14 -14 -14
-18 -18 -18 -18 -18 -18 -18 -18 -18 -18 -18 -18 -18 -17 -17 -17 -17 -17 -16 -16 -16 -16 -15 -15 -15 -15 -15 -14 -14 -14 -14 -14 -14 -14 -14 -14 -14 -14 -14 -14 -14 -14 -14 -13 -13 -14 -14 -14 -14 -14 -14 -14 -14 -14
-19 -18 -18 -18 -18 -18 -18 -18 -18 -19 -19 -18 -18 -18 -18 -17 -17 -17 -17 -16 -16 -16 -16 -16 -15 -15 -15 -15 -15 -15 -14 -14 -14 -15 -14 -14 -14 -14 -14 -14 -14 -14 -14 -14 -14 -14 -14 -14 -14 -14 -15 -15 -15 -15
-19 -19 -19 -18 -18 -18 -18 -18 -18 -19 -19 -19 -18 -18 -18 -18 -17 -17 -16 -17 -16 -16 -16 -16 -16 -15 -15 -15 -15 -15 -15 -15 -14 -14 -14 -14 -14 -14 -14 -14 -14 -14 -14 -14 -14 -14 -14 -14 -15 -15 -16 -16 -16 -16
-19 -19 -19 -19 -18 -19 -18 -19 -19 -18 -19 -19 -19 -19 -18 -18 -18 -18 -17 -17 -17 -16 -16 -16 -16 -16 -16 -16 -16 -16 -15 -15 -15 -15 -15 -15 -15 -15 -14 -14 -14 -14 -14 -15 -15 -15 -16 -16 -16 -16 -16 -16 -16 -15
-19 -19 -19 -19 -19 -19 -19 -19 -19 -19 -19 -19 -19 -19 -19 -18 -18 -18 -18 -17 -17 -17 -16 -16 -16 -16 -16 -16 -16 -16 -16 -16 -15 -15 -15 -15 -15 -15 -15 -15 -15 -15 -15 -16 -16 -16 -16 -16 -16 -16 -16 -16 -16 -16
-19 -19 -19 -19 -19 -19 -19 -19 -19 -19 -19 -19 -19 -19 -19 -19 -19 -19 -18 -18 -18 -17 -17 -17 -17 -16 -16 -16 -16 -16 -15 -15 -15 -15 -15 -15 -16 -17 -16 -16 -16 -16 -16 -16 -16 -16 -17 -17 -17 -16 -16 -16 -16 -16
-20 -19 -19 -19 -19 -19 -19 -20 -19 -19 -19 -19 -19 -19 -19 -18 -19 -19 -19 -18 -18 -17 -17 -17 -17 -17 -17 -17 -16 -16 -16 -16 -16 -16 -16 -16 -17 -17 -17 -17 -17 -17 -17 -17 -17 -17 -17 -17 -17 -17 -17 -16 -16 -17
-20 -20 -19 -19 -19 -19 -19 -19 -20 -20 -19 -20 -19 -19 -19 -19 -19 -19 -18 -17 -17 -17 -17 -17 -18 -17 -17 -17 -17 -17 -17 -17 -17 -17 -17 -17 -17 -18 -18 -18 -18 -18 -18 -17 -17 -17 -17 -17 -17 -17 -17 -17 -17 -18
-21 -20 -20 -20 -20 -19 -19 -20 -20 -20 -20 -20 -20 -19 -19 -19 -19 -18 -18 -17 -18 -17 -18 -18 -18 -18 -18 -18 -18 -18 -17 -17 -17 -17 -17 -17 -18 -18 -17 -17 -17 -17 -17 -17 -18 -17 -17 -17 -17 -17 -18 -18 -18 -19
-23 -21 -20 -20 -20 -20 -20 -20 -20 -20 -20 -20 -20 -19 -20 -19 -18 -17 -18 -18 -19 -19 -19 -19 -19 -19 -19 -19 -18 -18 -18 -18 -17 -17 -17 -17 -17 -17 -17 -17 -17 -17 -17 -17 -17 -17 -17 -17 -18 -18 -19 -19 -19 -19
-23 -23 -22 -21 -20 -20 -20 -20 -19 -19 -20 -20 -20 -20 -19 -19 -18 -18 -19 -19 -19 -19 -19 -19 -19 -19 -19 -19 -18 -18 -18 -18 -17 -17 -17 -17 -17 -17 -17 -17 -18 -18 -18 -18 -18 -18 -18 -18 -18 -19 -19 -19 -19 -20
-24 -24 -23 -22 -21 -20 -20 -20 -20 -19 -19 -19 -19 -19 -19 -19 -19 -19 -19 -19 -19 -20 -19 -19 -19 -19 -19 -19 -18 -18 -18 -18 -18 -18 -18 -18 -18 -18 -18 -18 -18 -18 -18 -18 -18 -18 -18 -18 -19 -19 -20 -20 -20 -20
-25 -24 -24 -23 -23 -22 -21 -21 -20 -20 -21 -20 -19 -19 -19 -19 -19 -19 -19 -19 -20 -19 -19 -19 -19 -19 -19 -19 -19 -19 -19 -19 -19 -18 -19 -18 -18 -18 -18 -18 -18 -18 -18 -18 -18 -19 -19 -19 -20 -20 -20 -20 -20 -21
-26 -25 -24 -24 -23 -23 -23 -23 -22 -22 -21 -19 -19 -19 -19 -19 -19 -19 -20 -20 -19 -19 -20 -19 -20 -20 -20 -19 -19 -19 -19 -19 -19 -19 -19 -19 -19 -19 -19 -19 -19 -19 -19 -19 -19 -19 -20 -20 -20 -20 -21 -21 -22 -22
-26 -26 -26 -25 -24 -24 -24 -24 -24 -23 -22 -20 -19 -19 -19 -19 -19 -19 -20 -20 -20 -20 -20 -20 -20 -20 -20 -20 -19 -19 -19 -19 -19 -19 -19 -19 -19 -19 -19 -19 -20 -20 -20 -20 -20 -20 -21 -21 -21 -21 -22 -22 -22 -22
-27 -27 -27 -26 -26 -25 -24 -24 -24 -24 -23 -22 -22 -20 -19 -20 -19 -19 -20 -20 -20 -20 -20 -20 -20 -20 -20 -20 -19 -19 -20 -20 -20 -20 -20 -20 -20 -20 -20 -20 -20 -20 -21 -21 -21 -21 -21 -22 -22 -22 -22 -23 -23 -24
-29 -28 -28 -27 -27 -26 -26 -25 -25 -25 -24 -23 -23 -22 -22 -21 -20 -20 -20 -20 -20 -20 -20 -20 -20 -20 -20 -20 -20 -20 -20 -20 -20 -20 -20 -20 -20 -20 -21 -21 -21 -21 -22 -22 -22 -22 -22 -22 -23 -23 -23 -24 -25 -27
-30 -30 -30 -29 -28 -28 -27 -26 -26 -26 -25 -24 -24 -23 -23 -23 -23 -22 -21 -21 -21 -21 -21 -21 -21 -20 -20 -20 -20 -20 -20 -20 -20 -20 -20 -20 -21 -22 -22 -22 -22 -22 -23 -23 -23 -23 -23 -23 -24 -24 -26 -27 -28 -28
-32 -31 -31 -30 -30 -29 -28 -27 -27 -28 -27 -27 -26 -25 -25 -25 -24 -24 -23 -23 -23 -23 -24 -24 -23 -22 -21 -21 -20 -20 -20 -20 -21 -21 -21 -22 -22 -22 -22 -23 -23 -23 -23 -23 -24 -24 -24 -25 -26 -27 -28 -29 -29 -29
-33 -32 -32 -32 -31 -30 -30 -29 -28 -27 -28 -28 -28 -27 -26 -26 -26 -26 -25 -25 -25 -25 -25 -24 -23 -23 -22 -22 -22 -22 -22 -22 -22 -22 -22 -22 -23 -23 -23 -23 -23 -23 -24 -24 -24 -25 -26 -27 -28 -29 -29 -29 -29 -29
-34 -34 -33 -33 -32 -31 -30 -30 -29 -29 -29 -29 -28 -28 -27 -27 -27 -26 -26 -26 -26 -26 -25 -25 -24 -24 -24 -24 -23 -23 -23 -23 -23 -23 -23 -23 -24 -24 -24 -24 -24 -24 -25 -25 -26 -27 -28 -29 -29 -29 -29 -29 -29 -29
-34 -34 -34 -33 -33 -32 -32 -31 -31 -30 -29 -29 -29 -29 -28 -28 -28 -27 -27 -28 -27 -27 -26 -26 -26 -26 -25 -25 -25 -25 -25 -24 -24 -24 -24 -24 -24 -24 -25 -25 -26 -26 -26 -27 -28 -28 -29 -29 -29 -29 -29 -29 -29 -30
-35 -35 -35 -34 -34 -33 -33 -32 -32 -32 -31 -31 -30 -30 -30 -29 -28 -28 -28 -29 -28 -28 -28 -27 -27 -27 -27 -26 -26 -26 -25 -25 -25 -25 -25 -25 -26 -26 -26 -26 -27 -28 -28 -29 -29 -29 -29 -29 -29 -30 -30 -30 -30 -30
-36 -36 -36 -35 -35 -34 -34 -33 -33 -32 -32 -31 -31 -31 -30 -30 -29 -29 -29 -29 -29 -28 -28 -28 -28 -28 -27 -27 -27 -27 -27 -27 -27 -27 -27 -27 -27 -27 -28 -28 -29 -29 -29 -29 -29 -29 -30 -30 -30 -30 -30 -30 -30 -30
-36 -36 -36 -35 -35 -35 -34 -34 -33 -33 -33 -32 -31 -31 -31 -31 -31 -30 -30 -30 -30 -30 -30 -29 -29 -29 -29 -28 -28 -28 -28 -28 -28 -28 -28 -28 -29 -29 -30 -30 -30 -30 -29 -29 -30 -30 -30 -30 -30 -30 -30 -30 -30 -30
-35 -36 -36 -36 -35 -35 -35 -34 -34 -34 -33 -33 -32 -32 -32 -31 -31 -31 -31 -30 -30 -30 -30 -30 -30 -30 -29 -29 -29 -29 -29 -29 -29 -30 -30 -30 -30 -30 -30 -30 -30 -30 -30 -30 -30 -30 -31 -31 -31 -31 -30 -30 -31 -31
-34 -34 -34 -34 -35 -35 -35 -34 -34 -34 -34 -33 -33 -33 -32 -32 -32 -31 -31 -31 -31 -31 -31 -30 -30 -30 -30 -30 -30 -30 -30 -30 -30 -30 -30 -30 -30 -30 -30 -30 -30 -30 -30 -31 -31 -31 -31 -31 -31 -31 -31 -31 -32 -32
-33 -33 -34 -34 -34 -34 -34 -34 -34 -34 -34 -33 -33 -33 -33 -32 -32 -32 -32 -32 -32 -32 -32 -31 -31 -31 -31 -31 -31 -31 -31 -30 -30 -30 -30 -30 -30 -30 -30 -31 -31 -31 -31 -31 -31 -31 -31 -31 -31 -32 -32 -33 -32 -32
-33 -33 -33 -33 -33 -34 -34 -34 -34 -34 -33 -33 -33 -33 -33 -33 -32 -33 -33 -32 -32 -32 -32 -32 -31 -31 -31 -31 -31 -31 -30 -30 -30 -30 -30 -30 -30 -30 -31 -31 -31 -31 -31 -31 -31 -32 -32 -32 -33 -33 -33 -33 -33 -33

GFSWCAN_500_temp_006.txt.gz
Temp
-20 -19 -19 -19 -18 -19 -18 -18 -18 -18 -17 -17 -17 -17 -16 -17 -16 -16 -16 -16 -15 -15 -15 -15 -15 -15 -15 -15 -14 -14 -14 -14 -14 -14 -14 -15 -14 -15 -15 -15 -15 -15 -15 -15 -15 -15 -14 -14 -14 -14 -14 -14 -14 -14
-20 -19 -19 -19 -18 -18 -19 -18 -18 -18 -17 -17 -17 -17 -16 -17 -17 -16 -16 -16 -16 -15 -15 -15 -15 -15 -15 -15 -15 -14 -14 -14 -14 -13 -14 -14 -14 -14 -14 -14 -14 -14 -14 -14 -14 -14 -14 -14 -14 -14 -14 -14 -14 -14
-20 -19 -19 -19 -18 -18 -18 -18 -18 -19 -18 -18 -17 -17 -17 -17 -17 -16 -17 -16 -16 -16 -15 -15 -15 -15 -15 -15 -15 -15 -15 -14 -14 -14 -14 -13 -14 -14 -14 -14 -14 -14 -14 -14 -14 -14 -14 -13 -13 -13 -13 -14 -14 -14
-20 -19 -19 -19 -19 -18 -18 -18 -19 -19 -18 -18 -17 -17 -17 -17 -17 -17 -17 -17 -16 -16 -15 -15 -15 -15 -15 -15 -15 -15 -15 -14 -14 -14 -14 -14 -14 -14 -14 -14 -14 -14 -14 -14 -14 -14 -14 -14 -14 -14 -14 -14 -14 -14
-20 -19 -19 -19 -18 -18 -18 -19 -19 -19 -18 -18 -18 -18 -17 -17 -17 -17 -17 -17 -17 -17 -16 -15 -15 -15 -15 -15 -15 -15 -15 -15 -15 -15 -14 -14 -14 -14 -14 -14 -14 -14 -14 -14 -14 -14 -14 -14 -14 -14 -14 -14 -14 -14
-20 -19 -19 -19 -19 -18 -19 -19 -18 -19 -19 -19 -18 -18 -18 -17 -17 -17 -17 -17 -17 -17 -16 -16 -16 -15 -15 -15 -15 -15 -15 -14 -15 -15 -14 -14 -14 -14 -14 -14 -14 -14 -14 -14 -14 -14 -14 -14 -14 -14 -14 -14 -14 -14
-20 -19 -19 -18 -19 -18 -18 -19 -18 -18 -18 -18 -19 -18 -18 -18 -18 -17 -17 -17 -17 -17 -17 -16 -16 -16 -16 -15 -15 -15 -15 -15 -14 -14 -14 -14 -14 -14 -14 -14 -15 -14 -14 -14 -14 -14 -14 -14 -14 -14 -14 -15 -15 -15
-20 -19 -19 -19 -19 -18 -18 -18 -18 -18 -18 -19 -19 -19 -18 -18 -18 -18 -18 -18 -18 -17 -17 -17 -16 -16 -16 -16 -16 -16 -15 -15 -15 -15 -14 -14 -14 -14 -14 -14 -15 -15 -15 -15 -15 -14 -14 -15 -15 -15 -15 -15 -15 -16
-20 -20 -19 -19 -19 -18 -18 -18 -18 -18 -18 -18 -19 -19 -19 -19 -18 -18 -18 -18 -18 -18 -17 -17 -17 -17 -17 -17 -17 -17 -16 -16 -16 -16 -15 -15 -15 -15 -15 -15 -15 -15 -15 -15 -15 -15 -15 -15 -15 -15 -16 -16 -16 -16
-21 -20 -19 -19 -19 -19 -19 -19 -19 -19 -18 -18 -19 -19 -19 -19 -19 -18 -18 -18 -18 -18 -17 -17 -17 -17 -17 -17 -17 -17 -16 -16 -16 -16 -16 -15 -15 -16 -16 -15 -15 -15 -15 -16 -16 -16 -16 -16 -16 -16 -16 -17 -17 -17
-21 -20 -20 -19 -19 -19 -19 -19 -19 -19 -19 -19 -19 -19 -19 -19 -19 -19 -19 -18 -18 -18 -18 -17 -17 -18 -17 -17 -17 -17 -17 -16 -16 -16 -16 -15 -15 -16 -16 -15 -16 -16 -16 -16 -16 -16 -16 -17 -17 -17 -17 -17 -17 -17
-22 -20 -20 -20 -20 -19 -19 -19 -19 -19 -19 -19 -19 -19 -19 -19 -19 -19 -18 -18 -18 -17 -17 -18 -18 -18 -18 -17 -17 -17 -17 -17 -17 -16 -16 -16 -16 -16 -16 -16 -16 -16 -16 -16 -17 -17 -17 -18 -17 -17 -17 -17 -17 -17
-24 -21 -20 -20 -20 -19 -19 -19 -19 -19 -19 -20 -20 -19 -19 -19 -19 -18 -18 -18 -18 -18 -18 -19 -18 -18 -18 -18 -18 -17 -17 -17 -17 -16 -16 -16 -16 -16 -16 -17 -17 -17 -17 -17 -18 -18 -18 -18 -17 -17 -17 -17 -17 -17
-24 -23 -21 -20 -20 -19 -19 -20 -19 -19 -20 -20 -20 -20 -20 -19 -19 -18 -18 -19 -19 -19 -19 -19 -19 -19 -19 -19 -18 -18 -18 -18 -17 -16 -17 -17 -17 -17 -17 -17 -18 -18 -18 -18 -18 -18 -18 -17 -17 -17 -17 -17 -17 -17
-24 -23 -22 -21 -20 -20 -20 -20 -20 -19 -20 -20 -20 -20 -19 -18 -18 -18 -19 -19 -19 -19 -19 -19 -19 -19 -19 -19 -18 -18 -18 -17 -17 -17 -18 -18 -18 -18 -18 -18 -18 -18 -18 -18 -18 -18 -18 -17 -18 -18 -18 -18 -18 -18
-25 -24 -23 -22 -21 -20 -20 -20 -20 -20 -20 -20 -20 -19 -19 -19 -18 -19 -19 -20 -20 -20 -19 -19 -19 -19 -19 -19 -19 -19 -18 -18 -18 -18 -18 -19 -19 -19 -19 -18 -18 -18 -18 -18 -18 -18 -18 -18 -18 -19 -19 -19 -19 -19
-25 -24 -24 -24 -23 -22 -22 -22 -21 -20 -20 -20 -20 -19 -19 -19 -19 -19 -20 -20 -20 -20 -20 -19 -19 -20 -19 -19 -19 -19 -19 -19 -19 -18 -19 -19 -18 -18 -18 -18 -18 -18 -18 -18 -18 -18 -19 -19 -19 -19 -20 -20 -20 -20
-26 -25 -25 -24 -24 -24 -24 -23 -22 -21 -21 -20 -19 -20 -20 -20 -20 -19 -20 -20 -20 -20 -20 -20 -20 -20 -20 -19 -19 -19 -19 -19 -19 -19 -19 -19 -19 -19 -19 -19 -19 -19 -19 -19 -19 -19 -19 -19 -20 -20 -20 -20 -20 -21
-26 -26 -25 -25 -25 -25 -25 -24 -24 -23 -22 -20 -19 -19 -19 -19 -20 -19 -20 -20 -20 -20 -20 -20 -20 -20 -20 -19 -19 -19 -19 -19 -19 -19 -19 -19 -19 -19 -19 -19 -19 -19 -19 -19 -19 -19 -20 -20 -20 -20 -21 -21 -21 -21
-27 -26 -26 -25 -25 -25 -25 -25 -25 -24 -23 -22 -20 -20 -20 -20 -20 -20 -20 -19 -20 -20 -20 -20 -20 -20 -20 -20 -20 -19 -19 -19 -19 -20 -20 -20 -20 -20 -19 -19 -19 -20 -20 -20 -20 -20 -20 -21 -21 -21 -21 -22 -22 -22
-28 -27 -27 -27 -26 -26 -25 -25 -26 -25 -24 -23 -22 -21 -21 -21 -20 -20 -20 -20 -20 -20 -21 -20 -20 -20 -20 -20 -20 -20 -19 -19 -19 -20 -20 -20 -20 -20 -20 -20 -20 -20 -20 -20 -20 -21 -21 -21 -22 -22 -22 -23 -23 -23
-29 -29 -28 -28 -28 -27 -26 -26 -26 -25 -25 -24 -24 -23 -22 -22 -22 -21 -21 -21 -21 -21 -22 -21 -20 -20 -20 -20 -20 -20 -20 -21 -21 -21 -20 -20 -20 -20 -20 -20 -21 -21 -21 -21 -22 -22 -22 -22 -23 -23 -23 -23 -24 -24
-31 -30 -30 -29 -29 -28 -28 -27 -27 -26 -25 -25 -25 -24 -24 -23 -23 -23 -23 -23 -22 -23 -23 -22 -21 -21 -21 -21 -21 -21 -21 -20 -20 -20 -20 -20 -21 -22 -22 -22 -22 -22 -22 -23 -23 -23 -23 -23 -23 -23 -24 -24 -25 -26
-32 -32 -31 -31 -31 -29 -29 -28 -27 -27 -26 -26 -26 -25 -25 -25 -25 -25 -25 -25 -24 -25 -24 -24 -24 -24 -22 -22 -22 -22 -21 -21 -22 -22 -22 -22 -22 -22 -23 -23 -23 -23 -23 -24 -24 -24 -24 -24 -24 -24 -25 -26 -27 -29
-33 -33 -32 -32 -32 -31 -30 -30 -29 -28 -28 -28 -27 -27 -27 -26 -26 -26 -26 -26 -26 -26 -26 -26 -25 -25 -24 -23 -23 -23 -23 -23 -23 -23 -23 -23 -23 -24 -24 -24 -24 -24 -24 -24 -24 -24 -24 -25 -25 -26 -27 -28 -29 -30
-34 -34 -34 -33 -33 -32 -32 -31 -31 -29 -29 -29 -29 -29 -29 -28 -28 -28 -27 -27 -27 -27 -26 -26 -26 -25 -25 -24 -24 -25 -24 -24 -24 -24 -24 -24 -25 -25 -25 -25 -25 -25 -25 -24 -25 -25 -26 -26 -27 -29 -29 -29 -29 -30
-35 -35 -35 -34 -34 -33 -33 -32 -32 -31 -30 -30 -30 -30 -29 -29 -29 -29 -29 -29 -28 -28 -28 -27 -26 -26 -26 -26 -26 -26 -26 -26 -26 -26 -26 -26 -26 -26 -26 -26 -25 -25 -25 -25 -26 -27 -28 -29 -29 -30 -30 -30 -30 -30
-35 -35 -35 -35 -34 -34 -34 -33 -33 -32 -31 -31 -31 -30 -30 -30 -29 -29 -29 -29 -29 -28 -28 -28 -27 -27 -27 -27 -27 -27 -27 -27 -27 -27 -27 -27 -26 -26 -26 -26 -26 -26 -26 -27 -28 -29 -30 -30 -30 -30 -30 -30 -30 -30
-35 -35 -35 -35 -35 -34 -34 -34 -34 -33 -32 -32 -32 -31 -31 -31 -30 -30 -30 -30 -30 -29 -29 -29 -29 -29 -29 -29 -28 -28 -28 -28 -28 -27 -27 -27 -26 -26 -26 -27 -27 -28 -29 -29 -30 -30 -30 -30 -30 -30 -30 -30 -30 -30
-34 -34 -35 -35 -35 -35 -35 -34 -34 -34 -33 -33 -32 -32 -32 -32 -31 -31 -30 -30 -30 -30 -30 -30 -30 -29 -29 -29 -29 -28 -28 -28 -28 -28 -27 -28 -28 -28 -29 -29 -30 -30 -30 -30 -30 -30 -30 -30 -30 -30 -30 -31 -31 -31
-33 -34 -35 -35 -35 -35 -35 -34 -34 -34 -34 -34 -33 -33 -33 -32 -32 -32 -31 -31 -31 -31 -31 -30 -30 -30 -30 -30 -30 -30 -30 -29 -29 -29 -29 -30 -30 -30 -30 -30 -30 -30 -30 -30 -30 -30 -30 -30 -31 -31 -31 -31 -31 -31
-33 -33 -33 -34 -34 -35 -35 -35 -35 -35 -34 -34 -34 -34 -33 -33 -33 -33 -32 -32 -32 -32 -32 -31 -31 -31 -31 -31 -31 -30 -30 -30 -31 -31 -31 -31 -31 -30 -30 -30 -30 -30 -30 -30 -30 -30 -31 -31 -31 -31 -32 -32 -32 -32
-33 -33 -33 -33 -33 -33 -34 -34 -34 -34 -34 -34 -34 -34 -33 -33 -33 -33 -33 -33 -33 -32 -32 -32 -32 -32 -32 -32 -32 -32 -32 -31 -31 -31 -31 -31 -30 -30 -30 -30 -30 -30 -30 -31 -31 -31 -31 -31 -32 -32 -32 -32 -33 -33

GFSWCAN_500_temp_009.txt.gz
Temp
-23 -22 -20 -20 -19 -19 -19 -19 -18 -19 -19 -18 -17 -17 -17 -17 -17 -16 -16 -16 -16 -16 -16 -16 -16 -15 -15 -15 -15 -15 -15 -15 -15 -15 -15 -15 -15 -15 -15 -15 -15 -15 -16 -16 -16 -15 -15 -15 -15 -15 -15 -14 -14 -14
-23 -21 -20 -20 -19 -19 -19 -19 -19 -19 -19 -18 -18 -17 -17 -17 -17 -17 -17 -17 -16 -16 -16 -16 -16 -16 -15 -16 -15 -15 -15 -15 -15 -15 -15 -15 -15 -15 -15 -15 -15 -15 -15 -15 -15 -15 -15 -15 -15 -15 -15 -14 -14 -14
-23 -22 -20 -19 -19 -19 -19 -19 -19 -19 -19 -18 -18 -18 -17 -17 -17 -17 -17 -17 -16 -16 -16 -16 -16 -15 -15 -16 -16 -15 -15 -15 -15 -15 -15 -15 -15 -15 -15 -15 -15 -15 -15 -15 -15 -15 -15 -15 -15 -14 -14 -14 -14 -14
-23 -22 -20 -20 -19 -19 -19 -19 -19 -19 -19 -18 -18 -18 -18 -17 -17 -17 -17 -17 -16 -16 -16 -16 -16 -15 -15 -16 -15 -15 -15 -15 -15 -15 -14 -15 -15 -14 -15 -15 -15 -15 -14 -14 -14 -14 -14 -14 -14 -14 -14 -14 -14 -14
-23 -22 -20 -20 -20 -19 -19 -19 -19 -19 -19 -19 -19 -18 -18 -17 -18 -17 -17 -17 -17 -16 -16 -17 -16 -16 -15 -15 -16 -15 -15 -15 -15 -15 -14 -14 -14 -14 -14 -14 -14 -14 -14 -14 -14 -14 -14 -14 -14 -14 -15 -15 -15 -15
-23 -22 -21 -20 -19 -19 -19 -19 -19 -19 -19 -18 -18 -19 -19 -18 -18 -18 -17 -17 -17 -17 -16 -16 -16 -16 -16 -15 -15 -15 -15 -15 -15 -15 -15 -14 -15 -14 -14 -14 -15 -14 -14 -14 -14 -14 -14 -14 -14 -15 -15 -15 -15 -15
-23 -22 -21 -20 -19 -19 -19 -19 -19 -19 -19 -19 -20 -20 -19 -18 -18 -18 -17 -17 -18 -17 -17 -17 -17 -16 -16 -16 -15 -15 -15 -15 -15 -14 -14 -14 -14 -14 -14 -14 -14 -14 -14 -14 -14 -14 -14 -15 -15 -15 -15 -15 -15 -15
-23 -22 -21 -20 -19 -19 -19 -19 -19 -19 -19 -20 -20 -20 -19 -19 -18 -18 -18 -18 -18 -18 -17 -17 -16 -17 -16 -16 -16 -16 -16 -15 -15 -15 -15 -15 -14 -14 -14 -14 -14 -14 -14 -14 -14 -14 -15 -15 -15 -15 -15 -15 -15 -16
-23 -22 -20 -20 -19 -19 -19 -19 -19 -19 -19 -20 -20 -20 -20 -19 -18 -18 -18 -18 -18 -18 -17 -17 -16 -17 -17 -17 -17 -17 -16 -16 -16 -15 -15 -15 -15 -14 -14 -15 -15 -15 -15 -15 -15 -15 -16 -15 -15 -15 -16 -16 -16 -16
-23 -22 -20 -20 -20 -19 -19 -19 -20 -19 -19 -19 -19 -19 -18 -19 -19 -19 -18 -18 -18 -18 -17 -17 -17 -17 -17 -17 -17 -17 -17 -17 -16 -16 -16 -15 -15 -16 -16 -16 -16 -15 -15 -15 -16 -16 -16 -16 -16 -16 -16 -17 -16 -16
-24 -22 -21 -20 -19 -19 -19 -20 -19 -19 -19 -19 -18 -19 -19 -19 -19 -19 -19 -18 -18 -18 -18 -18 -18 -18 -18 -17 -17 -17 -17 -17 -16 -16 -17 -16 -15 -16 -16 -16 -16 -16 -16 -16 -16 -16 -16 -16 -17 -17 -17 -16 -16 -16
-24 -22 -20 -20 -20 -20 -20 -19 -20 -19 -19 -19 -19 -19 -19 -19 -19 -19 -18 -18 -18 -18 -18 -18 -18 -18 -18 -18 -18 -18 -17 -17 -17 -17 -17 -16 -16 -17 -17 -16 -16 -16 -16 -16 -16 -17 -17 -17 -17 -17 -17 -17 -17 -17
-25 -22 -21 -20 -20 -20 -20 -20 -19 -19 -19 -19 -19 -19 -19 -19 -19 -18 -18 -17 -18 -17 -18 -18 -18 -19 -19 -18 -18 -18 -18 -18 -17 -17 -16 -16 -17 -17 -17 -16 -16 -16 -16 -16 -17 -17 -17 -17 -17 -17 -17 -17 -18 -18
-25 -24 -22 -21 -20 -20 -20 -20 -20 -20 -19 -19 -19 -19 -20 -19 -18 -18 -18 -18 -19 -19 -19 -19 -19 -19 -19 -19 -18 -18 -18 -18 -17 -17 -17 -17 -17 -17 -17 -17 -17 -17 -18 -18 -18 -17 -17 -18 -18 -18 -18 -18 -18 -18
-26 -25 -24 -22 -21 -21 -20 -20 -20 -20 -20 -20 -20 -19 -19 -19 -18 -19 -19 -19 -19 -19 -19 -19 -18 -19 -19 -19 -18 -18 -18 -17 -17 -18 -18 -18 -17 -18 -18 -18 -18 -18 -18 -18 -18 -18 -18 -18 -18 -18 -18 -18 -18 -18
-26 -25 -24 -23 -22 -22 -21 -20 -20 -20 -20 -20 -20 -19 -19 -19 -19 -19 -19 -20 -20 -19 -19 -19 -19 -19 -19 -19 -18 -18 -18 -18 -18 -19 -19 -19 -18 -18 -18 -18 -18 -18 -18 -18 -18 -18 -18 -18 -18 -18 -18 -18 -18 -18
-26 -25 -25 -24 -23 -22 -21 -21 -21 -20 -20 -20 -20 -20 -19 -19 -19 -20 -20 -20 -20 -20 -19 -19 -19 -19 -19 -19 -18 -18 -18 -19 -19 -19 -19 -19 -19 -19 -19 -19 -19 -19 -19 -19 -19 -19 -18 -18 -18 -18 -19 -19 -19 -19
-27 -26 -26 -25 -24 -23 -22 -22 -22 -22 -21 -20 -20 -20 -20 -20 -20 -20 -20 -20 -20 -20 -20 -20 -20 -20 -19 -19 -19 -19 -19 -19 -19 -19 -19 -19 -19 -19 -19 -19 -19 -19 -19 -19 -19 -19 -18 -19 -19 -19 -19 -19 -19 -19
-27 -27 -26 -26 -25 -24 -24 -24 -23 -23 -22 -21 -20 -20 -20 -20 -20 -20 -20 -20 -20 -20 -20 -20 -20 -20 -19 -19 -19 -19 -19 -19 -19 -19 -19 -19 -20 -20 -20 -20 -20 -20 -19 -19 -19 -19 -19 -19 -19 -19 -20 -20 -20 -20
-27 -27 -27 -26 -25 -25 -24 -24 -24 -24 -23 -23 -21 -21 -21 -20 -20 -20 -20 -20 -20 -20 -20 -20 -20 -20 -20 -20 -20 -20 -20 -20 -20 -20 -20 -20 -20 -20 -20 -20 -20 -20 -19 -19 -19 -19 -20 -20 -20 -20 -20 -20 -20 -21
-28 -27 -27 -27 -26 -26 -25 -25 -25 -25 -24 -24 -23 -22 -21 -21 -21 -20 -20 -20 -20 -20 -20 -20 -20 -20 -20 -20 -20 -20 -20 -20 -20 -20 -20 -20 -20 -20 -21 -21 -20 -19 -19 -19 -20 -20 -20 -20 -20 -20 -21 -21 -22 -22
-29 -28 -28 -27 -27 -26 -26 -26 -25 -25 -25 -24 -24 -24 -23 -22 -22 -21 -21 -21 -21 -20 -21 -20 -20 -20 -20 -20 -20 -20 -20 -20 -20 -20 -21 -21 -21 -21 -20 -20 -20 -20 -20 -20 -20 -21 -21 -21 -21 -21 -22 -23 -23 -23
-30 -30 -29 -28 -28 -27 -27 -26 -26 -26 -25 -25 -25 -25 -24 -24 -24 -23 -23 -22 -22 -22 -21 -21 -21 -20 -21 -21 -21 -21 -21 -21 -21 -21 -21 -21 -21 -21 -21 -21 -21 -21 -21 -21 -21 -21 -22 -22 -22 -23 -23 -24 -24 -24
-31 -31 -30 -30 -29 -28 -28 -27 -27 -26 -26 -26 -25 -25 -25 -25 -24 -24 -24 -24 -24 -24 -23 -23 -22 -22 -22 -22 -22 -22 -22 -22 -22 -22 -22 -22 -22 -22 -22 -22 -22 -22 -22 -22 -22 -23 -23 -24 -24 -24 -25 -25 -24 -24
-32 -31 -31 -31 -30 -30 -29 -29 -28 -28 -27 -26 -26 -26 -25 -25 -25 -25 -25 -25 -25 -25 -24 -24 -24 -24 -23 -23 -23 -23 -23 -23 -23 -23 -24 -24 -24 -24 -24 -24 -23 -24 -24 -24 -24 -25 -25 -25 -25 -25 -25 -25 -25 -25
-33 -32 -32 -32 -32 -32 -31 -31 -30 -29 -29 -28 -27 -27 -26 -26 -26 -26 -26 -26 -26 -26 -26 -26 -26 -25 -25 -24 -25 -25 -25 -26 -26 -26 -25 -25 -25 -25 -25 -25 -25 -25 -25 -25 -26 -26 -26 -26 -26 -25 -25 -26 -27 -28
-34 -33 -33 -33 -33 -33 -33 -32 -32 -31 -30 -29 -29 -28 -28 -27 -27 -27 -27 -27 -27 -27 -27 -27 -27 -27 -27 -27 -26 -26 -26 -26 -26 -26 -26 -26 -26 -25 -26 -26 -26 -26 -26 -27 -27 -26 -26 -26 -26 -26 -27 -28 -29 -30
-34 -34 -34 -33 -33 -33 -33 -33 -33 -32 -31 -31 -30 -30 -30 -29 -29 -28 -28 -28 -28 -28 -28 -28 -28 -28 -28 -28 -28 -28 -27 -27 -26 -26 -26 -26 -26 -27 -27 -27 -27 -27 -27 -27 -27 -26 -26 -27 -28 -28 -29 -29 -30 -30
-34 -34 -34 -34 -34 -34 -34 -34 -33 -33 -33 -32 -32 -31 -31 -30 -30 -30 -30 -30 -29 -29 -29 -29 -29 -29 -29 -29 -28 -28 -28 -28 -28 -28 -28 -28 -28 -28 -28 -28 -28 -27 -27 -27 -27 -28 -28 -29 -29 -29 -30 -30 -30 -30
-34 -34 -34 -35 -35 -35 -34 -34 -34 -34 -34 -33 -33 -32 -32 -32 -31 -31 -31 -30 -30 -30 -30 -30 -30 -29 -30 -30 -29 -29 -29 -29 -29 -29 -28 -28 -28 -28 -28 -28 -27 -27 -28 -28 -29 -29 -30 -30 -30 -30 -30 -30 -30 -30
-33 -33 -34 -34 -34 -35 -35 -35 -35 -35 -34 -34 -34 -33 -33 -33 -32 -32 -32 -31 -31 -31 -31 -31 -31 -31 -30 -30 -30 -30 -30 -29 -29 -29 -29 -29 -29 -28 -29 -29 -29 -29 -30 -30 -30 -30 -30 -30 -30 -30 -30 -30 -30 -31
-33 -33 -33 -34 -34 -34 -35 -35 -35 -35 -35 -35 -35 -34 -34 -33 -33 -33 -32 -32 -32 -32 -31 -31 -31 -31 -31 -31 -31 -31 -30 -30 -30 -30 -30 -30 -30 -30 -30 -31 -31 -31 -30 -30 -30 -30 -30 -30 -30 -30 -31 -31 -31 -31
-32 -32 -33 -33 -33 -34 -34 -34 -35 -35 -34 -34 -34 -34 -34 -34 -33 -33 -33 -33 -33 -33 -32 -32 -32 -32 -32 -31 -31 -31 -31 -31 -31 -31 -31 -31 -31 -31 -31 -31 -30 -30 -30 -30 -30 -30 -30 -31 -31 -31 -31 -31 -31 -32

GFSWCAN_500_temp_012.txt.gz
Temp
-26 -24 -23 -21 -20 -20 -20 -20 -19 -19 -19 -19 -19 -19 -18 -17 -17 -16 -17 -16 -17 -16 -16 -16 -16 -15 -15 -15 -15 -15 -15 -15 -15 -15 -15 -15 -15 -15 -15 -15 -15 -15 -15 -15 -15 -15 -15 -15 -15 -15 -15 -15 -15 -15
-26 -25 -23 -21 -20 -20 -20 -20 -19 -19 -19 -19 -19 -19 -18 -17 -17 -17 -16 -16 -17 -16 -16 -16 -16 -15 -15 -15 -15 -15 -15 -15 -15 -15 -16 -15 -15 -15 -15 -15 -16 -15 -15 -15 -15 -15 -15 -16 -16 -16 -15 -15 -15 -15
-26 -25 -23 -21 -20 -20 -20 -20 -19 -19 -19 -19 -19 -19 -18 -17 -17 -17 -17 -17 -17 -17 -16 -16 -16 -16 -16 -15 -15 -15 -15 -15 -15 -15 -15 -15 -15 -15 -15 -15 -15 -15 -15 -15 -15 -15 -15 -15 -15 -15 -15 -15 -15 -15
-26 -25 -23 -21 -21 -21 -20 -19 -19 -19 -19 -19 -19 -19 -18 -17 -17 -17 -17 -17 -17 -17 -16 -16 -16 -16 -16 -16 -16 -16 -15 -16 -16 -15 -15 -15 -15 -15 -15 -15 -15 -15 -15 -15 -15 -15 -15 -15 -15 -15 -15 -15 -15 -15
-26 -25 -23 -22 -22 -21 -20 -19 -20 -20 -19 -19 -19 -19 -18 -18 -18 -18 -17 -17 -18 -17 -17 -16 -16 -16 -16 -16 -16 -17 -16 -16 -16 -15 -15 -15 -15 -15 -15 -15 -15 -16 -15 -15 -15 -15 -14 -14 -14 -15 -15 -15 -15 -15
-26 -25 -24 -22 -21 -21 -20 -19 -19 -19 -19 -19 -19 -18 -18 -18 -18 -18 -17 -17 -18 -17 -17 -17 -16 -16 -16 -16 -16 -16 -16 -16 -15 -15 -15 -15 -15 -15 -15 -15 -15 -15 -15 -15 -14 -14 -14 -14 -14 -14 -14 -14 -14 -15
-26 -25 -23 -22 -21 -20 -19 -19 -19 -20 -20 -19 -19 -18 -18 -18 -19 -18 -18 -17 -18 -18 -17 -17 -17 -16 -17 -16 -16 -16 -16 -16 -15 -15 -15 -15 -15 -15 -15 -15 -15 -15 -14 -15 -15 -14 -14 -14 -14 -14 -15 -15 -15 -15
-26 -25 -23 -22 -21 -20 -19 -19 -19 -19 -20 -20 -19 -19 -19 -19 -19 -19 -18 -18 -18 -18 -18 -17 -17 -16 -16 -16 -17 -16 -16 -16 -16 -15 -15 -15 -15 -14 -14 -14 -15 -15 -15 -15 -14 -14 -14 -14 -14 -15 -15 -15 -15 -15
-25 -25 -23 -22 -20 -20 -19 -19 -19 -19 -20 -19 -19 -19 -19 -19 -19 -19 -19 -19 -18 -18 -17 -17 -17 -17 -17 -16 -16 -16 -16 -16 -16 -16 -15 -15 -15 -14 -15 -15 -15 -15 -15 -14 -14 -14 -15 -15 -15 -15 -15 -15 -15 -15
-25 -25 -23 -21 -20 -20 -19 -19 -19 -19 -19 -19 -19 -19 -19 -19 -20 -19 -19 -19 -19 -18 -17 -17 -17 -17 -17 -17 -17 -16 -16 -16 -16 -15 -16 -15 -15 -15 -15 -15 -15 -15 -15 -15 -15 -15 -15 -15 -16 -16 -16 -16 -16 -16
-25 -25 -23 -22 -21 -20 -19 -19 -19 -19 -20 -19 -19 -18 -19 -20 -20 -20 -20 -19 -18 -18 -17 -17 -17 -17 -17 -17 -17 -17 -16 -16 -16 -16 -16 -16 -16 -16 -16 -16 -16 -16 -16 -16 -16 -16 -16 -16 -16 -16 -16 -16 -16 -17
-25 -24 -23 -22 -21 -20 -20 -20 -20 -20 -19 -19 -19 -19 -21 -21 -20 -20 -19 -18 -18 -18 -17 -17 -18 -18 -18 -17 -17 -17 -17 -17 -17 -16 -16 -16 -16 -17 -16 -16 -16 -16 -16 -16 -16 -16 -16 -16 -16 -16 -17 -17 -18 -18
-25 -24 -24 -22 -21 -20 -20 -20 -20 -20 -20 -19 -20 -20 -20 -20 -19 -18 -17 -17 -17 -17 -17 -18 -18 -18 -18 -18 -18 -18 -17 -17 -17 -17 -16 -16 -17 -17 -17 -16 -16 -16 -16 -16 -16 -16 -17 -17 -17 -18 -18 -18 -18 -18
-26 -25 -24 -22 -21 -20 -20 -20 -20 -20 -20 -20 -20 -19 -20 -19 -18 -18 -18 -18 -18 -19 -19 -19 -19 -19 -19 -19 -18 -18 -18 -18 -17 -17 -17 -17 -17 -17 -17 -17 -17 -17 -17 -17 -17 -17 -17 -17 -18 -18 -18 -18 -18 -18
-26 -25 -24 -22 -21 -21 -20 -20 -20 -20 -20 -20 -20 -19 -19 -18 -18 -18 -18 -19 -19 -19 -19 -19 -19 -19 -19 -19 -19 -18 -18 -18 -18 -18 -18 -18 -18 -18 -17 -17 -17 -17 -17 -17 -17 -17 -18 -18 -18 -18 -18 -18 -18 -18
-26 -25 -24 -23 -22 -22 -21 -21 -21 -20 -20 -20 -20 -19 -19 -19 -18 -19 -19 -19 -19 -19 -19 -19 -19 -19 -19 -19 -18 -18 -18 -18 -18 -18 -19 -19 -18 -18 -18 -18 -18 -18 -18 -18 -18 -18 -18 -18 -18 -18 -18 -18 -18 -19
-26 -25 -25 -24 -23 -23 -22 -22 -21 -21 -21 -20 -20 -19 -19 -19 -19 -19 -20 -19 -19 -19 -19 -19 -19 -19 -19 -19 -18 -18 -19 -19 -19 -19 -19 -19 -19 -18 -18 -18 -18 -18 -19 -19 -18 -18 -18 -19 -19 -19 -19 -19 -19 -19
-27 -26 -26 -25 -24 -23 -23 -23 -23 -22 -21 -20 -20 -20 -20 -20 -20 -20 -20 -20 -20 -19 -19 -19 -20 -19 -19 -19 -19 -19 -19 -19 -19 -19 -19 -19 -19 -19 -19 -19 -19 -19 -19 -19 -19 -19 -19 -19 -19 -19 -19 -19 -19 -19
-27 -26 -26 -26 -24 -23 -24 -23 -23 -23 -22 -21 -20 -20 -20 -20 -20 -20 -20 -20 -20 -20 -20 -20 -20 -19 -19 -19 -20 -20 -20 -19 -19 -19 -20 -20 -20 -19 -19 -19 -19 -19 -19 -19 -19 -20 -19 -19 -19 -19 -19 -19 -19 -19
-28 -27 -26 -26 -26 -25 -24 -24 -24 -23 -22 -22 -21 -21 -20 -21 -20 -21 -20 -20 -20 -20 -20 -20 -20 -20 -20 -20 -20 -20 -20 -20 -20 -20 -20 -20 -20 -20 -20 -20 -20 -20 -20 -20 -20 -20 -19 -19 -19 -20 -20 -20 -19 -20
-29 -28 -27 -26 -26 -26 -25 -25 -24 -24 -23 -23 -22 -22 -21 -21 -21 -21 -21 -21 -21 -21 -21 -21 -20 -20 -20 -20 -20 -20 -20 -20 -20 -20 -20 -20 -20 -20 -20 -20 -20 -20 -20 -20 -20 -20 -20 -20 -20 -20 -20 -20 -20 -20
-29 -29 -28 -27 -27 -26 -26 -26 -25 -25 -24 -24 -24 -23 -23 -23 -22 -22 -22 -21 -21 -21 -21 -21 -21 -20 -20 -20 -20 -20 -20 -20 -20 -20 -20 -20 -20 -20 -20 -20 -20 -20 -20 -20 -20 -20 -20 -20 -20 -20 -20 -20 -21 -21
-30 -30 -29 -28 -28 -27 -27 -27 -26 -26 -25 -25 -25 -24 -24 -23 -23 -23 -23 -22 -21 -21 -21 -21 -21 -21 -21 -21 -21 -20 -20 -20 -20 -21 -21 -21 -21 -21 -21 -21 -21 -21 -21 -21 -21 -21 -21 -21 -21 -21 -21 -22 -22 -23
-31 -30 -30 -29 -28 -28 -28 -27 -27 -26 -26 -25 -25 -25 -25 -24 -24 -24 -23 -23 -23 -23 -22 -22 -22 -22 -22 -22 -21 -21 -21 -21 -21 -21 -21 -21 -21 -22 -22 -22 -22 -22 -22 -22 -21 -21 -22 -22 -22 -22 -23 -23 -24 -24
-31 -31 -30 -30 -30 -29 -28 -28 -28 -27 -27 -26 -26 -25 -25 -25 -25 -25 -24 -24 -24 -24 -24 -23 -23 -23 -23 -23 -23 -23 -23 -23 -23 -23 -23 -23 -23 -23 -23 -23 -23 -23 -23 -23 -23 -23 -23 -23 -23 -24 -24 -24 -25 -25
-32 -32 -31 -31 -31 -30 -30 -29 -29 -28 -28 -27 -27 -26 -26 -26 -26 -25 -25 -25 -25 -25 -25 -25 -25 -24 -24 -24 -24 -24 -24 -24 -24 -24 -24 -24 -24 -24 -24 -24 -24 -24 -24 -24 -24 -24 -24 -25 -25 -25 -25 -26 -26 -26
-32 -32 -33 -32 -32 -32 -32 -31 -31 -30 -29 -29 -28 -27 -27 -27 -26 -26 -26 -26 -26 -26 -25 -25 -25 -25 -25 -25 -25 -25 -25 -25 -25 -25 -26 -26 -26 -25 -25 -25 -25 -25 -25 -25 -25 -26 -26 -26 -26 -26 -26 -26 -26 -27
-32 -32 -32 -33 -33 -33 -33 -33 -33 -32 -31 -30 -30 -29 -28 -28 -27 -27 -27 -27 -27 -27 -27 -27 -27 -27 -27 -27 -27 -27 -27 -27 -27 -27 -27 -27 -26 -26 -26 -26 -26 -26 -27 -27 -27 -27 -27 -27 -27 -27 -27 -27 -28 -29
-33 -33 -33 -33 -33 -33 -33 -33 -34 -33 -33 -32 -31 -31 -30 -30 -29 -29 -28 -29 -29 -28 -28 -28 -28 -28 -28 -28 -28 -28 -28 -28 -28 -28 -28 -28 -27 -27 -27 -27 -28 -28 -28 -28 -28 -28 -28 -27 -27 -27 -28 -29 -29 -29
-33 -33 -33 -34 -34 -34 -34 -34 -34 -34 -34 -33 -33 -32 -32 -31 -31 -31 -30 -30 -30 -29 -29 -29 -29 -29 -29 -29 -29 -29 -29 -29 -29 -29 -29 -28 -28 -28 -29 -29 -29 -29 -28 -28 -28 -28 -28 -28 -29 -30 -30 -30 -30 -30
-33 -33 -33 -33 -34 -34 -34 -34 -34 -34 -34 -34 -34 -33 -33 -32 -32 -32 -32 -32 -31 -31 -30 -30 -30 -30 -30 -30 -30 -30 -29 -29 -29 -29 -29 -30 -30 -30 -29 -29 -29 -29 -29 -29 -29 -29 -30 -30 -30 -30 -30 -30 -30 -30
-32 -33 -33 -33 -34 -34 -34 -34 -35 -35 -35 -35 -34 -34 -34 -33 -33 -33 -32 -32 -32 -32 -32 -32 -31 -31 -31 -31 -31 -30 -30 -31 -31 -31 -30 -30 -30 -30 -30 -30 -29 -29 -30 -30 -30 -31 -30 -30 -30 -30 -30 -30 -30 -31
-32 -32 -33 -33 -33 -34 -34 -34 -35 -35 -35 -35 -35 -34 -34 -34 -34 -33 -33 -33 -33 -33 -32 -32 -32 -32 -32 -31 -31 -31 -31 -31 -31 -31 -31 -31 -31 -30 -30 -30 -31 -31 -31 -31 -31 -31 -30 -30 -30 -30 -31 -31 -31 -31

GFSWCAN_500_temp_015.txt.gz
Temp
-26 -26 -25 -24 -23 -21 -21 -20 -21 -20 -20 -20 -19 -19 -19 -19 -17 -17 -17 -16 -16 -16 -16 -16 -16 -15 -15 -15 -15 -15 -15 -16 -16 -16 -16 -15 -16 -16 -16 -16 -15 -16 -15 -15 -15 -15 -15 -15 -15 -15 -15 -15 -15 -15
-26 -26 -25 -24 -23 -21 -21 -21 -21 -20 -20 -20 -19 -19 -19 -19 -18 -17 -17 -17 -17 -16 -16 -16 -16 -15 -15 -15 -15 -15 -15 -15 -16 -16 -15 -16 -16 -16 -15 -15 -15 -15 -15 -15 -15 -15 -15 -15 -15 -15 -15 -15 -15 -15
-26 -26 -25 -24 -23 -21 -21 -21 -20 -20 -20 -20 -19 -19 -19 -18 -18 -17 -17 -17 -17 -17 -16 -16 -16 -16 -15 -15 -15 -15 -15 -15 -15 -15 -15 -15 -15 -15 -15 -15 -15 -15 -16 -15 -15 -15 -15 -15 -16 -16 -16 -15 -15 -15
-26 -26 -25 -24 -23 -21 -21 -21 -20 -21 -20 -20 -19 -19 -19 -19 -19 -18 -18 -17 -17 -17 -16 -17 -17 -16 -16 -15 -15 -15 -15 -16 -15 -15 -15 -15 -15 -15 -15 -15 -15 -15 -15 -15 -15 -15 -16 -16 -15 -15 -15 -15 -15 -15
-26 -26 -25 -24 -23 -21 -21 -21 -20 -20 -20 -20 -20 -20 -20 -19 -19 -18 -18 -18 -17 -17 -17 -17 -17 -17 -16 -16 -15 -15 -15 -15 -15 -15 -15 -15 -15 -15 -15 -15 -15 -15 -16 -15 -16 -16 -15 -15 -15 -15 -15 -15 -15 -15
-26 -26 -25 -24 -23 -21 -21 -20 -20 -21 -20 -20 -20 -19 -19 -20 -19 -19 -18 -18 -17 -17 -17 -17 -17 -17 -16 -16 -16 -16 -15 -16 -16 -16 -16 -15 -15 -15 -15 -16 -16 -16 -15 -15 -15 -15 -15 -14 -15 -15 -15 -14 -14 -14
-26 -26 -25 -24 -23 -21 -20 -20 -20 -20 -20 -20 -20 -19 -19 -19 -19 -19 -18 -18 -18 -18 -17 -17 -17 -17 -17 -17 -16 -16 -17 -17 -17 -16 -16 -16 -15 -15 -15 -15 -15 -15 -15 -15 -15 -15 -15 -14 -14 -14 -14 -14 -14 -14
-26 -26 -25 -24 -23 -21 -20 -20 -20 -20 -20 -20 -20 -19 -19 -19 -20 -19 -18 -19 -19 -18 -18 -18 -17 -17 -17 -17 -16 -16 -16 -17 -17 -16 -16 -16 -16 -15 -15 -16 -16 -16 -15 -15 -15 -14 -14 -14 -14 -14 -14 -14 -14 -14
-25 -25 -25 -24 -23 -21 -20 -20 -20 -20 -20 -20 -20 -19 -19 -19 -19 -19 -19 -19 -19 -19 -19 -17 -17 -17 -17 -17 -17 -17 -17 -17 -16 -16 -16 -15 -15 -15 -15 -16 -15 -15 -15 -15 -15 -15 -14 -14 -15 -14 -14 -15 -15 -16
-25 -25 -25 -24 -23 -21 -20 -20 -20 -20 -20 -20 -20 -19 -19 -19 -19 -19 -20 -20 -19 -19 -18 -18 -17 -17 -18 -17 -17 -17 -16 -16 -16 -16 -16 -15 -15 -16 -15 -16 -15 -15 -15 -15 -15 -15 -15 -15 -15 -15 -15 -15 -15 -16
-26 -26 -25 -24 -23 -21 -21 -20 -20 -20 -20 -20 -20 -19 -19 -19 -19 -19 -19 -19 -19 -18 -17 -17 -17 -18 -18 -18 -17 -17 -16 -16 -16 -15 -16 -15 -15 -16 -15 -15 -15 -15 -15 -15 -15 -15 -15 -15 -15 -16 -16 -16 -16 -16
-26 -26 -25 -24 -23 -21 -21 -20 -20 -20 -20 -20 -19 -19 -19 -19 -19 -19 -18 -18 -18 -18 -17 -17 -18 -18 -18 -18 -18 -17 -17 -17 -17 -16 -16 -15 -16 -16 -16 -16 -16 -16 -16 -16 -16 -16 -16 -16 -16 -16 -16 -16 -17 -17
-26 -26 -25 -24 -23 -21 -21 -20 -20 -20 -20 -20 -20 -20 -19 -19 -19 -18 -18 -17 -17 -17 -17 -18 -19 -18 -18 -18 -18 -18 -18 -17 -17 -16 -16 -16 -17 -17 -17 -16 -16 -16 -16 -16 -16 -16 -16 -16 -16 -16 -17 -17 -17 -17
-26 -25 -25 -24 -23 -22 -21 -21 -21 -21 -20 -20 -20 -20 -20 -19 -18 -17 -17 -17 -18 -19 -20 -20 -20 -20 -19 -19 -19 -18 -18 -18 -17 -16 -16 -17 -17 -17 -17 -17 -17 -17 -17 -17 -17 -17 -17 -17 -17 -17 -17 -17 -18 -18
-26 -25 -24 -24 -23 -22 -21 -21 -21 -21 -20 -20 -20 -20 -19 -18 -18 -18 -18 -18 -19 -20 -20 -20 -19 -20 -20 -19 -19 -19 -18 -18 -17 -17 -17 -17 -17 -17 -17 -17 -17 -17 -17 -17 -17 -17 -17 -17 -18 -18 -18 -18 -18 -18
-26 -25 -25 -24 -24 -22 -22 -22 -21 -21 -20 -20 -20 -19 -19 -18 -19 -19 -19 -19 -19 -20 -20 -20 -19 -19 -19 -19 -19 -18 -18 -18 -18 -18 -18 -18 -18 -18 -18 -17 -17 -18 -18 -18 -18 -18 -18 -18 -18 -18 -18 -18 -18 -18
-26 -26 -25 -25 -24 -23 -23 -22 -21 -22 -21 -20 -20 -19 -19 -19 -19 -19 -20 -20 -19 -19 -19 -19 -19 -19 -19 -19 -19 -19 -19 -19 -19 -19 -19 -18 -18 -18 -18 -18 -18 -18 -18 -18 -18 -18 -19 -19 -19 -19 -19 -18 -19 -19
-27 -26 -25 -25 -25 -24 -23 -22 -22 -23 -22 -21 -20 -20 -19 -19 -20 -20 -20 -20 -19 -20 -19 -20 -19 -19 -19 -19 -19 -20 -19 -19 -19 -19 -19 -19 -18 -19 -19 -19 -19 -19 -19 -19 -19 -19 -19 -19 -19 -19 -19 -19 -19 -19
-27 -26 -26 -25 -25 -24 -23 -23 -23 -23 -22 -21 -20 -20 -20 -19 -20 -20 -20 -20 -19 -20 -20 -19 -19 -19 -19 -19 -19 -20 -20 -20 -20 -19 -19 -19 -19 -19 -19 -19 -19 -19 -19 -19 -19 -19 -19 -19 -19 -19 -19 -19 -19 -19
-27 -27 -26 -26 -25 -24 -24 -23 -24 -23 -23 -22 -21 -21 -20 -20 -20 -20 -20 -20 -20 -20 -20 -19 -19 -19 -19 -20 -20 -20 -20 -20 -20 -20 -20 -20 -20 -20 -20 -19 -19 -19 -19 -20 -20 -20 -20 -20 -20 -20 -20 -20 -20 -20
-27 -27 -27 -27 -26 -25 -24 -24 -24 -24 -23 -23 -22 -22 -21 -20 -20 -20 -21 -21 -20 -20 -20 -20 -20 -20 -20 -20 -20 -20 -20 -20 -20 -20 -20 -20 -20 -20 -20 -20 -20 -20 -20 -20 -20 -20 -20 -20 -20 -20 -20 -20 -20 -20
-28 -27 -27 -27 -27 -26 -25 -25 -24 -24 -24 -24 -23 -22 -22 -21 -21 -21 -21 -21 -21 -21 -21 -21 -20 -20 -20 -20 -20 -20 -20 -20 -20 -20 -20 -20 -20 -20 -20 -20 -20 -20 -20 -20 -20 -20 -20 -20 -20 -20 -20 -20 -20 -20
-28 -28 -28 -28 -27 -27 -26 -26 -25 -24 -24 -24 -24 -23 -23 -22 -22 -22 -21 -21 -21 -21 -21 -21 -21 -21 -21 -21 -21 -21 -20 -21 -21 -21 -21 -21 -21 -21 -20 -20 -20 -20 -20 -20 -20 -20 -20 -20 -20 -20 -21 -21 -21 -21
-29 -29 -29 -28 -28 -28 -27 -27 -26 -26 -25 -25 -25 -25 -25 -25 -24 -24 -22 -22 -22 -22 -22 -22 -22 -22 -22 -21 -22 -21 -21 -21 -21 -21 -21 -21 -21 -21 -21 -21 -21 -21 -21 -21 -21 -21 -21 -21 -21 -21 -22 -22 -22 -22
-29 -29 -29 -29 -29 -29 -29 -28 -27 -27 -26 -26 -26 -25 -25 -25 -25 -24 -24 -23 -23 -23 -23 -23 -23 -22 -23 -23 -22 -22 -22 -22 -22 -22 -22 -22 -22 -22 -22 -22 -22 -21 -21 -21 -22 -22 -22 -22 -22 -22 -22 -23 -23 -23
-30 -30 -30 -30 -30 -30 -30 -29 -28 -28 -27 -27 -27 -26 -26 -26 -25 -25 -25 -25 -25 -24 -24 -24 -24 -24 -24 -23 -23 -23 -23 -23 -23 -23 -23 -22 -23 -23 -23 -23 -23 -23 -23 -23 -23 -23 -23 -23 -23 -24 -24 -24 -24 -25
-31 -31 -31 -31 -30 -30 -30 -30 -30 -29 -28 -28 -27 -27 -27 -26 -26 -26 -25 -25 -25 -25 -25 -25 -25 -25 -25 -25 -25 -25 -25 -25 -25 -24 -24 -24 -24 -24 -24 -24 -24 -24 -24 -24 -24 -24 -24 -25 -25 -25 -25 -25 -26 -26
-31 -31 -31 -31 -31 -31 -31 -31 -31 -31 -30 -29 -29 -28 -27 -27 -26 -26 -26 -26 -26 -26 -26 -26 -26 -26 -26 -26 -26 -26 -26 -25 -25 -25 -25 -25 -25 -25 -25 -25 -25 -25 -25 -26 -26 -26 -26 -26 -26 -26 -26 -27 -27 -27
-31 -31 -32 -32 -32 -32 -32 -32 -32 -32 -31 -31 -30 -30 -29 -28 -28 -27 -27 -27 -27 -27 -27 -27 -27 -26 -26 -26 -26 -26 -26 -26 -26 -26 -26 -26 -26 -26 -26 -27 -27 -27 -27 -27 -27 -26 -27 -27 -27 -28 -28 -28 -28 -28
-31 -32 -32 -32 -33 -33 -33 -33 -32 -33 -33 -32 -31 -31 -31 -30 -29 -29 -28 -28 -28 -28 -28 -28 -28 -28 -28 -28 -28 -28 -28 -27 -27 -27 -28 -28 -28 -28 -28 -28 -28 -28 -28 -28 -28 -28 -28 -28 -28 -28 -28 -28 -28 -29
-32 -32 -32 -33 -33 -33 -33 -33 -33 -33 -33 -33 -33 -32 -32 -32 -31 -31 -30 -30 -30 -30 -29 -29 -29 -29 -29 -29 -29 -29 -28 -28 -28 -28 -28 -28 -28 -29 -29 -29 -29 -29 -29 -29 -29 -29 -29 -29 -29 -29 -29 -30 -30 -30
-32 -32 -32 -32 -33 -33 -34 -34 -34 -33 -33 -33 -34 -34 -33 -33 -33 -32 -32 -31 -31 -31 -31 -31 -31 -30 -30 -30 -30 -30 -29 -29 -29 -29 -29 -30 -30 -30 -30 -30 -30 -30 -30 -29 -29 -29 -29 -30 -30 -30 -30 -30 -30 -30
-32 -32 -32 -33 -33 -33 -34 -34 -34 -34 -34 -34 -34 -34 -34 -34 -33 -33 -33 -33 -32 -32 -32 -32 -31 -31 -31 -31 -31 -31 -31 -30 -30 -30 -30 -30 -30 -30 -30 -30 -30 -30 -30 -30 -30 -30 -31 -31 -31 -30 -30 -30 -30 -31

GFSWCAN_500_temp_018.txt.gz
Temp
-26 -26 -25 -25 -24 -23 -22 -21 -21 -21 -20 -21 -21 -20 -20 -20 -20 -19 -18 -17 -17 -17 -17 -17 -16 -16 -15 -15 -15 -15 -15 -16 -16 -16 -16 -16 -16 -16 -15 -15 -15 -15 -15 -15 -15 -15 -15 -15 -15 -15 -16 -15 -15 -14
-26 -26 -25 -25 -24 -23 -21 -21 -21 -21 -20 -21 -21 -20 -20 -20 -20 -19 -18 -18 -17 -17 -17 -17 -16 -16 -16 -15 -15 -15 -15 -16 -16 -16 -16 -16 -16 -16 -16 -16 -16 -15 -15 -15 -16 -15 -15 -15 -15 -15 -15 -15 -15 -15
-26 -25 -25 -25 -25 -23 -21 -21 -21 -21 -21 -20 -21 -20 -20 -19 -19 -19 -19 -18 -18 -17 -17 -17 -16 -16 -16 -16 -15 -15 -16 -16 -16 -16 -16 -16 -16 -16 -16 -15 -16 -15 -16 -15 -16 -16 -15 -16 -15 -15 -15 -15 -16 -16
-25 -25 -25 -25 -24 -23 -21 -21 -21 -21 -20 -20 -20 -20 -20 -20 -19 -19 -19 -18 -18 -18 -17 -17 -17 -16 -16 -16 -16 -15 -15 -16 -15 -16 -16 -16 -16 -16 -16 -16 -15 -15 -15 -16 -15 -16 -16 -16 -15 -16 -16 -16 -15 -15
-25 -25 -25 -25 -24 -23 -21 -21 -21 -21 -20 -20 -20 -20 -20 -20 -20 -19 -19 -18 -18 -18 -17 -17 -17 -16 -16 -16 -16 -15 -16 -16 -16 -16 -15 -15 -15 -15 -15 -15 -15 -15 -15 -15 -15 -15 -16 -16 -16 -16 -16 -15 -15 -15
-25 -25 -25 -25 -24 -23 -22 -21 -21 -21 -20 -20 -21 -20 -20 -20 -19 -19 -19 -18 -18 -18 -17 -17 -17 -16 -16 -16 -16 -16 -15 -16 -16 -15 -15 -15 -15 -15 -15 -15 -15 -15 -15 -15 -16 -15 -16 -16 -16 -15 -15 -15 -15 -15
-24 -25 -25 -25 -24 -23 -22 -21 -21 -21 -20 -20 -20 -20 -20 -20 -19 -19 -19 -19 -18 -18 -18 -17 -17 -17 -17 -16 -16 -16 -16 -16 -16 -15 -15 -15 -15 -15 -15 -15 -16 -16 -16 -16 -16 -16 -16 -15 -15 -15 -15 -15 -14 -14
-24 -25 -25 -25 -25 -23 -22 -21 -21 -20 -20 -20 -20 -20 -20 -20 -20 -20 -19 -19 -19 -19 -18 -18 -17 -17 -17 -17 -17 -17 -16 -16 -16 -15 -16 -16 -16 -16 -16 -16 -16 -16 -16 -15 -15 -15 -15 -15 -15 -14 -14 -14 -14 -14
-24 -25 -25 -25 -24 -23 -22 -21 -20 -20 -20 -20 -21 -20 -21 -20 -20 -20 -20 -19 -19 -19 -19 -18 -18 -18 -17 -17 -17 -17 -17 -17 -16 -16 -16 -16 -16 -15 -16 -16 -16 -16 -16 -16 -15 -15 -15 -15 -14 -14 -14 -14 -14 -15
-24 -25 -25 -25 -24 -23 -21 -21 -20 -20 -20 -21 -20 -20 -20 -19 -20 -20 -20 -20 -19 -19 -18 -18 -18 -18 -18 -18 -17 -17 -17 -17 -17 -17 -16 -16 -15 -16 -16 -16 -16 -16 -16 -15 -15 -15 -15 -15 -15 -15 -15 -15 -15 -15
-25 -25 -25 -25 -24 -23 -21 -21 -21 -20 -20 -20 -20 -20 -19 -20 -20 -20 -19 -19 -19 -19 -18 -18 -18 -18 -18 -18 -18 -17 -17 -17 -16 -16 -16 -15 -15 -17 -17 -15 -15 -15 -15 -15 -15 -15 -15 -15 -15 -15 -15 -15 -16 -16
-25 -25 -25 -25 -24 -23 -21 -21 -21 -20 -21 -20 -20 -20 -21 -20 -20 -20 -19 -19 -18 -17 -17 -18 -19 -18 -18 -18 -18 -18 -18 -17 -16 -16 -16 -15 -16 -16 -16 -15 -15 -15 -15 -15 -15 -15 -16 -16 -16 -16 -16 -16 -16 -17
-25 -25 -25 -25 -24 -23 -21 -21 -20 -20 -21 -21 -21 -21 -21 -20 -20 -19 -18 -18 -17 -17 -17 -18 -19 -20 -20 -19 -19 -18 -18 -17 -17 -16 -16 -16 -17 -17 -16 -16 -16 -16 -16 -16 -16 -17 -17 -17 -17 -17 -17 -17 -17 -17
-25 -25 -25 -25 -24 -23 -22 -21 -20 -21 -21 -21 -21 -21 -21 -20 -19 -18 -18 -19 -18 -19 -19 -19 -19 -20 -19 -19 -19 -19 -18 -18 -17 -16 -17 -17 -17 -17 -17 -17 -17 -17 -17 -17 -17 -17 -17 -17 -17 -17 -17 -17 -17 -17
-25 -25 -25 -25 -24 -24 -23 -22 -21 -21 -21 -21 -21 -20 -19 -19 -19 -19 -19 -19 -19 -19 -19 -20 -20 -20 -20 -19 -19 -19 -18 -18 -17 -17 -18 -18 -18 -18 -18 -18 -17 -17 -17 -17 -18 -18 -18 -18 -17 -17 -18 -18 -18 -18
-25 -25 -25 -25 -24 -24 -24 -24 -22 -21 -21 -21 -21 -19 -19 -19 -19 -19 -19 -19 -19 -19 -20 -20 -20 -19 -19 -19 -19 -19 -18 -18 -18 -18 -18 -18 -18 -18 -18 -18 -18 -18 -18 -18 -18 -18 -18 -18 -18 -18 -18 -18 -18 -19
-25 -25 -25 -25 -25 -24 -24 -24 -23 -22 -22 -22 -21 -20 -19 -19 -19 -19 -19 -20 -20 -20 -20 -20 -20 -19 -19 -19 -19 -18 -18 -19 -19 -19 -19 -19 -19 -18 -18 -18 -18 -18 -18 -18 -18 -18 -18 -19 -19 -19 -19 -19 -19 -19
-25 -25 -25 -25 -24 -24 -24 -24 -23 -22 -22 -21 -20 -20 -20 -20 -19 -20 -20 -20 -20 -20 -20 -20 -20 -20 -19 -19 -19 -19 -20 -19 -19 -19 -19 -19 -18 -18 -18 -18 -18 -18 -18 -19 -19 -19 -19 -19 -20 -20 -20 -20 -20 -20
-25 -25 -25 -25 -25 -25 -24 -23 -23 -23 -22 -21 -21 -21 -21 -20 -20 -20 -20 -20 -20 -20 -20 -20 -20 -19 -19 -19 -19 -20 -20 -19 -19 -19 -19 -19 -19 -19 -19 -19 -19 -19 -19 -19 -19 -19 -19 -19 -20 -20 -20 -20 -20 -20
-26 -25 -25 -26 -26 -26 -25 -24 -23 -23 -23 -22 -22 -21 -21 -21 -21 -21 -20 -20 -20 -20 -20 -20 -19 -19 -20 -20 -20 -20 -20 -19 -20 -20 -20 -19 -19 -19 -19 -19 -19 -19 -19 -19 -19 -19 -19 -19 -19 -20 -20 -20 -20 -20
-26 -26 -26 -26 -26 -26 -26 -25 -24 -24 -23 -22 -22 -22 -22 -21 -21 -21 -20 -20 -20 -20 -20 -20 -20 -20 -20 -20 -20 -20 -20 -20 -20 -20 -20 -20 -20 -20 -20 -20 -20 -20 -20 -20 -20 -20 -20 -20 -20 -20 -20 -20 -20 -20
-27 -27 -26 -26 -27 -27 -26 -26 -25 -24 -24 -23 -23 -23 -23 -22 -22 -21 -21 -21 -21 -20 -20 -20 -20 -20 -20 -20 -20 -20 -20 -20 -20 -20 -20 -20 -20 -20 -20 -20 -20 -20 -20 -20 -20 -20 -20 -20 -20 -20 -20 -20 -20 -20
-28 -27 -27 -27 -27 -27 -27 -26 -26 -25 -24 -23 -23 -23 -23 -23 -22 -22 -22 -21 -21 -21 -21 -21 -21 -20 -20 -20 -20 -21 -20 -20 -21 -21 -21 -21 -21 -21 -21 -20 -20 -20 -20 -20 -20 -20 -20 -20 -20 -20 -20 -21 -21 -21
-28 -28 -27 -27 -28 -28 -28 -27 -27 -26 -25 -24 -24 -24 -23 -23 -23 -23 -22 -21 -21 -21 -22 -21 -21 -21 -21 -21 -21 -21 -21 -21 -21 -21 -21 -21 -21 -21 -21 -21 -21 -21 -21 -21 -21 -21 -21 -21 -21 -21 -21 -21 -21 -22
-29 -28 -28 -28 -28 -28 -28 -28 -28 -27 -26 -26 -25 -24 -24 -24 -24 -24 -23 -23 -22 -22 -22 -22 -22 -22 -21 -21 -21 -21 -21 -21 -21 -21 -21 -21 -21 -21 -21 -21 -21 -21 -21 -21 -21 -22 -22 -22 -22 -22 -22 -22 -22 -23
-29 -29 -28 -29 -29 -29 -29 -29 -29 -28 -27 -27 -26 -26 -25 -25 -25 -24 -24 -24 -24 -24 -23 -23 -23 -22 -22 -22 -22 -22 -22 -22 -22 -22 -22 -22 -22 -22 -22 -22 -22 -22 -22 -22 -22 -22 -23 -23 -23 -23 -23 -23 -23 -23
-30 -29 -29 -29 -29 -29 -30 -29 -30 -29 -28 -28 -27 -27 -26 -25 -25 -25 -24 -24 -24 -24 -25 -25 -24 -24 -23 -23 -23 -23 -23 -23 -23 -23 -23 -23 -23 -22 -22 -23 -23 -23 -23 -23 -24 -24 -24 -24 -24 -24 -24 -24 -24 -24
-30 -30 -30 -30 -30 -30 -30 -30 -30 -30 -29 -28 -28 -27 -27 -27 -26 -25 -25 -25 -25 -25 -25 -25 -25 -25 -25 -25 -25 -25 -25 -25 -25 -25 -25 -24 -24 -24 -24 -24 -25 -25 -25 -25 -25 -25 -25 -25 -25 -25 -25 -25 -25 -25
-31 -30 -30 -30 -31 -31 -31 -31 -31 -31 -30 -30 -29 -28 -28 -27 -27 -27 -26 -26 -26 -26 -26 -26 -26 -26 -26 -26 -26 -26 -26 -26 -26 -26 -26 -25 -25 -25 -25 -25 -26 -26 -26 -27 -26 -26 -26 -26 -26 -26 -26 -26 -27 -27
-31 -31 -31 -31 -31 -31 -32 -31 -31 -31 -31 -31 -31 -30 -29 -28 -28 -28 -27 -27 -27 -27 -27 -26 -26 -26 -26 -26 -26 -26 -26 -26 -26 -26 -26 -26 -26 -26 -26 -27 -27 -27 -27 -27 -27 -27 -28 -28 -28 -28 -28 -28 -28 -28
-31 -31 -31 -31 -32 -32 -32 -32 -32 -32 -32 -32 -32 -31 -31 -30 -29 -29 -28 -28 -28 -28 -28 -28 -28 -27 -27 -27 -27 -27 -27 -27 -27 -27 -27 -27 -27 -27 -27 -28 -28 -28 -28 -28 -28 -29 -29 -29 -29 -29 -29 -29 -29 -29
-31 -31 -31 -32 -32 -32 -32 -33 -33 -32 -32 -32 -33 -33 -32 -32 -31 -31 -30 -30 -29 -29 -29 -29 -29 -29 -29 -28 -28 -28 -28 -28 -28 -28 -28 -28 -28 -29 -29 -29 -29 -29 -29 -29 -30 -29 -29 -29 -29 -29 -29 -29 -30 -30
-31 -31 -31 -32 -32 -32 -32 -33 -33 -33 -33 -33 -33 -33 -33 -33 -33 -33 -32 -32 -31 -31 -31 -30 -30 -30 -30 -30 -30 -30 -30 -30 -30 -30 -30 -30 -30 -30 -30 -30 -30 -30 -30 -30 -29 -30 -30 -30 -30 -30 -30 -31 -30 -30

GFSWCAN_500_temp_021.txt.gz
Temp
-23 -23 -24 -24 -24 -24 -24 -22 -22 -22 -22 -21 -20 -20 -20 -20 -20 -20 -20 -19 -18 -19 -18 -17 -17 -17 -16 -16 -16 -16 -16 -16 -16 -16 -16 -16 -16 -16 -15 -15 -15 -15 -15 -15 -15 -15 -16 -15 -15 -15 -15 -15 -15 -14
-22 -23 -24 -24 -24 -24 -24 -22 -22 -22 -21 -20 -20 -20 -20 -21 -20 -20 -20 -19 -19 -18 -18 -18 -17 -17 -16 -16 -16 -16 -16 -16 -16 -16 -16 -16 -16 -16 -16 -15 -15 -15 -15 -15 -15 -16 -16 -16 -16 -15 -15 -15 -15 -15
-22 -23 -24 -24 -24 -24 -24 -22 -22 -22 -21 -20 -20 -20 -20 -20 -20 -20 -20 -19 -19 -19 -18 -17 -17 -17 -16 -16 -16 -16 -15 -16 -16 -16 -16 -16 -16 -16 -16 -16 -15 -16 -15 -16 -16 -16 -15 -16 -15 -15 -15 -15 -15 -15
-22 -23 -24 -24 -24 -24 -23 -22 -22 -22 -21 -21 -20 -20 -20 -20 -20 -20 -21 -19 -19 -18 -18 -18 -17 -17 -16 -16 -16 -16 -16 -16 -16 -16 -16 -16 -16 -16 -16 -16 -16 -16 -15 -15 -16 -16 -16 -15 -16 -16 -16 -15 -15 -15
-22 -23 -24 -24 -24 -24 -23 -22 -21 -22 -22 -21 -20 -20 -20 -20 -20 -21 -20 -19 -19 -18 -18 -18 -17 -17 -17 -16 -16 -16 -16 -16 -16 -16 -16 -16 -16 -15 -16 -16 -16 -16 -15 -15 -16 -16 -16 -16 -16 -16 -16 -16 -16 -16
-22 -23 -24 -24 -24 -24 -23 -22 -21 -21 -21 -21 -20 -21 -20 -21 -20 -20 -20 -19 -19 -19 -18 -18 -17 -17 -17 -17 -16 -16 -16 -16 -16 -16 -16 -15 -16 -16 -16 -16 -16 -15 -15 -15 -16 -16 -16 -16 -15 -16 -16 -16 -15 -15
-22 -23 -24 -25 -24 -24 -23 -22 -21 -21 -21 -20 -20 -21 -21 -21 -20 -19 -19 -19 -19 -19 -18 -18 -18 -17 -17 -17 -16 -16 -16 -16 -16 -16 -16 -16 -16 -16 -15 -15 -16 -15 -15 -16 -16 -16 -16 -16 -16 -16 -16 -15 -15 -15
-22 -23 -24 -25 -24 -25 -24 -23 -21 -21 -20 -20 -20 -21 -21 -21 -20 -20 -20 -20 -19 -19 -18 -18 -18 -18 -17 -17 -17 -17 -16 -16 -16 -16 -16 -16 -16 -15 -15 -15 -16 -16 -16 -16 -16 -16 -16 -16 -16 -16 -15 -15 -15 -15
-22 -23 -24 -25 -25 -25 -24 -23 -21 -21 -20 -20 -21 -20 -20 -20 -20 -19 -20 -20 -20 -19 -18 -18 -18 -18 -18 -17 -17 -17 -17 -16 -16 -16 -16 -16 -16 -16 -16 -16 -16 -16 -16 -16 -16 -16 -16 -16 -16 -15 -15 -15 -15 -15
-22 -23 -24 -24 -25 -25 -24 -23 -21 -21 -20 -20 -20 -21 -21 -20 -20 -20 -20 -20 -19 -19 -18 -18 -18 -18 -18 -18 -18 -17 -17 -17 -16 -16 -16 -16 -17 -17 -17 -17 -17 -16 -16 -16 -16 -16 -15 -15 -15 -15 -15 -15 -15 -15
-22 -23 -24 -24 -24 -24 -24 -23 -22 -21 -20 -20 -21 -21 -21 -21 -21 -20 -20 -20 -19 -18 -18 -18 -18 -18 -18 -18 -18 -18 -17 -17 -17 -17 -16 -16 -17 -17 -17 -16 -16 -16 -16 -16 -16 -16 -15 -15 -15 -15 -15 -16 -16 -16
-22 -23 -24 -25 -25 -24 -24 -23 -22 -21 -21 -21 -21 -21 -21 -21 -21 -21 -19 -19 -18 -18 -18 -18 -18 -19 -19 -18 -18 -18 -18 -17 -17 -16 -16 -16 -18 -17 -16 -16 -16 -16 -16 -16 -15 -16 -15 -15 -16 -16 -16 -16 -17 -17
-22 -23 -24 -24 -24 -24 -24 -23 -22 -22 -21 -21 -21 -21 -21 -21 -21 -20 -18 -18 -18 -18 -18 -19 -19 -19 -19 -18 -18 -19 -19 -18 -18 -17 -16 -17 -18 -17 -16 -16 -16 -16 -16 -16 -16 -16 -16 -16 -16 -17 -17 -17 -17 -18
-22 -22 -24 -24 -24 -24 -24 -23 -22 -21 -21 -21 -21 -21 -21 -20 -20 -18 -18 -18 -19 -19 -19 -20 -20 -20 -19 -19 -18 -18 -18 -18 -18 -17 -18 -18 -18 -17 -17 -17 -17 -16 -16 -16 -16 -16 -17 -17 -17 -17 -17 -18 -18 -18
-22 -22 -23 -24 -24 -24 -24 -23 -22 -21 -21 -21 -21 -21 -20 -19 -19 -19 -19 -19 -19 -20 -20 -20 -20 -19 -19 -19 -18 -18 -18 -18 -18 -18 -18 -18 -18 -18 -18 -18 -17 -17 -17 -17 -17 -17 -18 -18 -18 -18 -18 -18 -18 -18
-22 -23 -23 -24 -24 -24 -23 -23 -22 -22 -22 -21 -21 -21 -20 -19 -19 -19 -20 -20 -20 -20 -20 -19 -19 -19 -19 -19 -18 -18 -18 -18 -18 -18 -18 -18 -18 -18 -18 -18 -18 -18 -18 -18 -18 -18 -18 -18 -18 -18 -18 -18 -19 -19
-23 -23 -23 -24 -24 -24 -23 -23 -22 -22 -22 -22 -21 -20 -20 -19 -19 -20 -20 -20 -20 -20 -19 -19 -19 -19 -19 -19 -18 -18 -19 -19 -19 -19 -19 -19 -19 -18 -18 -18 -18 -18 -18 -18 -18 -18 -18 -18 -19 -19 -19 -19 -19 -19
-23 -23 -23 -24 -24 -24 -24 -23 -23 -23 -23 -22 -21 -21 -20 -20 -20 -20 -21 -20 -20 -20 -20 -19 -19 -19 -19 -19 -19 -20 -20 -20 -19 -19 -19 -19 -19 -19 -19 -19 -18 -18 -18 -18 -19 -19 -19 -19 -19 -19 -19 -19 -20 -20
-23 -23 -23 -24 -25 -25 -24 -24 -24 -24 -24 -23 -22 -21 -20 -21 -21 -21 -21 -21 -20 -20 -20 -20 -20 -19 -19 -20 -20 -20 -20 -20 -19 -19 -19 -19 -19 -19 -19 -19 -19 -19 -19 -18 -18 -18 -19 -19 -19 -19 -20 -20 -20 -20
-24 -24 -24 -24 -25 -25 -25 -25 -25 -25 -24 -23 -23 -22 -21 -22 -21 -21 -21 -21 -21 -21 -20 -20 -20 -20 -20 -20 -20 -20 -20 -19 -19 -19 -19 -19 -19 -19 -19 -19 -19 -19 -19 -19 -19 -19 -19 -19 -20 -20 -20 -20 -20 -20
-24 -24 -24 -25 -25 -26 -25 -25 -25 -25 -24 -23 -23 -23 -22 -22 -22 -22 -21 -21 -21 -20 -20 -20 -20 -20 -20 -20 -20 -20 -20 -19 -19 -20 -19 -19 -19 -19 -19 -19 -20 -20 -20 -20 -20 -20 -20 -20 -20 -20 -20 -20 -20 -20
-24 -25 -24 -25 -26 -26 -26 -26 -26 -26 -25 -24 -23 -23 -23 -23 -22 -22 -22 -22 -21 -21 -21 -20 -20 -20 -20 -20 -20 -20 -20 -20 -20 -20 -20 -20 -20 -20 -20 -20 -20 -20 -20 -20 -20 -20 -20 -20 -20 -20 -20 -20 -20 -20
-25 -25 -25 -26 -26 -27 -26 -26 -26 -26 -26 -25 -24 -24 -24 -23 -23 -23 -23 -22 -22 -21 -21 -21 -20 -20 -20 -20 -20 -20 -20 -20 -20 -20 -20 -20 -20 -20 -20 -20 -20 -21 -21 -21 -21 -21 -20 -21 -20 -21 -21 -21 -21 -21
-25 -25 -25 -26 -27 -27 -27 -27 -27 -27 -27 -26 -25 -24 -24 -24 -24 -23 -23 -23 -23 -22 -22 -22 -21 -20 -20 -20 -21 -20 -20 -20 -20 -20 -20 -21 -21 -21 -21 -21 -21 -21 -21 -21 -21 -21 -21 -21 -21 -21 -21 -21 -21 -21
-26 -26 -27 -27 -28 -28 -27 -27 -28 -28 -27 -27 -26 -25 -25 -25 -25 -24 -23 -23 -23 -23 -22 -22 -22 -21 -21 -21 -21 -21 -21 -21 -21 -21 -21 -21 -21 -21 -21 -21 -21 -21 -21 -21 -21 -21 -21 -21 -21 -21 -21 -21 -21 -22
-26 -27 -28 -29 -29 -28 -28 -28 -28 -28 -28 -28 -27 -27 -26 -26 -25 -25 -24 -23 -24 -24 -23 -22 -22 -22 -22 -22 -21 -21 -21 -21 -21 -21 -21 -21 -21 -21 -21 -21 -22 -22 -21 -21 -21 -22 -22 -22 -22 -22 -22 -23 -23 -23
-27 -28 -29 -30 -30 -29 -29 -29 -29 -29 -29 -29 -28 -27 -27 -26 -26 -26 -25 -24 -24 -24 -24 -23 -23 -23 -23 -23 -22 -22 -22 -22 -22 -22 -22 -22 -22 -22 -22 -23 -22 -22 -22 -22 -23 -23 -23 -23 -23 -24 -24 -24 -24 -24
-28 -29 -30 -30 -30 -30 -30 -29 -29 -29 -29 -30 -29 -28 -28 -27 -27 -26 -26 -25 -25 -24 -24 -24 -24 -24 -24 -24 -24 -23 -23 -23 -23 -23 -23 -23 -24 -24 -24 -23 -23 -23 -23 -23 -24 -24 -24 -25 -25 -25 -25 -25 -25 -25
-30 -30 -31 -31 -30 -30 -30 -30 -30 -30 -30 -30 -30 -29 -29 -28 -28 -27 -26 -26 -26 -25 -25 -25 -25 -25 -25 -25 -25 -25 -25 -25 -25 -25 -25 -25 -25 -25 -25 -25 -25 -25 -25 -25 -25 -26 -26 -26 -26 -26 -26 -26 -26 -26
-30 -31 -31 -31 -31 -31 -31 -31 -31 -31 -31 -30 -30 -30 -30 -29 -28 -28 -28 -27 -27 -26 -26 -26 -26 -26 -26 -26 -25 -26 -26 -26 -26 -26 -26 -26 -26 -25 -26 -26 -26 -26 -26 -26 -26 -26 -26 -27 -27 -27 -27 -27 -27 -27
-30 -31 -31 -31 -31 -31 -31 -32 -32 -32 -32 -31 -31 -31 -31 -30 -29 -29 -28 -28 -28 -27 -27 -27 -26 -26 -26 -26 -26 -26 -26 -27 -26 -27 -27 -27 -27 -27 -27 -27 -27 -27 -27 -27 -27 -27 -27 -27 -28 -28 -28 -28 -28 -28
-31 -31 -31 -31 -31 -31 -32 -32 -32 -32 -32 -32 -32 -32 -32 -32 -31 -30 -30 -29 -29 -29 -28 -28 -28 -28 -28 -27 -27 -27 -27 -27 -27 -27 -27 -27 -27 -27 -27 -27 -28 -28 -28 -28 -28 -28 -28 -29 -29 -29 -29 -29 -29 -29
-31 -31 -31 -31 -31 -31 -32 -32 -33 -33 -33 -33 -33 -32 -32 -33 -33 -32 -31 -31 -31 -30 -30 -30 -29 -29 -29 -29 -28 -28 -28 -28 -28 -28 -28 -28 -28 -28 -28 -29 -29 -29 -29 -29 -29 -30 -30 -30 -29 -30 -30 -30 -30 -30

GFSWCAN_500_temp_024.txt.gz
Temp
-21 -21 -21 -21 -22 -22 -22 -22 -21 -22 -21 -21 -21 -21 -21 -21 -20 -20 -20 -20 -20 -20 -19 -18 -18 -18 -17 -17 -17 -16 -17 -17 -17 -17 -16 -17 -16 -16 -16 -16 -16 -15 -15 -15 -16 -15 -15 -15 -15 -15 -15 -15 -15 -15
-21 -21 -21 -21 -22 -22 -23 -22 -21 -21 -21 -21 -21 -20 -20 -20 -21 -21 -20 -20 -20 -20 -19 -18 -18 -18 -17 -17 -16 -16 -16 -16 -16 -17 -16 -17 -17 -16 -16 -16 -16 -16 -16 -15 -15 -15 -15 -15 -16 -16 -16 -16 -15 -15
-21 -21 -21 -21 -23 -23 -23 -22 -21 -21 -21 -21 -21 -21 -21 -20 -21 -21 -21 -20 -20 -20 -19 -18 -18 -18 -17 -16 -16 -16 -16 -16 -16 -16 -17 -17 -16 -17 -16 -16 -16 -16 -16 -16 -15 -15 -16 -16 -16 -16 -16 -16 -16 -16
-21 -21 -21 -22 -23 -24 -24 -23 -22 -21 -21 -20 -20 -21 -21 -21 -21 -21 -21 -20 -20 -19 -19 -18 -18 -17 -17 -17 -16 -16 -16 -16 -16 -16 -16 -16 -16 -16 -16 -16 -16 -16 -16 -16 -16 -16 -16 -16 -16 -16 -16 -16 -16 -16
-21 -21 -21 -22 -23 -24 -24 -24 -23 -22 -21 -20 -20 -21 -21 -21 -21 -20 -20 -20 -20 -19 -19 -18 -18 -17 -17 -17 -16 -16 -16 -16 -16 -16 -17 -17 -16 -16 -16 -16 -16 -16 -16 -16 -16 -15 -16 -16 -16 -16 -16 -16 -16 -16
-21 -21 -21 -21 -23 -24 -24 -24 -23 -22 -22 -20 -21 -21 -21 -21 -21 -21 -20 -20 -20 -19 -19 -18 -18 -17 -18 -17 -17 -16 -16 -16 -16 -16 -16 -17 -16 -16 -16 -16 -16 -16 -16 -16 -15 -16 -16 -16 -16 -16 -16 -16 -16 -16
-21 -21 -21 -21 -23 -24 -24 -24 -22 -22 -22 -20 -21 -21 -21 -21 -21 -20 -20 -20 -20 -19 -19 -19 -18 -17 -17 -17 -17 -16 -16 -16 -16 -16 -16 -16 -16 -16 -16 -16 -16 -16 -16 -15 -15 -16 -16 -16 -16 -16 -16 -16 -16 -16
-21 -21 -21 -21 -23 -23 -24 -23 -22 -21 -22 -20 -20 -21 -21 -21 -21 -21 -21 -20 -20 -20 -19 -18 -18 -18 -18 -17 -17 -17 -17 -16 -16 -16 -16 -16 -16 -16 -16 -16 -16 -16 -16 -15 -16 -16 -16 -16 -16 -16 -16 -16 -16 -15
-21 -21 -21 -21 -23 -24 -24 -24 -23 -21 -21 -20 -20 -21 -21 -21 -21 -21 -21 -20 -20 -20 -19 -18 -18 -18 -18 -18 -18 -17 -17 -17 -17 -16 -16 -16 -16 -16 -16 -16 -16 -16 -16 -16 -16 -16 -16 -16 -16 -16 -16 -16 -16 -15
-21 -21 -21 -22 -23 -24 -24 -23 -22 -21 -21 -21 -20 -21 -21 -21 -21 -21 -21 -21 -20 -19 -18 -18 -18 -18 -18 -18 -18 -18 -18 -17 -17 -17 -17 -16 -16 -16 -16 -16 -16 -16 -16 -16 -16 -16 -16 -16 -16 -16 -16 -15 -15 -15
-21 -21 -22 -22 -23 -23 -23 -23 -22 -21 -21 -21 -21 -21 -21 -21 -21 -21 -21 -20 -19 -18 -18 -18 -19 -18 -18 -18 -18 -18 -17 -17 -17 -17 -17 -17 -17 -17 -17 -16 -16 -16 -16 -16 -16 -16 -16 -16 -16 -16 -16 -15 -15 -15
-22 -21 -22 -22 -23 -23 -23 -23 -22 -22 -21 -21 -21 -21 -21 -21 -21 -21 -20 -20 -19 -18 -18 -18 -19 -19 -19 -18 -18 -18 -18 -18 -17 -18 -17 -17 -17 -17 -17 -17 -17 -17 -16 -16 -16 -16 -16 -16 -16 -16 -16 -16 -16 -16
-22 -22 -22 -22 -23 -23 -23 -23 -22 -22 -21 -21 -21 -21 -21 -21 -21 -20 -19 -18 -18 -18 -18 -19 -20 -19 -19 -19 -18 -18 -18 -18 -18 -17 -18 -18 -17 -16 -16 -17 -17 -17 -17 -16 -16 -16 -16 -16 -16 -16 -17 -17 -17 -17
-22 -22 -22 -22 -22 -23 -23 -23 -23 -23 -22 -22 -21 -21 -21 -21 -20 -19 -18 -18 -20 -20 -20 -20 -20 -20 -19 -19 -19 -19 -19 -18 -18 -18 -18 -18 -18 -17 -17 -17 -17 -16 -16 -16 -16 -16 -16 -17 -17 -17 -17 -17 -17 -18
-22 -22 -22 -21 -22 -23 -23 -24 -24 -23 -23 -22 -22 -21 -21 -20 -20 -19 -19 -19 -20 -20 -20 -20 -20 -20 -20 -19 -19 -18 -19 -18 -18 -19 -18 -18 -18 -18 -18 -17 -17 -17 -17 -17 -17 -17 -17 -17 -17 -17 -17 -18 -18 -18
-22 -22 -22 -21 -21 -22 -23 -23 -24 -23 -23 -22 -22 -21 -21 -20 -19 -20 -20 -20 -21 -20 -20 -20 -19 -19 -19 -20 -19 -19 -18 -18 -19 -19 -19 -19 -19 -18 -18 -18 -18 -18 -18 -18 -18 -17 -17 -18 -18 -18 -18 -18 -18 -18
-23 -22 -22 -22 -22 -22 -23 -23 -23 -23 -23 -22 -22 -21 -21 -20 -20 -20 -20 -20 -21 -20 -20 -20 -19 -19 -19 -20 -19 -19 -19 -19 -19 -19 -19 -19 -19 -19 -18 -18 -18 -18 -18 -18 -18 -18 -18 -18 -18 -18 -18 -18 -19 -19
-23 -23 -23 -23 -22 -22 -23 -23 -23 -23 -23 -22 -22 -21 -21 -21 -21 -20 -21 -21 -20 -20 -20 -20 -20 -20 -19 -19 -19 -20 -20 -20 -20 -20 -20 -20 -19 -19 -19 -19 -19 -18 -18 -18 -18 -18 -18 -18 -18 -19 -19 -19 -19 -20
-23 -23 -23 -23 -22 -22 -23 -23 -23 -23 -23 -23 -23 -22 -21 -21 -21 -21 -21 -21 -21 -21 -20 -20 -20 -19 -19 -20 -20 -20 -19 -19 -19 -20 -20 -20 -20 -19 -19 -19 -19 -19 -19 -19 -18 -18 -19 -19 -19 -19 -19 -20 -20 -20
-23 -23 -23 -23 -23 -22 -23 -24 -24 -24 -24 -23 -23 -22 -22 -21 -22 -22 -22 -21 -21 -21 -20 -20 -20 -20 -20 -20 -20 -20 -20 -20 -20 -20 -20 -20 -20 -20 -19 -19 -19 -19 -19 -19 -19 -19 -19 -19 -19 -20 -20 -20 -20 -20
-24 -23 -23 -23 -23 -23 -24 -24 -25 -24 -24 -25 -24 -23 -22 -22 -22 -22 -22 -22 -22 -21 -20 -20 -21 -21 -21 -20 -20 -20 -20 -20 -20 -20 -20 -20 -20 -20 -20 -19 -19 -19 -20 -20 -19 -19 -19 -20 -20 -20 -20 -20 -20 -20
-24 -24 -24 -24 -23 -24 -24 -24 -25 -25 -25 -25 -26 -24 -23 -23 -23 -23 -23 -23 -22 -21 -21 -21 -21 -21 -21 -20 -20 -20 -20 -20 -20 -20 -20 -20 -20 -20 -20 -20 -20 -20 -20 -20 -20 -20 -20 -20 -20 -20 -20 -20 -21 -21
-24 -24 -24 -24 -24 -24 -25 -25 -26 -26 -26 -26 -26 -25 -24 -24 -24 -23 -23 -23 -22 -22 -21 -21 -21 -21 -21 -21 -20 -20 -20 -20 -20 -20 -20 -20 -20 -20 -20 -20 -20 -20 -20 -20 -20 -20 -20 -21 -21 -21 -21 -21 -21 -21
-24 -24 -24 -24 -24 -25 -25 -26 -27 -26 -26 -27 -27 -26 -25 -24 -24 -24 -23 -23 -22 -22 -22 -22 -21 -21 -21 -21 -21 -21 -20 -20 -20 -20 -20 -20 -20 -20 -20 -20 -21 -20 -20 -20 -20 -21 -21 -21 -21 -21 -21 -21 -21 -21
-24 -25 -24 -24 -25 -26 -26 -27 -28 -27 -27 -27 -27 -27 -26 -25 -24 -24 -24 -23 -23 -23 -23 -22 -22 -22 -21 -21 -21 -21 -21 -21 -21 -21 -21 -21 -21 -21 -21 -21 -21 -21 -21 -21 -21 -21 -21 -21 -21 -22 -22 -22 -22 -22
-24 -24 -24 -25 -26 -27 -27 -28 -28 -28 -27 -27 -28 -28 -27 -26 -25 -25 -25 -24 -24 -24 -23 -23 -23 -22 -22 -22 -21 -21 -21 -21 -21 -21 -21 -21 -21 -21 -21 -21 -21 -21 -21 -21 -22 -21 -21 -22 -22 -22 -22 -22 -22 -23
-25 -24 -25 -26 -27 -29 -29 -29 -29 -28 -28 -28 -28 -28 -28 -27 -27 -26 -25 -25 -25 -25 -24 -24 -24 -23 -23 -22 -22 -22 -22 -21 -21 -21 -21 -21 -21 -21 -21 -21 -21 -21 -22 -22 -22 -22 -22 -23 -23 -23 -23 -23 -24 -24
-25 -25 -26 -27 -29 -29 -30 -30 -29 -29 -29 -28 -29 -29 -29 -28 -28 -27 -26 -25 -25 -25 -25 -24 -24 -24 -24 -23 -23 -23 -22 -22 -22 -22 -22 -22 -22 -22 -22 -22 -22 -22 -22 -22 -23 -23 -23 -24 -24 -24 -24 -25 -25 -25
-25 -25 -27 -28 -29 -30 -31 -31 -30 -30 -29 -29 -29 -29 -29 -29 -29 -28 -27 -26 -26 -26 -25 -25 -24 -24 -24 -24 -24 -24 -24 -24 -23 -23 -23 -23 -23 -23 -24 -24 -24 -24 -24 -24 -24 -24 -24 -25 -25 -25 -25 -25 -25 -26
-26 -27 -28 -29 -30 -31 -31 -31 -31 -30 -29 -29 -30 -30 -30 -30 -30 -29 -28 -28 -27 -26 -26 -25 -25 -24 -24 -24 -24 -24 -25 -25 -25 -25 -25 -25 -25 -25 -25 -25 -24 -24 -24 -25 -25 -25 -25 -26 -26 -26 -26 -26 -26 -26
-27 -28 -29 -30 -31 -31 -31 -31 -31 -30 -30 -30 -30 -31 -31 -30 -30 -30 -29 -29 -28 -27 -27 -26 -26 -26 -25 -25 -25 -25 -25 -25 -25 -25 -26 -26 -26 -26 -26 -26 -26 -26 -26 -26 -26 -26 -26 -26 -26 -27 -27 -27 -27 -27
-28 -29 -29 -30 -31 -31 -31 -32 -31 -31 -31 -31 -31 -31 -31 -31 -31 -31 -30 -30 -29 -28 -28 -27 -27 -27 -27 -26 -26 -26 -26 -26 -27 -27 -27 -27 -27 -27 -27 -27 -27 -27 -27 -27 -27 -27 -27 -27 -27 -27 -28 -28 -28 -28
-29 -29 -30 -30 -31 -32 -31 -32 -32 -32 -32 -32 -31 -31 -31 -32 -32 -32 -31 -31 -30 -30 -29 -29 -28 -28 -27 -27 -27 -27 -27 -28 -27 -28 -28 -28 -28 -28 -28 -28 -28 -28 -28 -28 -28 -28 -28 -28 -28 -28 -28 -29 -29 -29

GFSWCAN_500_temp_027.txt.gz
Temp
-20 -20 -20 -20 -20 -20 -21 -22 -22 -21 -21 -21 -21 -21 -20 -20 -20 -21 -20 -20 -20 -20 -20 -20 -20 -19 -18 -18 -18 -17 -17 -17 -17 -16 -16 -16 -16 -15 -15 -15 -15 -15 -15 -15 -15 -15 -15 -15 -15 -15 -15 -15 -15 -15
-20 -21 -20 -20 -20 -20 -21 -22 -22 -21 -21 -21 -21 -21 -20 -21 -21 -21 -20 -20 -20 -20 -20 -20 -19 -19 -18 -18 -17 -17 -17 -17 -17 -16 -16 -16 -16 -16 -16 -15 -15 -15 -15 -15 -15 -15 -15 -15 -15 -15 -15 -15 -16 -15
-21 -21 -21 -20 -20 -21 -21 -22 -22 -21 -21 -20 -21 -21 -21 -21 -20 -20 -20 -20 -20 -20 -20 -19 -19 -19 -18 -17 -17 -17 -17 -17 -17 -17 -17 -17 -17 -17 -16 -15 -15 -15 -15 -16 -15 -16 -16 -15 -16 -16 -16 -16 -16 -16
-21 -21 -21 -20 -20 -21 -22 -22 -22 -21 -21 -20 -21 -21 -21 -21 -20 -20 -20 -20 -20 -20 -20 -20 -19 -18 -18 -17 -17 -17 -16 -17 -17 -17 -17 -17 -17 -17 -16 -16 -16 -15 -16 -16 -16 -16 -16 -16 -16 -15 -16 -16 -16 -16
-21 -21 -21 -21 -20 -21 -22 -21 -21 -21 -21 -21 -20 -21 -21 -21 -21 -21 -21 -21 -20 -20 -20 -19 -19 -18 -18 -17 -17 -17 -16 -16 -16 -17 -17 -17 -17 -17 -16 -16 -16 -16 -16 -16 -15 -16 -16 -16 -16 -16 -16 -16 -16 -16
-21 -21 -21 -21 -21 -22 -23 -23 -22 -21 -21 -20 -20 -20 -21 -21 -21 -21 -21 -21 -21 -20 -19 -19 -19 -18 -18 -17 -17 -17 -17 -16 -17 -17 -17 -17 -17 -17 -16 -16 -16 -16 -16 -16 -16 -16 -16 -16 -16 -16 -16 -16 -16 -16
-21 -21 -21 -21 -21 -22 -23 -24 -23 -23 -21 -20 -20 -20 -21 -21 -21 -20 -20 -21 -20 -20 -19 -19 -19 -19 -18 -17 -17 -17 -16 -16 -16 -17 -17 -17 -17 -17 -16 -16 -16 -16 -16 -16 -16 -16 -16 -16 -16 -16 -16 -16 -16 -16
-21 -21 -21 -21 -21 -22 -23 -24 -24 -23 -21 -20 -20 -20 -21 -21 -21 -21 -21 -21 -20 -20 -19 -19 -19 -19 -18 -18 -17 -17 -16 -16 -16 -17 -16 -16 -16 -16 -16 -16 -16 -16 -16 -16 -16 -16 -16 -16 -16 -16 -16 -16 -17 -16
-21 -21 -21 -21 -21 -21 -23 -23 -24 -23 -23 -21 -20 -21 -21 -21 -21 -21 -21 -20 -20 -20 -19 -19 -19 -18 -18 -18 -18 -17 -17 -17 -17 -17 -16 -16 -16 -16 -16 -16 -16 -16 -16 -16 -16 -16 -16 -16 -16 -16 -16 -17 -16 -16
-21 -21 -21 -21 -21 -21 -22 -23 -23 -23 -23 -21 -21 -21 -21 -21 -21 -21 -21 -20 -20 -20 -19 -19 -19 -19 -18 -18 -18 -17 -18 -17 -17 -17 -17 -16 -16 -16 -16 -16 -16 -16 -16 -16 -16 -16 -16 -16 -16 -16 -16 -16 -16 -16
-21 -21 -21 -21 -21 -20 -22 -22 -23 -22 -22 -21 -21 -21 -21 -21 -21 -21 -20 -20 -20 -19 -19 -19 -19 -18 -19 -18 -18 -18 -18 -17 -17 -17 -16 -16 -16 -16 -16 -15 -16 -16 -16 -16 -17 -17 -17 -17 -17 -16 -16 -16 -16 -16
-21 -21 -21 -21 -21 -21 -21 -22 -22 -22 -22 -21 -21 -21 -21 -22 -21 -21 -21 -20 -20 -19 -19 -19 -19 -19 -19 -19 -19 -18 -18 -18 -17 -17 -17 -17 -17 -16 -16 -16 -17 -16 -17 -17 -17 -17 -17 -16 -16 -16 -16 -16 -16 -16
-21 -21 -22 -21 -21 -21 -21 -22 -22 -22 -21 -21 -21 -22 -21 -22 -21 -21 -19 -19 -19 -19 -20 -20 -20 -20 -20 -19 -19 -19 -18 -18 -18 -17 -17 -17 -17 -17 -17 -17 -17 -17 -17 -17 -17 -17 -17 -16 -16 -16 -16 -16 -16 -17
-21 -21 -22 -21 -21 -21 -21 -21 -22 -22 -21 -21 -21 -22 -22 -21 -21 -20 -19 -19 -20 -21 -21 -20 -20 -20 -20 -20 -19 -19 -19 -18 -18 -18 -18 -17 -17 -17 -17 -17 -17 -17 -17 -17 -17 -17 -17 -17 -17 -17 -17 -17 -17 -17
-21 -21 -22 -22 -21 -21 -22 -21 -22 -22 -22 -22 -22 -22 -22 -21 -20 -20 -20 -20 -21 -21 -21 -21 -20 -20 -20 -20 -19 -19 -19 -19 -18 -19 -18 -18 -18 -18 -18 -17 -17 -17 -17 -17 -17 -17 -17 -17 -17 -17 -17 -17 -18 -18
-21 -22 -22 -22 -22 -21 -21 -22 -22 -22 -22 -23 -23 -22 -22 -21 -20 -20 -20 -21 -21 -21 -21 -21 -20 -19 -19 -19 -19 -19 -19 -19 -19 -19 -19 -19 -18 -18 -18 -18 -18 -18 -18 -18 -18 -17 -17 -17 -17 -17 -18 -18 -18 -18
-21 -21 -22 -22 -22 -22 -21 -22 -22 -22 -23 -22 -23 -22 -21 -21 -21 -20 -20 -21 -21 -21 -21 -21 -20 -20 -20 -19 -19 -19 -19 -20 -19 -19 -19 -19 -19 -19 -19 -18 -18 -18 -18 -18 -18 -18 -18 -18 -18 -18 -18 -18 -18 -19
-21 -22 -22 -22 -22 -22 -22 -21 -22 -22 -23 -23 -23 -22 -22 -21 -21 -21 -21 -21 -21 -21 -21 -21 -21 -20 -19 -19 -19 -20 -20 -20 -19 -19 -19 -19 -19 -19 -19 -19 -19 -18 -18 -18 -18 -18 -18 -18 -18 -18 -19 -19 -19 -19
-22 -22 -22 -22 -22 -22 -22 -22 -21 -21 -22 -23 -23 -23 -22 -22 -21 -21 -21 -22 -21 -21 -21 -21 -21 -20 -20 -20 -20 -20 -20 -19 -19 -19 -18 -18 -19 -19 -19 -19 -19 -19 -19 -19 -19 -19 -19 -19 -19 -19 -19 -19 -19 -19
-22 -22 -22 -22 -22 -22 -22 -22 -22 -22 -22 -23 -23 -23 -22 -22 -22 -22 -22 -22 -22 -22 -21 -21 -20 -20 -21 -20 -20 -20 -20 -19 -19 -19 -18 -19 -19 -19 -20 -19 -19 -19 -19 -19 -19 -19 -19 -19 -19 -19 -19 -19 -20 -20
-22 -22 -22 -23 -23 -23 -22 -22 -22 -23 -22 -23 -23 -23 -23 -23 -23 -22 -22 -22 -23 -22 -21 -20 -21 -21 -21 -21 -21 -20 -20 -19 -19 -18 -18 -19 -19 -20 -20 -20 -19 -19 -19 -19 -19 -19 -19 -19 -19 -20 -20 -20 -20 -20
-23 -22 -23 -23 -23 -23 -23 -22 -22 -23 -23 -23 -24 -24 -24 -23 -23 -23 -23 -23 -23 -22 -22 -21 -21 -21 -21 -21 -21 -21 -21 -20 -19 -19 -19 -20 -20 -20 -20 -20 -20 -20 -20 -20 -20 -20 -20 -20 -20 -20 -20 -20 -20 -21
-23 -23 -23 -23 -23 -23 -23 -22 -23 -23 -24 -24 -25 -25 -25 -25 -25 -24 -24 -24 -23 -22 -22 -21 -21 -21 -21 -21 -21 -21 -21 -21 -20 -20 -20 -20 -20 -20 -20 -20 -20 -20 -20 -20 -20 -20 -20 -20 -20 -20 -21 -21 -21 -21
-23 -23 -23 -23 -24 -24 -23 -23 -23 -24 -25 -25 -26 -26 -26 -26 -26 -25 -25 -24 -24 -23 -23 -23 -22 -22 -22 -22 -21 -21 -21 -21 -21 -20 -20 -20 -20 -20 -21 -21 -21 -20 -20 -20 -20 -20 -20 -21 -21 -21 -21 -21 -21 -21
-23 -24 -24 -24 -24 -23 -23 -23 -24 -25 -25 -26 -27 -27 -26 -27 -27 -26 -25 -24 -23 -24 -23 -23 -23 -23 -22 -22 -22 -21 -21 -21 -21 -21 -21 -20 -20 -21 -21 -21 -21 -21 -21 -21 -21 -21 -21 -21 -21 -21 -22 -22 -22 -22
-24 -24 -24 -24 -23 -23 -24 -24 -25 -26 -27 -28 -28 -28 -27 -27 -27 -27 -26 -25 -24 -24 -24 -23 -23 -23 -23 -23 -22 -22 -22 -22 -21 -21 -21 -21 -21 -21 -21 -21 -21 -21 -21 -21 -21 -21 -21 -21 -22 -22 -22 -22 -22 -22
-24 -24 -24 -24 -24 -24 -24 -25 -26 -27 -28 -29 -29 -28 -28 -27 -27 -27 -27 -26 -25 -24 -24 -24 -23 -23 -23 -23 -23 -22 -22 -22 -22 -21 -21 -21 -21 -21 -21 -21 -21 -21 -21 -21 -22 -22 -22 -22 -22 -22 -22 -23 -23 -23
-24 -24 -24 -24 -24 -25 -25 -26 -27 -28 -29 -29 -29 -28 -28 -28 -27 -28 -27 -27 -26 -25 -24 -24 -24 -23 -24 -24 -23 -23 -23 -22 -22 -22 -22 -21 -21 -21 -21 -21 -21 -21 -21 -22 -23 -23 -22 -22 -23 -23 -23 -23 -24 -24
-25 -24 -24 -24 -25 -26 -26 -27 -28 -29 -30 -30 -29 -29 -28 -28 -28 -28 -28 -28 -27 -26 -25 -25 -25 -24 -24 -24 -24 -23 -23 -23 -23 -22 -22 -22 -22 -22 -22 -22 -22 -23 -23 -24 -24 -23 -23 -23 -24 -24 -24 -24 -24 -25
-25 -25 -25 -25 -26 -26 -27 -28 -29 -30 -30 -30 -29 -29 -28 -28 -28 -28 -29 -29 -28 -27 -26 -26 -25 -25 -25 -25 -24 -24 -23 -23 -23 -23 -23 -23 -23 -23 -23 -24 -24 -25 -25 -25 -24 -24 -24 -24 -24 -24 -25 -25 -25 -26
-25 -25 -25 -26 -27 -27 -28 -29 -30 -31 -31 -30 -30 -29 -29 -29 -29 -29 -29 -30 -30 -29 -28 -27 -26 -26 -25 -25 -25 -25 -25 -24 -24 -24 -24 -24 -24 -24 -24 -25 -25 -25 -25 -25 -25 -25 -25 -25 -25 -25 -26 -26 -26 -26
-25 -26 -26 -27 -27 -28 -29 -30 -31 -31 -31 -30 -30 -30 -29 -30 -30 -30 -30 -31 -31 -30 -29 -28 -27 -27 -26 -26 -25 -25 -25 -25 -25 -25 -25 -25 -25 -25 -25 -26 -26 -25 -25 -26 -26 -26 -26 -26 -26 -26 -26 -27 -27 -27
-26 -27 -27 -28 -28 -29 -30 -31 -31 -31 -31 -31 -30 -30 -30 -31 -31 -31 -31 -31 -31 -30 -30 -29 -28 -27 -27 -27 -26 -26 -26 -26 -26 -26 -26 -26 -26 -26 -26 -26 -26 -26 -26 -26 -26 -26 -27 -27 -27 -27 -28 -28 -28 -28

GFSWCAN_500_temp_030.txt.gz
Temp
-18 -19 -19 -20 -20 -19 -19 -20 -21 -20 -21 -21 -20 -20 -21 -21 -21 -21 -21 -21 -21 -21 -20 -20 -20 -20 -19 -19 -19 -18 -18 -18 -17 -17 -16 -16 -16 -15 -16 -16 -16 -16 -16 -16 -16 -16 -16 -15 -15 -15 -15 -15 -15 -15
-18 -19 -19 -20 -20 -19 -20 -20 -21 -21 -20 -20 -20 -20 -21 -21 -20 -20 -20 -20 -20 -20 -20 -20 -20 -20 -19 -19 -19 -18 -18 -18 -17 -17 -16 -16 -16 -16 -15 -15 -16 -16 -16 -16 -16 -15 -16 -16 -16 -16 -16 -16 -16 -16
-18 -19 -19 -20 -20 -20 -20 -20 -21 -21 -21 -20 -20 -21 -21 -21 -20 -20 -21 -21 -20 -21 -20 -20 -20 -19 -19 -19 -18 -18 -18 -17 -18 -17 -17 -16 -16 -16 -16 -15 -16 -16 -16 -15 -16 -16 -16 -16 -16 -16 -16 -16 -16 -16
-18 -19 -19 -20 -20 -20 -20 -20 -21 -21 -21 -20 -20 -20 -21 -20 -20 -20 -20 -20 -20 -20 -20 -20 -20 -19 -19 -18 -18 -18 -17 -17 -17 -17 -17 -17 -17 -16 -16 -16 -16 -16 -16 -15 -15 -16 -16 -16 -16 -16 -16 -16 -16 -16
-18 -19 -19 -20 -20 -20 -20 -20 -21 -22 -22 -20 -20 -20 -21 -21 -20 -20 -20 -21 -20 -21 -20 -20 -20 -19 -19 -18 -18 -18 -17 -17 -17 -17 -17 -17 -17 -16 -16 -16 -16 -16 -16 -16 -16 -16 -16 -16 -16 -16 -16 -16 -16 -16
-19 -19 -19 -20 -20 -20 -20 -21 -22 -22 -22 -21 -20 -20 -21 -21 -21 -20 -21 -20 -20 -20 -20 -20 -19 -19 -19 -18 -18 -18 -17 -17 -16 -16 -16 -17 -16 -16 -16 -16 -16 -16 -16 -16 -16 -16 -16 -16 -16 -16 -16 -16 -16 -16
-19 -19 -19 -20 -20 -20 -20 -21 -22 -23 -23 -22 -21 -20 -21 -21 -20 -20 -20 -21 -21 -21 -20 -20 -20 -19 -19 -18 -18 -18 -17 -17 -17 -17 -17 -17 -17 -17 -16 -17 -16 -16 -16 -16 -16 -16 -16 -16 -16 -16 -16 -16 -16 -16
-19 -19 -20 -20 -20 -20 -20 -21 -22 -23 -23 -22 -21 -20 -21 -21 -21 -21 -21 -20 -21 -20 -20 -20 -20 -19 -19 -18 -18 -17 -17 -17 -17 -17 -17 -17 -17 -17 -17 -16 -16 -16 -16 -16 -16 -16 -16 -16 -16 -16 -16 -16 -16 -16
-19 -19 -20 -20 -20 -20 -20 -21 -22 -22 -22 -21 -21 -21 -21 -21 -22 -21 -21 -21 -20 -20 -19 -20 -20 -19 -19 -19 -18 -18 -17 -17 -17 -17 -17 -17 -17 -17 -17 -16 -16 -16 -16 -16 -16 -16 -16 -16 -16 -16 -16 -16 -16 -17
-19 -19 -19 -20 -20 -20 -20 -21 -22 -22 -22 -21 -20 -20 -21 -22 -22 -21 -21 -21 -20 -20 -19 -20 -20 -19 -19 -19 -18 -18 -18 -17 -17 -17 -17 -17 -16 -16 -16 -16 -16 -16 -16 -16 -16 -16 -16 -16 -16 -16 -16 -17 -17 -17
-18 -19 -20 -20 -20 -20 -21 -21 -22 -23 -23 -21 -21 -21 -21 -22 -22 -22 -21 -21 -20 -20 -20 -20 -20 -19 -19 -19 -19 -18 -18 -18 -17 -17 -17 -17 -16 -16 -16 -16 -16 -16 -16 -16 -16 -16 -16 -16 -16 -17 -17 -17 -17 -17
-18 -19 -20 -21 -20 -20 -21 -20 -22 -22 -23 -22 -21 -21 -21 -22 -22 -21 -21 -20 -20 -20 -20 -20 -20 -19 -20 -20 -19 -19 -18 -18 -17 -17 -17 -17 -16 -16 -16 -16 -15 -16 -16 -16 -17 -17 -17 -17 -17 -17 -17 -17 -17 -17
-19 -19 -20 -20 -20 -20 -20 -20 -21 -22 -22 -22 -22 -21 -22 -22 -22 -21 -20 -20 -20 -20 -21 -21 -21 -20 -20 -20 -20 -19 -19 -18 -18 -18 -17 -17 -17 -17 -16 -16 -17 -17 -17 -17 -17 -18 -18 -18 -17 -17 -17 -17 -17 -17
-19 -19 -20 -20 -20 -20 -20 -20 -20 -21 -22 -22 -22 -22 -22 -22 -21 -20 -20 -20 -21 -21 -21 -21 -21 -20 -20 -20 -20 -19 -19 -18 -18 -18 -18 -18 -17 -17 -17 -17 -17 -17 -17 -18 -18 -18 -18 -17 -17 -17 -17 -17 -17 -17
-20 -20 -20 -20 -20 -21 -21 -21 -20 -21 -21 -21 -21 -22 -21 -21 -21 -20 -20 -21 -21 -21 -21 -21 -21 -20 -20 -20 -19 -19 -19 -18 -18 -19 -19 -18 -18 -18 -18 -18 -17 -17 -17 -17 -17 -17 -17 -17 -17 -17 -17 -17 -17 -18
-20 -20 -20 -20 -20 -21 -21 -21 -21 -20 -21 -21 -21 -21 -21 -21 -21 -21 -20 -21 -21 -21 -21 -21 -21 -20 -20 -19 -19 -19 -19 -18 -19 -19 -19 -19 -18 -18 -18 -18 -18 -18 -18 -18 -18 -18 -18 -17 -18 -18 -18 -18 -18 -18
-20 -21 -21 -21 -21 -21 -21 -21 -21 -21 -21 -21 -22 -22 -22 -21 -21 -21 -20 -21 -21 -21 -21 -21 -21 -20 -20 -19 -19 -19 -19 -20 -20 -19 -19 -18 -19 -18 -18 -18 -18 -18 -18 -18 -18 -18 -18 -18 -18 -18 -18 -18 -19 -19
-20 -20 -21 -21 -21 -21 -21 -21 -21 -21 -21 -21 -22 -22 -23 -22 -22 -21 -21 -21 -21 -21 -21 -21 -21 -21 -20 -19 -20 -20 -21 -20 -20 -19 -19 -18 -18 -18 -18 -18 -18 -18 -18 -18 -18 -18 -18 -18 -18 -19 -19 -19 -19 -19
-21 -21 -21 -21 -21 -21 -21 -21 -21 -21 -21 -21 -21 -22 -22 -23 -23 -22 -22 -22 -22 -21 -21 -21 -21 -21 -20 -21 -21 -21 -20 -20 -19 -19 -18 -18 -18 -19 -19 -18 -18 -18 -18 -19 -19 -19 -19 -19 -19 -19 -19 -19 -19 -20
-21 -21 -21 -21 -21 -21 -21 -22 -22 -21 -21 -21 -22 -22 -22 -23 -23 -23 -23 -23 -23 -22 -22 -21 -21 -21 -21 -21 -21 -21 -20 -20 -19 -19 -18 -18 -19 -19 -19 -19 -19 -19 -19 -19 -19 -19 -19 -19 -19 -19 -19 -20 -20 -20
-21 -21 -21 -21 -21 -22 -21 -22 -21 -22 -22 -22 -22 -22 -22 -22 -23 -23 -23 -23 -23 -23 -23 -21 -21 -21 -21 -21 -21 -21 -21 -20 -20 -19 -19 -19 -19 -19 -19 -19 -19 -19 -20 -20 -20 -19 -19 -19 -20 -20 -20 -20 -20 -20
-22 -22 -21 -21 -22 -22 -22 -22 -22 -22 -22 -22 -22 -22 -22 -23 -23 -23 -23 -23 -23 -23 -23 -22 -21 -21 -21 -21 -21 -21 -21 -21 -20 -20 -20 -19 -19 -19 -19 -19 -20 -20 -20 -20 -20 -20 -20 -20 -20 -20 -20 -20 -20 -20
-22 -22 -22 -22 -22 -22 -22 -22 -22 -22 -22 -22 -22 -22 -23 -23 -23 -24 -24 -24 -24 -24 -23 -23 -22 -21 -21 -22 -22 -21 -21 -21 -21 -21 -20 -20 -20 -19 -20 -20 -20 -20 -20 -20 -20 -20 -20 -20 -20 -20 -20 -20 -21 -21
-23 -22 -22 -22 -23 -23 -22 -22 -22 -22 -22 -22 -23 -23 -23 -24 -24 -25 -25 -25 -25 -24 -24 -23 -23 -23 -22 -22 -22 -22 -22 -21 -21 -21 -21 -21 -21 -20 -20 -20 -21 -21 -20 -20 -21 -21 -21 -20 -20 -20 -21 -21 -21 -21
-23 -23 -22 -23 -23 -23 -23 -23 -23 -22 -23 -23 -23 -24 -24 -25 -26 -26 -26 -26 -26 -26 -24 -23 -23 -23 -23 -22 -22 -22 -22 -22 -22 -21 -21 -21 -21 -21 -20 -21 -21 -20 -21 -21 -21 -21 -21 -21 -21 -21 -21 -21 -21 -21
-23 -22 -23 -23 -23 -23 -23 -23 -23 -23 -23 -23 -24 -25 -26 -26 -27 -27 -27 -27 -27 -27 -26 -25 -24 -24 -23 -23 -22 -22 -22 -22 -22 -22 -21 -21 -21 -21 -21 -21 -21 -21 -21 -21 -21 -21 -21 -21 -21 -21 -21 -21 -22 -22
-23 -23 -23 -23 -24 -24 -23 -23 -23 -23 -23 -24 -25 -26 -27 -28 -28 -28 -27 -27 -27 -27 -27 -26 -25 -24 -24 -23 -23 -23 -23 -23 -22 -22 -22 -21 -21 -21 -21 -21 -21 -22 -22 -21 -21 -21 -21 -21 -21 -22 -22 -22 -22 -22
-23 -23 -23 -24 -24 -24 -24 -24 -24 -24 -24 -25 -26 -27 -28 -29 -29 -28 -28 -27 -27 -28 -28 -27 -26 -25 -24 -24 -23 -23 -23 -23 -23 -22 -22 -22 -22 -21 -21 -21 -21 -22 -21 -21 -21 -21 -21 -22 -22 -22 -22 -23 -23 -23
-24 -24 -24 -24 -24 -24 -24 -24 -24 -25 -26 -27 -27 -28 -29 -29 -29 -29 -28 -28 -28 -28 -28 -27 -27 -26 -25 -24 -24 -23 -23 -23 -23 -23 -23 -22 -22 -22 -22 -22 -22 -21 -21 -22 -22 -22 -22 -23 -23 -23 -23 -23 -23 -24
-24 -24 -24 -24 -24 -24 -24 -24 -25 -26 -27 -27 -28 -29 -30 -30 -29 -29 -28 -28 -27 -28 -28 -28 -27 -27 -26 -24 -24 -24 -24 -24 -24 -23 -23 -23 -23 -23 -22 -22 -22 -22 -23 -23 -23 -24 -24 -24 -24 -24 -25 -25 -25 -25
-24 -24 -24 -25 -25 -24 -24 -25 -26 -27 -28 -28 -29 -30 -30 -30 -29 -29 -28 -28 -28 -29 -29 -29 -28 -27 -27 -26 -25 -24 -24 -24 -24 -24 -24 -24 -23 -23 -23 -23 -23 -24 -24 -24 -24 -24 -25 -25 -25 -25 -25 -25 -25 -25
-24 -25 -25 -25 -25 -25 -25 -26 -27 -28 -28 -29 -30 -30 -30 -30 -29 -29 -29 -29 -29 -30 -30 -30 -30 -28 -27 -27 -26 -25 -25 -25 -25 -25 -25 -25 -24 -24 -24 -24 -24 -24 -25 -25 -25 -25 -25 -26 -25 -26 -26 -26 -26 -26
-25 -25 -25 -25 -25 -26 -26 -27 -28 -28 -29 -30 -31 -30 -30 -30 -29 -30 -30 -30 -30 -31 -32 -31 -31 -30 -29 -28 -27 -27 -26 -26 -25 -25 -25 -25 -25 -25 -24 -24 -24 -25 -26 -26 -26 -26 -26 -26 -26 -26 -26 -26 -26 -27

GFSWCAN_500_temp_033.txt.gz
Temp
-17 -17 -18 -17 -18 -18 -19 -19 -19 -20 -20 -20 -20 -21 -21 -21 -21 -21 -21 -21 -21 -21 -21 -21 -20 -20 -20 -19 -19 -19 -19 -19 -19 -18 -17 -17 -16 -16 -16 -16 -16 -16 -16 -16 -16 -16 -16 -16 -16 -16 -15 -15 -15 -16
-17 -18 -18 -17 -18 -18 -19 -19 -19 -19 -21 -20 -20 -20 -20 -20 -21 -21 -21 -21 -21 -20 -20 -20 -20 -20 -20 -19 -19 -19 -19 -19 -18 -17 -17 -17 -16 -17 -16 -16 -16 -16 -16 -16 -16 -16 -15 -15 -16 -16 -16 -16 -16 -16
-18 -18 -18 -17 -18 -18 -19 -19 -20 -19 -21 -20 -20 -20 -21 -21 -21 -21 -21 -20 -20 -20 -20 -20 -20 -20 -19 -19 -19 -19 -19 -19 -18 -18 -17 -17 -16 -16 -16 -15 -15 -15 -15 -16 -15 -16 -16 -16 -16 -16 -16 -16 -16 -16
-18 -18 -18 -17 -18 -18 -19 -19 -20 -20 -20 -21 -20 -20 -20 -21 -21 -21 -21 -20 -20 -20 -20 -20 -20 -19 -19 -19 -19 -19 -19 -18 -18 -17 -17 -16 -16 -16 -15 -15 -15 -15 -15 -16 -16 -16 -16 -16 -16 -17 -17 -16 -16 -16
-18 -18 -18 -17 -18 -18 -19 -19 -20 -20 -21 -21 -20 -20 -20 -21 -21 -21 -20 -20 -20 -20 -20 -20 -20 -19 -19 -19 -18 -18 -18 -18 -18 -17 -17 -17 -17 -16 -16 -16 -16 -15 -16 -16 -16 -16 -16 -17 -17 -16 -16 -16 -16 -16
-18 -18 -18 -18 -18 -18 -19 -19 -20 -20 -21 -22 -20 -20 -21 -21 -21 -20 -20 -20 -20 -20 -20 -20 -20 -19 -19 -19 -18 -18 -18 -17 -17 -17 -17 -17 -17 -16 -16 -17 -16 -16 -17 -17 -17 -16 -17 -17 -17 -16 -17 -16 -16 -16
-18 -18 -18 -18 -18 -19 -19 -19 -20 -20 -21 -22 -21 -20 -21 -21 -20 -21 -20 -20 -20 -20 -20 -21 -20 -19 -19 -19 -18 -18 -18 -17 -17 -17 -17 -17 -17 -16 -16 -17 -16 -16 -17 -17 -16 -16 -16 -17 -16 -16 -16 -16 -16 -16
-18 -18 -18 -18 -19 -19 -19 -19 -20 -21 -22 -22 -21 -21 -21 -21 -21 -21 -21 -21 -20 -20 -20 -20 -20 -19 -19 -19 -18 -18 -18 -17 -17 -17 -17 -17 -17 -17 -17 -16 -16 -16 -16 -16 -16 -16 -16 -16 -16 -16 -17 -16 -16 -16
-18 -18 -18 -19 -19 -19 -19 -19 -20 -21 -22 -22 -21 -21 -21 -21 -22 -21 -21 -21 -20 -20 -20 -21 -20 -20 -19 -19 -19 -18 -18 -17 -17 -17 -17 -17 -17 -17 -17 -17 -17 -17 -16 -16 -16 -16 -16 -16 -16 -16 -16 -16 -16 -16
-18 -18 -18 -19 -19 -19 -20 -20 -20 -21 -22 -22 -22 -21 -21 -22 -22 -21 -21 -21 -20 -20 -20 -21 -20 -20 -19 -19 -19 -19 -18 -18 -17 -17 -17 -17 -17 -17 -17 -17 -17 -16 -16 -16 -16 -16 -16 -16 -16 -16 -16 -16 -16 -17
-18 -18 -18 -19 -19 -20 -20 -20 -20 -21 -22 -22 -22 -21 -21 -22 -22 -21 -21 -21 -20 -20 -20 -21 -21 -20 -20 -19 -19 -19 -18 -18 -18 -17 -17 -17 -17 -17 -16 -16 -16 -16 -16 -16 -16 -16 -16 -16 -16 -16 -16 -16 -17 -17
-18 -18 -19 -19 -19 -20 -20 -20 -20 -20 -21 -21 -21 -21 -21 -22 -22 -21 -21 -21 -20 -20 -20 -21 -21 -20 -20 -20 -19 -19 -18 -18 -18 -18 -17 -17 -17 -17 -17 -17 -17 -16 -16 -16 -16 -16 -16 -17 -17 -17 -17 -17 -17 -17
-19 -18 -19 -19 -19 -20 -20 -20 -20 -20 -21 -21 -21 -21 -21 -21 -22 -21 -21 -20 -21 -21 -20 -20 -20 -20 -20 -20 -19 -19 -18 -18 -18 -18 -18 -17 -17 -17 -17 -17 -16 -16 -17 -17 -17 -17 -17 -17 -18 -18 -18 -18 -17 -17
-19 -19 -19 -19 -19 -20 -20 -20 -20 -20 -21 -21 -21 -21 -21 -21 -21 -20 -20 -20 -21 -21 -21 -21 -21 -21 -20 -20 -19 -19 -18 -19 -18 -18 -18 -18 -17 -17 -17 -17 -17 -17 -17 -17 -17 -17 -18 -18 -18 -18 -18 -18 -17 -17
-19 -19 -19 -19 -19 -20 -20 -20 -20 -20 -20 -21 -21 -21 -21 -21 -20 -20 -20 -21 -21 -21 -21 -21 -21 -21 -20 -20 -20 -19 -19 -18 -19 -19 -19 -19 -18 -18 -18 -18 -18 -17 -17 -17 -18 -18 -18 -18 -18 -18 -18 -18 -18 -18
-19 -19 -19 -19 -19 -20 -20 -20 -20 -20 -20 -20 -21 -21 -21 -22 -21 -21 -20 -21 -21 -21 -21 -21 -21 -21 -21 -20 -20 -20 -19 -19 -19 -19 -19 -19 -18 -18 -18 -18 -18 -18 -18 -18 -18 -18 -18 -18 -18 -18 -18 -18 -18 -18
-20 -20 -20 -20 -19 -20 -20 -20 -20 -20 -20 -20 -20 -21 -21 -21 -22 -21 -21 -21 -21 -21 -21 -21 -20 -20 -21 -20 -20 -20 -20 -20 -20 -20 -19 -18 -18 -18 -18 -18 -18 -18 -18 -18 -18 -18 -18 -18 -18 -18 -18 -18 -18 -18
-20 -20 -20 -20 -20 -20 -20 -20 -20 -20 -20 -21 -21 -21 -21 -21 -22 -21 -21 -21 -21 -21 -21 -21 -21 -20 -20 -20 -20 -21 -21 -20 -20 -20 -19 -19 -19 -18 -19 -19 -18 -18 -18 -18 -18 -18 -19 -19 -19 -19 -19 -19 -19 -19
-21 -21 -21 -20 -20 -20 -20 -21 -20 -21 -21 -21 -21 -21 -21 -21 -21 -22 -22 -22 -22 -22 -21 -21 -21 -20 -20 -20 -21 -21 -21 -20 -20 -19 -19 -19 -19 -19 -19 -19 -18 -18 -18 -18 -18 -19 -19 -19 -19 -19 -19 -19 -19 -19
-21 -21 -21 -20 -20 -20 -20 -21 -21 -21 -21 -21 -21 -21 -21 -21 -22 -21 -21 -22 -22 -22 -22 -21 -20 -20 -20 -20 -21 -21 -21 -21 -21 -20 -20 -19 -19 -19 -19 -19 -19 -19 -19 -19 -19 -19 -19 -19 -19 -19 -19 -20 -20 -20
-21 -22 -22 -21 -20 -20 -21 -21 -21 -21 -21 -21 -21 -21 -21 -21 -21 -21 -21 -21 -22 -23 -23 -23 -22 -20 -20 -21 -21 -21 -21 -21 -21 -21 -20 -20 -19 -19 -19 -19 -20 -19 -19 -19 -19 -19 -20 -20 -20 -20 -20 -20 -20 -20
-22 -22 -22 -21 -21 -21 -21 -21 -21 -21 -21 -21 -21 -21 -21 -21 -21 -21 -21 -21 -22 -22 -23 -24 -24 -23 -23 -22 -22 -21 -22 -21 -21 -21 -21 -20 -20 -20 -20 -20 -20 -20 -20 -19 -20 -20 -20 -20 -20 -20 -20 -20 -20 -20
-22 -22 -22 -21 -21 -21 -22 -22 -22 -22 -21 -22 -22 -22 -22 -21 -21 -21 -21 -22 -22 -22 -23 -23 -24 -24 -23 -23 -22 -22 -22 -22 -21 -21 -21 -21 -21 -21 -20 -20 -20 -20 -20 -20 -20 -20 -21 -21 -21 -20 -20 -20 -20 -20
-23 -22 -22 -21 -22 -22 -22 -22 -22 -22 -22 -23 -22 -22 -22 -22 -21 -21 -22 -22 -23 -23 -23 -24 -24 -24 -23 -23 -23 -23 -22 -22 -22 -22 -22 -21 -21 -21 -21 -21 -21 -21 -20 -20 -20 -21 -21 -21 -21 -21 -21 -21 -21 -21
-23 -23 -22 -22 -22 -22 -22 -22 -22 -23 -23 -23 -22 -22 -22 -22 -22 -22 -23 -23 -24 -25 -25 -26 -26 -25 -25 -24 -24 -23 -22 -22 -22 -22 -21 -21 -21 -21 -21 -21 -21 -21 -21 -21 -21 -21 -21 -21 -21 -21 -21 -21 -21 -21
-23 -22 -23 -23 -23 -23 -23 -23 -23 -23 -23 -23 -23 -23 -23 -23 -23 -24 -24 -25 -26 -26 -27 -27 -27 -26 -26 -25 -24 -23 -23 -22 -22 -22 -22 -22 -22 -21 -21 -21 -21 -21 -21 -21 -21 -21 -21 -21 -21 -21 -21 -21 -21 -21
-23 -23 -23 -23 -23 -23 -23 -23 -23 -23 -23 -23 -23 -23 -23 -23 -24 -25 -26 -27 -27 -27 -28 -27 -27 -27 -27 -26 -25 -24 -23 -23 -22 -22 -22 -22 -22 -22 -22 -21 -21 -21 -21 -21 -21 -22 -22 -22 -22 -22 -21 -22 -22 -22
-24 -23 -23 -23 -23 -23 -23 -23 -23 -24 -24 -24 -23 -23 -24 -24 -25 -26 -27 -28 -28 -28 -28 -28 -27 -27 -27 -28 -26 -25 -24 -24 -23 -22 -22 -22 -22 -22 -22 -22 -22 -22 -21 -21 -22 -22 -22 -22 -22 -22 -22 -22 -22 -22
-24 -24 -24 -24 -24 -24 -24 -24 -24 -24 -24 -24 -24 -24 -25 -26 -27 -27 -28 -28 -29 -29 -28 -28 -27 -27 -28 -28 -28 -27 -25 -25 -24 -23 -23 -22 -22 -22 -22 -22 -22 -22 -22 -22 -22 -22 -22 -22 -22 -22 -22 -22 -23 -23
-24 -24 -24 -24 -24 -24 -24 -24 -24 -24 -24 -24 -24 -25 -26 -27 -28 -28 -29 -29 -29 -29 -28 -28 -27 -27 -28 -28 -28 -27 -26 -25 -24 -24 -23 -23 -23 -23 -23 -22 -22 -22 -22 -22 -22 -22 -22 -23 -23 -24 -23 -24 -24 -24
-24 -24 -24 -24 -24 -24 -24 -24 -24 -24 -24 -24 -25 -26 -27 -28 -29 -29 -29 -29 -29 -28 -28 -27 -27 -28 -28 -29 -28 -27 -26 -25 -24 -24 -24 -23 -23 -23 -23 -23 -23 -23 -23 -23 -22 -23 -23 -24 -24 -24 -24 -25 -25 -25
-25 -25 -25 -25 -24 -24 -24 -25 -25 -25 -25 -25 -26 -27 -28 -29 -30 -30 -29 -29 -28 -28 -28 -28 -28 -29 -29 -29 -28 -27 -26 -25 -25 -24 -24 -24 -24 -24 -23 -23 -23 -23 -23 -23 -23 -23 -23 -24 -24 -25 -25 -25 -25 -25
-25 -25 -25 -25 -24 -25 -25 -25 -25 -25 -25 -26 -27 -28 -29 -30 -30 -30 -29 -29 -29 -29 -29 -30 -30 -30 -30 -30 -28 -27 -27 -26 -25 -25 -25 -24 -24 -24 -24 -24 -24 -24 -24 -24 -24 -24 -24 -25 -25 -25 -25 -25 -26 -26

GFSWCAN_500_temp_036.txt.gz
Temp
-17 -17 -17 -17 -17 -17 -17 -18 -18 -19 -19 -20 -20 -21 -21 -21 -21 -21 -21 -21 -21 -21 -20 -20 -20 -20 -20 -20 -20 -19 -19 -19 -19 -18 -18 -17 -17 -17 -17 -16 -17 -16 -16 -16 -16 -16 -16 -16 -16 -16 -16 -16 -16 -16
-17 -17 -17 -17 -17 -17 -17 -18 -18 -19 -19 -20 -20 -21 -21 -21 -21 -21 -21 -21 -20 -20 -20 -20 -20 -20 -20 -20 -19 -19 -19 -19 -19 -18 -17 -17 -17 -17 -17 -17 -17 -16 -16 -16 -16 -16 -16 -16 -16 -16 -16 -15 -16 -16
-17 -17 -17 -17 -17 -17 -17 -18 -18 -19 -19 -20 -20 -21 -21 -21 -21 -20 -21 -21 -20 -20 -20 -20 -20 -19 -19 -19 -19 -19 -19 -19 -19 -19 -17 -17 -17 -17 -16 -17 -16 -16 -16 -16 -16 -16 -16 -16 -16 -16 -16 -16 -16 -16
-17 -17 -18 -18 -18 -17 -17 -18 -18 -19 -19 -20 -20 -20 -20 -21 -20 -20 -20 -21 -20 -20 -20 -20 -20 -19 -19 -19 -19 -19 -19 -19 -19 -19 -17 -17 -17 -17 -16 -16 -16 -15 -15 -16 -16 -16 -16 -16 -16 -16 -16 -16 -16 -16
-17 -17 -18 -18 -18 -17 -17 -18 -18 -19 -19 -21 -21 -20 -21 -20 -20 -20 -20 -20 -20 -20 -20 -20 -20 -19 -19 -19 -19 -19 -19 -19 -18 -18 -18 -17 -17 -16 -17 -16 -16 -15 -16 -16 -16 -16 -16 -16 -17 -17 -16 -16 -17 -17
-17 -18 -18 -18 -18 -18 -18 -18 -18 -19 -20 -21 -22 -22 -21 -20 -20 -20 -20 -20 -20 -20 -20 -20 -20 -19 -19 -19 -19 -19 -19 -18 -18 -18 -17 -17 -17 -16 -16 -17 -15 -15 -16 -16 -16 -16 -16 -16 -17 -17 -16 -17 -17 -16
-17 -18 -18 -18 -18 -18 -18 -18 -19 -19 -21 -22 -22 -22 -21 -20 -20 -20 -20 -20 -20 -20 -20 -20 -20 -20 -19 -19 -19 -19 -18 -18 -18 -18 -17 -17 -16 -16 -17 -17 -15 -15 -16 -16 -16 -16 -17 -17 -16 -16 -17 -17 -16 -16
-17 -18 -18 -18 -18 -18 -18 -18 -19 -19 -21 -22 -22 -22 -21 -21 -21 -21 -21 -21 -20 -20 -20 -20 -20 -20 -19 -19 -19 -18 -18 -18 -17 -17 -17 -17 -17 -17 -17 -17 -16 -16 -16 -16 -16 -17 -17 -17 -16 -16 -16 -17 -16 -16
-18 -18 -18 -18 -18 -18 -18 -18 -19 -19 -21 -22 -22 -22 -21 -21 -21 -21 -21 -21 -20 -20 -20 -21 -20 -20 -20 -19 -19 -18 -18 -18 -17 -17 -17 -17 -17 -17 -17 -16 -16 -16 -16 -16 -16 -16 -17 -16 -16 -16 -16 -16 -16 -16
-18 -18 -18 -18 -18 -18 -18 -18 -19 -19 -21 -22 -22 -22 -22 -21 -21 -21 -21 -21 -20 -20 -21 -21 -20 -20 -20 -20 -19 -19 -18 -18 -18 -17 -17 -17 -17 -17 -17 -17 -17 -17 -17 -16 -16 -16 -16 -16 -16 -16 -16 -16 -16 -16
-18 -18 -18 -19 -18 -18 -18 -18 -19 -19 -21 -21 -22 -22 -22 -21 -21 -21 -21 -21 -20 -20 -21 -21 -20 -20 -20 -19 -19 -19 -18 -18 -18 -18 -17 -17 -17 -17 -17 -17 -17 -17 -16 -16 -16 -16 -16 -16 -17 -17 -16 -16 -16 -17
-18 -18 -19 -19 -19 -18 -18 -18 -19 -20 -20 -21 -21 -22 -22 -22 -21 -21 -21 -20 -20 -20 -21 -20 -20 -20 -20 -19 -19 -19 -19 -18 -18 -18 -17 -17 -17 -17 -17 -17 -17 -16 -16 -17 -16 -16 -16 -16 -16 -17 -17 -17 -17 -17
-18 -18 -19 -19 -19 -18 -18 -18 -19 -20 -20 -21 -22 -21 -21 -21 -21 -20 -20 -20 -20 -20 -20 -20 -20 -20 -20 -20 -19 -19 -18 -19 -19 -18 -18 -18 -18 -17 -17 -17 -17 -17 -17 -17 -17 -17 -17 -17 -17 -17 -17 -17 -18 -18
-18 -19 -19 -19 -19 -19 -19 -18 -19 -20 -20 -21 -22 -22 -21 -21 -20 -20 -20 -20 -20 -20 -20 -20 -20 -20 -20 -20 -20 -19 -19 -19 -19 -19 -18 -18 -18 -18 -18 -18 -18 -17 -17 -17 -17 -17 -17 -17 -18 -18 -18 -18 -18 -18
-18 -19 -19 -19 -19 -19 -19 -19 -19 -19 -20 -20 -21 -21 -21 -21 -21 -20 -20 -21 -21 -21 -20 -20 -20 -20 -20 -20 -20 -20 -19 -19 -19 -19 -19 -19 -18 -18 -18 -18 -18 -18 -18 -18 -17 -17 -18 -18 -18 -18 -18 -18 -18 -18
-19 -19 -19 -19 -19 -19 -19 -19 -19 -19 -20 -20 -20 -21 -21 -21 -21 -21 -21 -21 -21 -21 -21 -21 -20 -20 -21 -21 -21 -20 -20 -20 -20 -20 -20 -19 -19 -19 -19 -19 -19 -18 -18 -18 -18 -18 -18 -18 -18 -18 -18 -18 -18 -18
-19 -19 -19 -19 -20 -19 -19 -19 -19 -20 -20 -21 -21 -21 -21 -21 -21 -21 -21 -21 -21 -22 -21 -21 -21 -20 -20 -20 -20 -21 -21 -21 -20 -20 -20 -20 -19 -19 -19 -19 -19 -19 -19 -18 -18 -18 -18 -18 -18 -19 -19 -19 -18 -18
-19 -20 -19 -19 -20 -19 -19 -19 -19 -20 -20 -20 -21 -21 -21 -21 -21 -21 -22 -22 -21 -21 -22 -22 -21 -21 -20 -20 -20 -20 -21 -21 -20 -20 -20 -19 -19 -19 -19 -19 -19 -19 -19 -19 -19 -18 -19 -19 -19 -19 -19 -19 -19 -19
-20 -20 -20 -20 -20 -20 -20 -20 -20 -20 -20 -20 -20 -21 -21 -21 -21 -21 -21 -21 -21 -22 -22 -22 -22 -21 -20 -20 -20 -21 -21 -21 -21 -20 -20 -20 -19 -19 -19 -19 -19 -19 -19 -19 -19 -19 -19 -19 -19 -19 -19 -19 -19 -19
-20 -20 -21 -21 -20 -20 -20 -20 -20 -20 -21 -21 -21 -21 -21 -21 -21 -21 -21 -21 -21 -21 -21 -21 -21 -21 -21 -21 -21 -21 -21 -21 -21 -21 -21 -20 -20 -20 -19 -19 -19 -19 -20 -19 -19 -19 -19 -19 -19 -19 -19 -19 -20 -20
-21 -21 -21 -21 -21 -20 -20 -20 -21 -20 -21 -21 -21 -21 -21 -21 -21 -22 -21 -21 -21 -21 -21 -21 -21 -21 -21 -21 -21 -21 -21 -21 -22 -21 -21 -21 -20 -20 -20 -20 -20 -19 -20 -20 -19 -20 -20 -19 -20 -20 -20 -20 -20 -20
-21 -21 -21 -21 -21 -21 -20 -21 -21 -21 -21 -21 -21 -21 -21 -22 -22 -22 -22 -21 -21 -21 -20 -20 -20 -20 -20 -20 -21 -21 -21 -21 -22 -21 -21 -21 -21 -21 -21 -20 -20 -20 -20 -20 -20 -20 -20 -20 -20 -20 -20 -20 -21 -20
-22 -22 -22 -22 -21 -21 -21 -21 -21 -21 -21 -22 -21 -21 -21 -22 -22 -22 -22 -21 -21 -21 -21 -20 -20 -20 -21 -21 -21 -21 -22 -22 -22 -22 -22 -21 -21 -21 -21 -21 -21 -20 -20 -20 -20 -20 -20 -20 -20 -20 -21 -21 -21 -21
-22 -22 -22 -22 -22 -22 -22 -22 -22 -22 -22 -22 -22 -22 -22 -22 -22 -22 -22 -22 -22 -21 -21 -20 -20 -20 -20 -21 -22 -23 -24 -25 -24 -24 -23 -22 -22 -22 -22 -21 -21 -21 -21 -21 -20 -20 -20 -20 -20 -21 -21 -21 -21 -21
-23 -23 -22 -22 -22 -22 -22 -22 -22 -22 -22 -22 -22 -22 -22 -22 -22 -22 -22 -22 -22 -21 -21 -21 -21 -21 -22 -23 -23 -24 -24 -25 -24 -24 -23 -23 -23 -22 -22 -22 -22 -21 -21 -21 -21 -21 -21 -21 -21 -21 -21 -21 -21 -21
-23 -22 -22 -22 -23 -23 -23 -23 -23 -23 -23 -23 -23 -22 -22 -22 -23 -23 -23 -22 -22 -21 -22 -22 -23 -24 -25 -25 -26 -26 -26 -25 -25 -24 -23 -23 -23 -22 -22 -22 -22 -22 -21 -21 -21 -21 -21 -21 -21 -21 -22 -22 -22 -22
-23 -23 -23 -23 -23 -23 -23 -23 -23 -23 -23 -23 -23 -23 -23 -23 -23 -23 -23 -22 -22 -22 -23 -24 -25 -26 -26 -27 -27 -27 -27 -26 -25 -24 -24 -24 -23 -23 -22 -22 -22 -22 -22 -22 -22 -22 -21 -21 -21 -22 -22 -22 -22 -22
-24 -24 -24 -23 -23 -23 -23 -24 -23 -23 -23 -23 -23 -23 -23 -24 -23 -23 -23 -23 -23 -24 -25 -26 -26 -27 -27 -27 -27 -27 -27 -26 -27 -25 -24 -24 -24 -23 -23 -23 -22 -22 -22 -22 -22 -22 -22 -22 -22 -22 -22 -22 -22 -22
-24 -24 -24 -23 -23 -24 -24 -24 -24 -24 -23 -23 -23 -24 -24 -24 -23 -23 -23 -24 -25 -26 -27 -27 -27 -28 -28 -28 -28 -27 -27 -27 -27 -26 -25 -24 -24 -24 -24 -23 -22 -22 -22 -22 -22 -22 -22 -22 -22 -22 -23 -23 -23 -22
-25 -24 -24 -24 -24 -24 -24 -24 -24 -24 -24 -24 -24 -24 -24 -24 -23 -23 -24 -25 -26 -27 -28 -28 -28 -28 -27 -27 -28 -27 -27 -27 -28 -27 -26 -25 -24 -24 -23 -23 -23 -22 -22 -22 -22 -22 -22 -22 -22 -22 -23 -24 -23 -23
-25 -24 -24 -25 -25 -24 -24 -24 -24 -24 -24 -24 -24 -24 -24 -24 -24 -24 -25 -27 -27 -28 -28 -28 -28 -27 -27 -27 -27 -27 -27 -28 -28 -27 -26 -26 -24 -24 -24 -23 -23 -23 -22 -22 -22 -22 -22 -22 -22 -23 -23 -24 -24 -24
-25 -25 -25 -25 -25 -25 -24 -24 -24 -24 -25 -25 -25 -24 -24 -24 -25 -26 -27 -28 -29 -29 -28 -28 -28 -28 -28 -27 -27 -27 -28 -29 -28 -27 -26 -26 -25 -24 -24 -23 -23 -23 -23 -23 -23 -23 -23 -23 -23 -23 -24 -24 -24 -24
-25 -25 -25 -25 -25 -25 -25 -25 -25 -25 -25 -25 -25 -24 -24 -25 -26 -27 -28 -29 -29 -29 -29 -28 -28 -29 -29 -29 -29 -29 -29 -29 -28 -27 -26 -25 -25 -25 -24 -24 -23 -23 -23 -23 -23 -23 -23 -23 -23 -23 -24 -24 -24 -25

GFSWCAN_500_temp_039.txt.gz
Temp
-16 -16 -17 -17 -17 -17 -17 -17 -17 -18 -18 -19 -20 -20 -21 -20 -20 -20 -20 -20 -20 -20 -20 -20 -20 -20 -20 -20 -20 -20 -20 -19 -19 -19 -19 -18 -17 -17 -17 -17 -16 -16 -16 -16 -16 -16 -16 -16 -16 -16 -16 -16 -16 -16
-16 -16 -17 -17 -17 -17 -17 -17 -17 -18 -18 -19 -19 -20 -20 -20 -20 -20 -20 -20 -20 -20 -20 -20 -20 -20 -20 -20 -20 -20 -20 -19 -19 -19 -18 -18 -17 -17 -17 -17 -16 -16 -16 -16 -15 -16 -15 -15 -16 -16 -16 -16 -16 -16
-17 -17 -17 -17 -17 -18 -17 -17 -17 -18 -18 -18 -19 -21 -21 -20 -20 -20 -20 -20 -20 -20 -20 -20 -20 -20 -20 -20 -20 -20 -19 -19 -19 -19 -18 -17 -17 -17 -17 -17 -16 -16 -16 -16 -16 -16 -15 -16 -16 -16 -16 -17 -17 -16
-17 -17 -17 -17 -17 -18 -17 -17 -17 -18 -18 -18 -19 -21 -21 -21 -21 -20 -20 -20 -20 -20 -20 -20 -20 -20 -20 -20 -19 -19 -19 -19 -19 -19 -18 -17 -17 -17 -16 -17 -16 -16 -16 -16 -16 -16 -16 -16 -16 -16 -16 -16 -17 -17
-17 -17 -17 -17 -17 -18 -17 -17 -17 -17 -17 -18 -19 -21 -21 -21 -20 -20 -20 -20 -20 -20 -20 -20 -20 -20 -20 -19 -19 -19 -19 -19 -19 -19 -18 -17 -17 -16 -16 -16 -16 -16 -16 -16 -16 -16 -16 -16 -16 -16 -16 -16 -16 -16
-17 -18 -17 -18 -18 -18 -17 -17 -17 -17 -17 -18 -21 -22 -21 -21 -21 -20 -20 -20 -20 -20 -20 -20 -20 -20 -20 -19 -19 -19 -19 -19 -18 -18 -18 -18 -17 -16 -16 -16 -16 -15 -16 -16 -16 -16 -16 -16 -16 -16 -16 -16 -17 -16
-17 -18 -18 -18 -18 -18 -17 -18 -18 -18 -17 -19 -22 -22 -21 -21 -21 -21 -20 -20 -20 -20 -20 -20 -20 -20 -19 -19 -19 -19 -19 -19 -18 -18 -18 -17 -16 -16 -16 -17 -15 -15 -16 -16 -16 -16 -17 -17 -17 -17 -17 -17 -17 -16
-18 -18 -18 -18 -18 -18 -18 -18 -18 -18 -18 -19 -22 -22 -22 -21 -21 -21 -21 -20 -20 -20 -20 -20 -20 -20 -19 -19 -19 -19 -19 -18 -18 -18 -18 -17 -16 -16 -17 -16 -16 -16 -16 -16 -16 -16 -16 -16 -17 -17 -17 -17 -17 -17
-18 -18 -18 -18 -18 -18 -18 -18 -18 -18 -18 -20 -22 -22 -21 -21 -20 -20 -20 -20 -20 -20 -20 -20 -21 -20 -20 -20 -19 -19 -18 -18 -18 -18 -18 -17 -16 -17 -17 -16 -16 -16 -16 -16 -16 -16 -17 -17 -17 -17 -16 -16 -17 -17
-18 -18 -18 -18 -18 -18 -18 -19 -18 -18 -18 -21 -22 -22 -21 -20 -20 -20 -20 -20 -21 -21 -20 -20 -20 -20 -20 -20 -19 -19 -18 -18 -18 -17 -17 -17 -17 -16 -17 -17 -16 -16 -16 -16 -16 -17 -17 -17 -16 -16 -16 -17 -17 -17
-18 -18 -18 -18 -18 -19 -18 -19 -19 -19 -19 -21 -21 -21 -21 -20 -20 -20 -20 -20 -21 -21 -20 -20 -20 -20 -20 -20 -19 -19 -19 -18 -18 -17 -17 -17 -17 -17 -17 -17 -17 -17 -17 -17 -17 -16 -16 -16 -16 -16 -16 -16 -16 -16
-18 -18 -18 -18 -18 -19 -19 -19 -19 -19 -19 -21 -21 -21 -20 -20 -20 -20 -20 -20 -20 -21 -20 -20 -20 -20 -20 -20 -20 -19 -19 -19 -18 -18 -17 -17 -17 -17 -17 -17 -17 -17 -17 -17 -17 -16 -16 -16 -16 -17 -17 -17 -17 -17
-18 -18 -18 -18 -18 -19 -19 -19 -19 -19 -19 -20 -21 -21 -21 -20 -20 -20 -20 -20 -20 -20 -20 -20 -20 -20 -20 -20 -20 -20 -19 -19 -19 -19 -18 -18 -17 -17 -17 -17 -17 -17 -17 -17 -17 -17 -17 -17 -17 -17 -17 -17 -17 -17
-19 -19 -18 -18 -19 -19 -19 -19 -19 -19 -19 -20 -21 -21 -21 -20 -20 -20 -20 -20 -20 -20 -20 -20 -20 -20 -20 -20 -19 -20 -19 -20 -20 -19 -19 -19 -19 -19 -18 -18 -18 -18 -17 -17 -17 -17 -17 -17 -17 -17 -17 -18 -18 -18
-19 -19 -18 -18 -19 -19 -19 -19 -19 -20 -19 -20 -20 -20 -21 -21 -21 -20 -20 -21 -21 -21 -21 -21 -20 -20 -20 -20 -20 -20 -20 -20 -20 -20 -19 -19 -19 -19 -19 -19 -19 -18 -18 -18 -18 -18 -18 -18 -18 -18 -18 -18 -18 -18
-19 -19 -19 -19 -19 -19 -19 -19 -19 -19 -19 -19 -20 -20 -20 -20 -21 -21 -21 -21 -21 -21 -21 -21 -21 -21 -21 -20 -20 -20 -20 -20 -20 -20 -20 -20 -19 -19 -19 -19 -19 -19 -19 -19 -19 -19 -18 -18 -18 -18 -18 -18 -18 -18
-20 -19 -19 -19 -20 -20 -20 -19 -19 -19 -19 -19 -20 -20 -20 -20 -20 -20 -21 -21 -21 -21 -22 -22 -21 -21 -21 -21 -20 -20 -21 -21 -21 -20 -20 -20 -20 -20 -19 -19 -19 -19 -19 -19 -19 -19 -19 -19 -19 -19 -19 -19 -19 -19
-20 -20 -19 -20 -20 -20 -20 -20 -20 -20 -20 -20 -20 -20 -20 -20 -20 -21 -21 -21 -21 -22 -21 -21 -21 -21 -21 -21 -20 -21 -21 -21 -21 -21 -20 -20 -20 -20 -19 -19 -19 -19 -19 -19 -19 -19 -19 -19 -19 -19 -19 -19 -19 -19
-20 -20 -20 -20 -20 -20 -20 -20 -20 -20 -20 -20 -20 -20 -20 -20 -20 -20 -21 -21 -21 -21 -21 -21 -21 -21 -21 -21 -21 -21 -21 -21 -21 -21 -21 -20 -20 -20 -19 -19 -19 -19 -19 -19 -19 -19 -19 -19 -19 -19 -19 -19 -19 -19
-21 -20 -20 -20 -21 -21 -20 -20 -20 -20 -20 -20 -20 -20 -20 -20 -20 -20 -20 -20 -21 -21 -21 -21 -21 -21 -21 -21 -21 -21 -21 -20 -21 -21 -21 -20 -20 -20 -20 -20 -20 -20 -20 -19 -19 -19 -19 -19 -19 -19 -19 -19 -19 -19
-21 -21 -21 -21 -21 -21 -21 -21 -21 -21 -21 -20 -20 -20 -20 -21 -21 -21 -20 -20 -21 -22 -22 -22 -22 -21 -21 -21 -20 -21 -20 -20 -21 -20 -21 -21 -21 -21 -20 -20 -20 -20 -20 -20 -20 -20 -20 -20 -20 -20 -20 -20 -20 -20
-22 -21 -21 -21 -22 -21 -21 -21 -21 -21 -21 -21 -21 -21 -21 -21 -21 -21 -21 -21 -22 -22 -21 -21 -22 -22 -21 -21 -21 -20 -20 -20 -20 -21 -21 -21 -21 -21 -21 -21 -21 -21 -20 -20 -20 -20 -20 -20 -20 -20 -20 -20 -20 -20
-22 -22 -22 -22 -22 -22 -21 -21 -21 -22 -21 -21 -21 -21 -21 -21 -21 -21 -21 -22 -22 -21 -21 -22 -22 -22 -22 -21 -21 -21 -20 -20 -20 -20 -20 -21 -21 -22 -21 -21 -21 -21 -21 -21 -21 -20 -20 -20 -20 -20 -20 -21 -21 -21
-23 -23 -23 -23 -22 -22 -22 -22 -22 -22 -22 -22 -21 -21 -21 -21 -21 -21 -22 -22 -22 -22 -22 -22 -22 -22 -21 -21 -21 -20 -20 -20 -20 -20 -20 -20 -21 -22 -22 -22 -22 -22 -22 -21 -21 -21 -20 -20 -20 -20 -21 -21 -21 -21
-24 -23 -23 -23 -23 -23 -22 -22 -22 -22 -22 -22 -22 -22 -22 -21 -21 -22 -22 -22 -22 -22 -22 -22 -22 -22 -21 -21 -21 -20 -20 -20 -20 -20 -21 -21 -21 -22 -23 -23 -23 -22 -22 -22 -21 -21 -21 -21 -21 -21 -21 -21 -21 -22
-24 -24 -23 -23 -23 -23 -23 -23 -22 -22 -22 -22 -22 -22 -22 -22 -22 -22 -22 -22 -22 -22 -22 -22 -22 -22 -21 -21 -21 -21 -21 -21 -22 -22 -23 -23 -23 -23 -25 -24 -24 -23 -22 -22 -22 -22 -21 -21 -21 -21 -21 -22 -22 -22
-24 -24 -24 -24 -24 -23 -23 -23 -23 -23 -23 -22 -23 -23 -22 -22 -23 -23 -22 -22 -22 -23 -23 -22 -22 -22 -22 -22 -22 -23 -24 -24 -24 -25 -25 -25 -25 -24 -25 -24 -24 -23 -23 -22 -22 -22 -22 -22 -22 -22 -22 -22 -22 -22
-24 -24 -25 -24 -24 -23 -23 -23 -23 -23 -23 -23 -23 -23 -23 -23 -23 -23 -23 -23 -23 -23 -23 -22 -22 -23 -23 -24 -24 -25 -25 -25 -25 -26 -26 -26 -26 -25 -25 -23 -23 -23 -23 -22 -22 -22 -22 -22 -22 -22 -22 -22 -22 -22
-25 -25 -25 -24 -24 -24 -24 -24 -24 -24 -23 -23 -23 -23 -23 -23 -23 -23 -23 -23 -23 -23 -23 -23 -23 -24 -25 -26 -26 -26 -26 -27 -27 -27 -27 -27 -26 -26 -25 -25 -24 -24 -23 -23 -22 -22 -22 -22 -22 -22 -22 -23 -23 -23
-25 -25 -25 -25 -24 -24 -24 -24 -24 -24 -24 -23 -24 -24 -24 -23 -23 -23 -23 -24 -23 -23 -24 -24 -25 -26 -26 -27 -27 -27 -27 -27 -27 -27 -27 -27 -26 -27 -26 -25 -24 -24 -23 -23 -22 -22 -22 -22 -22 -22 -22 -22 -23 -23
-25 -25 -25 -25 -25 -24 -24 -24 -24 -24 -24 -24 -24 -24 -24 -24 -24 -24 -24 -24 -24 -24 -25 -25 -26 -27 -28 -27 -27 -27 -27 -27 -27 -27 -27 -27 -27 -27 -27 -25 -25 -24 -23 -23 -23 -23 -23 -22 -22 -22 -22 -22 -23 -23
-26 -25 -25 -25 -25 -25 -25 -25 -25 -25 -24 -24 -24 -24 -24 -24 -24 -24 -24 -24 -24 -25 -26 -27 -28 -28 -28 -27 -27 -27 -27 -27 -27 -27 -27 -28 -28 -28 -27 -26 -25 -24 -24 -23 -23 -23 -23 -23 -23 -22 -22 -23 -23 -23
-26 -26 -25 -25 -25 -25 -25 -25 -25 -25 -25 -25 -25 -24 -24 -24 -24 -24 -24 -24 -25 -26 -27 -28 -28 -29 -28 -28 -28 -28 -28 -28 -27 -28 -28 -29 -28 -27 -27 -26 -25 -24 -24 -24 -23 -23 -23 -23 -23 -23 -23 -23 -23 -24

GFSWCAN_500_temp_042.txt.gz
Temp
-16 -16 -17 -17 -17 -17 -17 -17 -17 -17 -17 -18 -18 -19 -20 -20 -20 -20 -20 -20 -20 -19 -20 -20 -20 -20 -20 -20 -20 -20 -20 -20 -20 -20 -19 -19 -18 -18 -17 -17 -16 -17 -17 -16 -16 -16 -16 -16 -16 -16 -16 -16 -16 -16
-16 -17 -17 -17 -17 -17 -17 -17 -17 -17 -17 -17 -18 -19 -19 -21 -20 -20 -20 -20 -20 -19 -20 -20 -20 -20 -20 -20 -20 -20 -20 -20 -20 -19 -19 -19 -18 -18 -17 -17 -16 -17 -16 -16 -16 -16 -16 -15 -16 -16 -16 -17 -16 -16
-16 -16 -17 -17 -17 -17 -17 -17 -17 -17 -17 -17 -18 -19 -19 -21 -21 -20 -20 -20 -20 -20 -20 -20 -20 -20 -20 -20 -20 -20 -20 -20 -19 -19 -19 -18 -18 -17 -17 -17 -17 -17 -16 -16 -16 -16 -16 -16 -16 -16 -16 -16 -16 -16
-17 -17 -17 -17 -17 -17 -17 -17 -17 -17 -17 -17 -18 -19 -21 -22 -21 -21 -20 -20 -20 -20 -20 -20 -20 -20 -20 -20 -20 -20 -20 -20 -19 -19 -18 -18 -18 -17 -17 -17 -17 -16 -16 -16 -16 -16 -16 -16 -16 -16 -16 -16 -16 -16
-17 -17 -17 -17 -17 -18 -17 -17 -17 -17 -17 -17 -18 -19 -22 -22 -22 -21 -20 -20 -20 -20 -20 -20 -20 -20 -20 -20 -20 -19 -20 -20 -19 -19 -19 -18 -17 -17 -17 -16 -17 -17 -16 -16 -16 -16 -16 -16 -16 -16 -17 -16 -17 -17
-17 -18 -18 -17 -18 -18 -18 -18 -17 -17 -17 -17 -18 -21 -22 -22 -22 -21 -20 -20 -20 -20 -20 -20 -20 -20 -20 -20 -20 -19 -19 -19 -19 -19 -19 -18 -17 -17 -16 -16 -17 -16 -16 -16 -16 -16 -16 -16 -16 -17 -17 -17 -17 -17
-17 -18 -18 -18 -18 -18 -18 -18 -17 -17 -17 -17 -18 -22 -22 -22 -22 -21 -20 -20 -20 -20 -20 -20 -20 -20 -20 -20 -19 -19 -19 -19 -19 -19 -18 -18 -17 -16 -17 -17 -17 -16 -16 -16 -16 -16 -16 -16 -17 -17 -17 -17 -17 -17
-17 -18 -18 -18 -18 -18 -18 -18 -17 -17 -17 -18 -20 -21 -22 -22 -22 -20 -21 -21 -21 -20 -20 -20 -20 -20 -20 -20 -19 -19 -19 -19 -19 -19 -18 -18 -18 -17 -17 -16 -16 -16 -16 -16 -16 -16 -16 -16 -17 -17 -17 -17 -17 -17
-18 -18 -18 -18 -18 -18 -18 -18 -18 -18 -18 -19 -21 -21 -21 -22 -21 -21 -21 -21 -20 -20 -20 -20 -20 -20 -20 -20 -20 -19 -19 -19 -19 -18 -19 -18 -18 -18 -17 -16 -16 -16 -16 -16 -16 -16 -16 -16 -16 -17 -17 -16 -17 -17
-18 -18 -18 -18 -18 -18 -18 -18 -18 -18 -18 -19 -21 -21 -21 -21 -21 -21 -21 -21 -20 -21 -20 -20 -20 -20 -20 -20 -19 -19 -19 -19 -19 -19 -19 -19 -18 -16 -17 -17 -17 -17 -17 -17 -17 -16 -16 -16 -17 -17 -16 -16 -17 -17
-18 -18 -18 -18 -19 -18 -18 -18 -18 -18 -18 -20 -20 -20 -21 -21 -21 -20 -20 -20 -20 -20 -20 -20 -20 -20 -20 -20 -20 -19 -19 -19 -19 -18 -18 -18 -18 -18 -17 -17 -17 -17 -17 -17 -17 -17 -17 -17 -17 -16 -16 -17 -17 -17
-18 -18 -18 -19 -18 -18 -18 -18 -18 -18 -19 -19 -20 -20 -20 -20 -20 -20 -20 -20 -20 -20 -20 -20 -20 -20 -20 -20 -20 -20 -20 -19 -19 -19 -18 -18 -18 -18 -17 -17 -17 -17 -17 -17 -17 -17 -17 -17 -16 -16 -16 -17 -17 -17
-18 -18 -19 -19 -19 -19 -19 -18 -18 -18 -18 -19 -20 -21 -20 -20 -20 -20 -20 -20 -20 -20 -20 -20 -20 -20 -20 -20 -20 -20 -20 -20 -20 -19 -19 -18 -18 -18 -17 -17 -17 -17 -17 -17 -17 -17 -17 -17 -16 -16 -17 -17 -17 -17
-18 -18 -19 -19 -19 -19 -19 -19 -18 -18 -18 -19 -19 -20 -21 -20 -20 -20 -20 -20 -20 -20 -20 -20 -20 -20 -20 -20 -20 -20 -20 -20 -20 -20 -20 -19 -19 -18 -18 -18 -17 -17 -17 -17 -17 -17 -17 -17 -17 -17 -17 -17 -18 -18
-19 -19 -19 -19 -19 -19 -19 -19 -19 -19 -19 -19 -19 -20 -20 -21 -21 -21 -21 -21 -21 -21 -21 -21 -20 -20 -20 -20 -20 -20 -20 -20 -20 -20 -20 -20 -20 -19 -19 -19 -19 -19 -18 -18 -18 -18 -18 -18 -18 -18 -18 -18 -18 -18
-19 -19 -19 -19 -19 -19 -19 -19 -19 -19 -19 -19 -19 -20 -20 -20 -20 -21 -21 -21 -21 -21 -21 -21 -21 -21 -21 -21 -20 -20 -20 -20 -20 -20 -20 -20 -20 -20 -20 -19 -19 -19 -19 -19 -19 -19 -18 -18 -18 -18 -18 -18 -19 -19
-20 -20 -20 -19 -19 -19 -19 -19 -19 -19 -19 -20 -20 -20 -20 -20 -20 -20 -20 -20 -20 -21 -21 -21 -21 -21 -20 -20 -20 -21 -21 -21 -21 -21 -20 -20 -20 -20 -20 -20 -20 -20 -19 -19 -19 -19 -19 -19 -19 -19 -19 -19 -19 -19
-21 -21 -20 -20 -20 -20 -20 -20 -20 -20 -20 -20 -20 -20 -20 -20 -20 -20 -20 -20 -20 -20 -20 -20 -20 -20 -20 -20 -20 -21 -21 -21 -21 -21 -21 -21 -21 -20 -20 -20 -20 -20 -20 -20 -20 -20 -20 -20 -20 -19 -19 -19 -19 -19
-21 -21 -21 -20 -20 -20 -20 -20 -20 -20 -20 -20 -20 -20 -20 -20 -20 -20 -20 -21 -21 -21 -20 -21 -20 -21 -21 -21 -21 -21 -21 -21 -21 -21 -21 -21 -21 -20 -20 -20 -20 -20 -20 -20 -20 -20 -20 -20 -20 -20 -19 -19 -19 -20
-22 -21 -21 -21 -21 -21 -21 -21 -20 -20 -20 -21 -20 -20 -20 -20 -20 -20 -20 -20 -21 -21 -21 -21 -21 -21 -21 -21 -21 -21 -21 -20 -20 -21 -21 -21 -21 -21 -21 -20 -20 -20 -20 -20 -20 -20 -20 -20 -20 -20 -20 -20 -19 -19
-23 -22 -22 -21 -21 -21 -21 -21 -21 -21 -21 -20 -21 -21 -21 -20 -20 -20 -20 -20 -20 -20 -20 -21 -22 -22 -21 -21 -21 -21 -21 -21 -20 -20 -20 -21 -21 -21 -21 -20 -20 -20 -20 -20 -20 -20 -20 -20 -20 -20 -20 -20 -20 -20
-23 -23 -22 -22 -22 -22 -22 -21 -21 -21 -21 -21 -21 -21 -21 -21 -21 -21 -21 -21 -21 -20 -20 -21 -22 -22 -22 -22 -22 -21 -21 -21 -21 -21 -20 -20 -20 -20 -20 -21 -21 -20 -20 -20 -20 -21 -20 -20 -20 -20 -20 -20 -20 -20
-24 -23 -23 -23 -23 -22 -22 -22 -22 -22 -22 -22 -21 -21 -21 -22 -21 -21 -21 -21 -21 -20 -21 -21 -22 -22 -22 -22 -22 -21 -21 -21 -21 -21 -21 -20 -20 -20 -20 -20 -20 -20 -21 -21 -21 -21 -21 -21 -20 -20 -20 -20 -20 -21
-24 -24 -23 -23 -22 -22 -22 -22 -22 -22 -22 -22 -22 -21 -22 -22 -22 -22 -22 -22 -21 -21 -21 -21 -22 -22 -22 -22 -22 -22 -22 -22 -21 -21 -21 -21 -20 -20 -20 -20 -20 -20 -21 -21 -21 -21 -21 -21 -21 -21 -21 -21 -21 -21
-25 -24 -24 -23 -23 -22 -22 -22 -23 -23 -23 -23 -22 -22 -22 -22 -22 -22 -22 -22 -22 -21 -22 -22 -22 -22 -22 -22 -22 -22 -22 -21 -21 -21 -21 -21 -20 -20 -20 -20 -20 -20 -20 -21 -22 -22 -22 -21 -22 -21 -21 -21 -21 -21
-25 -24 -24 -23 -23 -23 -23 -23 -24 -23 -23 -23 -23 -22 -22 -22 -22 -22 -22 -22 -22 -22 -22 -22 -22 -22 -22 -22 -22 -22 -22 -22 -21 -21 -21 -20 -20 -20 -20 -20 -20 -20 -20 -21 -22 -23 -22 -22 -22 -22 -21 -21 -21 -22
-25 -24 -24 -24 -24 -24 -24 -24 -24 -24 -23 -23 -23 -23 -23 -22 -22 -23 -22 -22 -22 -22 -22 -23 -22 -22 -22 -22 -22 -22 -22 -21 -21 -21 -22 -22 -22 -22 -22 -22 -23 -22 -22 -22 -23 -24 -23 -23 -22 -22 -21 -21 -21 -22
-24 -24 -24 -25 -25 -25 -25 -25 -24 -24 -24 -24 -23 -23 -23 -23 -23 -22 -22 -22 -22 -23 -23 -23 -23 -23 -23 -23 -22 -22 -22 -22 -22 -23 -24 -24 -24 -24 -24 -24 -24 -24 -24 -24 -24 -25 -24 -23 -23 -22 -22 -22 -22 -22
-25 -25 -25 -25 -26 -26 -25 -25 -25 -25 -24 -24 -24 -24 -24 -24 -23 -23 -23 -23 -23 -23 -23 -23 -23 -23 -23 -23 -22 -22 -23 -23 -24 -25 -25 -25 -25 -25 -25 -25 -25 -25 -25 -25 -25 -24 -24 -23 -23 -22 -22 -22 -22 -22
-25 -25 -26 -26 -26 -26 -25 -25 -25 -25 -24 -24 -24 -24 -24 -24 -24 -24 -24 -23 -23 -23 -23 -23 -23 -23 -23 -23 -24 -24 -24 -24 -25 -25 -26 -26 -26 -26 -26 -26 -26 -26 -26 -26 -25 -24 -23 -23 -23 -22 -23 -22 -22 -22
-26 -26 -26 -26 -26 -26 -25 -25 -25 -25 -25 -24 -24 -24 -24 -24 -24 -24 -24 -24 -24 -24 -24 -23 -23 -23 -23 -24 -25 -25 -26 -26 -26 -26 -26 -26 -26 -26 -27 -27 -27 -27 -26 -26 -25 -24 -24 -23 -23 -23 -23 -22 -22 -22
-26 -26 -26 -26 -26 -25 -25 -25 -25 -25 -25 -25 -24 -24 -24 -24 -24 -24 -24 -24 -24 -24 -24 -24 -24 -24 -24 -25 -26 -26 -27 -27 -27 -26 -26 -26 -26 -27 -27 -27 -27 -26 -26 -25 -25 -25 -24 -23 -23 -23 -23 -23 -22 -23
-26 -26 -25 -25 -25 -25 -25 -25 -25 -25 -25 -25 -25 -25 -25 -25 -24 -25 -25 -24 -24 -24 -24 -24 -24 -24 -25 -26 -27 -27 -27 -27 -27 -27 -27 -27 -27 -27 -27 -28 -28 -28 -27 -26 -26 -25 -24 -23 -23 -23 -23 -23 -23 -23

GFSWCAN_500_temp_045.txt.gz
Temp
-16 -16 -16 -16 -16 -17 -17 -17 -17 -17 -17 -17 -17 -17 -18 -18 -20 -20 -20 -19 -19 -19 -19 -19 -20 -20 -20 -20 -20 -20 -21 -21 -20 -20 -20 -19 -19 -19 -18 -17 -17 -17 -17 -17 -17 -16 -16 -16 -16 -16 -17 -16 -16 -16
-16 -17 -16 -17 -17 -17 -17 -17 -17 -17 -17 -17 -17 -17 -17 -18 -19 -21 -21 -20 -20 -20 -20 -20 -20 -20 -20 -20 -20 -21 -20 -20 -20 -20 -20 -19 -19 -18 -18 -18 -17 -17 -17 -17 -17 -16 -16 -16 -16 -16 -17 -16 -16 -16
-16 -17 -17 -17 -17 -17 -17 -17 -17 -17 -17 -17 -17 -17 -17 -19 -20 -21 -21 -20 -20 -20 -20 -20 -20 -20 -20 -21 -21 -20 -20 -20 -20 -20 -20 -19 -19 -18 -18 -18 -17 -17 -17 -17 -17 -17 -16 -16 -16 -17 -17 -17 -17 -17
-18 -17 -17 -17 -17 -18 -17 -18 -18 -17 -17 -17 -17 -17 -18 -20 -21 -22 -21 -20 -20 -20 -20 -20 -20 -20 -20 -20 -21 -21 -20 -20 -20 -20 -19 -19 -18 -18 -18 -17 -17 -17 -17 -17 -16 -17 -17 -16 -16 -17 -17 -17 -17 -17
-17 -17 -17 -17 -17 -17 -17 -18 -18 -17 -17 -17 -17 -17 -20 -21 -22 -22 -21 -21 -21 -21 -21 -21 -20 -20 -21 -21 -21 -20 -20 -19 -19 -19 -19 -19 -18 -17 -17 -17 -17 -17 -17 -16 -16 -16 -16 -16 -17 -17 -17 -17 -17 -17
-17 -17 -17 -18 -17 -17 -18 -18 -18 -17 -17 -17 -16 -18 -21 -22 -22 -22 -21 -21 -21 -21 -21 -21 -21 -21 -20 -20 -20 -20 -19 -19 -19 -19 -19 -19 -18 -17 -17 -17 -18 -17 -17 -16 -17 -16 -16 -16 -16 -17 -17 -17 -17 -17
-17 -18 -17 -18 -17 -18 -18 -18 -18 -17 -17 -17 -16 -18 -22 -23 -22 -22 -21 -21 -21 -21 -21 -21 -20 -21 -20 -20 -20 -20 -20 -19 -19 -19 -19 -19 -18 -17 -17 -18 -18 -17 -17 -17 -17 -16 -16 -16 -16 -16 -17 -17 -17 -17
-17 -18 -18 -18 -18 -18 -18 -18 -18 -17 -17 -17 -18 -19 -21 -22 -22 -21 -21 -21 -21 -21 -21 -20 -20 -21 -20 -20 -20 -20 -19 -19 -19 -19 -19 -19 -18 -18 -19 -17 -17 -17 -17 -17 -16 -16 -16 -16 -16 -16 -16 -17 -17 -17
-17 -18 -18 -18 -18 -18 -19 -18 -18 -18 -17 -18 -20 -21 -21 -21 -21 -21 -21 -21 -20 -21 -21 -20 -20 -21 -20 -20 -20 -20 -20 -19 -19 -19 -19 -19 -19 -19 -18 -17 -17 -17 -18 -17 -16 -16 -16 -16 -16 -16 -17 -17 -17 -17
-18 -18 -18 -18 -18 -18 -19 -18 -18 -18 -18 -20 -21 -21 -21 -21 -21 -21 -21 -21 -20 -20 -21 -20 -20 -21 -21 -20 -20 -20 -20 -19 -19 -19 -19 -19 -19 -19 -18 -18 -17 -17 -17 -17 -16 -16 -16 -16 -16 -16 -17 -17 -17 -17
-18 -18 -18 -18 -18 -18 -19 -19 -18 -18 -19 -20 -20 -21 -21 -21 -21 -21 -21 -20 -20 -20 -20 -20 -20 -21 -21 -20 -20 -20 -20 -19 -19 -19 -19 -19 -19 -19 -19 -18 -17 -17 -17 -17 -17 -16 -16 -16 -16 -17 -17 -17 -17 -17
-18 -18 -18 -18 -18 -18 -19 -19 -19 -18 -19 -19 -20 -20 -20 -21 -21 -20 -20 -20 -20 -20 -20 -20 -20 -20 -20 -20 -20 -20 -20 -19 -19 -19 -19 -19 -19 -18 -18 -18 -18 -18 -17 -17 -17 -17 -17 -17 -17 -17 -17 -17 -17 -17
-19 -19 -18 -18 -19 -19 -19 -19 -19 -19 -19 -19 -20 -20 -21 -21 -21 -20 -20 -20 -20 -20 -21 -21 -21 -20 -20 -20 -21 -20 -20 -20 -20 -19 -19 -19 -19 -18 -18 -18 -18 -18 -17 -17 -17 -17 -17 -17 -17 -17 -17 -17 -17 -17
-19 -19 -19 -19 -19 -19 -19 -19 -19 -19 -19 -19 -20 -20 -20 -20 -20 -20 -20 -20 -20 -20 -20 -20 -20 -21 -21 -21 -20 -20 -20 -20 -20 -20 -20 -19 -19 -19 -18 -18 -18 -18 -18 -18 -18 -18 -17 -17 -17 -17 -17 -17 -17 -18
-19 -19 -19 -19 -19 -19 -19 -19 -19 -19 -19 -18 -19 -19 -19 -20 -20 -21 -21 -21 -21 -21 -21 -21 -21 -21 -21 -21 -20 -20 -20 -20 -20 -20 -20 -20 -20 -19 -20 -19 -19 -18 -18 -18 -18 -18 -18 -18 -18 -18 -18 -18 -18 -18
-21 -20 -20 -20 -19 -19 -19 -19 -19 -19 -19 -19 -19 -19 -19 -19 -20 -20 -21 -21 -21 -21 -21 -21 -21 -21 -21 -21 -21 -21 -21 -21 -21 -21 -21 -21 -20 -20 -20 -20 -20 -19 -19 -19 -19 -18 -18 -18 -18 -18 -18 -18 -18 -18
-21 -21 -20 -20 -20 -20 -20 -19 -19 -19 -19 -19 -19 -19 -20 -20 -20 -20 -20 -20 -20 -20 -20 -20 -20 -20 -20 -20 -20 -21 -21 -21 -21 -21 -21 -21 -21 -20 -20 -20 -20 -20 -20 -20 -20 -19 -19 -19 -19 -19 -19 -19 -19 -19
-22 -21 -21 -21 -20 -20 -20 -20 -20 -20 -20 -20 -20 -19 -20 -20 -20 -20 -20 -20 -20 -20 -20 -20 -20 -20 -20 -20 -20 -21 -21 -21 -21 -21 -21 -21 -21 -21 -21 -21 -21 -20 -20 -20 -20 -20 -20 -20 -20 -19 -19 -19 -20 -20
-22 -22 -22 -21 -21 -21 -20 -20 -20 -20 -20 -20 -20 -20 -20 -20 -20 -20 -20 -20 -20 -20 -20 -20 -20 -21 -21 -20 -20 -20 -20 -20 -20 -20 -21 -20 -20 -20 -20 -20 -20 -21 -21 -20 -20 -20 -20 -20 -20 -20 -20 -20 -20 -20
-23 -23 -22 -22 -22 -21 -21 -21 -21 -21 -21 -21 -20 -20 -20 -20 -20 -20 -20 -20 -20 -20 -20 -20 -20 -20 -20 -20 -21 -21 -21 -21 -21 -21 -21 -20 -20 -21 -20 -20 -20 -20 -20 -20 -20 -20 -20 -20 -20 -20 -20 -20 -20 -20
-24 -23 -23 -23 -22 -22 -22 -21 -21 -21 -21 -21 -21 -21 -21 -21 -21 -21 -21 -20 -21 -21 -20 -20 -20 -20 -20 -20 -21 -21 -21 -21 -21 -21 -21 -21 -21 -21 -21 -20 -20 -21 -20 -20 -20 -20 -20 -20 -20 -20 -20 -20 -20 -20
-24 -24 -24 -24 -23 -22 -22 -22 -22 -22 -21 -22 -21 -21 -21 -21 -21 -21 -21 -21 -22 -21 -21 -21 -21 -21 -21 -21 -21 -21 -21 -21 -21 -21 -21 -21 -21 -21 -21 -21 -20 -20 -20 -20 -20 -20 -20 -20 -20 -20 -20 -20 -20 -20
-26 -25 -25 -24 -24 -23 -22 -22 -22 -22 -21 -22 -22 -22 -22 -22 -22 -21 -21 -22 -22 -21 -21 -21 -21 -21 -21 -21 -21 -21 -21 -22 -21 -21 -21 -21 -21 -21 -21 -21 -21 -20 -20 -20 -20 -20 -20 -20 -20 -20 -21 -21 -21 -21
-26 -26 -26 -25 -24 -23 -23 -23 -23 -22 -22 -22 -22 -22 -22 -22 -22 -22 -22 -22 -22 -21 -22 -22 -22 -22 -22 -22 -22 -21 -22 -22 -22 -22 -22 -22 -22 -22 -21 -21 -21 -21 -21 -21 -20 -20 -20 -21 -21 -21 -21 -21 -21 -21
-27 -27 -26 -25 -25 -24 -24 -24 -23 -23 -23 -23 -23 -23 -22 -22 -22 -22 -22 -23 -22 -22 -22 -22 -22 -22 -22 -22 -22 -22 -22 -22 -22 -22 -22 -22 -21 -21 -21 -21 -21 -21 -21 -21 -21 -20 -20 -20 -20 -21 -22 -22 -22 -22
-27 -27 -26 -25 -25 -25 -24 -24 -24 -23 -23 -23 -23 -23 -23 -23 -22 -22 -23 -23 -22 -23 -23 -22 -22 -22 -22 -22 -22 -22 -22 -22 -22 -22 -22 -22 -22 -21 -21 -21 -21 -21 -20 -20 -20 -20 -20 -20 -20 -20 -21 -22 -22 -22
-27 -26 -26 -26 -25 -25 -25 -24 -24 -24 -24 -24 -23 -23 -23 -23 -23 -23 -23 -23 -23 -23 -23 -23 -23 -23 -23 -22 -22 -22 -22 -22 -22 -22 -22 -22 -22 -21 -21 -21 -21 -22 -21 -20 -20 -20 -20 -20 -20 -20 -21 -22 -23 -23
-27 -27 -27 -26 -26 -25 -25 -25 -24 -25 -24 -24 -24 -24 -24 -23 -24 -23 -23 -23 -23 -24 -23 -23 -23 -23 -23 -23 -23 -22 -22 -22 -22 -22 -22 -22 -22 -21 -21 -22 -23 -23 -23 -23 -23 -22 -22 -22 -22 -22 -22 -23 -24 -23
-27 -27 -27 -26 -26 -25 -25 -25 -25 -25 -25 -25 -25 -24 -24 -24 -24 -24 -24 -24 -24 -24 -24 -23 -23 -23 -23 -23 -23 -23 -23 -23 -22 -23 -23 -23 -23 -23 -22 -23 -24 -24 -25 -25 -25 -24 -24 -24 -24 -24 -24 -24 -24 -23
-27 -27 -27 -26 -26 -26 -26 -26 -26 -26 -25 -25 -25 -25 -25 -24 -24 -24 -24 -24 -24 -24 -24 -24 -23 -23 -23 -23 -23 -23 -23 -23 -23 -23 -23 -24 -24 -24 -24 -25 -25 -26 -26 -26 -26 -26 -25 -25 -25 -25 -25 -25 -23 -23
-27 -27 -27 -26 -26 -26 -26 -26 -26 -26 -26 -25 -25 -25 -25 -24 -25 -24 -24 -24 -24 -24 -24 -24 -24 -24 -24 -24 -24 -24 -24 -23 -23 -23 -24 -24 -25 -25 -25 -25 -25 -26 -26 -26 -27 -27 -26 -26 -25 -26 -26 -24 -24 -23
-28 -27 -27 -26 -26 -26 -26 -26 -26 -26 -26 -25 -25 -25 -25 -25 -25 -25 -25 -24 -24 -24 -24 -24 -24 -24 -24 -24 -24 -24 -24 -24 -24 -25 -25 -26 -26 -26 -26 -26 -26 -26 -27 -27 -28 -27 -27 -26 -26 -26 -25 -24 -24 -23
-27 -27 -26 -26 -26 -26 -26 -26 -26 -26 -26 -26 -25 -25 -25 -25 -25 -25 -25 -25 -25 -24 -25 -24 -24 -24 -24 -24 -24 -24 -24 -25 -25 -26 -26 -26 -26 -27 -27 -27 -27 -27 -27 -27 -28 -27 -27 -27 -27 -26 -25 -25 -24 -23

GFSWCAN_500_temp_048.txt.gz
Temp
-19 -18 -17 -17 -17 -17 -17 -17 -17 -17 -18 -17 -17 -18 -18 -18 -18 -19 -20 -20 -20 -20 -20 -20 -20 -20 -20 -20 -20 -20 -20 -20 -20 -20 -20 -20 -20 -19 -18 -18 -17 -17 -17 -17 -17 -17 -17 -17 -17 -17 -17 -17 -16 -16
-19 -19 -18 -18 -18 -18 -18 -18 -17 -17 -17 -17 -17 -17 -18 -17 -17 -19 -19 -20 -20 -20 -20 -20 -20 -20 -20 -20 -20 -20 -20 -20 -21 -20 -20 -20 -20 -19 -19 -18 -18 -18 -18 -17 -17 -17 -17 -17 -17 -17 -17 -17 -17 -16
-19 -19 -18 -19 -18 -18 -18 -18 -17 -17 -17 -17 -17 -17 -17 -17 -18 -19 -21 -22 -21 -21 -20 -20 -20 -20 -20 -21 -20 -20 -20 -21 -21 -21 -20 -20 -19 -19 -19 -18 -18 -18 -18 -18 -17 -17 -17 -17 -17 -17 -17 -17 -17 -17
-19 -19 -19 -19 -19 -18 -18 -18 -18 -17 -17 -17 -17 -17 -16 -17 -19 -21 -22 -22 -21 -21 -20 -21 -21 -21 -21 -21 -21 -20 -21 -21 -20 -20 -20 -20 -20 -19 -18 -18 -18 -18 -18 -18 -17 -17 -17 -17 -17 -17 -17 -17 -17 -17
-19 -19 -19 -18 -18 -18 -18 -18 -17 -17 -17 -17 -17 -16 -16 -18 -21 -23 -23 -22 -22 -21 -20 -21 -20 -20 -20 -21 -21 -21 -21 -20 -20 -20 -20 -20 -19 -19 -18 -18 -18 -18 -18 -18 -17 -17 -16 -17 -17 -17 -17 -17 -17 -17
-20 -19 -19 -18 -18 -18 -18 -18 -18 -17 -17 -17 -16 -15 -17 -21 -22 -23 -23 -22 -22 -21 -21 -21 -21 -21 -21 -21 -21 -21 -21 -20 -19 -19 -19 -19 -19 -19 -18 -18 -18 -18 -18 -17 -17 -17 -17 -16 -16 -16 -17 -17 -18 -17
-20 -19 -19 -18 -18 -18 -18 -18 -18 -18 -17 -17 -16 -17 -19 -22 -22 -22 -22 -22 -22 -21 -21 -21 -21 -21 -21 -21 -20 -20 -20 -20 -20 -20 -20 -20 -20 -19 -18 -19 -18 -17 -17 -17 -17 -17 -17 -16 -16 -16 -16 -17 -17 -17
-19 -19 -18 -18 -18 -18 -18 -19 -18 -18 -17 -16 -16 -18 -21 -21 -22 -22 -22 -22 -21 -21 -21 -21 -21 -21 -21 -21 -20 -20 -20 -20 -20 -19 -19 -19 -19 -19 -18 -18 -18 -17 -17 -17 -17 -17 -17 -16 -16 -16 -16 -17 -17 -17
-19 -19 -18 -18 -18 -18 -19 -18 -18 -18 -17 -17 -19 -20 -21 -21 -21 -21 -22 -21 -21 -21 -21 -21 -21 -21 -21 -21 -21 -20 -20 -20 -20 -19 -20 -19 -19 -18 -18 -18 -17 -17 -17 -17 -17 -17 -16 -16 -16 -16 -16 -17 -17 -17
-20 -19 -18 -18 -19 -19 -19 -18 -18 -18 -18 -20 -21 -21 -21 -21 -21 -21 -21 -21 -21 -21 -21 -21 -21 -21 -21 -21 -20 -20 -20 -20 -20 -20 -20 -20 -19 -19 -18 -18 -18 -18 -17 -17 -17 -17 -17 -16 -16 -17 -17 -17 -17 -17
-20 -20 -19 -19 -19 -19 -19 -19 -18 -18 -19 -21 -21 -21 -21 -21 -21 -21 -21 -21 -20 -21 -21 -21 -21 -21 -21 -21 -20 -20 -20 -20 -20 -20 -20 -20 -19 -19 -19 -19 -19 -18 -18 -17 -17 -17 -17 -17 -17 -17 -17 -17 -17 -17
-20 -20 -19 -19 -19 -19 -19 -19 -19 -18 -20 -21 -21 -21 -21 -21 -21 -21 -20 -20 -20 -21 -21 -21 -21 -21 -21 -21 -21 -21 -20 -20 -20 -20 -20 -20 -20 -19 -19 -19 -19 -18 -18 -17 -17 -17 -17 -17 -17 -17 -17 -17 -17 -17
-20 -20 -20 -19 -19 -19 -19 -19 -19 -19 -19 -20 -20 -21 -21 -21 -21 -20 -20 -20 -20 -21 -21 -21 -21 -21 -21 -21 -21 -21 -21 -20 -20 -20 -20 -20 -20 -19 -19 -19 -19 -18 -18 -18 -17 -17 -17 -17 -17 -17 -18 -18 -17 -17
-20 -20 -20 -19 -19 -19 -19 -19 -19 -19 -19 -20 -20 -21 -21 -21 -21 -20 -20 -20 -20 -20 -20 -20 -21 -21 -21 -21 -21 -21 -21 -20 -20 -20 -20 -19 -20 -20 -20 -19 -19 -18 -18 -18 -18 -18 -18 -17 -18 -18 -17 -18 -18 -18
-21 -20 -20 -20 -19 -19 -19 -19 -19 -19 -19 -19 -20 -20 -20 -21 -21 -21 -21 -21 -20 -21 -20 -21 -21 -21 -21 -21 -21 -21 -21 -21 -20 -20 -20 -20 -20 -20 -20 -19 -19 -19 -19 -18 -18 -19 -19 -18 -19 -18 -18 -18 -18 -18
-21 -21 -21 -20 -20 -19 -19 -19 -19 -19 -19 -19 -19 -20 -20 -21 -21 -21 -21 -21 -21 -21 -21 -21 -21 -21 -21 -21 -21 -21 -21 -21 -21 -20 -20 -20 -20 -20 -20 -20 -20 -19 -19 -19 -19 -19 -19 -19 -19 -19 -19 -19 -19 -19
-22 -22 -22 -21 -21 -20 -20 -20 -20 -19 -19 -19 -20 -20 -20 -20 -20 -20 -20 -21 -21 -21 -21 -21 -21 -21 -20 -20 -20 -21 -21 -21 -21 -21 -21 -20 -20 -20 -20 -20 -20 -20 -20 -20 -20 -19 -19 -19 -19 -19 -19 -19 -19 -19
-23 -22 -22 -22 -21 -21 -20 -20 -20 -20 -20 -20 -20 -20 -20 -20 -20 -20 -20 -20 -20 -20 -20 -21 -21 -21 -21 -21 -21 -21 -21 -21 -20 -20 -20 -20 -20 -20 -20 -20 -20 -21 -21 -20 -20 -20 -20 -20 -20 -20 -20 -20 -20 -20
-24 -23 -23 -22 -22 -21 -21 -20 -20 -20 -20 -21 -20 -20 -20 -20 -20 -20 -20 -20 -20 -20 -20 -20 -21 -21 -21 -20 -20 -20 -20 -20 -20 -20 -20 -20 -20 -21 -20 -20 -20 -20 -20 -21 -21 -21 -21 -20 -20 -20 -20 -20 -20 -20
-25 -24 -23 -23 -23 -22 -22 -21 -21 -21 -20 -20 -21 -21 -20 -21 -21 -20 -20 -20 -20 -20 -20 -20 -20 -20 -20 -20 -20 -20 -21 -21 -21 -21 -21 -21 -21 -21 -21 -21 -20 -20 -20 -20 -20 -20 -20 -20 -20 -20 -20 -20 -20 -20
-26 -25 -25 -24 -23 -23 -22 -22 -22 -21 -21 -21 -21 -20 -21 -21 -21 -21 -21 -20 -20 -21 -21 -20 -20 -20 -20 -20 -20 -20 -20 -20 -21 -21 -21 -21 -21 -21 -21 -21 -21 -21 -21 -21 -20 -20 -20 -20 -20 -20 -21 -21 -20 -20
-26 -26 -25 -25 -24 -24 -23 -23 -23 -22 -22 -21 -21 -21 -21 -21 -21 -21 -21 -21 -21 -21 -21 -21 -21 -21 -21 -20 -20 -20 -20 -20 -20 -20 -21 -21 -21 -21 -21 -21 -21 -21 -21 -21 -21 -21 -21 -21 -20 -20 -20 -21 -21 -21
-27 -26 -26 -25 -25 -24 -24 -24 -23 -23 -22 -22 -22 -22 -22 -21 -21 -21 -21 -21 -22 -21 -21 -21 -21 -21 -21 -21 -21 -21 -21 -21 -21 -21 -21 -21 -21 -21 -21 -21 -21 -21 -21 -21 -21 -21 -21 -21 -21 -21 -21 -21 -21 -21
-27 -27 -27 -26 -25 -25 -25 -25 -24 -24 -23 -23 -22 -22 -22 -22 -22 -21 -21 -22 -22 -22 -22 -22 -22 -22 -21 -21 -21 -21 -21 -21 -21 -21 -21 -21 -21 -21 -21 -21 -21 -21 -21 -21 -21 -21 -21 -21 -21 -21 -21 -20 -21 -21
-28 -27 -27 -27 -26 -26 -26 -25 -25 -24 -24 -23 -23 -23 -22 -22 -21 -21 -22 -22 -22 -22 -22 -22 -22 -22 -22 -22 -22 -22 -22 -22 -22 -22 -21 -21 -21 -22 -22 -22 -22 -21 -21 -21 -21 -21 -21 -21 -21 -21 -21 -21 -21 -20
-29 -28 -27 -27 -27 -27 -26 -26 -25 -24 -24 -24 -24 -23 -23 -22 -22 -22 -23 -23 -23 -22 -22 -23 -22 -22 -23 -22 -22 -22 -22 -22 -22 -22 -22 -22 -22 -22 -22 -22 -22 -22 -21 -21 -21 -21 -21 -21 -21 -21 -21 -21 -21 -20
-29 -28 -27 -27 -27 -27 -27 -26 -26 -25 -25 -24 -24 -24 -23 -23 -23 -23 -23 -23 -23 -23 -23 -23 -23 -23 -23 -23 -23 -23 -23 -23 -22 -22 -22 -22 -22 -22 -22 -22 -22 -22 -22 -22 -21 -21 -21 -21 -20 -20 -20 -20 -21 -21
-29 -28 -28 -28 -27 -27 -27 -26 -26 -26 -25 -25 -25 -24 -23 -23 -23 -23 -23 -23 -23 -23 -23 -23 -23 -23 -23 -23 -23 -23 -23 -23 -23 -22 -23 -23 -23 -22 -22 -22 -22 -22 -22 -22 -22 -21 -21 -21 -22 -22 -21 -21 -21 -21
-28 -28 -28 -28 -28 -27 -27 -27 -26 -26 -26 -25 -25 -24 -24 -24 -24 -24 -24 -24 -24 -24 -24 -24 -24 -23 -23 -23 -23 -23 -23 -23 -23 -23 -23 -23 -23 -23 -23 -22 -22 -22 -22 -23 -23 -23 -23 -23 -23 -23 -23 -23 -23 -23
-28 -28 -28 -28 -28 -27 -27 -27 -26 -26 -26 -25 -25 -25 -25 -25 -24 -24 -24 -24 -24 -24 -24 -24 -24 -24 -24 -24 -24 -23 -23 -23 -23 -23 -23 -23 -23 -23 -23 -23 -23 -23 -24 -24 -25 -25 -25 -25 -25 -25 -25 -25 -25 -24
-28 -28 -28 -28 -28 -28 -27 -27 -27 -26 -26 -26 -26 -26 -26 -25 -25 -25 -24 -24 -24 -24 -24 -24 -24 -24 -24 -24 -24 -24 -23 -23 -23 -23 -23 -24 -24 -23 -23 -24 -24 -25 -25 -25 -25 -25 -25 -26 -26 -27 -27 -26 -26 -25
-29 -29 -28 -28 -28 -28 -27 -27 -26 -26 -26 -26 -26 -26 -26 -25 -25 -25 -25 -24 -25 -25 -25 -25 -25 -24 -24 -24 -24 -24 -24 -24 -24 -24 -24 -24 -24 -24 -25 -26 -26 -26 -26 -26 -26 -26 -26 -26 -27 -27 -27 -27 -26 -26
-29 -29 -28 -28 -28 -27 -27 -26 -26 -26 -26 -26 -26 -26 -25 -25 -25 -25 -25 -25 -25 -25 -25 -25 -25 -25 -24 -24 -24 -24 -24 -24 -24 -24 -24 -24 -25 -26 -26 -28 -28 -29 -28 -27 -27 -27 -27 -27 -27 -27 -27 -27 -26 -27

GFSWCAN_500_temp_051.txt.gz
Temp
-17 -18 -19 -19 -19 -19 -19 -18 -18 -18 -18 -18 -18 -18 -18 -19 -19 -19 -19 -20 -20 -20 -20 -20 -20 -20 -20 -20 -20 -19 -19 -19 -19 -19 -20 -19 -19 -19 -19 -18 -18 -18 -18 -18 -17 -17 -17 -17 -17 -17 -17 -17 -16 -16
-18 -19 -20 -19 -19 -19 -19 -18 -18 -18 -18 -18 -18 -18 -18 -18 -18 -19 -19 -20 -20 -20 -20 -20 -21 -20 -20 -20 -20 -20 -20 -20 -20 -20 -20 -20 -20 -20 -19 -19 -19 -18 -18 -18 -18 -17 -17 -17 -17 -17 -17 -17 -17 -16
-20 -20 -20 -19 -19 -19 -19 -19 -18 -18 -18 -18 -18 -18 -17 -17 -17 -17 -18 -20 -20 -21 -21 -21 -21 -21 -20 -20 -20 -20 -20 -20 -20 -20 -20 -20 -20 -20 -20 -19 -19 -19 -18 -18 -18 -18 -17 -17 -17 -17 -17 -17 -17 -17
-21 -21 -20 -19 -20 -20 -19 -19 -18 -18 -18 -18 -18 -17 -17 -17 -17 -18 -19 -22 -23 -23 -22 -21 -21 -20 -20 -20 -21 -21 -21 -21 -21 -21 -21 -20 -20 -20 -20 -19 -19 -19 -18 -18 -18 -18 -17 -17 -17 -17 -17 -17 -17 -17
-21 -21 -20 -20 -20 -20 -19 -18 -18 -18 -18 -18 -17 -17 -17 -17 -17 -19 -22 -23 -24 -23 -22 -21 -21 -20 -21 -21 -21 -21 -21 -21 -21 -21 -21 -20 -20 -20 -20 -19 -19 -18 -18 -18 -18 -17 -17 -17 -17 -17 -17 -17 -17 -17
-21 -21 -20 -20 -20 -19 -18 -18 -18 -18 -18 -17 -17 -17 -17 -17 -20 -22 -23 -24 -23 -22 -22 -21 -21 -21 -21 -21 -21 -21 -21 -21 -21 -20 -20 -20 -20 -19 -19 -19 -19 -18 -18 -18 -18 -18 -18 -17 -17 -17 -17 -17 -17 -17
-21 -20 -20 -20 -20 -19 -19 -18 -19 -18 -18 -18 -17 -17 -18 -20 -21 -23 -23 -23 -22 -22 -22 -21 -21 -21 -21 -21 -21 -21 -21 -21 -21 -20 -20 -20 -20 -19 -19 -19 -19 -18 -18 -18 -18 -18 -17 -17 -17 -17 -16 -16 -17 -17
-21 -21 -21 -20 -20 -19 -19 -19 -19 -18 -18 -17 -17 -18 -21 -21 -22 -22 -22 -22 -22 -22 -21 -21 -21 -21 -21 -21 -21 -21 -21 -20 -20 -20 -20 -20 -20 -19 -19 -19 -19 -18 -18 -18 -18 -18 -18 -17 -17 -17 -16 -16 -17 -17
-21 -21 -21 -20 -20 -19 -19 -19 -19 -19 -18 -17 -18 -20 -21 -21 -21 -21 -22 -22 -21 -21 -21 -21 -21 -21 -21 -21 -21 -21 -21 -20 -20 -20 -20 -20 -20 -19 -19 -19 -18 -18 -18 -18 -18 -18 -18 -17 -17 -17 -17 -16 -16 -17
-21 -21 -21 -21 -20 -20 -19 -19 -19 -19 -18 -18 -20 -21 -21 -20 -21 -21 -21 -21 -21 -21 -21 -21 -21 -21 -21 -21 -21 -21 -20 -20 -20 -20 -20 -20 -20 -19 -19 -19 -18 -18 -18 -18 -18 -18 -18 -18 -18 -17 -17 -17 -17 -17
-21 -21 -21 -21 -20 -20 -19 -19 -20 -19 -18 -20 -21 -21 -21 -21 -21 -21 -21 -21 -21 -21 -21 -21 -21 -21 -21 -21 -21 -20 -20 -20 -20 -20 -20 -20 -20 -19 -20 -19 -19 -19 -18 -18 -18 -18 -18 -18 -18 -17 -17 -17 -17 -17
-22 -22 -22 -21 -20 -20 -20 -19 -20 -19 -19 -21 -21 -21 -21 -21 -21 -21 -21 -21 -21 -21 -21 -21 -21 -21 -21 -21 -21 -21 -20 -20 -20 -20 -20 -20 -20 -20 -20 -20 -19 -19 -19 -19 -18 -18 -18 -18 -18 -17 -17 -17 -17 -17
-22 -22 -22 -21 -21 -20 -20 -20 -20 -19 -20 -21 -21 -21 -21 -21 -21 -21 -21 -21 -21 -21 -21 -21 -21 -21 -21 -21 -21 -21 -21 -21 -20 -20 -20 -20 -20 -20 -19 -19 -19 -20 -20 -19 -18 -18 -18 -18 -18 -17 -17 -17 -17 -17
-23 -22 -21 -21 -21 -21 -20 -20 -20 -20 -20 -21 -21 -21 -21 -21 -21 -21 -21 -21 -21 -21 -21 -21 -21 -21 -21 -21 -21 -21 -21 -21 -21 -20 -20 -20 -20 -20 -20 -19 -19 -19 -19 -18 -18 -18 -18 -18 -18 -18 -17 -18 -18 -18
-23 -22 -22 -21 -21 -21 -21 -20 -20 -20 -20 -20 -21 -21 -21 -21 -21 -21 -21 -21 -21 -21 -21 -21 -21 -20 -21 -21 -21 -21 -21 -21 -21 -20 -20 -20 -20 -20 -20 -20 -20 -19 -19 -19 -19 -19 -18 -18 -18 -18 -18 -18 -18 -18
-23 -23 -22 -22 -22 -21 -21 -21 -20 -20 -20 -20 -20 -20 -21 -21 -21 -21 -21 -21 -21 -21 -21 -21 -21 -21 -21 -20 -20 -21 -21 -21 -21 -20 -20 -20 -20 -20 -20 -20 -20 -20 -20 -19 -19 -19 -19 -19 -19 -19 -19 -19 -19 -19
-24 -23 -22 -22 -22 -22 -22 -21 -21 -20 -20 -20 -20 -20 -20 -21 -21 -21 -21 -21 -21 -21 -21 -21 -21 -21 -21 -21 -20 -21 -21 -21 -20 -20 -20 -20 -20 -20 -20 -20 -20 -20 -20 -20 -20 -20 -19 -19 -19 -19 -19 -19 -19 -19
-24 -23 -23 -23 -23 -22 -22 -22 -21 -21 -20 -21 -21 -20 -20 -20 -20 -21 -21 -21 -21 -21 -21 -21 -21 -21 -21 -21 -21 -21 -21 -21 -21 -20 -20 -20 -20 -20 -20 -20 -20 -20 -20 -20 -20 -20 -20 -20 -20 -20 -20 -19 -19 -19
-25 -24 -24 -23 -23 -23 -23 -22 -21 -21 -21 -21 -21 -21 -20 -20 -20 -20 -20 -20 -20 -20 -20 -20 -20 -21 -21 -21 -21 -20 -21 -21 -20 -20 -20 -20 -20 -20 -20 -20 -20 -20 -20 -20 -20 -20 -20 -21 -20 -20 -20 -20 -20 -20
-25 -25 -24 -24 -24 -23 -23 -22 -22 -22 -21 -21 -21 -21 -21 -21 -21 -21 -20 -20 -20 -20 -20 -20 -21 -21 -20 -21 -21 -20 -20 -20 -20 -21 -21 -21 -21 -20 -20 -21 -21 -21 -21 -20 -20 -20 -20 -20 -20 -20 -21 -21 -21 -21
-26 -26 -25 -25 -24 -24 -23 -23 -23 -22 -22 -22 -21 -21 -21 -21 -21 -21 -21 -20 -20 -21 -21 -21 -20 -20 -20 -21 -20 -20 -20 -20 -20 -20 -20 -20 -20 -20 -20 -21 -21 -21 -21 -21 -21 -21 -21 -21 -21 -21 -21 -21 -21 -21
-27 -27 -27 -26 -26 -25 -25 -24 -23 -23 -23 -22 -22 -22 -22 -21 -21 -21 -21 -21 -21 -21 -21 -21 -20 -20 -21 -21 -21 -21 -20 -20 -20 -20 -20 -20 -20 -20 -20 -20 -20 -20 -20 -20 -21 -21 -21 -21 -21 -21 -21 -21 -21 -21
-28 -28 -27 -27 -26 -26 -26 -25 -24 -24 -23 -23 -22 -22 -22 -22 -21 -21 -21 -21 -22 -22 -21 -21 -21 -20 -21 -21 -21 -21 -21 -21 -21 -21 -21 -21 -21 -21 -21 -21 -20 -20 -21 -21 -21 -21 -21 -21 -21 -21 -21 -21 -21 -21
-28 -28 -27 -27 -27 -27 -26 -26 -26 -25 -24 -24 -23 -23 -22 -22 -22 -21 -21 -22 -22 -21 -21 -21 -21 -21 -21 -22 -21 -21 -21 -21 -21 -21 -21 -21 -21 -21 -21 -21 -21 -21 -21 -21 -21 -21 -21 -21 -21 -21 -21 -21 -21 -21
-28 -28 -28 -28 -27 -27 -27 -27 -27 -26 -25 -25 -24 -23 -23 -23 -22 -22 -22 -22 -22 -22 -21 -21 -22 -22 -22 -22 -22 -22 -22 -22 -22 -22 -22 -22 -22 -22 -22 -21 -21 -21 -21 -21 -21 -22 -22 -22 -22 -22 -21 -21 -22 -21
-29 -29 -28 -28 -28 -28 -28 -27 -27 -27 -26 -25 -25 -24 -24 -23 -23 -22 -23 -22 -22 -22 -22 -22 -22 -22 -22 -22 -22 -22 -22 -22 -22 -22 -22 -22 -22 -22 -22 -22 -22 -22 -22 -22 -21 -22 -22 -22 -22 -22 -22 -21 -21 -21
-29 -29 -29 -29 -28 -28 -28 -28 -27 -27 -27 -26 -25 -25 -24 -24 -23 -23 -23 -23 -23 -22 -22 -22 -23 -23 -23 -22 -22 -22 -23 -23 -23 -23 -23 -23 -22 -22 -22 -22 -22 -22 -22 -22 -22 -22 -22 -22 -22 -22 -22 -22 -21 -21
-30 -29 -29 -29 -29 -29 -28 -28 -28 -28 -27 -26 -26 -25 -25 -24 -24 -24 -23 -23 -23 -23 -23 -23 -23 -23 -23 -23 -23 -23 -23 -23 -23 -23 -23 -23 -23 -23 -23 -23 -22 -23 -23 -23 -23 -23 -23 -23 -23 -22 -22 -22 -21 -21
-30 -30 -30 -30 -30 -29 -29 -28 -28 -28 -28 -27 -26 -26 -25 -25 -24 -24 -24 -24 -24 -24 -23 -23 -24 -24 -24 -23 -23 -23 -24 -24 -23 -23 -23 -23 -23 -23 -23 -23 -23 -23 -23 -23 -23 -23 -23 -23 -22 -22 -22 -22 -22 -22
-30 -30 -30 -30 -30 -29 -29 -29 -28 -28 -28 -27 -26 -26 -25 -25 -25 -24 -24 -24 -24 -24 -24 -24 -24 -24 -24 -24 -24 -24 -24 -24 -24 -24 -23 -24 -24 -24 -23 -23 -23 -23 -24 -24 -24 -23 -23 -23 -24 -24 -24 -24 -24 -24
-30 -30 -30 -30 -29 -29 -29 -29 -28 -28 -28 -27 -26 -25 -25 -25 -25 -25 -25 -25 -25 -25 -25 -25 -24 -24 -24 -24 -24 -25 -24 -24 -24 -24 -24 -24 -24 -24 -24 -24 -24 -24 -24 -24 -24 -25 -25 -25 -25 -25 -25 -25 -25 -25
-32 -31 -30 -29 -29 -29 -29 -29 -28 -28 -28 -27 -26 -25 -25 -25 -26 -26 -26 -25 -25 -25 -25 -25 -25 -25 -25 -25 -25 -24 -24 -24 -24 -24 -24 -24 -24 -24 -24 -24 -24 -24 -25 -25 -26 -27 -27 -27 -26 -26 -26 -26 -26 -26
-32 -31 -30 -29 -29 -29 -29 -29 -28 -28 -27 -27 -26 -26 -25 -25 -26 -26 -26 -25 -25 -25 -25 -25 -25 -25 -25 -25 -25 -25 -25 -25 -25 -25 -25 -25 -25 -25 -24 -25 -25 -26 -27 -28 -28 -28 -28 -28 -27 -27 -27 -27 -27 -28

GFSWCAN_500_temp_054.txt.gz
Temp
-17 -17 -17 -18 -19 -19 -18 -18 -19 -19 -20 -19 -19 -18 -19 -19 -19 -19 -20 -20 -19 -19 -20 -20 -20 -20 -20 -20 -20 -20 -20 -19 -19 -19 -19 -19 -19 -19 -19 -18 -18 -18 -18 -18 -17 -17 -17 -17 -17 -17 -17 -17 -17 -17
-17 -17 -18 -19 -20 -19 -19 -19 -19 -20 -20 -19 -19 -18 -18 -19 -19 -19 -20 -20 -20 -20 -20 -20 -21 -21 -21 -20 -20 -20 -20 -19 -19 -19 -19 -19 -19 -19 -19 -19 -18 -18 -18 -18 -18 -18 -18 -17 -17 -17 -17 -17 -17 -17
-18 -19 -19 -20 -20 -19 -19 -19 -20 -20 -19 -19 -19 -18 -19 -19 -18 -18 -19 -19 -20 -20 -21 -20 -21 -21 -21 -20 -20 -20 -20 -20 -20 -20 -20 -20 -20 -20 -19 -19 -19 -19 -18 -18 -18 -18 -18 -18 -17 -17 -17 -17 -17 -17
-19 -19 -19 -20 -20 -19 -19 -20 -20 -20 -19 -19 -19 -19 -19 -18 -18 -17 -18 -18 -19 -21 -22 -22 -22 -21 -21 -21 -21 -21 -20 -20 -20 -20 -20 -20 -21 -20 -20 -20 -20 -19 -19 -18 -18 -18 -18 -18 -17 -17 -17 -17 -17 -17
-19 -20 -20 -21 -20 -19 -20 -20 -20 -20 -19 -18 -18 -19 -18 -18 -17 -17 -17 -20 -21 -24 -24 -24 -23 -22 -22 -21 -21 -21 -21 -21 -21 -21 -21 -21 -21 -21 -20 -20 -20 -19 -19 -18 -18 -18 -18 -18 -18 -17 -17 -17 -17 -17
-20 -20 -21 -21 -20 -20 -20 -20 -20 -19 -18 -19 -19 -18 -18 -17 -17 -17 -20 -22 -24 -24 -23 -23 -23 -22 -22 -21 -21 -21 -21 -21 -21 -21 -21 -21 -21 -21 -20 -20 -20 -19 -19 -19 -19 -18 -18 -18 -17 -17 -17 -17 -17 -17
-21 -21 -21 -21 -20 -21 -21 -20 -20 -19 -19 -19 -19 -18 -17 -17 -18 -21 -23 -23 -23 -23 -22 -22 -22 -21 -21 -21 -21 -21 -21 -21 -21 -21 -21 -20 -20 -20 -19 -19 -20 -19 -19 -19 -18 -18 -18 -18 -17 -17 -17 -17 -17 -17
-22 -22 -22 -21 -21 -21 -21 -20 -20 -19 -19 -19 -19 -18 -18 -19 -22 -23 -23 -23 -23 -23 -22 -22 -21 -21 -21 -21 -21 -21 -21 -21 -21 -21 -21 -20 -20 -20 -19 -20 -20 -19 -19 -19 -18 -18 -18 -18 -18 -18 -17 -17 -17 -17
-22 -23 -22 -22 -22 -22 -21 -21 -20 -19 -19 -19 -19 -19 -20 -22 -22 -22 -22 -22 -22 -22 -22 -21 -21 -21 -21 -21 -21 -21 -21 -21 -21 -20 -20 -20 -20 -20 -20 -20 -20 -19 -19 -18 -18 -18 -18 -18 -18 -18 -17 -17 -17 -17
-22 -22 -22 -22 -22 -22 -21 -21 -21 -20 -19 -20 -20 -20 -21 -21 -21 -21 -21 -21 -22 -22 -22 -22 -21 -21 -22 -22 -21 -21 -21 -21 -20 -20 -20 -20 -20 -20 -20 -20 -19 -19 -19 -18 -18 -18 -18 -18 -18 -18 -18 -17 -17 -17
-23 -23 -22 -22 -22 -22 -22 -21 -21 -20 -20 -21 -21 -20 -21 -21 -21 -21 -21 -21 -22 -22 -21 -21 -21 -22 -22 -21 -21 -21 -21 -21 -20 -20 -20 -20 -20 -20 -20 -20 -20 -20 -19 -19 -18 -18 -18 -18 -18 -18 -18 -18 -17 -17
-23 -22 -22 -22 -22 -22 -22 -21 -21 -20 -20 -21 -21 -20 -21 -21 -21 -21 -21 -21 -21 -21 -21 -21 -21 -21 -21 -21 -21 -21 -21 -21 -21 -20 -20 -20 -20 -20 -20 -20 -20 -20 -19 -19 -19 -18 -18 -18 -18 -18 -18 -18 -18 -17
-23 -23 -23 -22 -22 -22 -21 -21 -21 -21 -21 -21 -21 -21 -21 -21 -21 -21 -21 -21 -21 -21 -21 -21 -21 -21 -21 -21 -21 -21 -21 -21 -21 -21 -21 -20 -20 -20 -20 -19 -20 -20 -20 -20 -20 -19 -19 -19 -18 -18 -18 -18 -18 -17
-23 -23 -23 -22 -22 -22 -22 -22 -21 -21 -21 -21 -21 -21 -21 -21 -21 -21 -21 -21 -21 -21 -21 -21 -21 -21 -21 -21 -21 -21 -21 -21 -21 -21 -21 -20 -20 -20 -20 -20 -20 -20 -20 -20 -19 -19 -19 -19 -18 -18 -18 -18 -18 -18
-24 -23 -23 -23 -22 -22 -22 -22 -22 -21 -21 -21 -21 -21 -21 -21 -21 -21 -21 -21 -21 -21 -21 -21 -21 -21 -21 -21 -21 -21 -21 -21 -21 -20 -20 -20 -20 -20 -20 -20 -20 -20 -20 -20 -19 -19 -19 -19 -18 -18 -18 -18 -18 -18
-24 -24 -24 -24 -23 -23 -22 -22 -22 -22 -21 -21 -21 -21 -21 -21 -21 -21 -21 -21 -21 -21 -21 -21 -21 -21 -21 -21 -21 -21 -21 -21 -21 -21 -20 -20 -20 -20 -20 -20 -20 -20 -20 -20 -20 -20 -20 -19 -19 -19 -19 -19 -19 -19
-25 -24 -24 -24 -23 -23 -22 -22 -22 -22 -21 -21 -21 -21 -21 -21 -21 -21 -21 -21 -21 -21 -21 -21 -21 -21 -21 -21 -21 -21 -21 -21 -21 -21 -21 -21 -21 -20 -20 -20 -20 -20 -20 -20 -20 -20 -20 -20 -20 -19 -19 -19 -19 -19
-25 -25 -24 -24 -24 -23 -22 -23 -23 -22 -22 -22 -22 -21 -21 -21 -21 -21 -21 -21 -21 -21 -21 -21 -21 -21 -21 -21 -21 -22 -21 -21 -21 -21 -21 -21 -21 -21 -21 -21 -21 -21 -21 -21 -20 -20 -20 -20 -20 -20 -20 -20 -20 -20
-25 -25 -25 -24 -24 -24 -24 -24 -23 -23 -23 -22 -22 -21 -22 -22 -21 -21 -21 -21 -21 -21 -21 -21 -20 -21 -21 -22 -21 -21 -21 -21 -21 -21 -21 -21 -21 -20 -20 -20 -20 -20 -20 -20 -20 -20 -20 -20 -20 -20 -20 -20 -20 -20
-26 -26 -25 -25 -25 -24 -24 -24 -24 -23 -23 -23 -22 -22 -22 -22 -21 -21 -21 -21 -20 -20 -20 -20 -21 -21 -20 -20 -21 -21 -21 -21 -21 -21 -21 -21 -20 -20 -20 -20 -20 -20 -20 -20 -21 -21 -21 -20 -21 -21 -21 -20 -20 -20
-26 -26 -26 -26 -25 -25 -25 -25 -24 -24 -23 -23 -23 -22 -22 -22 -22 -21 -21 -21 -20 -21 -21 -21 -21 -20 -20 -20 -20 -20 -20 -21 -21 -20 -20 -20 -20 -20 -20 -20 -20 -20 -20 -20 -20 -20 -20 -20 -21 -21 -21 -21 -21 -21
-27 -27 -27 -27 -26 -26 -26 -25 -25 -24 -24 -23 -23 -23 -22 -22 -22 -21 -21 -21 -21 -22 -21 -21 -20 -20 -21 -21 -21 -21 -21 -21 -20 -20 -20 -20 -20 -20 -20 -20 -20 -20 -20 -20 -21 -21 -20 -20 -20 -20 -21 -21 -21 -21
-28 -28 -27 -27 -27 -27 -27 -26 -25 -25 -25 -24 -24 -23 -23 -22 -22 -22 -21 -21 -22 -22 -21 -21 -21 -21 -21 -21 -21 -21 -21 -21 -21 -21 -21 -21 -20 -20 -20 -21 -21 -21 -21 -21 -21 -21 -21 -21 -21 -21 -21 -21 -21 -21
-28 -28 -28 -28 -28 -27 -27 -27 -26 -26 -25 -25 -24 -24 -23 -23 -23 -22 -22 -22 -22 -21 -21 -21 -21 -21 -21 -21 -21 -21 -22 -22 -21 -21 -21 -21 -21 -21 -21 -21 -21 -21 -21 -21 -21 -21 -21 -21 -21 -21 -21 -21 -21 -21
-28 -28 -28 -28 -28 -28 -28 -28 -27 -27 -26 -26 -25 -25 -24 -24 -23 -23 -23 -22 -22 -22 -22 -22 -21 -22 -22 -21 -22 -22 -22 -21 -21 -22 -22 -22 -22 -22 -22 -22 -22 -21 -21 -22 -22 -22 -22 -22 -21 -21 -21 -21 -21 -21
-29 -28 -28 -28 -28 -28 -28 -28 -28 -28 -27 -26 -26 -26 -25 -24 -24 -23 -23 -23 -22 -22 -22 -22 -22 -22 -22 -22 -22 -22 -22 -22 -22 -22 -22 -22 -22 -22 -22 -22 -22 -22 -22 -22 -22 -22 -22 -22 -22 -22 -22 -22 -22 -22
-29 -29 -29 -29 -29 -29 -29 -29 -28 -28 -28 -27 -27 -26 -26 -25 -25 -24 -24 -23 -23 -23 -22 -22 -22 -22 -22 -22 -22 -22 -22 -22 -23 -23 -23 -23 -22 -22 -22 -23 -23 -23 -23 -23 -22 -22 -22 -22 -22 -22 -22 -22 -22 -23
-29 -29 -29 -29 -29 -29 -29 -29 -29 -29 -28 -28 -27 -27 -27 -26 -26 -25 -24 -24 -24 -23 -23 -23 -23 -23 -23 -23 -23 -23 -23 -23 -23 -23 -23 -23 -23 -23 -23 -23 -23 -23 -23 -23 -23 -23 -23 -23 -23 -23 -23 -23 -23 -23
-30 -30 -30 -30 -30 -30 -30 -30 -30 -29 -29 -29 -28 -27 -27 -27 -27 -26 -25 -25 -24 -24 -24 -24 -24 -23 -23 -23 -23 -23 -23 -24 -24 -24 -24 -24 -24 -24 -24 -24 -23 -23 -23 -23 -23 -23 -23 -23 -23 -23 -24 -24 -23 -23
-30 -30 -30 -30 -30 -30 -30 -30 -30 -30 -29 -29 -28 -27 -27 -27 -27 -26 -25 -25 -25 -25 -24 -24 -24 -24 -24 -24 -24 -24 -24 -24 -24 -24 -24 -24 -24 -24 -24 -24 -24 -24 -23 -23 -23 -23 -23 -24 -24 -24 -24 -23 -23 -23
-30 -31 -31 -31 -30 -30 -30 -30 -30 -30 -29 -29 -28 -27 -27 -27 -27 -26 -26 -25 -25 -25 -25 -25 -25 -25 -25 -25 -25 -25 -24 -24 -24 -25 -25 -25 -25 -24 -24 -24 -24 -24 -24 -24 -24 -24 -24 -24 -24 -24 -24 -25 -25 -25
-32 -32 -31 -30 -30 -30 -30 -30 -30 -29 -29 -29 -28 -28 -27 -27 -27 -27 -26 -26 -25 -25 -26 -26 -25 -25 -25 -25 -25 -25 -25 -25 -25 -25 -25 -25 -25 -24 -24 -24 -24 -24 -25 -25 -25 -24 -25 -25 -26 -27 -27 -27 -27 -27
-35 -34 -34 -32 -31 -30 -30 -29 -29 -29 -29 -28 -28 -28 -27 -27 -27 -27 -27 -26 -25 -25 -26 -26 -26 -25 -25 -25 -25 -25 -25 -25 -25 -25 -25 -25 -24 -25 -25 -25 -25 -25 -25 -25 -25 -26 -27 -28 -28 -28 -28 -27 -27 -27

GFSWCAN_500_temp_057.txt.gz
Temp
-17 -17 -17 -18 -18 -18 -18 -18 -19 -18 -19 -20 -20 -20 -20 -20 -19 -19 -19 -19 -19 -19 -20 -19 -19 -20 -20 -20 -20 -20 -20 -19 -20 -19 -19 -19 -19 -19 -19 -19 -19 -19 -18 -18 -18 -18 -17 -17 -17 -18 -17 -17 -17 -17
-18 -17 -17 -18 -18 -19 -19 -19 -19 -19 -18 -20 -20 -20 -20 -20 -19 -19 -19 -19 -19 -19 -20 -20 -20 -20 -20 -20 -21 -20 -20 -20 -20 -20 -20 -20 -20 -20 -19 -19 -19 -19 -18 -18 -18 -17 -17 -18 -18 -18 -18 -18 -17 -17
-18 -17 -18 -19 -19 -19 -20 -20 -19 -19 -19 -20 -20 -20 -20 -19 -19 -19 -19 -19 -19 -19 -20 -20 -20 -20 -20 -21 -21 -21 -21 -20 -20 -20 -20 -20 -20 -20 -20 -20 -19 -19 -18 -18 -18 -18 -18 -18 -18 -18 -18 -17 -17 -17
-19 -18 -19 -19 -20 -20 -20 -20 -20 -19 -20 -21 -20 -20 -19 -19 -19 -19 -19 -19 -19 -19 -19 -20 -21 -21 -21 -21 -21 -21 -21 -21 -20 -20 -20 -20 -20 -20 -20 -20 -20 -20 -20 -19 -19 -18 -18 -18 -18 -18 -18 -17 -17 -17
-20 -20 -20 -20 -21 -21 -20 -20 -20 -19 -21 -21 -20 -20 -19 -19 -19 -18 -18 -18 -18 -18 -20 -21 -22 -23 -23 -22 -22 -21 -21 -21 -21 -20 -20 -20 -20 -20 -20 -20 -21 -20 -20 -20 -19 -19 -18 -18 -18 -18 -18 -17 -17 -17
-22 -21 -21 -21 -21 -21 -21 -21 -20 -20 -21 -21 -20 -20 -19 -19 -18 -18 -18 -19 -21 -22 -23 -24 -24 -24 -23 -22 -22 -22 -21 -21 -21 -21 -20 -20 -21 -21 -20 -20 -21 -20 -20 -20 -19 -19 -18 -18 -18 -18 -18 -18 -17 -17
-23 -22 -23 -22 -22 -22 -21 -21 -21 -21 -21 -21 -20 -20 -19 -19 -19 -19 -21 -21 -22 -23 -24 -23 -23 -24 -23 -23 -22 -22 -22 -21 -21 -21 -21 -21 -21 -21 -20 -20 -21 -20 -20 -20 -19 -19 -18 -18 -18 -18 -18 -18 -17 -17
-22 -23 -23 -22 -22 -22 -22 -22 -22 -22 -21 -21 -20 -20 -20 -19 -20 -21 -22 -23 -23 -23 -23 -23 -23 -23 -22 -22 -22 -22 -22 -21 -21 -21 -21 -21 -21 -20 -20 -21 -20 -20 -20 -20 -19 -19 -19 -18 -18 -18 -18 -18 -18 -17
-23 -24 -23 -23 -23 -23 -23 -22 -22 -22 -21 -21 -21 -20 -20 -21 -21 -22 -22 -22 -22 -22 -22 -22 -22 -22 -22 -22 -22 -22 -21 -21 -21 -21 -21 -21 -20 -20 -20 -20 -20 -20 -20 -20 -19 -19 -19 -18 -18 -18 -18 -18 -18 -18
-24 -24 -24 -23 -23 -23 -23 -23 -22 -22 -22 -21 -21 -21 -21 -22 -21 -22 -22 -21 -21 -22 -22 -22 -22 -22 -22 -22 -22 -22 -21 -21 -21 -21 -21 -20 -20 -20 -20 -20 -20 -20 -20 -19 -19 -19 -19 -18 -18 -18 -18 -18 -18 -18
-23 -24 -24 -24 -23 -23 -23 -23 -23 -22 -22 -21 -21 -21 -22 -22 -21 -21 -21 -21 -21 -21 -21 -21 -22 -22 -22 -22 -22 -21 -21 -21 -21 -21 -20 -20 -20 -21 -21 -20 -20 -20 -20 -19 -19 -18 -18 -18 -18 -18 -18 -18 -18 -18
-24 -24 -24 -24 -23 -23 -23 -23 -22 -22 -22 -22 -22 -22 -22 -22 -21 -22 -22 -21 -21 -21 -21 -21 -22 -22 -22 -22 -22 -22 -21 -21 -21 -21 -21 -20 -20 -20 -20 -20 -20 -20 -20 -20 -19 -19 -19 -18 -18 -18 -18 -18 -18 -18
-24 -24 -24 -23 -23 -23 -23 -23 -23 -22 -22 -22 -22 -22 -22 -22 -21 -22 -21 -22 -21 -22 -22 -22 -22 -22 -22 -22 -22 -21 -22 -21 -21 -21 -21 -21 -21 -21 -20 -20 -20 -20 -20 -20 -20 -20 -19 -19 -18 -18 -18 -18 -18 -18
-24 -24 -24 -23 -23 -23 -23 -23 -23 -22 -22 -22 -22 -22 -22 -22 -21 -21 -22 -22 -22 -22 -22 -22 -22 -22 -22 -22 -22 -22 -21 -21 -21 -21 -21 -21 -21 -21 -20 -20 -20 -20 -20 -20 -20 -20 -20 -20 -19 -19 -19 -19 -19 -19
-24 -24 -24 -23 -23 -23 -23 -23 -23 -22 -22 -22 -22 -22 -22 -21 -21 -21 -22 -22 -21 -21 -21 -21 -21 -21 -21 -21 -21 -21 -21 -21 -21 -21 -21 -21 -21 -21 -20 -21 -21 -20 -20 -20 -20 -20 -20 -20 -20 -19 -19 -18 -18 -18
-24 -24 -24 -23 -24 -23 -23 -23 -23 -23 -23 -23 -23 -22 -22 -22 -21 -21 -22 -22 -22 -21 -22 -21 -21 -21 -21 -21 -21 -21 -21 -21 -21 -21 -21 -21 -21 -21 -21 -21 -21 -21 -21 -21 -20 -20 -20 -20 -20 -20 -19 -19 -19 -19
-24 -25 -24 -24 -24 -24 -24 -24 -24 -23 -23 -22 -23 -23 -22 -22 -22 -22 -22 -22 -22 -22 -22 -21 -21 -22 -21 -21 -21 -21 -22 -22 -21 -21 -21 -21 -21 -21 -21 -21 -21 -21 -21 -21 -20 -21 -21 -20 -20 -20 -19 -20 -20 -20
-25 -25 -25 -25 -24 -24 -24 -24 -24 -23 -23 -23 -23 -23 -23 -22 -22 -22 -22 -22 -22 -22 -22 -22 -21 -21 -21 -21 -21 -22 -22 -22 -21 -21 -21 -21 -21 -21 -21 -21 -21 -20 -20 -20 -20 -20 -20 -20 -20 -21 -20 -20 -20 -20
-25 -25 -25 -25 -25 -24 -24 -24 -24 -23 -24 -24 -24 -23 -23 -23 -22 -22 -22 -22 -22 -22 -21 -21 -21 -21 -22 -22 -22 -21 -21 -21 -21 -21 -21 -21 -21 -21 -21 -21 -21 -20 -20 -20 -20 -20 -20 -20 -20 -20 -20 -20 -20 -20
-26 -25 -25 -25 -25 -25 -25 -25 -25 -25 -25 -24 -24 -24 -23 -23 -23 -22 -22 -22 -22 -22 -21 -21 -22 -22 -22 -21 -20 -20 -21 -21 -21 -21 -21 -21 -21 -21 -21 -21 -21 -21 -21 -21 -21 -21 -20 -20 -21 -21 -20 -20 -20 -20
-26 -26 -26 -26 -26 -26 -26 -26 -25 -25 -25 -25 -24 -24 -23 -23 -23 -22 -22 -22 -22 -22 -22 -22 -22 -21 -21 -21 -21 -21 -21 -21 -21 -21 -21 -20 -20 -20 -20 -20 -20 -20 -20 -20 -20 -20 -20 -20 -20 -20 -20 -20 -20 -20
-27 -26 -26 -27 -27 -26 -26 -26 -26 -26 -25 -25 -24 -24 -23 -23 -23 -22 -22 -21 -22 -22 -22 -21 -21 -21 -21 -21 -21 -21 -21 -21 -21 -21 -20 -20 -20 -20 -20 -20 -20 -20 -20 -20 -20 -20 -20 -21 -21 -21 -21 -21 -21 -20
-27 -27 -27 -27 -27 -27 -26 -26 -26 -26 -26 -25 -25 -25 -24 -23 -23 -23 -22 -22 -22 -22 -22 -21 -21 -21 -21 -22 -22 -22 -21 -21 -21 -21 -21 -21 -21 -20 -21 -21 -20 -20 -20 -21 -21 -21 -21 -21 -21 -21 -21 -21 -21 -21
-28 -28 -28 -28 -28 -27 -27 -27 -27 -26 -25 -25 -25 -25 -25 -24 -24 -23 -23 -23 -22 -22 -22 -22 -22 -21 -21 -21 -21 -21 -21 -21 -21 -21 -21 -21 -21 -21 -21 -21 -21 -21 -21 -21 -21 -21 -21 -21 -21 -21 -21 -21 -21 -21
-28 -28 -28 -28 -28 -28 -28 -28 -27 -27 -27 -26 -26 -25 -25 -25 -24 -24 -24 -23 -23 -23 -22 -22 -22 -21 -21 -21 -21 -21 -22 -21 -21 -22 -21 -21 -21 -21 -21 -22 -22 -22 -22 -22 -22 -22 -22 -22 -22 -22 -22 -22 -22 -22
-28 -28 -28 -28 -28 -28 -28 -28 -28 -28 -28 -27 -27 -26 -26 -25 -25 -25 -24 -24 -23 -23 -23 -23 -22 -22 -22 -22 -22 -22 -22 -22 -22 -22 -22 -22 -22 -22 -22 -22 -22 -22 -22 -23 -23 -23 -23 -22 -22 -22 -22 -22 -22 -22
-29 -28 -29 -29 -29 -29 -29 -29 -29 -29 -28 -28 -28 -27 -26 -26 -26 -25 -25 -25 -24 -24 -23 -23 -23 -22 -22 -22 -22 -22 -22 -22 -22 -22 -22 -22 -23 -23 -23 -23 -23 -23 -23 -23 -23 -23 -23 -23 -23 -23 -23 -23 -23 -23
-29 -29 -29 -29 -29 -29 -29 -29 -29 -29 -29 -29 -29 -28 -28 -27 -27 -26 -26 -25 -24 -24 -24 -24 -24 -23 -23 -23 -23 -23 -22 -23 -23 -23 -23 -23 -23 -23 -23 -23 -24 -24 -24 -24 -24 -24 -24 -24 -24 -24 -23 -23 -23 -23
-29 -29 -30 -30 -30 -30 -30 -30 -29 -29 -29 -29 -28 -28 -28 -28 -28 -27 -26 -26 -26 -25 -25 -25 -24 -24 -24 -23 -23 -23 -23 -23 -24 -24 -24 -24 -23 -23 -24 -24 -24 -24 -24 -24 -24 -24 -24 -24 -24 -24 -24 -24 -24 -24
-30 -30 -30 -30 -30 -30 -30 -30 -30 -30 -29 -29 -29 -28 -28 -29 -28 -28 -27 -26 -26 -26 -26 -25 -25 -25 -24 -24 -24 -24 -24 -24 -24 -24 -24 -24 -24 -24 -24 -24 -24 -24 -24 -24 -24 -24 -24 -24 -24 -24 -24 -24 -24 -24
-31 -31 -30 -30 -30 -30 -30 -30 -30 -29 -29 -29 -29 -28 -28 -28 -28 -28 -27 -27 -27 -27 -26 -26 -25 -25 -25 -25 -25 -25 -24 -24 -24 -24 -25 -25 -25 -25 -25 -25 -25 -25 -25 -24 -24 -24 -24 -24 -24 -24 -25 -25 -25 -24
-30 -31 -31 -30 -30 -30 -30 -30 -30 -30 -30 -29 -29 -29 -28 -28 -28 -27 -28 -28 -27 -26 -26 -26 -26 -26 -25 -25 -25 -25 -25 -25 -25 -25 -25 -25 -25 -25 -25 -25 -25 -24 -25 -24 -24 -25 -25 -25 -25 -25 -25 -26 -26 -27
-31 -31 -31 -31 -31 -31 -31 -31 -30 -30 -29 -29 -29 -29 -28 -28 -27 -27 -28 -28 -27 -26 -26 -26 -26 -26 -26 -26 -26 -26 -25 -25 -25 -26 -25 -25 -25 -25 -25 -25 -25 -25 -25 -25 -25 -25 -25 -26 -27 -28 -28 -28 -28 -28

GFSWCAN_500_temp_060.txt.gz
Temp
-18 -18 -19 -19 -19 -19 -19 -19 -19 -20 -20 -19 -19 -18 -18 -20 -21 -21 -20 -20 -19 -19 -19 -19 -20 -20 -20 -20 -20 -20 -20 -20 -20 -20 -20 -20 -20 -20 -20 -20 -19 -19 -19 -18 -18 -18 -18 -18 -17 -17 -17 -17 -18 -18
-19 -20 -21 -20 -20 -19 -19 -19 -19 -20 -20 -20 -19 -19 -19 -20 -20 -21 -20 -20 -20 -19 -19 -19 -19 -20 -20 -20 -20 -20 -20 -20 -20 -20 -20 -20 -20 -20 -20 -20 -19 -19 -19 -19 -19 -18 -18 -18 -18 -17 -18 -18 -18 -18
-20 -21 -21 -20 -20 -20 -20 -20 -21 -21 -20 -20 -20 -19 -20 -21 -21 -20 -20 -19 -19 -19 -19 -19 -20 -19 -19 -20 -20 -20 -20 -21 -21 -20 -20 -20 -20 -20 -20 -20 -20 -20 -19 -19 -19 -19 -18 -18 -18 -18 -18 -18 -18 -18
-21 -21 -21 -21 -21 -22 -21 -21 -22 -21 -21 -20 -20 -20 -21 -21 -20 -20 -19 -19 -19 -19 -19 -20 -19 -20 -20 -20 -20 -20 -21 -21 -21 -21 -20 -20 -20 -20 -20 -20 -20 -20 -20 -20 -19 -19 -18 -18 -18 -18 -18 -18 -18 -18
-22 -22 -21 -22 -22 -22 -22 -22 -22 -22 -21 -21 -20 -21 -21 -21 -20 -20 -20 -19 -19 -19 -18 -18 -19 -19 -20 -20 -20 -22 -22 -22 -21 -21 -21 -21 -21 -20 -20 -20 -20 -20 -20 -20 -20 -19 -18 -18 -18 -18 -18 -18 -18 -18
-22 -22 -23 -23 -23 -22 -22 -23 -23 -22 -22 -21 -21 -22 -21 -21 -20 -20 -20 -19 -18 -20 -21 -21 -21 -21 -22 -23 -22 -23 -23 -22 -21 -21 -21 -21 -21 -20 -20 -20 -21 -21 -21 -20 -20 -20 -19 -18 -18 -18 -18 -18 -18 -18
-22 -22 -23 -23 -23 -23 -23 -23 -23 -23 -22 -22 -22 -22 -21 -21 -20 -20 -20 -21 -21 -22 -22 -23 -23 -24 -25 -25 -24 -23 -23 -22 -22 -21 -21 -21 -21 -20 -20 -20 -21 -21 -21 -21 -20 -20 -20 -19 -18 -18 -18 -18 -18 -18
-23 -23 -23 -23 -22 -23 -23 -23 -23 -23 -23 -23 -22 -22 -21 -21 -21 -21 -22 -22 -22 -22 -23 -23 -24 -24 -24 -23 -23 -23 -23 -22 -22 -21 -21 -21 -21 -20 -20 -21 -21 -21 -21 -20 -20 -20 -20 -19 -18 -18 -18 -18 -18 -18
-23 -23 -23 -22 -23 -23 -24 -23 -23 -24 -23 -23 -22 -22 -21 -22 -22 -23 -22 -22 -22 -22 -22 -23 -23 -23 -23 -23 -22 -22 -22 -22 -22 -21 -21 -21 -21 -21 -21 -20 -20 -20 -20 -20 -20 -20 -19 -19 -19 -18 -18 -18 -18 -18
-23 -23 -22 -23 -23 -24 -24 -23 -24 -24 -23 -23 -23 -22 -22 -22 -23 -22 -23 -22 -22 -22 -22 -22 -23 -22 -22 -22 -22 -22 -22 -22 -21 -22 -21 -21 -21 -21 -20 -20 -20 -20 -20 -20 -20 -20 -19 -19 -19 -19 -18 -18 -18 -18
-23 -23 -23 -23 -24 -24 -24 -24 -24 -24 -23 -23 -23 -22 -23 -23 -23 -22 -22 -22 -22 -22 -22 -22 -22 -22 -22 -22 -22 -22 -22 -22 -21 -21 -21 -21 -21 -21 -21 -20 -20 -20 -20 -20 -20 -19 -19 -19 -19 -19 -18 -18 -18 -18
-22 -23 -24 -25 -25 -25 -24 -24 -24 -24 -23 -23 -23 -22 -23 -23 -22 -22 -22 -22 -22 -22 -22 -22 -22 -22 -22 -22 -22 -22 -22 -22 -21 -21 -21 -21 -21 -21 -21 -21 -20 -20 -20 -20 -20 -20 -19 -19 -19 -19 -19 -18 -18 -18
-25 -25 -25 -25 -25 -25 -24 -24 -24 -23 -23 -23 -23 -23 -23 -23 -22 -22 -22 -22 -22 -22 -22 -22 -22 -22 -22 -22 -22 -22 -22 -22 -21 -21 -21 -21 -21 -21 -21 -21 -20 -20 -20 -20 -20 -20 -20 -20 -20 -19 -19 -19 -18 -18
-26 -26 -26 -25 -25 -24 -24 -24 -24 -24 -24 -23 -23 -23 -23 -22 -22 -22 -22 -22 -22 -22 -22 -22 -22 -22 -22 -22 -22 -22 -22 -22 -22 -22 -22 -22 -22 -22 -21 -21 -21 -21 -20 -20 -20 -20 -20 -20 -20 -20 -19 -19 -19 -19
-26 -26 -26 -25 -25 -25 -24 -24 -24 -24 -24 -23 -23 -23 -23 -23 -22 -22 -23 -22 -22 -22 -22 -22 -22 -22 -22 -22 -22 -22 -22 -21 -22 -21 -21 -22 -22 -22 -21 -21 -21 -21 -21 -21 -21 -20 -20 -20 -20 -20 -20 -20 -20 -19
-25 -25 -25 -25 -24 -24 -24 -24 -23 -23 -23 -23 -22 -23 -23 -23 -23 -23 -23 -22 -22 -22 -22 -22 -22 -22 -22 -21 -22 -21 -22 -22 -21 -21 -21 -21 -21 -21 -21 -21 -21 -21 -21 -21 -21 -21 -21 -20 -20 -20 -20 -20 -20 -20
-24 -25 -25 -25 -25 -24 -24 -24 -24 -24 -23 -23 -23 -23 -23 -23 -23 -23 -23 -23 -22 -22 -22 -22 -22 -22 -22 -21 -22 -22 -22 -22 -22 -21 -21 -21 -21 -21 -21 -21 -21 -21 -21 -21 -21 -21 -21 -21 -20 -20 -20 -20 -20 -20
-26 -25 -25 -25 -25 -25 -25 -24 -24 -24 -23 -24 -24 -24 -24 -24 -23 -23 -23 -23 -23 -22 -22 -22 -22 -22 -22 -22 -22 -22 -22 -22 -22 -22 -22 -21 -21 -21 -21 -21 -21 -21 -21 -21 -20 -20 -20 -20 -20 -20 -20 -20 -20 -20
-25 -25 -25 -25 -25 -25 -24 -24 -24 -24 -25 -24 -24 -24 -24 -24 -24 -23 -23 -23 -23 -23 -22 -22 -22 -22 -22 -22 -22 -22 -22 -21 -21 -21 -22 -22 -22 -21 -21 -21 -21 -21 -21 -20 -20 -20 -20 -20 -20 -20 -20 -20 -21 -21
-25 -25 -25 -25 -25 -25 -25 -25 -24 -25 -24 -24 -24 -24 -24 -24 -24 -23 -23 -23 -23 -23 -23 -22 -22 -22 -22 -22 -22 -21 -21 -21 -21 -21 -21 -21 -21 -21 -21 -21 -21 -21 -21 -21 -21 -21 -21 -21 -21 -21 -21 -21 -21 -21
-26 -26 -25 -25 -25 -25 -25 -25 -25 -25 -25 -25 -25 -25 -24 -24 -24 -24 -23 -23 -22 -22 -23 -23 -23 -22 -22 -22 -21 -21 -21 -21 -21 -21 -21 -21 -21 -21 -21 -21 -20 -20 -20 -20 -20 -20 -20 -20 -21 -21 -21 -21 -20 -20
-26 -26 -26 -26 -26 -26 -26 -26 -26 -26 -26 -25 -25 -25 -25 -25 -24 -24 -23 -23 -23 -23 -23 -22 -22 -22 -22 -21 -21 -21 -21 -21 -21 -21 -21 -21 -21 -21 -21 -21 -20 -20 -20 -20 -20 -20 -20 -20 -20 -21 -21 -21 -21 -21
-27 -27 -27 -27 -26 -26 -26 -26 -26 -26 -26 -26 -26 -26 -25 -25 -25 -24 -24 -24 -24 -23 -22 -22 -22 -22 -22 -22 -22 -21 -21 -21 -21 -21 -21 -21 -21 -21 -21 -21 -21 -21 -21 -21 -21 -21 -21 -21 -21 -21 -21 -21 -21 -21
-28 -28 -27 -27 -27 -27 -27 -27 -27 -26 -26 -26 -26 -26 -26 -26 -25 -25 -24 -24 -23 -23 -23 -23 -22 -22 -22 -22 -22 -21 -21 -21 -21 -21 -21 -21 -21 -21 -21 -21 -21 -21 -21 -21 -21 -21 -21 -21 -21 -22 -22 -22 -22 -22
-28 -28 -28 -28 -28 -28 -28 -28 -28 -27 -27 -27 -27 -26 -26 -26 -26 -26 -25 -25 -24 -24 -23 -23 -23 -22 -22 -22 -22 -21 -21 -21 -21 -21 -21 -21 -21 -21 -21 -21 -21 -21 -22 -22 -22 -22 -22 -22 -22 -22 -22 -22 -22 -22
-29 -29 -29 -29 -28 -28 -28 -28 -28 -28 -28 -27 -27 -27 -27 -27 -26 -26 -26 -25 -25 -25 -24 -24 -23 -23 -23 -22 -22 -22 -22 -22 -22 -21 -22 -22 -22 -22 -22 -22 -22 -22 -22 -22 -22 -22 -22 -22 -23 -23 -23 -23 -23 -23
-29 -29 -29 -29 -29 -29 -29 -29 -29 -29 -28 -28 -28 -27 -27 -27 -27 -27 -26 -26 -26 -25 -25 -24 -24 -24 -23 -23 -23 -23 -22 -22 -22 -22 -22 -22 -22 -22 -22 -22 -22 -22 -22 -22 -23 -23 -23 -23 -23 -23 -23 -23 -23 -23
-29 -29 -29 -30 -30 -29 -29 -29 -29 -29 -28 -28 -28 -28 -28 -28 -27 -27 -27 -26 -26 -26 -26 -25 -25 -24 -24 -23 -23 -23 -23 -23 -23 -23 -23 -23 -22 -23 -23 -23 -23 -23 -23 -23 -24 -24 -24 -24 -24 -24 -24 -24 -24 -24
-30 -30 -30 -30 -30 -29 -29 -29 -29 -29 -29 -28 -28 -28 -28 -28 -28 -28 -27 -27 -27 -26 -26 -26 -25 -25 -24 -24 -23 -23 -23 -23 -23 -23 -23 -23 -23 -23 -23 -23 -23 -24 -24 -24 -24 -24 -24 -24 -25 -25 -25 -25 -24 -24
-30 -30 -30 -30 -30 -30 -30 -30 -30 -29 -29 -29 -29 -29 -28 -28 -28 -28 -28 -28 -28 -27 -27 -26 -26 -26 -25 -25 -25 -25 -24 -24 -24 -24 -24 -24 -24 -24 -24 -24 -24 -24 -24 -24 -25 -25 -25 -25 -25 -25 -24 -24 -24 -24
-31 -31 -30 -30 -30 -30 -30 -30 -30 -30 -30 -30 -29 -29 -29 -29 -29 -28 -28 -28 -28 -28 -27 -27 -26 -26 -26 -26 -26 -25 -25 -25 -25 -25 -25 -25 -25 -25 -25 -25 -25 -25 -25 -25 -25 -25 -25 -25 -25 -25 -25 -25 -25 -25
-31 -31 -31 -30 -30 -30 -30 -30 -30 -30 -30 -30 -30 -30 -29 -29 -28 -28 -28 -29 -29 -29 -28 -27 -26 -27 -27 -27 -26 -26 -25 -25 -25 -25 -25 -25 -25 -25 -25 -25 -25 -25 -25 -25 -25 -25 -25 -25 -25 -25 -26 -26 -26 -26
-31 -31 -31 -31 -31 -30 -30 -30 -30 -30 -30 -30 -30 -30 -29 -29 -29 -28 -28 -29 -29 -29 -28 -27 -26 -27 -27 -27 -26 -26 -26 -26 -26 -26 -26 -25 -25 -25 -25 -25 -25 -25 -25 -25 -25 -25 -26 -26 -26 -26 -27 -27 -28 -28

GFSWCAN_500_temp_063.txt.gz
Temp
-18 -18 -18 -19 -20 -20 -20 -20 -20 -20 -20 -20 -19 -20 -20 -20 -19 -20 -20 -20 -20 -20 -20 -20 -19 -19 -19 -19 -19 -19 -20 -20 -20 -20 -20 -20 -20 -20 -20 -20 -19 -19 -19 -19 -19 -18 -18 -18 -18 -18 -17 -17 -17 -17
-19 -19 -20 -20 -21 -21 -21 -20 -20 -21 -21 -21 -20 -21 -20 -20 -20 -21 -21 -21 -20 -20 -20 -20 -20 -19 -19 -19 -20 -19 -20 -20 -20 -20 -20 -20 -20 -20 -20 -19 -20 -20 -19 -19 -19 -19 -18 -18 -18 -18 -18 -17 -17 -18
-19 -20 -20 -21 -21 -21 -21 -20 -21 -21 -22 -22 -22 -21 -21 -21 -20 -21 -22 -21 -20 -20 -20 -20 -20 -19 -19 -19 -20 -20 -20 -20 -20 -20 -20 -20 -20 -20 -20 -20 -20 -19 -19 -19 -19 -19 -19 -18 -18 -18 -18 -17 -18 -18
-20 -21 -21 -21 -21 -21 -21 -21 -22 -22 -23 -22 -22 -22 -21 -22 -22 -22 -22 -21 -20 -19 -19 -20 -19 -19 -19 -19 -19 -20 -20 -20 -20 -20 -21 -21 -20 -20 -20 -20 -20 -20 -20 -20 -19 -19 -19 -18 -18 -18 -18 -18 -18 -18
-22 -21 -21 -21 -21 -22 -21 -21 -22 -22 -23 -23 -23 -23 -22 -22 -22 -23 -22 -21 -20 -19 -19 -19 -19 -19 -19 -19 -19 -20 -20 -20 -22 -21 -21 -21 -21 -20 -20 -20 -20 -20 -20 -20 -20 -20 -19 -19 -19 -18 -18 -18 -18 -18
-22 -22 -22 -21 -22 -21 -21 -21 -22 -23 -22 -23 -23 -23 -23 -23 -23 -22 -22 -21 -20 -19 -19 -19 -19 -19 -19 -19 -20 -20 -21 -20 -22 -23 -22 -21 -21 -21 -20 -20 -21 -20 -20 -20 -20 -20 -20 -19 -19 -19 -18 -18 -18 -18
-22 -22 -22 -22 -22 -22 -21 -22 -23 -23 -23 -23 -23 -23 -23 -23 -23 -22 -22 -21 -21 -21 -22 -22 -22 -21 -21 -21 -21 -22 -22 -23 -23 -23 -22 -21 -21 -21 -20 -20 -22 -21 -20 -20 -20 -20 -20 -20 -19 -19 -18 -18 -18 -18
-21 -21 -22 -22 -22 -21 -22 -23 -23 -23 -23 -23 -23 -24 -24 -23 -22 -22 -22 -22 -22 -22 -22 -22 -23 -23 -23 -24 -23 -24 -22 -23 -23 -22 -22 -21 -21 -21 -20 -21 -21 -21 -20 -20 -20 -20 -20 -20 -20 -19 -19 -18 -18 -18
-22 -22 -22 -23 -22 -22 -23 -23 -23 -23 -23 -24 -24 -24 -24 -23 -23 -23 -23 -23 -22 -22 -23 -22 -23 -23 -23 -24 -23 -23 -23 -23 -22 -22 -22 -22 -21 -20 -21 -21 -21 -21 -21 -21 -20 -20 -20 -20 -20 -19 -19 -19 -19 -18
-22 -23 -23 -23 -23 -23 -23 -23 -23 -24 -24 -24 -25 -24 -23 -23 -23 -23 -23 -22 -22 -22 -22 -22 -22 -23 -23 -23 -23 -23 -22 -22 -22 -22 -22 -21 -21 -21 -21 -21 -21 -21 -20 -20 -20 -20 -20 -20 -20 -19 -19 -19 -19 -18
-23 -23 -24 -23 -23 -24 -24 -24 -24 -24 -25 -25 -24 -24 -24 -23 -24 -23 -23 -22 -22 -22 -22 -22 -22 -23 -23 -23 -23 -23 -22 -22 -22 -22 -21 -21 -21 -21 -21 -21 -21 -20 -20 -20 -20 -20 -20 -20 -20 -19 -19 -19 -19 -19
-24 -24 -24 -23 -24 -24 -24 -24 -25 -26 -25 -25 -24 -24 -24 -23 -24 -24 -23 -23 -23 -22 -22 -22 -22 -22 -22 -22 -22 -22 -22 -22 -22 -22 -22 -21 -21 -21 -21 -21 -21 -21 -21 -21 -20 -20 -20 -20 -20 -20 -19 -19 -19 -19
-24 -24 -24 -24 -24 -24 -26 -26 -26 -26 -25 -24 -24 -24 -24 -24 -24 -23 -23 -23 -23 -23 -23 -22 -22 -22 -22 -22 -22 -22 -22 -22 -22 -22 -21 -21 -21 -21 -21 -21 -21 -21 -21 -20 -20 -20 -20 -20 -20 -20 -20 -19 -19 -19
-24 -23 -25 -25 -25 -26 -27 -27 -26 -25 -25 -24 -24 -24 -23 -23 -23 -23 -23 -23 -23 -23 -23 -22 -22 -22 -22 -22 -22 -22 -22 -22 -22 -22 -22 -22 -22 -22 -22 -21 -21 -21 -21 -21 -21 -21 -21 -20 -20 -20 -20 -20 -19 -19
-24 -26 -26 -26 -26 -27 -26 -26 -25 -25 -25 -24 -24 -24 -23 -23 -23 -23 -23 -23 -23 -23 -22 -22 -22 -22 -22 -22 -22 -22 -22 -22 -22 -22 -22 -22 -22 -22 -22 -22 -21 -21 -21 -21 -21 -21 -21 -20 -20 -20 -20 -20 -20 -20
-27 -26 -26 -26 -26 -26 -25 -25 -25 -25 -24 -24 -24 -23 -23 -24 -23 -23 -23 -23 -23 -23 -22 -22 -22 -22 -22 -22 -22 -22 -22 -22 -22 -21 -21 -21 -21 -21 -21 -21 -21 -21 -21 -21 -21 -21 -21 -21 -21 -20 -20 -20 -20 -20
-27 -26 -26 -26 -26 -26 -26 -25 -25 -25 -24 -24 -24 -24 -24 -24 -24 -23 -23 -24 -23 -23 -23 -22 -22 -22 -22 -22 -22 -22 -22 -22 -22 -22 -22 -21 -21 -22 -21 -21 -21 -21 -21 -21 -21 -21 -21 -21 -21 -21 -21 -21 -20 -20
-26 -25 -25 -26 -25 -26 -26 -25 -25 -24 -24 -24 -24 -24 -24 -24 -24 -24 -23 -24 -23 -23 -23 -22 -22 -22 -22 -22 -22 -22 -22 -22 -22 -22 -22 -22 -22 -22 -22 -21 -21 -21 -21 -21 -21 -21 -20 -20 -20 -20 -20 -20 -20 -20
-25 -25 -25 -25 -26 -25 -25 -25 -25 -25 -25 -24 -24 -24 -24 -24 -24 -24 -24 -23 -24 -24 -23 -23 -22 -22 -22 -23 -23 -22 -22 -22 -22 -22 -22 -22 -22 -22 -22 -22 -22 -21 -21 -21 -21 -21 -20 -20 -20 -20 -20 -20 -20 -20
-25 -25 -26 -25 -25 -25 -25 -25 -25 -25 -24 -24 -24 -24 -25 -25 -24 -24 -24 -23 -23 -23 -23 -23 -23 -23 -23 -23 -23 -22 -22 -22 -22 -22 -22 -22 -21 -21 -21 -21 -21 -21 -21 -21 -21 -21 -21 -21 -21 -21 -21 -21 -21 -21
-26 -26 -25 -25 -25 -25 -25 -25 -25 -25 -25 -25 -25 -25 -25 -24 -24 -24 -24 -23 -23 -23 -23 -23 -23 -23 -23 -22 -22 -22 -22 -22 -22 -22 -22 -21 -21 -21 -21 -21 -21 -21 -21 -21 -21 -21 -21 -21 -21 -20 -20 -20 -20 -20
-26 -26 -25 -25 -25 -25 -25 -25 -25 -25 -25 -25 -25 -25 -25 -25 -24 -25 -25 -24 -23 -23 -24 -23 -23 -23 -23 -22 -22 -22 -22 -22 -22 -22 -21 -21 -21 -21 -21 -21 -21 -20 -20 -20 -20 -20 -20 -20 -20 -20 -20 -20 -20 -20
-26 -26 -26 -26 -26 -26 -26 -26 -26 -26 -26 -26 -26 -26 -26 -26 -25 -25 -25 -25 -24 -24 -23 -23 -23 -23 -22 -22 -22 -22 -22 -22 -22 -21 -21 -21 -21 -21 -21 -21 -21 -20 -20 -20 -20 -20 -20 -20 -20 -21 -21 -21 -21 -21
-27 -27 -27 -27 -27 -26 -26 -26 -26 -26 -26 -26 -26 -26 -26 -26 -26 -25 -25 -25 -25 -24 -24 -23 -23 -23 -22 -22 -22 -22 -22 -22 -21 -21 -21 -21 -21 -21 -21 -21 -21 -21 -21 -21 -21 -21 -21 -21 -21 -21 -21 -21 -21 -22
-27 -27 -27 -27 -27 -27 -27 -27 -27 -27 -27 -27 -26 -26 -27 -27 -26 -26 -26 -26 -25 -25 -25 -24 -24 -23 -23 -23 -22 -22 -22 -22 -22 -21 -21 -22 -22 -22 -21 -21 -21 -21 -21 -21 -21 -21 -21 -22 -22 -22 -22 -22 -22 -22
-28 -28 -28 -28 -28 -28 -28 -28 -28 -28 -28 -27 -27 -27 -27 -27 -26 -26 -26 -26 -26 -25 -25 -25 -24 -24 -24 -23 -23 -23 -22 -22 -22 -22 -22 -22 -22 -22 -21 -22 -22 -22 -22 -22 -22 -22 -22 -22 -22 -22 -22 -22 -22 -22
-29 -29 -29 -29 -29 -28 -28 -28 -28 -28 -28 -28 -28 -28 -28 -27 -27 -27 -27 -27 -26 -26 -26 -26 -25 -25 -25 -24 -24 -24 -23 -23 -23 -22 -22 -22 -22 -22 -22 -22 -22 -22 -22 -22 -22 -22 -22 -22 -22 -23 -23 -23 -23 -23
-29 -29 -29 -29 -29 -29 -28 -29 -28 -28 -28 -28 -28 -28 -28 -28 -28 -28 -28 -28 -27 -27 -27 -27 -26 -26 -25 -25 -25 -24 -24 -24 -23 -23 -23 -23 -23 -23 -22 -23 -23 -23 -23 -23 -23 -23 -23 -23 -23 -23 -24 -24 -24 -24
-30 -29 -29 -29 -29 -29 -29 -29 -29 -28 -28 -28 -28 -28 -28 -28 -28 -28 -28 -28 -28 -28 -28 -28 -27 -27 -26 -26 -26 -25 -25 -25 -24 -24 -24 -24 -23 -23 -23 -23 -23 -23 -23 -23 -24 -24 -24 -24 -24 -24 -24 -24 -24 -24
-29 -29 -29 -29 -29 -29 -29 -29 -29 -29 -29 -29 -29 -29 -29 -29 -29 -28 -28 -28 -28 -28 -28 -28 -28 -28 -27 -26 -26 -25 -25 -25 -25 -24 -24 -24 -24 -24 -24 -24 -24 -24 -24 -24 -24 -24 -25 -25 -25 -25 -25 -25 -25 -25
-30 -30 -30 -30 -30 -30 -30 -30 -30 -30 -29 -29 -29 -29 -29 -29 -29 -29 -29 -29 -29 -29 -28 -28 -28 -28 -28 -27 -26 -26 -26 -25 -25 -25 -25 -25 -25 -25 -25 -25 -24 -24 -24 -24 -25 -25 -25 -25 -25 -25 -25 -25 -25 -25
-31 -31 -31 -31 -31 -31 -31 -30 -30 -30 -30 -30 -30 -30 -30 -29 -29 -29 -29 -29 -29 -29 -29 -28 -28 -28 -28 -27 -27 -26 -26 -26 -26 -26 -26 -26 -25 -25 -25 -25 -25 -25 -25 -25 -25 -25 -25 -25 -25 -25 -25 -25 -25 -25
-32 -31 -31 -31 -31 -31 -31 -31 -30 -30 -30 -30 -30 -30 -30 -30 -30 -29 -29 -29 -29 -29 -29 -28 -28 -28 -28 -27 -27 -27 -27 -26 -26 -26 -26 -26 -26 -25 -26 -26 -26 -26 -26 -25 -25 -25 -25 -25 -25 -25 -26 -26 -26 -26

GFSWCAN_500_temp_066.txt.gz
Temp
-16 -17 -18 -18 -19 -19 -20 -20 -20 -20 -20 -20 -20 -21 -22 -21 -21 -22 -21 -21 -21 -21 -22 -21 -21 -21 -21 -20 -20 -20 -20 -20 -20 -20 -19 -19 -19 -19 -19 -19 -19 -19 -19 -19 -19 -19 -19 -19 -18 -18 -18 -18 -18 -18
-18 -18 -18 -19 -19 -20 -20 -20 -20 -21 -20 -20 -21 -22 -22 -22 -22 -22 -22 -22 -21 -21 -22 -21 -21 -21 -21 -21 -20 -20 -20 -20 -20 -20 -20 -20 -20 -20 -20 -19 -20 -19 -19 -19 -19 -19 -19 -19 -18 -18 -18 -18 -18 -18
-19 -19 -20 -20 -20 -21 -21 -21 -21 -21 -20 -21 -21 -21 -22 -22 -22 -23 -23 -22 -22 -22 -22 -22 -21 -21 -21 -21 -20 -20 -20 -20 -20 -20 -20 -20 -20 -20 -20 -19 -19 -19 -19 -19 -19 -19 -19 -18 -18 -18 -18 -18 -18 -18
-19 -20 -20 -20 -20 -21 -21 -21 -21 -21 -21 -21 -21 -22 -22 -22 -23 -22 -23 -22 -23 -22 -21 -21 -21 -20 -20 -20 -20 -20 -20 -20 -21 -21 -21 -20 -20 -20 -20 -20 -20 -19 -20 -20 -19 -19 -19 -19 -18 -18 -18 -18 -18 -18
-20 -20 -20 -21 -21 -21 -21 -21 -21 -21 -21 -21 -21 -22 -23 -22 -23 -23 -23 -23 -22 -22 -22 -21 -20 -20 -20 -20 -20 -20 -20 -20 -20 -20 -21 -21 -20 -21 -20 -20 -20 -20 -20 -20 -20 -19 -19 -19 -19 -19 -19 -18 -18 -18
-22 -22 -21 -21 -21 -21 -22 -21 -21 -20 -21 -22 -22 -23 -22 -23 -24 -23 -23 -23 -22 -22 -22 -22 -21 -21 -20 -20 -20 -20 -20 -20 -22 -21 -21 -22 -21 -21 -20 -20 -20 -20 -20 -20 -20 -20 -20 -19 -19 -19 -19 -19 -18 -18
-22 -21 -21 -21 -21 -22 -22 -21 -21 -20 -21 -22 -23 -23 -24 -23 -23 -24 -23 -23 -22 -22 -23 -23 -23 -22 -21 -21 -20 -20 -20 -21 -23 -23 -22 -22 -22 -22 -21 -20 -21 -20 -20 -20 -20 -20 -19 -19 -20 -19 -19 -19 -19 -19
-22 -21 -21 -21 -21 -21 -22 -22 -21 -21 -22 -23 -23 -23 -24 -24 -24 -24 -24 -23 -23 -23 -23 -23 -23 -23 -23 -22 -21 -21 -22 -22 -23 -23 -23 -22 -22 -22 -21 -21 -21 -21 -20 -20 -20 -20 -20 -19 -19 -20 -20 -19 -19 -19
-22 -22 -21 -21 -21 -22 -22 -22 -21 -22 -23 -23 -24 -24 -24 -25 -24 -24 -24 -23 -23 -23 -23 -23 -23 -23 -23 -23 -23 -24 -24 -23 -23 -23 -22 -23 -22 -21 -21 -22 -22 -21 -21 -20 -20 -20 -20 -20 -19 -20 -20 -20 -20 -19
-22 -22 -22 -22 -22 -22 -22 -21 -21 -22 -23 -24 -24 -25 -24 -24 -25 -24 -23 -23 -23 -23 -23 -23 -23 -23 -23 -23 -24 -24 -23 -23 -23 -22 -23 -22 -22 -22 -22 -22 -21 -21 -21 -21 -20 -20 -20 -20 -20 -20 -20 -20 -20 -19
-22 -22 -22 -22 -22 -22 -21 -22 -23 -23 -24 -24 -25 -25 -26 -26 -25 -24 -23 -23 -23 -23 -23 -23 -23 -23 -23 -23 -23 -23 -23 -23 -23 -23 -22 -22 -22 -22 -21 -21 -21 -21 -21 -21 -21 -21 -21 -20 -20 -20 -20 -20 -19 -19
-22 -22 -22 -22 -22 -22 -21 -22 -23 -25 -25 -25 -26 -27 -26 -25 -25 -24 -23 -23 -23 -23 -23 -23 -23 -23 -23 -23 -23 -23 -23 -23 -22 -22 -22 -22 -22 -22 -21 -21 -21 -21 -21 -21 -21 -21 -21 -20 -20 -20 -20 -20 -20 -19
-22 -23 -22 -22 -22 -22 -23 -23 -24 -24 -25 -27 -27 -27 -26 -25 -24 -24 -23 -23 -24 -24 -23 -23 -23 -23 -23 -23 -23 -23 -23 -22 -22 -22 -22 -22 -21 -21 -21 -21 -21 -21 -21 -21 -21 -21 -21 -21 -21 -20 -20 -20 -20 -19
-23 -22 -22 -22 -23 -24 -24 -24 -26 -27 -28 -28 -27 -26 -26 -25 -24 -24 -24 -24 -24 -24 -23 -23 -23 -23 -23 -23 -23 -22 -22 -22 -22 -22 -22 -22 -22 -22 -22 -21 -21 -21 -21 -21 -21 -21 -21 -21 -21 -21 -21 -20 -20 -20
-22 -23 -21 -24 -24 -25 -26 -27 -27 -27 -27 -27 -26 -26 -24 -24 -24 -24 -24 -24 -24 -24 -24 -23 -23 -23 -23 -23 -23 -23 -22 -22 -22 -22 -22 -22 -22 -22 -22 -22 -22 -22 -22 -22 -21 -21 -21 -21 -21 -21 -21 -21 -21 -21
-22 -22 -23 -25 -26 -27 -27 -27 -28 -27 -27 -26 -25 -25 -24 -24 -24 -24 -24 -24 -24 -24 -24 -23 -23 -23 -23 -23 -23 -22 -22 -23 -23 -22 -22 -22 -22 -22 -22 -22 -22 -22 -22 -22 -22 -22 -22 -21 -21 -21 -21 -20 -21 -21
-24 -23 -25 -26 -26 -27 -27 -27 -26 -26 -25 -24 -25 -25 -24 -25 -24 -24 -24 -24 -24 -24 -24 -24 -23 -23 -22 -22 -22 -23 -23 -23 -22 -22 -22 -22 -22 -22 -22 -22 -22 -22 -22 -22 -21 -21 -21 -21 -21 -21 -21 -21 -21 -20
-26 -26 -26 -26 -26 -26 -26 -26 -26 -25 -25 -25 -25 -25 -24 -24 -24 -24 -24 -24 -24 -24 -24 -24 -23 -23 -22 -22 -22 -22 -22 -22 -22 -22 -22 -22 -22 -22 -22 -22 -22 -22 -22 -22 -21 -21 -21 -21 -21 -20 -20 -20 -20 -20
-26 -26 -26 -26 -26 -26 -26 -25 -25 -25 -25 -25 -25 -24 -24 -24 -24 -24 -24 -24 -24 -24 -24 -24 -24 -23 -23 -23 -23 -22 -22 -22 -22 -22 -22 -22 -22 -22 -22 -22 -22 -22 -22 -22 -22 -21 -21 -21 -21 -21 -20 -20 -20 -20
-26 -25 -25 -26 -26 -25 -24 -24 -25 -25 -25 -25 -24 -24 -24 -24 -24 -24 -25 -24 -24 -24 -24 -24 -23 -23 -23 -23 -23 -23 -22 -22 -22 -22 -22 -22 -22 -22 -22 -22 -22 -21 -21 -21 -21 -21 -21 -21 -21 -21 -21 -21 -21 -21
-26 -26 -25 -26 -25 -25 -25 -25 -25 -25 -25 -24 -24 -24 -24 -24 -24 -25 -25 -24 -24 -24 -24 -24 -24 -23 -24 -23 -23 -23 -23 -23 -23 -22 -22 -22 -22 -22 -22 -22 -22 -21 -21 -21 -21 -21 -21 -21 -21 -21 -20 -20 -20 -20
-26 -26 -26 -26 -25 -25 -25 -25 -25 -25 -24 -24 -24 -24 -24 -24 -25 -25 -25 -24 -24 -25 -25 -24 -24 -23 -24 -23 -23 -23 -23 -23 -23 -22 -22 -22 -22 -22 -22 -21 -21 -21 -21 -21 -21 -21 -20 -20 -20 -20 -20 -20 -20 -20
-26 -26 -26 -26 -26 -26 -26 -25 -25 -25 -25 -25 -25 -25 -25 -25 -25 -25 -25 -25 -25 -25 -24 -24 -23 -24 -24 -24 -23 -23 -23 -23 -22 -22 -22 -22 -22 -22 -21 -21 -21 -21 -21 -21 -21 -21 -21 -21 -20 -20 -20 -20 -20 -20
-26 -26 -26 -26 -26 -26 -26 -26 -26 -26 -26 -26 -26 -26 -26 -26 -26 -26 -26 -25 -25 -25 -25 -25 -24 -24 -24 -23 -23 -23 -23 -23 -22 -22 -22 -22 -22 -22 -21 -21 -21 -21 -21 -21 -21 -21 -21 -21 -21 -21 -21 -21 -21 -21
-27 -27 -27 -27 -27 -27 -27 -26 -26 -26 -26 -26 -27 -27 -27 -27 -27 -27 -26 -26 -26 -26 -25 -25 -25 -25 -25 -24 -23 -23 -23 -23 -23 -22 -22 -22 -22 -22 -21 -21 -21 -21 -21 -21 -21 -21 -21 -21 -21 -21 -21 -21 -21 -22
-27 -27 -27 -27 -27 -27 -27 -27 -27 -27 -27 -27 -27 -27 -27 -27 -27 -27 -27 -27 -27 -27 -26 -26 -26 -25 -25 -25 -25 -24 -23 -23 -23 -23 -22 -22 -22 -22 -22 -22 -22 -21 -21 -21 -21 -21 -22 -22 -22 -22 -22 -22 -22 -22
-28 -28 -28 -28 -28 -28 -28 -28 -28 -28 -28 -28 -28 -28 -28 -28 -28 -28 -28 -28 -28 -27 -27 -26 -26 -26 -26 -26 -25 -25 -24 -24 -24 -23 -23 -23 -23 -22 -22 -22 -22 -22 -22 -22 -22 -22 -22 -22 -22 -22 -22 -22 -22 -22
-29 -29 -29 -28 -28 -28 -28 -28 -28 -28 -28 -28 -28 -28 -28 -28 -28 -28 -28 -28 -28 -28 -28 -28 -28 -28 -27 -26 -26 -26 -26 -25 -25 -24 -24 -24 -23 -23 -23 -23 -23 -23 -23 -23 -23 -23 -23 -23 -23 -23 -23 -23 -23 -23
-30 -29 -29 -29 -29 -29 -29 -29 -29 -29 -29 -28 -28 -28 -28 -28 -28 -28 -28 -28 -28 -28 -28 -28 -28 -28 -28 -28 -27 -27 -26 -26 -26 -25 -25 -25 -24 -24 -24 -24 -24 -23 -23 -23 -23 -23 -23 -23 -24 -24 -24 -24 -24 -24
-30 -29 -29 -29 -29 -29 -29 -29 -29 -29 -29 -28 -28 -28 -28 -28 -28 -28 -28 -28 -28 -28 -28 -28 -28 -28 -28 -28 -28 -27 -27 -26 -26 -26 -26 -25 -25 -25 -24 -24 -24 -24 -24 -24 -24 -24 -24 -24 -24 -24 -24 -25 -25 -25
-29 -29 -29 -29 -29 -29 -29 -29 -29 -29 -28 -28 -28 -28 -28 -28 -28 -29 -29 -29 -29 -29 -29 -28 -28 -28 -28 -28 -28 -28 -28 -27 -27 -26 -25 -25 -25 -25 -24 -24 -24 -24 -24 -24 -25 -25 -25 -25 -25 -25 -25 -25 -25 -25
-30 -30 -30 -30 -30 -30 -30 -30 -30 -30 -30 -30 -30 -30 -30 -30 -29 -29 -29 -29 -29 -29 -29 -29 -29 -28 -28 -28 -28 -28 -28 -28 -27 -27 -26 -26 -26 -26 -25 -25 -25 -25 -25 -25 -25 -25 -25 -25 -26 -26 -26 -26 -26 -25
-31 -31 -31 -31 -31 -31 -31 -31 -30 -30 -30 -30 -30 -30 -30 -30 -30 -30 -30 -30 -29 -29 -29 -29 -28 -28 -28 -28 -29 -28 -28 -28 -28 -27 -27 -27 -26 -26 -26 -26 -26 -26 -26 -26 -26 -26 -26 -26 -26 -26 -25 -26 -26 -26

GFSWCAN_500_temp_069.txt.gz
Temp
-16 -16 -16 -17 -17 -18 -17 -17 -17 -17 -18 -18 -18 -18 -19 -19 -20 -21 -21 -21 -22 -22 -21 -20 -21 -21 -21 -21 -22 -21 -21 -21 -21 -21 -20 -20 -20 -20 -20 -20 -20 -20 -19 -19 -19 -19 -19 -19 -19 -19 -19 -19 -19 -18
-16 -16 -17 -17 -18 -18 -18 -19 -18 -18 -18 -18 -19 -19 -19 -20 -21 -21 -21 -22 -22 -22 -21 -21 -22 -22 -21 -22 -22 -22 -21 -21 -22 -21 -20 -20 -20 -20 -20 -20 -20 -20 -20 -19 -19 -19 -19 -19 -19 -19 -19 -19 -18 -18
-17 -17 -17 -17 -19 -20 -20 -20 -20 -19 -18 -19 -19 -20 -20 -20 -20 -20 -22 -23 -23 -22 -21 -23 -23 -23 -22 -21 -21 -21 -22 -21 -22 -22 -21 -20 -20 -20 -20 -20 -20 -20 -20 -19 -19 -19 -19 -19 -19 -19 -19 -18 -18 -18
-17 -18 -18 -19 -19 -20 -21 -21 -20 -20 -19 -19 -19 -20 -20 -20 -20 -21 -23 -23 -23 -22 -20 -23 -23 -22 -22 -21 -20 -21 -22 -21 -21 -22 -21 -21 -20 -20 -20 -20 -20 -20 -19 -19 -19 -19 -19 -19 -19 -19 -19 -18 -18 -18
-17 -18 -19 -20 -21 -22 -22 -22 -21 -21 -20 -20 -19 -19 -19 -20 -20 -21 -23 -23 -23 -22 -21 -23 -22 -22 -21 -21 -20 -21 -21 -22 -21 -21 -22 -21 -21 -21 -21 -20 -20 -20 -20 -19 -19 -19 -19 -19 -19 -19 -19 -19 -18 -18
-17 -18 -19 -21 -22 -22 -21 -22 -21 -21 -20 -21 -20 -20 -20 -20 -21 -22 -23 -24 -24 -21 -22 -23 -23 -23 -22 -22 -21 -20 -21 -21 -21 -22 -21 -21 -21 -22 -21 -20 -21 -20 -20 -20 -20 -20 -19 -19 -19 -19 -19 -19 -19 -19
-18 -19 -19 -20 -21 -22 -22 -22 -21 -21 -21 -21 -21 -20 -21 -21 -21 -23 -24 -24 -23 -23 -23 -24 -23 -23 -23 -23 -21 -21 -20 -21 -21 -21 -22 -22 -22 -22 -20 -21 -21 -21 -20 -20 -20 -20 -19 -19 -19 -19 -19 -20 -19 -19
-19 -20 -21 -21 -22 -23 -22 -22 -21 -21 -22 -21 -21 -21 -21 -21 -22 -23 -24 -23 -23 -24 -24 -24 -23 -23 -23 -23 -23 -21 -21 -20 -21 -21 -22 -23 -23 -22 -21 -22 -22 -22 -21 -21 -20 -20 -20 -20 -19 -19 -19 -19 -20 -20
-20 -21 -22 -22 -22 -23 -23 -22 -22 -22 -22 -21 -21 -21 -21 -21 -23 -24 -23 -23 -24 -23 -24 -24 -23 -23 -23 -23 -23 -23 -22 -22 -22 -22 -23 -23 -23 -22 -21 -22 -22 -22 -22 -21 -21 -20 -20 -20 -20 -20 -19 -19 -19 -20
-21 -21 -22 -22 -23 -23 -23 -23 -22 -22 -21 -22 -21 -21 -21 -22 -23 -24 -24 -24 -24 -24 -24 -24 -23 -23 -23 -23 -23 -24 -25 -25 -23 -23 -23 -22 -22 -22 -22 -22 -22 -22 -22 -21 -21 -21 -21 -20 -20 -20 -20 -20 -20 -20
-21 -22 -22 -22 -23 -23 -22 -22 -22 -22 -21 -21 -21 -21 -23 -24 -25 -25 -25 -24 -24 -24 -24 -23 -24 -23 -23 -23 -23 -23 -23 -23 -23 -23 -22 -22 -23 -23 -22 -22 -22 -21 -22 -21 -21 -21 -21 -21 -21 -21 -20 -20 -21 -20
-22 -22 -22 -23 -22 -22 -22 -22 -22 -21 -21 -21 -21 -22 -23 -25 -26 -25 -25 -24 -24 -24 -24 -23 -23 -23 -23 -23 -23 -23 -23 -23 -23 -23 -23 -22 -23 -22 -22 -22 -22 -22 -21 -21 -21 -21 -21 -21 -21 -21 -21 -21 -21 -20
-22 -23 -23 -23 -22 -22 -22 -21 -21 -21 -21 -21 -22 -24 -28 -27 -26 -25 -25 -25 -24 -24 -24 -24 -23 -23 -23 -23 -23 -23 -23 -23 -23 -23 -23 -23 -22 -22 -22 -22 -21 -21 -21 -21 -21 -21 -21 -21 -21 -21 -21 -21 -21 -20
-23 -23 -23 -22 -22 -22 -21 -21 -21 -21 -21 -24 -26 -27 -28 -27 -26 -26 -25 -25 -24 -24 -24 -24 -24 -23 -23 -23 -23 -23 -23 -23 -23 -23 -22 -22 -22 -22 -22 -22 -22 -21 -21 -21 -21 -21 -21 -21 -21 -21 -21 -21 -21 -21
-23 -23 -22 -22 -22 -21 -21 -22 -22 -21 -24 -27 -28 -27 -27 -26 -26 -25 -25 -25 -25 -24 -24 -24 -24 -24 -23 -23 -23 -23 -23 -23 -23 -23 -22 -22 -22 -22 -22 -22 -22 -22 -22 -22 -22 -21 -21 -21 -21 -21 -21 -21 -21 -21
-23 -23 -22 -22 -21 -22 -22 -24 -24 -25 -27 -28 -27 -26 -26 -26 -26 -25 -25 -25 -25 -24 -24 -24 -24 -24 -23 -23 -23 -23 -23 -23 -22 -22 -23 -23 -23 -23 -22 -22 -22 -22 -22 -22 -22 -22 -22 -22 -22 -21 -21 -21 -21 -21
-23 -22 -22 -22 -22 -22 -23 -24 -26 -27 -27 -27 -26 -26 -26 -26 -25 -25 -25 -25 -25 -24 -24 -24 -24 -24 -23 -23 -23 -23 -23 -23 -23 -23 -23 -23 -22 -22 -22 -22 -22 -22 -22 -22 -22 -22 -22 -22 -22 -21 -21 -21 -21 -21
-22 -22 -22 -22 -23 -23 -24 -26 -26 -26 -26 -26 -26 -26 -25 -25 -24 -24 -24 -25 -24 -24 -24 -24 -24 -24 -24 -24 -23 -23 -23 -23 -23 -23 -23 -23 -22 -23 -23 -22 -22 -22 -22 -22 -22 -22 -22 -21 -21 -21 -21 -21 -21 -20
-22 -22 -22 -23 -25 -25 -26 -26 -26 -26 -26 -26 -25 -25 -24 -24 -24 -24 -24 -24 -25 -24 -24 -24 -23 -23 -24 -24 -24 -23 -23 -22 -23 -23 -23 -23 -23 -23 -22 -22 -22 -22 -22 -22 -22 -22 -22 -21 -21 -21 -21 -21 -21 -21
-22 -23 -24 -25 -26 -26 -26 -26 -25 -26 -26 -25 -24 -24 -24 -24 -24 -24 -24 -25 -25 -24 -24 -24 -23 -23 -24 -24 -24 -24 -23 -23 -22 -22 -23 -23 -23 -22 -22 -22 -22 -22 -22 -22 -22 -21 -22 -22 -22 -21 -21 -21 -21 -21
-25 -25 -26 -26 -26 -26 -26 -26 -26 -25 -24 -24 -25 -25 -25 -25 -24 -24 -24 -24 -24 -25 -25 -25 -24 -23 -23 -24 -24 -23 -23 -23 -23 -23 -23 -22 -23 -22 -22 -22 -22 -22 -22 -22 -22 -22 -22 -22 -21 -21 -21 -21 -21 -20
-26 -26 -26 -26 -26 -26 -26 -26 -26 -25 -25 -25 -25 -25 -24 -24 -24 -24 -24 -24 -25 -25 -25 -25 -24 -24 -24 -24 -24 -23 -23 -23 -23 -23 -23 -23 -23 -23 -23 -22 -22 -22 -22 -22 -22 -22 -22 -21 -21 -21 -21 -21 -21 -21
-27 -27 -27 -27 -26 -26 -26 -26 -26 -26 -25 -25 -25 -25 -25 -25 -25 -25 -25 -25 -25 -25 -25 -25 -24 -24 -25 -24 -24 -24 -23 -23 -23 -23 -23 -23 -23 -23 -23 -22 -22 -22 -22 -22 -22 -22 -21 -21 -21 -21 -21 -21 -21 -21
-27 -27 -27 -27 -26 -26 -26 -26 -26 -26 -26 -26 -26 -26 -26 -26 -26 -26 -26 -26 -26 -26 -25 -25 -25 -25 -25 -25 -24 -24 -24 -24 -24 -23 -23 -23 -23 -23 -23 -22 -22 -22 -22 -22 -22 -21 -21 -21 -21 -21 -21 -21 -21 -21
-27 -27 -27 -27 -27 -26 -27 -27 -27 -27 -27 -26 -26 -26 -26 -26 -26 -26 -26 -27 -27 -27 -26 -26 -26 -26 -26 -25 -25 -25 -24 -24 -24 -24 -23 -23 -23 -23 -22 -22 -22 -22 -22 -22 -22 -21 -21 -21 -21 -21 -21 -21 -21 -21
-27 -27 -27 -27 -27 -27 -27 -27 -27 -27 -27 -27 -27 -27 -27 -27 -27 -27 -27 -27 -27 -27 -27 -27 -27 -27 -26 -26 -26 -25 -25 -25 -24 -24 -24 -24 -23 -23 -23 -23 -22 -22 -22 -22 -22 -22 -21 -21 -21 -21 -21 -21 -22 -22
-28 -28 -27 -27 -27 -28 -28 -28 -28 -28 -28 -28 -28 -28 -28 -28 -28 -28 -28 -28 -28 -28 -28 -28 -27 -27 -27 -27 -27 -27 -26 -26 -25 -25 -25 -24 -24 -23 -23 -23 -23 -23 -23 -22 -22 -22 -22 -22 -22 -22 -22 -22 -22 -22
-28 -28 -28 -28 -28 -28 -28 -28 -28 -28 -28 -28 -28 -28 -28 -28 -28 -28 -28 -28 -28 -28 -28 -28 -28 -28 -28 -28 -27 -27 -27 -27 -26 -26 -26 -25 -25 -25 -24 -24 -24 -24 -23 -23 -23 -23 -23 -23 -23 -23 -23 -23 -23 -23
-29 -29 -29 -29 -29 -29 -29 -29 -29 -29 -28 -28 -28 -28 -28 -29 -29 -28 -28 -28 -28 -28 -28 -28 -28 -28 -28 -28 -28 -28 -28 -28 -28 -27 -27 -26 -26 -26 -25 -25 -25 -25 -24 -24 -24 -24 -24 -23 -23 -23 -23 -23 -23 -23
-30 -30 -30 -30 -29 -29 -29 -29 -29 -29 -29 -29 -28 -28 -29 -29 -29 -28 -28 -28 -28 -28 -28 -28 -28 -28 -28 -28 -28 -28 -28 -28 -28 -28 -27 -27 -27 -27 -26 -26 -25 -25 -25 -25 -24 -24 -24 -24 -24 -24 -24 -24 -24 -25
-30 -30 -30 -30 -29 -29 -29 -29 -29 -29 -29 -29 -29 -29 -29 -28 -28 -29 -29 -29 -29 -29 -28 -28 -28 -28 -28 -28 -28 -28 -28 -28 -28 -28 -28 -28 -28 -27 -27 -26 -26 -25 -25 -25 -24 -24 -24 -24 -24 -25 -25 -25 -25 -25
-30 -30 -30 -29 -29 -29 -29 -29 -29 -29 -29 -29 -29 -29 -29 -29 -29 -29 -29 -30 -30 -30 -30 -29 -29 -29 -29 -29 -29 -28 -28 -28 -28 -28 -28 -28 -28 -28 -28 -27 -27 -26 -26 -25 -25 -25 -25 -25 -26 -26 -26 -26 -26 -26
-30 -30 -30 -30 -30 -30 -30 -29 -30 -30 -30 -30 -30 -30 -30 -31 -31 -30 -30 -30 -30 -30 -30 -30 -30 -29 -29 -29 -29 -29 -29 -29 -28 -28 -28 -28 -28 -28 -28 -27 -27 -27 -26 -26 -26 -26 -26 -26 -26 -26 -26 -26 -26 -26

GFSWCAN_500_temp_072.txt.gz
Temp
-13 -13 -13 -14 -15 -14 -14 -16 -17 -17 -17 -16 -16 -15 -16 -16 -16 -17 -17 -17 -18 -19 -22 -22 -21 -21 -21 -22 -22 -23 -23 -22 -22 -22 -21 -21 -20 -20 -20 -20 -20 -20 -20 -20 -20 -19 -19 -19 -19 -19 -19 -19 -19 -19
-13 -13 -13 -14 -14 -15 -16 -17 -17 -17 -17 -17 -17 -16 -17 -17 -17 -18 -19 -18 -18 -18 -21 -22 -21 -21 -21 -23 -23 -23 -23 -23 -22 -23 -22 -22 -21 -20 -20 -20 -20 -20 -20 -20 -20 -20 -20 -19 -19 -19 -19 -19 -20 -19
-13 -13 -13 -13 -14 -16 -17 -18 -18 -18 -17 -18 -18 -18 -18 -18 -18 -18 -18 -18 -19 -19 -20 -21 -21 -21 -22 -24 -23 -23 -23 -23 -23 -23 -22 -22 -21 -20 -20 -20 -21 -20 -20 -20 -20 -20 -20 -20 -20 -19 -19 -19 -19 -19
-13 -14 -14 -14 -16 -17 -18 -18 -19 -19 -18 -19 -19 -19 -19 -20 -19 -19 -19 -20 -20 -20 -21 -21 -21 -21 -23 -23 -22 -22 -22 -22 -22 -22 -22 -22 -22 -21 -21 -21 -20 -21 -20 -20 -20 -20 -20 -20 -20 -19 -19 -19 -19 -19
-13 -13 -14 -16 -17 -17 -18 -18 -18 -19 -19 -19 -19 -20 -21 -20 -20 -20 -20 -20 -20 -20 -22 -21 -20 -23 -23 -23 -23 -22 -22 -21 -21 -22 -22 -22 -22 -22 -21 -21 -20 -21 -21 -20 -20 -19 -19 -20 -20 -20 -19 -19 -19 -19
-13 -14 -16 -17 -18 -17 -19 -19 -18 -19 -20 -20 -20 -21 -21 -21 -20 -20 -20 -20 -20 -21 -21 -21 -23 -23 -24 -24 -23 -23 -22 -22 -21 -22 -22 -22 -23 -22 -21 -21 -21 -21 -21 -20 -20 -20 -20 -20 -20 -19 -19 -19 -19 -19
-14 -16 -18 -17 -17 -18 -18 -19 -20 -21 -21 -21 -22 -22 -22 -21 -20 -21 -20 -20 -20 -21 -21 -22 -23 -23 -24 -24 -23 -23 -22 -22 -22 -22 -22 -22 -22 -22 -21 -20 -22 -22 -21 -21 -20 -20 -20 -20 -20 -19 -19 -19 -19 -19
-16 -17 -17 -17 -17 -19 -20 -21 -21 -21 -21 -22 -22 -22 -22 -21 -21 -21 -20 -20 -21 -21 -22 -24 -23 -23 -24 -24 -23 -24 -23 -22 -21 -21 -21 -22 -23 -22 -21 -22 -22 -22 -21 -21 -21 -20 -20 -20 -20 -20 -20 -19 -19 -19
-17 -16 -17 -17 -19 -20 -20 -20 -20 -21 -22 -22 -22 -21 -21 -21 -21 -21 -20 -20 -21 -23 -24 -24 -24 -23 -23 -23 -23 -24 -25 -23 -22 -22 -22 -22 -22 -22 -21 -22 -22 -22 -22 -22 -21 -21 -20 -20 -20 -20 -20 -20 -19 -19
-16 -16 -18 -19 -20 -20 -21 -21 -22 -22 -22 -22 -21 -21 -21 -21 -21 -20 -20 -21 -23 -25 -24 -24 -24 -24 -23 -23 -24 -24 -24 -24 -24 -23 -22 -22 -22 -23 -23 -23 -22 -22 -22 -22 -21 -21 -21 -21 -21 -20 -20 -20 -20 -20
-18 -18 -20 -21 -21 -21 -21 -22 -22 -22 -22 -21 -21 -21 -21 -21 -20 -20 -21 -23 -24 -24 -24 -24 -24 -24 -24 -24 -24 -24 -24 -24 -23 -24 -23 -23 -23 -23 -23 -22 -22 -22 -22 -22 -22 -21 -21 -21 -21 -21 -21 -20 -20 -20
-20 -21 -21 -21 -21 -22 -22 -22 -22 -22 -22 -22 -22 -21 -20 -20 -20 -20 -23 -25 -24 -25 -24 -24 -24 -24 -24 -24 -24 -24 -23 -23 -23 -23 -23 -23 -23 -22 -22 -22 -22 -22 -22 -22 -22 -22 -21 -21 -21 -21 -21 -21 -21 -21
-21 -21 -21 -22 -22 -23 -23 -22 -22 -22 -22 -22 -22 -21 -20 -21 -21 -23 -25 -25 -25 -25 -24 -25 -24 -24 -24 -24 -24 -23 -23 -23 -23 -23 -23 -23 -22 -22 -22 -22 -22 -22 -22 -22 -21 -21 -21 -21 -21 -21 -21 -21 -21 -21
-22 -22 -22 -22 -23 -23 -22 -22 -22 -22 -22 -22 -21 -21 -21 -22 -24 -25 -26 -26 -25 -25 -25 -24 -24 -24 -24 -24 -24 -23 -23 -23 -23 -23 -23 -22 -22 -22 -22 -22 -22 -22 -21 -21 -21 -21 -21 -21 -21 -21 -22 -22 -22 -21
-22 -22 -22 -23 -23 -23 -23 -22 -22 -22 -22 -21 -21 -22 -22 -24 -26 -26 -26 -26 -25 -25 -24 -24 -24 -24 -24 -24 -24 -23 -23 -23 -23 -23 -22 -22 -22 -22 -23 -22 -22 -22 -22 -22 -22 -22 -22 -22 -22 -22 -22 -21 -21 -21
-22 -22 -23 -23 -23 -23 -23 -23 -22 -22 -22 -21 -23 -23 -26 -27 -27 -26 -26 -25 -25 -25 -24 -24 -24 -24 -24 -24 -24 -24 -23 -23 -23 -23 -23 -23 -22 -23 -23 -23 -23 -23 -22 -22 -22 -22 -22 -22 -22 -22 -21 -21 -21 -21
-22 -23 -23 -23 -23 -23 -23 -22 -22 -22 -22 -24 -26 -27 -26 -26 -26 -25 -25 -25 -25 -24 -24 -25 -24 -24 -24 -24 -24 -24 -23 -23 -23 -23 -23 -23 -23 -23 -23 -23 -22 -22 -22 -22 -23 -22 -23 -22 -22 -23 -22 -22 -22 -21
-23 -24 -24 -24 -23 -23 -22 -22 -22 -22 -23 -26 -26 -26 -26 -26 -25 -25 -24 -25 -24 -24 -25 -25 -24 -24 -24 -24 -24 -23 -23 -23 -23 -23 -23 -23 -23 -23 -23 -22 -22 -22 -22 -22 -22 -22 -22 -22 -22 -22 -22 -22 -21 -21
-24 -24 -23 -23 -23 -22 -22 -22 -22 -23 -25 -26 -26 -26 -26 -25 -25 -25 -25 -24 -24 -25 -25 -25 -24 -24 -24 -24 -24 -24 -24 -23 -23 -23 -23 -23 -23 -23 -23 -23 -23 -23 -23 -23 -23 -22 -22 -22 -22 -22 -21 -21 -21 -21
-23 -23 -23 -23 -23 -22 -23 -23 -25 -26 -26 -26 -26 -25 -25 -25 -25 -25 -24 -24 -24 -24 -24 -25 -25 -24 -24 -24 -24 -24 -23 -23 -23 -23 -23 -23 -23 -23 -23 -23 -23 -23 -23 -23 -23 -22 -22 -22 -22 -22 -22 -22 -21 -21
-23 -23 -23 -23 -23 -23 -24 -25 -26 -26 -26 -26 -26 -25 -25 -25 -25 -24 -25 -24 -24 -24 -25 -24 -24 -24 -24 -24 -24 -24 -24 -23 -23 -23 -23 -23 -23 -23 -23 -23 -23 -23 -23 -22 -23 -23 -22 -23 -23 -22 -22 -22 -22 -21
-23 -23 -24 -25 -25 -26 -27 -26 -26 -26 -26 -26 -26 -26 -25 -25 -25 -25 -24 -24 -24 -24 -23 -24 -24 -24 -24 -25 -24 -24 -24 -24 -24 -23 -23 -23 -23 -23 -23 -23 -23 -23 -23 -22 -22 -23 -23 -22 -22 -22 -22 -22 -21 -21
-25 -25 -26 -27 -27 -27 -26 -26 -26 -26 -26 -26 -26 -26 -25 -25 -25 -25 -24 -24 -24 -24 -24 -24 -25 -25 -25 -25 -25 -25 -25 -24 -24 -24 -23 -23 -23 -23 -23 -23 -23 -23 -23 -22 -23 -22 -22 -22 -22 -22 -22 -22 -21 -21
-28 -28 -28 -28 -27 -27 -27 -27 -26 -26 -26 -26 -26 -26 -26 -26 -25 -25 -25 -25 -25 -25 -25 -25 -25 -25 -25 -25 -25 -25 -25 -25 -25 -24 -24 -24 -23 -23 -23 -23 -23 -23 -23 -23 -23 -23 -22 -22 -22 -22 -21 -21 -21 -21
-28 -28 -28 -28 -27 -27 -27 -27 -27 -26 -26 -27 -27 -26 -26 -26 -26 -26 -26 -26 -26 -26 -26 -26 -26 -27 -26 -26 -26 -25 -25 -25 -25 -25 -25 -24 -24 -24 -24 -23 -23 -23 -23 -23 -23 -23 -22 -22 -22 -22 -22 -22 -22 -21
-28 -28 -28 -27 -27 -27 -27 -27 -27 -27 -27 -27 -27 -27 -27 -27 -27 -27 -27 -27 -27 -27 -27 -27 -27 -27 -27 -27 -27 -26 -26 -26 -26 -26 -25 -25 -25 -24 -24 -24 -24 -23 -23 -23 -23 -23 -23 -23 -22 -22 -22 -22 -22 -22
-28 -28 -28 -28 -27 -27 -28 -28 -27 -28 -28 -28 -28 -28 -28 -28 -28 -28 -28 -28 -28 -28 -28 -28 -28 -28 -28 -28 -28 -28 -27 -27 -27 -27 -26 -26 -26 -25 -25 -25 -24 -24 -24 -24 -23 -23 -23 -23 -23 -23 -22 -22 -22 -22
-28 -28 -28 -28 -28 -28 -28 -28 -28 -29 -29 -29 -28 -28 -28 -28 -28 -28 -28 -28 -28 -29 -29 -28 -28 -28 -28 -28 -28 -28 -28 -28 -28 -28 -27 -27 -27 -27 -27 -26 -26 -25 -25 -25 -25 -24 -24 -24 -24 -23 -23 -23 -23 -23
-29 -29 -28 -28 -28 -28 -29 -29 -29 -29 -29 -29 -29 -29 -29 -29 -29 -29 -28 -29 -28 -29 -29 -29 -29 -28 -28 -28 -28 -28 -28 -28 -28 -28 -28 -28 -28 -28 -28 -27 -27 -27 -26 -26 -26 -25 -25 -25 -25 -24 -24 -24 -24 -24
-29 -29 -30 -30 -30 -30 -30 -30 -29 -29 -29 -29 -29 -29 -29 -29 -29 -29 -29 -29 -29 -28 -28 -28 -28 -28 -28 -28 -28 -28 -28 -28 -28 -28 -28 -28 -28 -28 -28 -28 -28 -28 -28 -27 -27 -26 -26 -26 -25 -25 -25 -24 -24 -24
-30 -30 -30 -30 -30 -30 -30 -30 -30 -29 -29 -29 -29 -29 -29 -29 -29 -29 -29 -29 -29 -29 -28 -28 -28 -28 -28 -28 -28 -28 -28 -28 -28 -28 -28 -28 -28 -28 -28 -28 -28 -28 -27 -27 -27 -26 -26 -26 -25 -25 -25 -25 -25 -25
-30 -30 -30 -30 -30 -30 -30 -30 -29 -29 -29 -29 -29 -29 -29 -29 -29 -29 -29 -29 -29 -29 -29 -29 -29 -29 -29 -28 -29 -29 -29 -29 -29 -29 -28 -28 -28 -28 -28 -28 -28 -28 -27 -27 -27 -26 -26 -26 -25 -25 -25 -25 -26 -26
-31 -31 -30 -30 -30 -30 -30 -30 -29 -29 -29 -29 -30 -30 -30 -30 -30 -30 -30 -30 -30 -30 -30 -30 -30 -30 -30 -30 -30 -30 -29 -29 -29 -29 -29 -29 -28 -28 -28 -28 -28 -28 -28 -27 -27 -26 -26 -26 -26 -26 -26 -26 -26 -26

GFSWCAN_500_temp_075.txt.gz
Temp
-13 -13 -13 -13 -13 -13 -13 -14 -13 -13 -13 -15 -15 -15 -15 -15 -15 -16 -16 -16 -16 -18 -20 -19 -19 -19 -20 -19 -21 -23 -24 -24 -24 -23 -23 -23 -22 -21 -21 -20 -20 -20 -20 -19 -20 -20 -20 -20 -20 -20 -20 -19 -19 -19
-13 -13 -13 -13 -13 -13 -14 -14 -14 -13 -14 -15 -16 -16 -15 -15 -16 -17 -17 -16 -16 -18 -19 -19 -20 -20 -20 -19 -22 -24 -25 -24 -24 -24 -23 -23 -22 -22 -21 -21 -21 -20 -20 -20 -20 -20 -20 -20 -20 -20 -19 -19 -19 -20
-13 -13 -13 -14 -14 -13 -13 -14 -14 -13 -15 -16 -17 -17 -16 -17 -18 -18 -18 -17 -17 -17 -18 -19 -19 -20 -19 -20 -22 -23 -24 -24 -23 -23 -23 -23 -23 -22 -22 -21 -21 -21 -20 -20 -20 -20 -20 -20 -20 -20 -19 -20 -20 -20
-13 -13 -13 -14 -13 -13 -14 -14 -14 -15 -16 -17 -18 -17 -18 -18 -19 -18 -18 -18 -18 -18 -17 -19 -19 -20 -20 -22 -23 -24 -23 -23 -23 -23 -23 -23 -23 -22 -21 -22 -21 -21 -21 -20 -20 -20 -20 -20 -20 -20 -20 -19 -19 -20
-13 -13 -14 -14 -14 -14 -14 -14 -14 -16 -17 -18 -18 -18 -19 -19 -20 -19 -19 -20 -19 -18 -18 -19 -20 -20 -21 -24 -24 -24 -23 -22 -22 -22 -23 -23 -23 -23 -22 -22 -21 -21 -21 -21 -21 -20 -20 -20 -20 -20 -20 -19 -19 -19
-14 -14 -14 -14 -14 -14 -14 -14 -16 -16 -18 -18 -19 -19 -19 -21 -21 -21 -20 -19 -19 -19 -18 -19 -19 -21 -24 -24 -24 -24 -23 -22 -22 -21 -22 -23 -23 -22 -22 -22 -22 -22 -22 -21 -21 -21 -20 -20 -20 -20 -20 -20 -20 -20
-14 -14 -14 -14 -14 -14 -14 -15 -16 -17 -19 -19 -19 -19 -20 -21 -21 -21 -20 -19 -19 -19 -19 -19 -21 -22 -24 -24 -23 -23 -24 -24 -23 -22 -22 -22 -23 -22 -22 -21 -22 -22 -22 -22 -21 -21 -21 -20 -20 -20 -20 -20 -20 -20
-14 -14 -15 -14 -14 -14 -15 -16 -16 -18 -19 -19 -19 -20 -21 -21 -21 -21 -20 -20 -20 -19 -19 -20 -22 -24 -24 -24 -24 -24 -24 -24 -24 -22 -22 -22 -22 -23 -23 -22 -22 -22 -22 -21 -21 -21 -21 -21 -20 -20 -20 -20 -20 -20
-15 -15 -15 -14 -14 -16 -16 -16 -18 -19 -19 -20 -21 -21 -22 -21 -21 -21 -20 -20 -20 -19 -19 -22 -24 -24 -24 -24 -24 -24 -24 -24 -24 -23 -22 -21 -22 -23 -23 -23 -22 -22 -22 -22 -21 -21 -21 -21 -21 -21 -20 -20 -20 -20
-15 -15 -14 -14 -16 -16 -17 -19 -20 -20 -20 -21 -21 -22 -21 -21 -21 -21 -21 -20 -19 -19 -23 -24 -25 -24 -24 -23 -23 -23 -24 -24 -24 -24 -23 -22 -22 -23 -23 -23 -23 -22 -22 -22 -22 -21 -21 -21 -21 -21 -21 -21 -20 -20
-15 -15 -16 -16 -16 -18 -20 -20 -21 -21 -21 -22 -22 -21 -22 -21 -22 -21 -20 -20 -20 -21 -24 -24 -25 -24 -24 -23 -23 -23 -24 -23 -23 -24 -24 -23 -23 -22 -22 -23 -23 -22 -22 -22 -22 -22 -22 -22 -21 -21 -21 -21 -21 -21
-16 -16 -15 -17 -19 -20 -20 -21 -21 -22 -22 -22 -22 -22 -22 -22 -21 -21 -20 -20 -20 -23 -25 -25 -25 -24 -24 -24 -24 -23 -24 -24 -23 -23 -23 -23 -23 -22 -22 -23 -22 -22 -22 -22 -23 -22 -22 -22 -21 -21 -21 -21 -21 -21
-16 -18 -20 -20 -20 -20 -21 -22 -22 -22 -22 -22 -22 -22 -22 -22 -21 -21 -21 -20 -22 -24 -25 -25 -24 -24 -24 -24 -24 -24 -24 -24 -23 -23 -23 -23 -23 -23 -23 -23 -23 -23 -23 -22 -22 -22 -22 -21 -21 -21 -21 -21 -21 -21
-20 -20 -20 -20 -21 -22 -22 -22 -22 -22 -22 -22 -22 -22 -22 -22 -21 -21 -20 -22 -24 -25 -25 -25 -25 -24 -24 -24 -24 -24 -24 -24 -24 -23 -23 -23 -23 -23 -23 -23 -22 -22 -22 -22 -22 -22 -22 -22 -22 -21 -21 -21 -21 -21
-20 -20 -20 -22 -23 -22 -23 -22 -22 -22 -22 -22 -22 -22 -22 -22 -21 -21 -23 -26 -26 -26 -25 -25 -25 -24 -24 -24 -24 -24 -24 -24 -23 -23 -23 -23 -23 -23 -23 -22 -22 -23 -23 -22 -22 -22 -22 -22 -21 -21 -21 -21 -21 -21
-21 -22 -23 -23 -23 -23 -23 -23 -23 -22 -22 -22 -22 -22 -22 -22 -22 -23 -26 -26 -26 -25 -25 -25 -25 -25 -24 -24 -24 -23 -24 -24 -24 -23 -23 -23 -23 -23 -23 -23 -23 -23 -23 -23 -22 -22 -22 -22 -22 -22 -22 -22 -22 -22
-22 -23 -23 -23 -23 -23 -23 -23 -23 -22 -22 -22 -23 -22 -22 -22 -24 -26 -26 -25 -25 -25 -25 -25 -25 -25 -24 -24 -23 -24 -24 -24 -24 -23 -23 -23 -23 -23 -23 -23 -23 -23 -23 -23 -23 -23 -23 -23 -23 -23 -22 -22 -23 -23
-23 -23 -23 -23 -23 -23 -23 -23 -23 -22 -23 -23 -23 -24 -23 -26 -26 -26 -25 -25 -25 -25 -25 -25 -25 -24 -24 -24 -23 -23 -23 -23 -23 -23 -23 -23 -23 -23 -23 -23 -23 -23 -23 -23 -23 -23 -23 -22 -22 -23 -23 -22 -22 -22
-23 -23 -23 -23 -23 -23 -23 -23 -23 -23 -22 -23 -23 -24 -24 -26 -26 -25 -25 -25 -25 -25 -25 -25 -25 -25 -25 -24 -24 -24 -24 -24 -23 -23 -23 -23 -23 -23 -23 -23 -23 -23 -23 -23 -23 -23 -23 -22 -22 -22 -22 -22 -22 -22
-23 -23 -24 -24 -24 -24 -24 -24 -23 -23 -23 -23 -24 -26 -26 -26 -26 -26 -25 -25 -25 -25 -25 -25 -25 -25 -25 -25 -24 -24 -24 -24 -24 -23 -23 -24 -24 -23 -24 -24 -23 -23 -23 -23 -23 -23 -23 -23 -23 -23 -22 -22 -22 -22
-24 -25 -26 -25 -25 -24 -24 -23 -23 -23 -23 -24 -25 -26 -26 -26 -26 -25 -25 -25 -25 -25 -25 -25 -24 -24 -24 -24 -25 -25 -24 -24 -24 -24 -24 -24 -24 -24 -24 -23 -23 -23 -23 -23 -23 -23 -23 -23 -23 -23 -23 -23 -23 -23
-26 -25 -25 -25 -24 -24 -23 -23 -23 -24 -25 -26 -27 -27 -26 -26 -26 -26 -25 -25 -25 -25 -25 -25 -24 -24 -24 -24 -24 -24 -24 -24 -24 -24 -24 -24 -24 -24 -23 -23 -23 -23 -23 -23 -23 -23 -23 -23 -23 -23 -23 -23 -22 -22
-25 -25 -24 -24 -24 -23 -23 -24 -25 -26 -27 -27 -27 -26 -26 -26 -26 -26 -25 -25 -25 -25 -25 -24 -24 -24 -24 -24 -25 -24 -25 -24 -24 -24 -24 -24 -24 -24 -24 -23 -23 -23 -23 -23 -23 -23 -23 -23 -23 -23 -23 -23 -22 -22
-24 -24 -24 -24 -24 -24 -25 -26 -27 -27 -27 -27 -27 -27 -26 -26 -26 -26 -26 -26 -25 -25 -25 -25 -25 -25 -25 -25 -25 -25 -25 -25 -25 -25 -25 -25 -25 -24 -24 -24 -24 -23 -23 -23 -23 -23 -23 -23 -23 -23 -23 -23 -22 -22
-24 -24 -24 -24 -24 -26 -27 -28 -28 -27 -27 -27 -27 -27 -27 -26 -26 -27 -26 -26 -26 -26 -26 -26 -26 -26 -26 -26 -26 -26 -26 -26 -26 -26 -25 -25 -25 -25 -25 -25 -24 -24 -24 -24 -24 -23 -23 -23 -23 -23 -23 -23 -22 -22
-25 -25 -26 -27 -28 -28 -28 -28 -28 -28 -28 -27 -27 -27 -27 -27 -27 -27 -27 -26 -26 -26 -26 -26 -27 -27 -27 -27 -27 -27 -27 -27 -27 -27 -26 -26 -26 -26 -26 -25 -25 -25 -25 -24 -24 -24 -24 -24 -23 -23 -23 -23 -23 -22
-28 -28 -28 -29 -29 -28 -28 -28 -28 -28 -28 -28 -27 -28 -28 -28 -28 -27 -27 -27 -27 -28 -28 -28 -28 -28 -28 -28 -28 -28 -28 -28 -28 -28 -28 -27 -27 -27 -27 -27 -26 -26 -25 -25 -25 -24 -24 -24 -24 -23 -23 -23 -23 -23
-29 -29 -29 -29 -28 -28 -28 -28 -28 -28 -28 -28 -29 -29 -28 -28 -28 -28 -28 -28 -28 -28 -28 -28 -28 -28 -28 -28 -28 -28 -28 -28 -28 -28 -28 -28 -28 -28 -28 -27 -27 -27 -27 -27 -26 -26 -26 -25 -25 -25 -25 -24 -24 -24
-29 -29 -29 -29 -29 -28 -29 -29 -28 -28 -29 -29 -29 -29 -29 -29 -29 -29 -29 -29 -29 -29 -29 -29 -29 -28 -28 -28 -28 -28 -28 -28 -28 -28 -28 -29 -28 -28 -28 -28 -28 -28 -28 -28 -28 -28 -27 -27 -27 -26 -26 -26 -25 -25
-29 -29 -29 -29 -29 -29 -29 -29 -29 -29 -29 -30 -30 -29 -29 -29 -29 -29 -29 -29 -29 -29 -29 -29 -29 -28 -28 -28 -28 -28 -28 -28 -28 -28 -28 -28 -28 -28 -28 -28 -28 -28 -28 -28 -28 -28 -28 -28 -27 -27 -27 -26 -26 -26
-30 -29 -29 -29 -30 -30 -30 -30 -30 -30 -30 -30 -29 -29 -29 -29 -29 -29 -29 -29 -29 -29 -29 -29 -29 -29 -29 -29 -28 -28 -28 -28 -28 -28 -28 -28 -28 -28 -28 -28 -28 -28 -28 -28 -28 -27 -27 -27 -27 -27 -27 -27 -26 -26
-30 -30 -30 -31 -31 -30 -30 -30 -30 -30 -29 -29 -30 -29 -29 -29 -29 -29 -29 -29 -29 -29 -29 -29 -29 -29 -29 -29 -29 -29 -29 -29 -28 -28 -28 -28 -28 -28 -28 -28 -28 -28 -28 -28 -28 -28 -28 -28 -27 -27 -27 -27 -27 -26
-31 -31 -31 -30 -30 -30 -30 -30 -30 -30 -30 -30 -30 -30 -30 -30 -30 -30 -30 -30 -30 -30 -29 -30 -30 -30 -30 -30 -30 -30 -30 -30 -30 -30 -29 -29 -29 -29 -29 -29 -29 -28 -28 -28 -28 -28 -28 -28 -28 -28 -27 -27 -27 -27

GFSWCAN_500_temp_078.txt.gz
Temp
-14 -14 -14 -13 -13 -13 -13 -14 -13 -13 -13 -13 -13 -13 -13 -14 -14 -14 -14 -15 -16 -17 -16 -17 -17 -17 -17 -17 -18 -19 -22 -24 -24 -25 -24 -24 -23 -23 -22 -22 -22 -21 -21 -20 -20 -20 -19 -21 -20 -20 -20 -20 -19 -19
-14 -14 -14 -13 -14 -13 -13 -14 -14 -13 -13 -14 -13 -13 -14 -14 -15 -15 -15 -15 -15 -17 -18 -18 -18 -17 -17 -17 -18 -20 -23 -24 -25 -25 -24 -24 -23 -23 -23 -22 -22 -21 -21 -21 -20 -20 -20 -20 -20 -20 -20 -20 -20 -20
-14 -14 -13 -14 -14 -14 -14 -14 -13 -13 -14 -14 -13 -13 -14 -15 -16 -16 -16 -15 -15 -15 -18 -18 -18 -17 -17 -18 -18 -21 -23 -24 -24 -24 -24 -24 -23 -23 -23 -22 -22 -22 -21 -21 -20 -21 -21 -20 -20 -20 -20 -20 -20 -20
-15 -14 -13 -14 -14 -14 -14 -14 -14 -14 -14 -14 -14 -14 -15 -15 -16 -16 -16 -16 -16 -16 -16 -18 -17 -17 -17 -18 -20 -23 -23 -24 -24 -24 -24 -24 -24 -23 -23 -23 -22 -22 -21 -21 -21 -21 -21 -21 -20 -20 -20 -20 -20 -20
-15 -13 -13 -14 -14 -15 -14 -14 -14 -14 -14 -14 -14 -14 -15 -17 -18 -17 -18 -18 -17 -17 -16 -17 -18 -18 -18 -19 -22 -23 -23 -23 -23 -23 -23 -23 -23 -23 -23 -23 -22 -22 -22 -22 -22 -21 -21 -21 -20 -20 -20 -20 -20 -20
-15 -14 -15 -15 -15 -15 -14 -15 -15 -15 -14 -14 -14 -15 -17 -18 -18 -19 -19 -19 -18 -17 -16 -18 -18 -18 -19 -20 -23 -23 -24 -24 -24 -24 -23 -23 -23 -23 -23 -23 -23 -23 -22 -22 -21 -21 -21 -21 -21 -21 -20 -20 -20 -20
-14 -13 -13 -14 -15 -15 -15 -15 -15 -15 -14 -15 -15 -17 -19 -18 -19 -20 -21 -20 -19 -19 -18 -18 -18 -19 -20 -22 -23 -24 -24 -24 -24 -24 -24 -22 -22 -22 -22 -22 -23 -23 -22 -22 -22 -21 -21 -21 -21 -21 -20 -20 -20 -20
-14 -14 -14 -14 -15 -15 -15 -15 -15 -15 -15 -15 -17 -19 -19 -19 -19 -21 -21 -21 -20 -20 -19 -19 -19 -20 -21 -23 -23 -23 -23 -24 -24 -24 -23 -23 -22 -22 -22 -23 -24 -23 -23 -22 -22 -21 -22 -21 -21 -21 -21 -21 -21 -21
-15 -15 -15 -15 -15 -15 -15 -15 -15 -15 -16 -17 -19 -19 -19 -20 -21 -21 -21 -21 -20 -20 -19 -19 -18 -20 -22 -23 -23 -23 -23 -23 -23 -23 -24 -23 -22 -21 -22 -23 -23 -23 -23 -23 -22 -22 -22 -22 -22 -21 -21 -21 -21 -21
-15 -15 -15 -15 -15 -15 -15 -15 -15 -16 -18 -20 -19 -20 -20 -21 -21 -21 -21 -21 -20 -20 -20 -19 -19 -21 -24 -23 -24 -23 -23 -23 -23 -24 -24 -24 -22 -21 -22 -23 -23 -23 -22 -23 -22 -22 -22 -22 -22 -22 -21 -21 -21 -21
-15 -15 -15 -15 -15 -15 -15 -15 -16 -18 -19 -19 -20 -20 -21 -22 -22 -21 -21 -21 -20 -20 -19 -19 -20 -23 -24 -24 -24 -23 -23 -23 -23 -24 -23 -24 -24 -23 -22 -22 -23 -23 -23 -23 -22 -22 -22 -22 -22 -22 -22 -22 -21 -21
-15 -15 -15 -15 -15 -15 -15 -16 -18 -19 -19 -20 -20 -21 -22 -22 -22 -22 -21 -21 -20 -20 -19 -20 -23 -24 -25 -24 -24 -24 -23 -23 -23 -24 -23 -23 -24 -23 -23 -23 -23 -23 -23 -22 -22 -22 -22 -22 -22 -22 -22 -22 -22 -22
-15 -15 -15 -15 -15 -15 -16 -19 -19 -19 -20 -20 -22 -22 -22 -22 -22 -22 -22 -21 -20 -20 -20 -22 -24 -25 -25 -24 -24 -24 -23 -23 -24 -24 -24 -23 -23 -23 -23 -23 -23 -23 -23 -22 -22 -22 -22 -22 -22 -22 -22 -22 -22 -22
-16 -15 -16 -16 -16 -18 -19 -20 -20 -20 -20 -22 -22 -22 -22 -22 -22 -22 -21 -21 -21 -21 -21 -23 -25 -25 -25 -25 -24 -24 -24 -24 -24 -24 -24 -23 -23 -23 -23 -23 -23 -23 -22 -23 -23 -22 -22 -22 -22 -22 -22 -22 -22 -21
-16 -17 -17 -19 -19 -20 -20 -20 -20 -21 -22 -22 -23 -23 -23 -22 -22 -22 -22 -21 -21 -22 -24 -25 -25 -25 -25 -25 -24 -24 -24 -24 -24 -24 -23 -23 -23 -23 -23 -23 -23 -23 -23 -23 -23 -22 -22 -22 -22 -22 -22 -22 -22 -22
-19 -19 -20 -20 -20 -20 -21 -21 -21 -22 -22 -23 -23 -24 -23 -22 -22 -22 -22 -22 -23 -25 -25 -25 -25 -25 -25 -25 -24 -24 -24 -24 -23 -23 -23 -23 -23 -23 -23 -23 -23 -23 -23 -23 -23 -23 -23 -23 -23 -22 -22 -22 -22 -22
-20 -21 -21 -21 -21 -21 -22 -22 -23 -23 -22 -22 -24 -24 -23 -22 -22 -22 -22 -23 -24 -26 -25 -25 -25 -25 -25 -25 -25 -24 -24 -24 -23 -23 -23 -23 -23 -23 -23 -23 -23 -23 -23 -23 -23 -23 -23 -23 -23 -23 -23 -23 -23 -22
-21 -21 -21 -21 -22 -23 -23 -23 -23 -23 -23 -23 -24 -24 -23 -23 -22 -22 -23 -24 -25 -26 -26 -25 -25 -24 -25 -25 -25 -25 -25 -24 -24 -23 -23 -23 -23 -23 -23 -23 -23 -23 -24 -24 -24 -23 -23 -23 -23 -23 -23 -23 -23 -23
-22 -22 -22 -23 -23 -23 -23 -23 -23 -23 -23 -23 -24 -24 -23 -22 -22 -23 -23 -25 -26 -26 -25 -25 -24 -25 -25 -25 -25 -25 -25 -25 -24 -24 -24 -23 -23 -23 -24 -23 -23 -24 -24 -24 -23 -23 -23 -23 -23 -23 -23 -23 -23 -22
-23 -23 -24 -24 -23 -23 -23 -23 -23 -23 -23 -23 -23 -23 -23 -23 -23 -23 -24 -26 -26 -25 -25 -25 -25 -25 -25 -25 -25 -25 -25 -25 -25 -24 -24 -24 -24 -23 -23 -24 -24 -24 -24 -24 -23 -23 -23 -23 -23 -23 -23 -23 -23 -23
-24 -24 -24 -24 -24 -23 -23 -23 -23 -24 -24 -24 -24 -23 -23 -23 -23 -24 -26 -26 -26 -25 -25 -25 -25 -24 -24 -25 -25 -25 -25 -25 -25 -25 -25 -24 -24 -24 -24 -23 -24 -24 -24 -24 -23 -23 -23 -23 -23 -23 -23 -23 -23 -23
-24 -24 -24 -24 -24 -24 -23 -24 -24 -24 -24 -24 -23 -23 -23 -24 -25 -26 -26 -26 -25 -26 -25 -25 -25 -25 -25 -25 -25 -24 -24 -25 -25 -25 -25 -25 -25 -24 -24 -24 -24 -24 -24 -24 -24 -24 -23 -23 -23 -23 -23 -23 -23 -23
-24 -25 -25 -25 -25 -24 -24 -24 -24 -24 -24 -24 -24 -24 -24 -25 -26 -26 -26 -26 -26 -25 -25 -25 -25 -25 -25 -25 -24 -24 -24 -24 -25 -25 -25 -25 -25 -25 -25 -24 -24 -24 -24 -24 -24 -24 -24 -23 -23 -23 -23 -23 -23 -23
-26 -26 -26 -25 -25 -25 -25 -24 -24 -24 -24 -24 -24 -25 -26 -27 -27 -26 -26 -26 -25 -25 -26 -26 -25 -25 -25 -25 -25 -25 -25 -25 -25 -25 -25 -25 -25 -25 -25 -25 -25 -24 -24 -24 -24 -24 -24 -24 -24 -24 -23 -23 -23 -23
-26 -26 -25 -25 -25 -25 -24 -24 -24 -24 -25 -26 -26 -27 -27 -27 -26 -26 -26 -26 -26 -26 -26 -26 -26 -26 -26 -26 -26 -26 -26 -26 -26 -26 -26 -26 -26 -26 -26 -26 -25 -25 -25 -25 -24 -24 -24 -24 -24 -24 -24 -23 -23 -23
-25 -25 -25 -25 -25 -25 -25 -25 -26 -26 -27 -28 -28 -27 -27 -27 -27 -27 -27 -27 -27 -27 -27 -27 -27 -27 -27 -26 -26 -27 -27 -27 -27 -28 -27 -27 -27 -27 -27 -26 -26 -26 -26 -25 -25 -25 -25 -25 -25 -24 -24 -24 -24 -24
-25 -25 -25 -25 -25 -25 -26 -27 -28 -28 -28 -28 -28 -28 -28 -28 -28 -28 -28 -28 -28 -28 -28 -28 -27 -27 -27 -28 -28 -28 -28 -28 -28 -29 -29 -29 -28 -28 -28 -27 -27 -27 -27 -26 -26 -26 -26 -26 -26 -25 -25 -25 -25 -24
-25 -25 -26 -26 -26 -27 -28 -28 -28 -28 -28 -28 -28 -28 -29 -28 -29 -29 -29 -29 -28 -28 -28 -28 -28 -28 -28 -28 -28 -28 -28 -28 -28 -28 -28 -28 -28 -28 -29 -29 -29 -28 -28 -28 -28 -28 -28 -27 -27 -27 -27 -27 -27 -26
-27 -28 -28 -28 -29 -29 -29 -29 -28 -28 -29 -29 -29 -29 -29 -30 -30 -29 -29 -29 -29 -29 -29 -29 -29 -28 -28 -28 -28 -28 -28 -28 -28 -28 -28 -28 -29 -28 -28 -28 -28 -28 -28 -28 -28 -28 -28 -28 -29 -29 -28 -28 -28 -27
-29 -29 -29 -29 -29 -29 -29 -29 -29 -29 -29 -29 -29 -30 -30 -30 -30 -30 -30 -29 -29 -29 -29 -29 -29 -29 -29 -28 -29 -29 -28 -28 -28 -28 -28 -28 -28 -28 -28 -28 -28 -28 -28 -28 -28 -28 -28 -28 -28 -28 -28 -28 -28 -28
-30 -30 -30 -29 -29 -29 -30 -29 -29 -29 -29 -29 -30 -30 -30 -30 -29 -29 -29 -29 -29 -29 -29 -29 -29 -29 -29 -29 -29 -29 -29 -29 -29 -29 -29 -29 -29 -29 -29 -29 -29 -28 -28 -28 -28 -28 -28 -28 -28 -28 -28 -28 -28 -28
-30 -30 -30 -30 -30 -30 -30 -30 -30 -30 -30 -30 -30 -30 -30 -30 -30 -30 -30 -30 -29 -29 -29 -29 -29 -29 -29 -29 -30 -29 -29 -29 -30 -30 -29 -29 -29 -29 -29 -29 -29 -29 -29 -28 -28 -28 -28 -28 -28 -28 -28 -28 -28 -28
-30 -30 -30 -30 -31 -30 -30 -30 -30 -30 -30 -30 -30 -30 -30 -30 -30 -30 -30 -30 -30 -30 -30 -30 -30 -30 -30 -30 -30 -31 -31 -31 -31 -31 -31 -30 -30 -30 -29 -29 -29 -29 -29 -29 -29 -29 -28 -28 -28 -28 -28 -28 -28 -28

GFSWCAN_500_temp_081.txt.gz
Temp
-14 -14 -14 -14 -14 -14 -14 -14 -14 -14 -14 -14 -13 -14 -13 -13 -13 -14 -14 -15 -15 -15 -16 -15 -14 -15 -15 -16 -16 -17 -18 -20 -22 -23 -24 -24 -24 -24 -24 -23 -23 -23 -22 -21 -21 -21 -20 -21 -21 -21 -20 -20 -20 -20
-14 -14 -14 -14 -14 -14 -14 -14 -14 -14 -14 -14 -14 -14 -14 -13 -13 -13 -14 -15 -16 -17 -16 -15 -14 -15 -16 -16 -16 -17 -19 -21 -23 -23 -24 -25 -24 -24 -23 -23 -23 -22 -22 -22 -22 -21 -21 -20 -21 -21 -20 -20 -20 -20
-14 -14 -14 -14 -14 -14 -14 -14 -14 -14 -14 -14 -14 -14 -14 -14 -14 -14 -15 -15 -16 -18 -16 -16 -16 -16 -16 -16 -16 -18 -20 -22 -23 -23 -23 -24 -24 -24 -24 -23 -23 -23 -22 -22 -22 -21 -21 -20 -21 -21 -21 -20 -20 -20
-14 -14 -14 -14 -14 -14 -14 -14 -14 -14 -14 -14 -14 -14 -14 -14 -14 -15 -15 -14 -15 -16 -17 -17 -17 -16 -16 -16 -17 -18 -20 -23 -23 -23 -23 -23 -24 -23 -23 -23 -23 -23 -23 -22 -22 -22 -21 -21 -20 -20 -21 -20 -20 -20
-14 -14 -14 -14 -14 -14 -14 -15 -15 -14 -14 -15 -15 -15 -14 -14 -15 -16 -16 -16 -16 -16 -16 -17 -17 -17 -16 -17 -17 -18 -20 -23 -23 -23 -24 -24 -23 -23 -23 -23 -23 -23 -23 -22 -22 -22 -21 -21 -21 -21 -21 -21 -21 -20
-15 -14 -14 -15 -14 -14 -15 -14 -15 -15 -15 -15 -15 -15 -15 -15 -16 -16 -16 -17 -17 -17 -16 -16 -17 -16 -17 -18 -18 -19 -21 -23 -23 -24 -24 -24 -23 -23 -23 -22 -23 -23 -23 -23 -23 -22 -21 -21 -21 -21 -21 -21 -21 -20
-15 -14 -15 -14 -15 -15 -15 -15 -15 -15 -15 -15 -15 -15 -15 -15 -16 -17 -16 -17 -18 -17 -17 -17 -17 -17 -18 -18 -18 -21 -23 -23 -23 -23 -24 -24 -23 -22 -22 -22 -23 -23 -23 -23 -23 -23 -22 -22 -21 -21 -21 -21 -21 -21
-15 -15 -14 -15 -15 -15 -15 -15 -15 -15 -15 -15 -15 -15 -15 -17 -17 -18 -18 -19 -19 -19 -18 -18 -18 -18 -18 -18 -20 -22 -23 -23 -24 -24 -24 -24 -24 -23 -22 -22 -23 -23 -23 -23 -23 -23 -22 -22 -22 -22 -22 -21 -21 -21
-15 -15 -15 -15 -14 -15 -15 -15 -16 -15 -15 -15 -15 -15 -16 -17 -18 -18 -19 -20 -20 -20 -19 -19 -19 -18 -18 -19 -21 -23 -23 -23 -24 -23 -23 -24 -24 -23 -22 -22 -22 -22 -23 -23 -23 -23 -23 -22 -22 -22 -22 -22 -21 -21
-14 -14 -14 -15 -15 -15 -15 -15 -15 -15 -16 -15 -15 -16 -17 -18 -18 -19 -20 -20 -20 -20 -20 -19 -18 -18 -18 -20 -23 -24 -23 -23 -23 -23 -23 -23 -23 -24 -23 -23 -22 -23 -23 -23 -23 -23 -23 -22 -22 -22 -22 -22 -22 -22
-15 -14 -15 -15 -15 -15 -15 -15 -16 -15 -15 -15 -16 -17 -17 -19 -19 -20 -20 -21 -21 -21 -20 -19 -18 -18 -19 -21 -23 -24 -24 -23 -23 -23 -23 -23 -23 -23 -24 -23 -23 -23 -23 -23 -23 -23 -23 -23 -22 -22 -22 -22 -22 -22
-15 -15 -16 -16 -16 -16 -16 -16 -16 -16 -16 -16 -18 -17 -18 -19 -20 -20 -21 -21 -21 -20 -20 -19 -19 -18 -20 -23 -24 -24 -24 -24 -23 -23 -23 -24 -24 -24 -23 -23 -23 -24 -24 -23 -23 -23 -23 -23 -22 -22 -22 -22 -22 -22
-16 -16 -16 -16 -16 -16 -16 -16 -16 -16 -16 -18 -18 -18 -19 -20 -20 -21 -22 -21 -21 -21 -20 -20 -19 -19 -21 -23 -25 -25 -24 -24 -24 -23 -23 -23 -24 -24 -23 -23 -23 -23 -23 -23 -23 -23 -23 -23 -23 -23 -23 -22 -22 -22
-16 -16 -16 -16 -16 -16 -16 -16 -16 -16 -18 -18 -19 -19 -20 -20 -21 -22 -22 -21 -21 -21 -21 -20 -20 -20 -22 -24 -25 -25 -24 -24 -24 -24 -23 -23 -23 -23 -23 -23 -23 -23 -23 -23 -23 -23 -23 -23 -23 -22 -22 -22 -22 -22
-16 -15 -16 -15 -16 -16 -16 -16 -18 -18 -18 -19 -20 -21 -21 -21 -22 -22 -22 -21 -21 -21 -21 -21 -21 -22 -24 -25 -25 -25 -25 -24 -24 -24 -24 -23 -23 -23 -23 -23 -23 -23 -23 -23 -23 -23 -23 -23 -23 -22 -22 -22 -22 -22
-16 -16 -16 -16 -16 -17 -18 -18 -18 -19 -19 -20 -21 -21 -22 -22 -22 -22 -22 -22 -22 -21 -21 -21 -23 -24 -25 -25 -25 -25 -25 -25 -24 -24 -24 -24 -24 -23 -23 -23 -23 -23 -23 -23 -23 -23 -23 -23 -23 -23 -23 -23 -23 -23
-17 -17 -17 -17 -18 -18 -19 -19 -20 -20 -20 -21 -22 -22 -22 -22 -22 -22 -22 -22 -22 -22 -22 -22 -24 -25 -25 -25 -25 -25 -25 -25 -25 -24 -24 -24 -24 -24 -23 -23 -23 -23 -23 -23 -23 -23 -23 -24 -23 -23 -23 -23 -23 -23
-18 -19 -19 -19 -20 -20 -20 -20 -20 -20 -21 -22 -23 -23 -23 -23 -23 -23 -22 -22 -22 -22 -22 -23 -24 -25 -25 -25 -25 -25 -25 -25 -25 -25 -24 -24 -24 -24 -24 -23 -23 -23 -23 -23 -24 -24 -24 -24 -23 -23 -23 -23 -23 -23
-20 -20 -21 -21 -20 -20 -21 -21 -21 -22 -22 -23 -23 -23 -23 -23 -23 -23 -23 -22 -22 -22 -23 -24 -25 -26 -25 -25 -25 -24 -25 -25 -25 -25 -25 -24 -24 -24 -24 -24 -23 -23 -23 -24 -24 -24 -24 -24 -24 -23 -23 -23 -23 -23
-22 -22 -22 -22 -22 -22 -22 -21 -22 -22 -23 -23 -23 -23 -23 -23 -24 -23 -23 -23 -22 -22 -23 -25 -26 -26 -25 -25 -25 -25 -25 -25 -25 -25 -25 -25 -24 -24 -24 -24 -24 -24 -24 -24 -24 -24 -24 -24 -24 -24 -24 -23 -23 -23
-22 -23 -23 -23 -22 -22 -22 -23 -23 -23 -23 -23 -23 -23 -24 -24 -24 -23 -23 -23 -22 -24 -25 -26 -26 -26 -25 -25 -25 -25 -25 -25 -25 -25 -25 -25 -25 -25 -25 -25 -24 -24 -24 -24 -24 -24 -24 -24 -24 -24 -24 -24 -23 -23
-23 -23 -23 -23 -23 -22 -23 -23 -23 -23 -23 -24 -24 -24 -24 -24 -24 -23 -23 -23 -23 -25 -25 -26 -26 -26 -25 -25 -25 -25 -24 -25 -25 -24 -25 -25 -25 -25 -25 -25 -25 -25 -25 -24 -24 -24 -24 -24 -24 -24 -24 -24 -23 -24
-24 -23 -23 -23 -23 -23 -23 -24 -24 -24 -24 -24 -24 -24 -24 -24 -24 -23 -23 -24 -25 -25 -26 -26 -26 -25 -25 -25 -25 -25 -25 -25 -25 -24 -24 -24 -24 -25 -25 -25 -25 -25 -25 -25 -25 -25 -24 -24 -24 -24 -24 -24 -24 -24
-24 -24 -24 -24 -23 -23 -24 -24 -25 -25 -25 -25 -24 -24 -24 -24 -24 -24 -24 -26 -26 -26 -26 -26 -26 -26 -26 -26 -25 -25 -25 -25 -25 -25 -25 -25 -25 -25 -25 -25 -25 -26 -26 -25 -25 -25 -25 -25 -25 -25 -24 -24 -24 -24
-25 -24 -24 -24 -24 -24 -24 -25 -25 -25 -25 -25 -24 -24 -24 -25 -25 -25 -26 -27 -27 -27 -26 -27 -27 -26 -26 -26 -26 -26 -26 -26 -26 -26 -26 -26 -26 -26 -27 -26 -26 -26 -26 -26 -26 -26 -25 -25 -25 -25 -25 -25 -25 -24
-25 -25 -25 -25 -25 -25 -25 -25 -25 -25 -25 -25 -24 -25 -26 -26 -26 -27 -27 -27 -27 -27 -27 -27 -27 -27 -27 -27 -27 -27 -27 -27 -27 -26 -26 -26 -27 -27 -27 -27 -27 -27 -27 -27 -27 -27 -26 -26 -26 -26 -25 -25 -25 -25
-26 -26 -26 -26 -26 -26 -25 -25 -25 -25 -25 -25 -25 -26 -27 -27 -28 -28 -27 -28 -28 -28 -28 -29 -28 -28 -28 -28 -28 -28 -28 -28 -28 -28 -28 -28 -28 -28 -28 -28 -28 -28 -28 -28 -28 -28 -27 -27 -27 -27 -27 -27 -27 -27
-26 -26 -26 -26 -26 -26 -26 -25 -25 -25 -26 -26 -27 -28 -28 -28 -28 -28 -28 -28 -29 -29 -29 -29 -28 -28 -28 -28 -28 -28 -28 -28 -28 -28 -28 -29 -29 -28 -28 -28 -28 -28 -28 -29 -29 -29 -28 -28 -28 -28 -28 -28 -28 -28
-27 -27 -26 -26 -26 -26 -26 -26 -26 -27 -28 -28 -29 -28 -28 -28 -29 -29 -29 -29 -30 -30 -29 -29 -29 -29 -29 -29 -28 -28 -28 -28 -28 -28 -28 -29 -29 -29 -29 -28 -28 -28 -28 -28 -28 -28 -28 -28 -29 -29 -29 -29 -29 -28
-27 -27 -27 -26 -26 -27 -27 -28 -28 -29 -29 -29 -29 -29 -29 -29 -29 -30 -30 -30 -30 -30 -30 -30 -29 -29 -29 -29 -29 -29 -29 -29 -29 -29 -29 -29 -29 -29 -29 -29 -29 -29 -29 -29 -28 -28 -28 -28 -28 -28 -28 -28 -28 -28
-27 -27 -28 -28 -29 -29 -29 -29 -29 -29 -29 -29 -29 -29 -29 -30 -30 -30 -30 -30 -30 -30 -30 -29 -29 -29 -29 -29 -29 -29 -29 -29 -29 -29 -29 -29 -28 -28 -28 -28 -29 -29 -29 -29 -29 -29 -28 -28 -28 -28 -28 -28 -28 -28
-29 -29 -29 -29 -29 -29 -29 -29 -29 -30 -30 -30 -30 -30 -30 -30 -30 -30 -30 -30 -30 -30 -30 -30 -30 -30 -30 -30 -29 -29 -29 -29 -29 -29 -29 -29 -29 -30 -29 -30 -30 -30 -29 -29 -29 -29 -29 -29 -29 -29 -29 -28 -28 -28
-30 -30 -30 -30 -30 -30 -30 -30 -30 -30 -30 -30 -30 -30 -31 -31 -31 -30 -30 -30 -30 -30 -30 -30 -30 -30 -30 -30 -30 -29 -29 -30 -31 -31 -31 -31 -31 -31 -31 -31 -32 -32 -31 -31 -31 -30 -30 -30 -29 -29 -29 -29 -29 -28

GFSWCAN_500_temp_084.txt.gz
Temp
-14 -14 -13 -14 -14 -14 -14 -14 -14 -14 -13 -14 -14 -14 -14 -14 -14 -14 -14 -14 -14 -14 -14 -14 -15 -16 -15 -15 -14 -14 -15 -15 -18 -20 -22 -22 -23 -23 -23 -23 -23 -23 -23 -23 -22 -22 -21 -21 -21 -20 -20 -20 -20 -20
-14 -14 -14 -14 -14 -14 -14 -14 -14 -14 -13 -14 -14 -14 -14 -14 -14 -14 -14 -14 -14 -14 -14 -14 -15 -15 -15 -14 -15 -15 -15 -16 -19 -22 -23 -23 -23 -24 -24 -23 -24 -23 -23 -22 -22 -22 -21 -21 -20 -20 -20 -20 -20 -20
-14 -14 -14 -14 -14 -14 -14 -14 -14 -14 -14 -14 -14 -14 -14 -14 -14 -14 -14 -14 -14 -14 -14 -15 -15 -16 -15 -15 -15 -15 -15 -16 -19 -22 -23 -23 -23 -24 -24 -24 -24 -23 -23 -23 -23 -23 -22 -21 -21 -21 -20 -21 -20 -20
-14 -14 -14 -15 -14 -14 -14 -14 -14 -14 -14 -14 -14 -14 -14 -14 -14 -15 -14 -14 -14 -14 -15 -15 -16 -16 -16 -15 -15 -15 -15 -17 -19 -22 -23 -23 -24 -24 -24 -23 -23 -23 -23 -23 -23 -23 -22 -21 -21 -21 -21 -21 -21 -20
-14 -14 -14 -14 -14 -15 -14 -14 -14 -14 -14 -15 -15 -14 -14 -15 -15 -15 -15 -15 -15 -15 -16 -16 -16 -16 -16 -15 -16 -15 -16 -17 -20 -22 -23 -23 -23 -23 -24 -24 -23 -24 -23 -23 -23 -23 -22 -21 -21 -21 -21 -21 -21 -21
-14 -14 -14 -14 -14 -15 -15 -14 -14 -14 -14 -14 -14 -14 -14 -14 -15 -15 -15 -15 -15 -15 -16 -17 -17 -16 -16 -16 -16 -16 -16 -17 -21 -23 -23 -23 -23 -23 -24 -23 -24 -23 -23 -23 -23 -22 -22 -22 -22 -21 -21 -21 -21 -21
-14 -14 -14 -15 -15 -15 -15 -15 -14 -15 -15 -14 -14 -15 -14 -15 -15 -15 -15 -15 -15 -15 -17 -17 -16 -17 -17 -16 -16 -16 -16 -18 -21 -22 -23 -23 -23 -23 -24 -23 -23 -22 -23 -23 -23 -23 -23 -22 -22 -22 -21 -21 -21 -21
-14 -14 -14 -15 -15 -15 -15 -15 -15 -15 -15 -15 -15 -15 -15 -15 -15 -16 -15 -15 -15 -16 -17 -17 -17 -17 -17 -17 -17 -17 -17 -19 -22 -23 -23 -23 -23 -23 -24 -23 -22 -22 -22 -22 -23 -23 -23 -23 -22 -22 -22 -22 -22 -21
-14 -14 -15 -15 -15 -15 -15 -15 -15 -15 -15 -15 -15 -15 -15 -16 -16 -16 -16 -15 -16 -17 -17 -17 -17 -18 -18 -17 -17 -17 -18 -21 -23 -23 -24 -23 -23 -23 -24 -22 -22 -21 -22 -22 -23 -23 -23 -22 -22 -22 -22 -22 -22 -22
-14 -15 -15 -15 -15 -15 -15 -15 -15 -15 -15 -15 -16 -15 -16 -16 -16 -16 -16 -16 -17 -18 -18 -18 -19 -18 -18 -18 -17 -17 -19 -22 -23 -23 -23 -23 -23 -23 -24 -22 -22 -22 -23 -23 -24 -23 -23 -23 -23 -23 -23 -22 -22 -22
-15 -15 -15 -15 -15 -15 -15 -15 -15 -15 -15 -15 -15 -15 -16 -16 -17 -17 -17 -17 -18 -19 -19 -19 -19 -19 -18 -18 -18 -18 -20 -22 -23 -23 -23 -23 -23 -23 -23 -23 -23 -23 -24 -24 -23 -23 -23 -23 -23 -23 -23 -23 -22 -22
-15 -15 -15 -15 -15 -15 -15 -15 -15 -15 -15 -15 -15 -16 -16 -17 -17 -17 -18 -18 -19 -19 -20 -20 -19 -19 -19 -18 -18 -19 -21 -23 -23 -24 -24 -23 -23 -23 -23 -24 -23 -24 -24 -24 -23 -23 -23 -23 -23 -23 -23 -23 -23 -23
-15 -15 -15 -15 -16 -16 -15 -15 -15 -16 -15 -16 -16 -16 -17 -17 -17 -18 -18 -19 -20 -20 -20 -20 -20 -20 -19 -19 -19 -20 -22 -23 -24 -24 -24 -23 -23 -23 -23 -23 -24 -24 -24 -23 -23 -23 -23 -23 -23 -23 -23 -23 -23 -23
-15 -15 -15 -16 -17 -16 -16 -16 -16 -16 -16 -16 -16 -17 -17 -17 -18 -19 -19 -20 -21 -21 -21 -21 -20 -20 -20 -19 -19 -21 -22 -24 -24 -24 -24 -24 -24 -24 -24 -23 -23 -23 -24 -24 -23 -23 -23 -23 -23 -23 -23 -23 -22 -23
-15 -15 -16 -17 -17 -17 -16 -16 -16 -16 -16 -17 -17 -18 -18 -18 -19 -19 -20 -21 -21 -21 -21 -21 -21 -20 -20 -20 -21 -22 -23 -24 -25 -24 -24 -24 -24 -24 -23 -23 -23 -23 -23 -23 -23 -23 -23 -23 -23 -23 -23 -23 -23 -23
-15 -16 -16 -16 -16 -16 -16 -16 -16 -17 -18 -18 -18 -18 -19 -19 -19 -20 -21 -21 -22 -22 -22 -21 -21 -21 -20 -21 -22 -23 -24 -25 -25 -25 -24 -24 -24 -24 -24 -23 -23 -23 -23 -23 -23 -23 -23 -23 -23 -23 -23 -23 -23 -23
-15 -16 -16 -16 -16 -16 -16 -17 -18 -18 -18 -18 -19 -19 -19 -19 -20 -21 -21 -22 -22 -22 -22 -22 -21 -21 -21 -21 -23 -24 -24 -24 -24 -25 -25 -24 -24 -24 -24 -24 -24 -24 -23 -23 -23 -24 -24 -24 -24 -24 -24 -24 -23 -23
-17 -16 -17 -17 -17 -17 -18 -19 -19 -19 -18 -19 -19 -20 -20 -21 -22 -22 -22 -22 -22 -22 -22 -22 -22 -22 -22 -21 -23 -24 -25 -25 -25 -25 -25 -25 -25 -24 -24 -24 -24 -24 -24 -24 -24 -24 -24 -24 -24 -24 -24 -24 -24 -23
-17 -17 -18 -18 -19 -19 -19 -19 -19 -19 -20 -20 -20 -21 -21 -22 -22 -22 -23 -23 -22 -22 -22 -22 -22 -22 -22 -21 -23 -25 -25 -25 -25 -25 -25 -25 -25 -24 -25 -24 -24 -24 -24 -24 -24 -24 -24 -24 -24 -24 -24 -24 -24 -24
-20 -20 -19 -19 -19 -19 -20 -20 -20 -21 -21 -21 -22 -22 -22 -22 -23 -23 -23 -22 -23 -23 -22 -22 -22 -22 -22 -22 -24 -25 -25 -25 -25 -25 -25 -25 -25 -25 -25 -25 -25 -24 -24 -24 -24 -24 -24 -24 -24 -24 -24 -24 -24 -24
-20 -20 -20 -21 -21 -21 -21 -21 -21 -22 -22 -22 -22 -22 -23 -23 -23 -22 -22 -23 -23 -23 -23 -23 -22 -22 -23 -24 -25 -26 -25 -25 -25 -25 -25 -25 -25 -25 -25 -25 -25 -25 -25 -24 -24 -24 -24 -24 -24 -24 -24 -24 -24 -24
-21 -21 -21 -21 -22 -22 -22 -22 -22 -22 -23 -23 -23 -23 -23 -23 -23 -23 -23 -23 -23 -23 -23 -23 -23 -23 -24 -26 -26 -26 -26 -25 -25 -25 -25 -25 -25 -25 -25 -25 -25 -25 -25 -25 -24 -25 -25 -25 -25 -24 -24 -24 -24 -24
-22 -22 -23 -23 -23 -23 -22 -23 -23 -23 -23 -23 -23 -23 -23 -23 -24 -24 -23 -23 -23 -23 -23 -23 -23 -24 -26 -26 -26 -26 -26 -25 -25 -25 -25 -25 -25 -25 -25 -24 -25 -25 -25 -25 -25 -25 -25 -25 -25 -25 -25 -25 -25 -24
-24 -24 -23 -23 -23 -23 -23 -23 -23 -24 -24 -24 -24 -24 -24 -24 -24 -24 -24 -24 -23 -23 -23 -24 -25 -26 -26 -26 -26 -26 -26 -26 -26 -26 -26 -25 -25 -25 -25 -25 -25 -25 -25 -25 -25 -25 -25 -25 -25 -25 -25 -25 -25 -25
-24 -24 -23 -23 -24 -24 -24 -24 -24 -24 -24 -24 -24 -24 -25 -24 -24 -24 -24 -24 -24 -24 -25 -26 -27 -27 -27 -27 -26 -26 -26 -26 -26 -26 -26 -26 -26 -26 -26 -26 -26 -26 -26 -27 -27 -27 -26 -26 -26 -26 -26 -26 -25 -25
-24 -24 -24 -24 -25 -25 -25 -25 -25 -25 -25 -25 -25 -25 -25 -24 -24 -24 -24 -24 -25 -26 -27 -27 -27 -27 -27 -27 -27 -27 -27 -27 -27 -27 -27 -27 -27 -27 -27 -27 -27 -27 -27 -27 -27 -27 -28 -27 -27 -27 -27 -27 -27 -27
-25 -25 -25 -25 -25 -25 -25 -25 -25 -25 -25 -25 -25 -25 -25 -25 -24 -25 -25 -26 -27 -27 -28 -28 -28 -28 -28 -29 -29 -28 -28 -28 -28 -28 -28 -28 -28 -27 -27 -28 -28 -28 -28 -28 -28 -28 -28 -28 -28 -28 -28 -28 -28 -28
-26 -26 -26 -26 -26 -26 -25 -26 -26 -26 -25 -25 -25 -25 -25 -25 -26 -27 -27 -28 -28 -28 -29 -29 -29 -29 -29 -29 -29 -29 -29 -29 -29 -29 -29 -29 -29 -28 -28 -28 -28 -28 -28 -28 -28 -28 -28 -28 -29 -29 -29 -29 -29 -29
-27 -27 -27 -26 -26 -26 -26 -26 -26 -26 -26 -25 -26 -26 -26 -28 -28 -29 -29 -29 -29 -29 -29 -30 -30 -30 -30 -29 -29 -29 -29 -29 -29 -29 -29 -29 -29 -29 -28 -28 -28 -28 -28 -28 -28 -28 -28 -28 -28 -29 -29 -29 -28 -29
-27 -27 -27 -27 -26 -26 -26 -26 -26 -26 -26 -27 -27 -28 -29 -29 -29 -29 -29 -30 -30 -30 -30 -30 -30 -30 -30 -29 -29 -29 -29 -29 -29 -29 -29 -29 -29 -29 -29 -29 -29 -29 -29 -29 -29 -29 -29 -28 -28 -29 -28 -29 -29 -28
-27 -27 -27 -27 -27 -27 -27 -27 -27 -28 -28 -29 -29 -29 -29 -30 -30 -30 -30 -30 -30 -30 -30 -30 -30 -30 -30 -30 -30 -30 -30 -29 -29 -28 -28 -28 -28 -28 -28 -28 -29 -29 -29 -29 -29 -29 -29 -29 -29 -29 -29 -29 -29 -29
-27 -27 -27 -27 -27 -28 -28 -29 -29 -29 -29 -29 -30 -30 -30 -30 -30 -30 -30 -30 -30 -30 -30 -30 -30 -30 -30 -30 -30 -29 -29 -29 -29 -29 -29 -29 -29 -30 -30 -30 -31 -31 -31 -31 -31 -31 -30 -30 -30 -30 -30 -29 -29 -29
-28 -28 -28 -29 -29 -29 -29 -29 -30 -30 -30 -30 -30 -30 -31 -31 -31 -31 -30 -30 -30 -30 -30 -30 -30 -30 -30 -29 -29 -29 -29 -29 -29 -30 -30 -31 -31 -31 -31 -31 -32 -32 -32 -32 -32 -32 -32 -31 -32 -32 -31 -31 -30 -30

GFSWCAN_500_temp_087.txt.gz
Temp
-16 -16 -14 -15 -14 -14 -14 -14 -14 -13 -14 -13 -14 -14 -14 -14 -14 -14 -14 -14 -14 -13 -13 -13 -13 -14 -14 -15 -15 -15 -14 -14 -15 -15 -17 -20 -21 -22 -23 -23 -23 -23 -23 -22 -23 -23 -22 -22 -22 -21 -21 -20 -20 -20
-16 -16 -15 -14 -14 -14 -14 -14 -14 -14 -14 -14 -14 -14 -14 -14 -14 -14 -14 -14 -14 -13 -13 -13 -13 -14 -15 -15 -15 -15 -14 -14 -15 -15 -19 -21 -22 -22 -23 -23 -23 -23 -23 -23 -23 -23 -23 -22 -21 -21 -21 -20 -20 -20
-16 -16 -14 -15 -14 -14 -14 -14 -14 -14 -14 -14 -14 -14 -14 -14 -14 -14 -14 -14 -14 -14 -13 -13 -14 -15 -15 -15 -15 -15 -15 -15 -15 -15 -19 -22 -22 -23 -23 -23 -23 -23 -23 -23 -23 -23 -23 -22 -22 -21 -20 -20 -20 -20
-16 -16 -15 -15 -14 -14 -14 -14 -14 -14 -14 -14 -14 -14 -14 -14 -14 -14 -15 -15 -14 -14 -14 -14 -14 -15 -15 -15 -15 -15 -15 -15 -15 -15 -19 -21 -23 -23 -23 -23 -23 -23 -23 -23 -23 -23 -23 -23 -21 -21 -21 -21 -20 -20
-15 -16 -15 -15 -14 -14 -15 -15 -15 -14 -14 -14 -14 -14 -14 -15 -14 -14 -15 -15 -14 -14 -14 -14 -14 -15 -15 -15 -15 -15 -15 -15 -15 -16 -18 -20 -23 -23 -23 -23 -24 -23 -23 -23 -23 -23 -23 -22 -22 -22 -22 -21 -21 -21
-16 -15 -15 -15 -14 -14 -14 -15 -14 -14 -14 -14 -14 -14 -15 -14 -15 -15 -15 -15 -15 -14 -14 -15 -15 -15 -16 -16 -16 -15 -15 -15 -16 -16 -17 -21 -22 -23 -23 -23 -24 -23 -23 -23 -23 -23 -23 -22 -22 -22 -22 -22 -21 -21
-16 -16 -15 -15 -15 -15 -15 -15 -15 -14 -14 -14 -14 -15 -15 -15 -15 -15 -15 -15 -15 -15 -15 -15 -15 -16 -16 -16 -16 -15 -15 -16 -16 -16 -18 -21 -22 -23 -23 -23 -23 -23 -23 -23 -23 -23 -23 -23 -22 -22 -22 -22 -22 -21
-15 -15 -15 -15 -15 -15 -15 -15 -15 -15 -14 -14 -15 -15 -15 -15 -15 -15 -15 -15 -15 -15 -15 -16 -16 -17 -17 -16 -16 -16 -16 -16 -16 -17 -19 -21 -22 -23 -23 -23 -23 -22 -22 -22 -23 -23 -23 -23 -23 -22 -22 -22 -22 -22
-15 -15 -15 -15 -15 -15 -15 -15 -15 -15 -15 -15 -15 -15 -15 -15 -15 -16 -16 -16 -15 -16 -16 -16 -17 -17 -17 -17 -17 -17 -17 -17 -17 -17 -20 -22 -23 -23 -23 -23 -22 -22 -21 -21 -22 -23 -23 -23 -23 -23 -22 -22 -22 -22
-15 -15 -15 -15 -15 -15 -15 -15 -15 -15 -15 -15 -15 -15 -15 -15 -15 -16 -16 -16 -16 -16 -16 -16 -17 -18 -18 -18 -17 -17 -17 -18 -18 -19 -21 -23 -23 -23 -23 -23 -23 -22 -22 -22 -23 -23 -24 -24 -23 -23 -22 -22 -22 -22
-15 -15 -15 -15 -15 -15 -15 -15 -15 -15 -15 -15 -15 -16 -16 -16 -16 -16 -16 -16 -16 -16 -16 -17 -18 -18 -18 -18 -18 -18 -18 -18 -18 -20 -21 -23 -23 -23 -23 -23 -23 -23 -23 -23 -23 -24 -24 -24 -23 -23 -23 -23 -23 -23
-15 -15 -15 -15 -15 -14 -15 -15 -15 -15 -15 -15 -15 -16 -16 -16 -16 -16 -16 -16 -16 -17 -17 -17 -18 -19 -18 -19 -19 -19 -19 -19 -19 -20 -22 -23 -23 -23 -23 -23 -23 -23 -24 -24 -24 -24 -24 -23 -23 -23 -23 -23 -23 -23
-15 -15 -15 -15 -15 -15 -15 -15 -15 -15 -15 -16 -16 -16 -16 -16 -16 -16 -16 -16 -17 -17 -18 -19 -19 -19 -19 -19 -19 -19 -19 -19 -19 -21 -22 -23 -23 -23 -23 -23 -23 -23 -23 -24 -24 -24 -24 -23 -23 -23 -23 -23 -23 -23
-15 -15 -15 -15 -15 -15 -15 -16 -16 -15 -15 -16 -16 -16 -16 -16 -16 -17 -17 -17 -17 -18 -19 -19 -20 -20 -20 -20 -20 -20 -20 -20 -20 -21 -23 -23 -24 -24 -24 -23 -23 -23 -23 -23 -24 -23 -23 -23 -23 -23 -23 -23 -23 -23
-15 -15 -15 -15 -15 -16 -16 -16 -16 -16 -16 -16 -16 -16 -16 -17 -17 -17 -17 -17 -18 -18 -19 -20 -21 -20 -20 -20 -20 -20 -20 -20 -21 -22 -23 -24 -24 -24 -24 -24 -23 -23 -23 -23 -24 -23 -23 -23 -23 -23 -23 -23 -23 -23
-16 -15 -15 -15 -16 -16 -16 -16 -16 -17 -16 -16 -16 -16 -17 -17 -17 -17 -18 -18 -19 -20 -21 -21 -21 -21 -21 -21 -21 -21 -21 -21 -21 -22 -23 -24 -24 -24 -24 -24 -24 -24 -23 -23 -23 -23 -23 -23 -23 -23 -23 -23 -23 -23
-16 -15 -15 -16 -16 -16 -16 -16 -17 -17 -17 -16 -17 -17 -18 -18 -18 -18 -19 -19 -20 -21 -21 -21 -21 -21 -21 -21 -21 -21 -21 -21 -21 -22 -23 -24 -24 -24 -24 -24 -24 -24 -24 -24 -24 -23 -24 -24 -24 -24 -24 -23 -24 -24
-16 -15 -16 -15 -16 -16 -16 -17 -17 -17 -17 -17 -18 -18 -18 -18 -19 -19 -19 -20 -21 -21 -21 -22 -22 -22 -21 -21 -21 -22 -22 -22 -22 -22 -24 -24 -24 -24 -24 -25 -24 -24 -24 -24 -24 -24 -24 -24 -24 -24 -24 -24 -24 -24
-16 -16 -16 -16 -17 -17 -17 -17 -17 -18 -18 -18 -19 -19 -19 -19 -19 -20 -20 -21 -22 -22 -22 -22 -22 -22 -21 -21 -22 -22 -22 -22 -22 -23 -24 -25 -25 -25 -25 -24 -24 -25 -25 -24 -24 -24 -24 -24 -24 -24 -24 -24 -24 -24
-17 -17 -17 -17 -18 -18 -18 -18 -18 -19 -19 -19 -19 -19 -20 -20 -20 -20 -21 -22 -22 -22 -23 -23 -22 -22 -22 -22 -22 -23 -22 -22 -22 -23 -24 -25 -25 -25 -25 -25 -25 -25 -25 -25 -25 -25 -24 -24 -24 -24 -24 -24 -24 -24
-19 -19 -19 -19 -19 -19 -19 -19 -20 -20 -19 -19 -20 -20 -20 -21 -21 -22 -22 -22 -22 -23 -23 -22 -22 -22 -22 -22 -23 -22 -22 -22 -23 -24 -25 -25 -25 -25 -25 -25 -25 -25 -25 -25 -25 -25 -25 -25 -25 -25 -25 -24 -24 -24
-20 -20 -21 -21 -20 -20 -20 -20 -20 -20 -20 -20 -21 -21 -21 -22 -22 -22 -22 -23 -23 -23 -22 -23 -23 -23 -23 -23 -23 -23 -22 -22 -23 -25 -26 -26 -25 -25 -25 -25 -25 -25 -25 -25 -25 -25 -25 -25 -25 -25 -25 -25 -25 -25
-21 -21 -21 -21 -21 -20 -20 -21 -21 -21 -21 -21 -22 -22 -22 -23 -23 -23 -23 -23 -23 -23 -23 -23 -23 -23 -23 -23 -23 -23 -23 -24 -25 -26 -26 -26 -26 -26 -25 -25 -25 -25 -25 -25 -25 -25 -25 -25 -25 -25 -25 -25 -25 -25
-21 -21 -21 -21 -21 -21 -21 -21 -22 -22 -22 -23 -23 -23 -23 -23 -23 -23 -23 -23 -23 -23 -23 -23 -23 -23 -23 -23 -23 -23 -24 -25 -26 -26 -26 -26 -26 -26 -25 -25 -25 -26 -25 -25 -26 -26 -26 -26 -26 -26 -26 -26 -26 -26
-22 -21 -22 -22 -22 -22 -22 -23 -23 -23 -23 -23 -23 -23 -23 -23 -23 -23 -24 -24 -24 -24 -24 -24 -24 -24 -23 -23 -24 -25 -26 -26 -26 -26 -26 -26 -26 -26 -26 -26 -27 -26 -26 -26 -26 -26 -26 -26 -26 -26 -27 -27 -27 -27
-22 -22 -23 -23 -23 -24 -24 -24 -24 -24 -24 -24 -23 -24 -24 -24 -24 -24 -24 -24 -24 -24 -24 -24 -24 -24 -24 -25 -26 -27 -27 -27 -27 -27 -27 -27 -27 -27 -27 -28 -28 -27 -27 -27 -27 -27 -27 -27 -27 -27 -27 -27 -28 -28
-24 -24 -24 -24 -24 -24 -24 -24 -24 -24 -24 -24 -25 -25 -25 -25 -25 -25 -24 -24 -24 -24 -24 -24 -24 -25 -27 -27 -28 -28 -28 -28 -28 -28 -28 -28 -28 -28 -28 -28 -28 -28 -28 -28 -28 -28 -28 -28 -28 -28 -28 -28 -28 -28
-25 -25 -25 -25 -25 -25 -25 -25 -25 -25 -25 -25 -25 -25 -25 -25 -25 -25 -25 -24 -24 -25 -25 -25 -27 -27 -28 -28 -29 -29 -29 -29 -29 -29 -29 -29 -29 -29 -29 -28 -28 -28 -28 -28 -28 -28 -28 -28 -28 -28 -28 -28 -28 -29
-25 -25 -25 -25 -25 -25 -25 -26 -26 -25 -25 -25 -25 -25 -25 -25 -25 -25 -25 -25 -25 -26 -27 -27 -28 -28 -29 -29 -29 -29 -30 -30 -30 -30 -30 -30 -29 -29 -29 -29 -29 -29 -29 -29 -29 -29 -29 -28 -28 -28 -29 -29 -29 -29
-26 -26 -26 -26 -26 -26 -26 -26 -26 -26 -26 -26 -26 -26 -25 -25 -25 -25 -25 -26 -26 -28 -28 -29 -29 -29 -29 -29 -29 -29 -30 -30 -30 -30 -30 -30 -30 -29 -29 -29 -29 -29 -29 -29 -29 -29 -29 -29 -29 -29 -29 -29 -29 -29
-27 -27 -27 -27 -27 -27 -27 -27 -26 -26 -26 -26 -26 -26 -26 -26 -26 -26 -27 -28 -29 -29 -29 -29 -29 -29 -30 -30 -30 -30 -30 -30 -30 -30 -30 -29 -29 -29 -29 -29 -29 -29 -29 -29 -29 -29 -29 -29 -29 -29 -29 -29 -29 -29
-27 -27 -27 -27 -27 -27 -27 -27 -27 -27 -27 -27 -27 -27 -27 -27 -28 -28 -29 -29 -30 -30 -30 -30 -30 -30 -31 -31 -30 -30 -30 -30 -30 -30 -29 -29 -29 -29 -29 -29 -29 -29 -30 -31 -31 -31 -31 -31 -31 -31 -31 -31 -31 -31
-28 -28 -28 -28 -28 -28 -27 -27 -27 -27 -28 -28 -28 -28 -29 -29 -29 -30 -30 -30 -30 -31 -31 -31 -31 -31 -31 -30 -30 -30 -30 -30 -29 -29 -29 -29 -29 -30 -30 -30 -30 -30 -30 -30 -30 -30 -31 -31 -31 -32 -32 -32 -32 -32

GFSWCAN_500_temp_093.txt.gz
Temp
-24 -26 -25 -24 -23 -19 -19 -17 -16 -17 -17 -16 -16 -15 -14 -14 -14 -13 -13 -13 -13 -14 -13 -13 -13 -13 -13 -13 -13 -13 -14 -14 -14 -14 -15 -15 -15 -16 -19 -21 -22 -23 -23 -23 -23 -23 -23 -23 -23 -22 -22 -22 -22 -21
-24 -24 -24 -24 -21 -19 -18 -17 -16 -17 -16 -16 -15 -14 -14 -14 -14 -13 -14 -13 -13 -14 -14 -13 -13 -13 -13 -13 -13 -13 -14 -14 -15 -15 -15 -15 -15 -16 -19 -22 -22 -23 -23 -23 -23 -23 -23 -23 -23 -22 -22 -22 -22 -22
-24 -23 -24 -23 -19 -18 -18 -17 -18 -17 -16 -15 -14 -14 -14 -14 -14 -14 -14 -13 -14 -14 -14 -14 -13 -13 -13 -13 -13 -13 -14 -14 -15 -15 -15 -15 -15 -16 -18 -21 -23 -23 -23 -23 -23 -23 -23 -22 -23 -23 -22 -22 -22 -22
-23 -21 -22 -21 -18 -18 -17 -16 -16 -16 -15 -15 -14 -14 -14 -14 -14 -14 -14 -13 -14 -14 -14 -14 -14 -14 -14 -13 -13 -14 -14 -15 -15 -15 -15 -15 -15 -15 -17 -20 -22 -23 -23 -23 -23 -24 -24 -23 -23 -23 -23 -23 -23 -22
-20 -19 -21 -20 -19 -17 -16 -16 -16 -16 -15 -14 -14 -14 -14 -14 -14 -14 -14 -14 -14 -14 -14 -14 -14 -14 -14 -14 -13 -14 -14 -15 -15 -16 -16 -16 -16 -16 -17 -19 -21 -23 -23 -23 -23 -23 -24 -24 -24 -24 -23 -23 -23 -23
-18 -19 -20 -19 -17 -17 -16 -16 -16 -15 -15 -14 -14 -14 -14 -14 -14 -14 -14 -14 -14 -14 -14 -15 -14 -14 -14 -14 -14 -14 -14 -15 -16 -16 -16 -16 -16 -16 -17 -18 -20 -22 -22 -23 -22 -22 -22 -23 -24 -24 -24 -24 -23 -23
-17 -19 -18 -18 -18 -17 -16 -16 -16 -15 -14 -14 -14 -14 -14 -14 -14 -14 -14 -15 -14 -14 -15 -15 -15 -14 -14 -14 -14 -14 -15 -16 -16 -16 -16 -16 -16 -16 -17 -18 -20 -21 -22 -22 -22 -21 -21 -21 -23 -24 -24 -24 -23 -23
-17 -18 -18 -17 -17 -16 -16 -16 -16 -15 -14 -14 -14 -14 -14 -14 -15 -14 -15 -15 -15 -15 -15 -15 -15 -15 -14 -14 -14 -15 -15 -16 -16 -16 -16 -16 -16 -16 -17 -18 -19 -21 -23 -22 -22 -21 -21 -21 -23 -24 -24 -24 -23 -23
-17 -18 -17 -16 -16 -16 -16 -15 -15 -14 -14 -14 -15 -15 -15 -15 -15 -15 -15 -15 -15 -14 -15 -15 -15 -15 -15 -14 -14 -15 -16 -16 -16 -17 -17 -17 -16 -17 -18 -18 -19 -21 -22 -22 -22 -22 -22 -23 -24 -24 -24 -24 -23 -23
-17 -19 -17 -15 -15 -15 -16 -15 -15 -15 -15 -15 -15 -15 -15 -15 -15 -15 -15 -15 -15 -15 -15 -15 -15 -15 -15 -15 -15 -15 -16 -16 -16 -17 -17 -17 -17 -17 -18 -19 -20 -21 -22 -23 -22 -22 -23 -23 -24 -24 -23 -23 -23 -23
-18 -17 -16 -15 -16 -15 -15 -15 -15 -15 -15 -15 -16 -15 -16 -16 -16 -16 -15 -15 -15 -15 -15 -15 -15 -15 -15 -15 -15 -16 -16 -17 -17 -18 -18 -17 -18 -18 -18 -20 -20 -21 -22 -23 -23 -22 -23 -23 -24 -24 -24 -23 -23 -23
-17 -16 -15 -15 -16 -15 -15 -15 -15 -15 -15 -15 -16 -16 -16 -16 -16 -16 -16 -15 -15 -15 -15 -15 -15 -16 -16 -16 -15 -16 -17 -17 -18 -18 -18 -18 -18 -18 -19 -20 -20 -21 -22 -23 -23 -23 -23 -24 -24 -24 -24 -24 -24 -24
-16 -15 -15 -16 -15 -16 -15 -15 -15 -15 -15 -15 -15 -16 -16 -16 -16 -15 -15 -16 -15 -15 -15 -15 -15 -16 -16 -16 -16 -17 -17 -18 -18 -19 -18 -18 -18 -19 -19 -20 -21 -21 -23 -23 -23 -23 -23 -24 -24 -24 -24 -24 -24 -24
-16 -16 -16 -16 -15 -15 -15 -15 -15 -15 -15 -15 -15 -15 -16 -16 -16 -16 -16 -16 -16 -16 -15 -15 -15 -16 -16 -16 -16 -18 -18 -19 -19 -19 -18 -19 -19 -19 -20 -20 -21 -21 -22 -23 -24 -23 -23 -24 -24 -24 -24 -24 -24 -24
-16 -16 -16 -16 -15 -14 -15 -15 -15 -15 -15 -15 -15 -15 -16 -16 -16 -16 -16 -16 -16 -16 -16 -15 -16 -16 -17 -16 -17 -18 -19 -19 -19 -20 -19 -19 -20 -20 -20 -21 -21 -21 -22 -23 -24 -24 -24 -23 -24 -24 -24 -24 -24 -24
-16 -16 -16 -15 -16 -16 -16 -15 -15 -15 -15 -15 -15 -16 -16 -16 -16 -16 -16 -16 -16 -16 -16 -16 -17 -17 -17 -17 -17 -18 -19 -19 -20 -20 -19 -20 -20 -20 -20 -21 -21 -22 -22 -24 -24 -24 -24 -24 -24 -24 -24 -24 -24 -24
-16 -16 -16 -16 -16 -16 -16 -15 -15 -15 -15 -15 -15 -16 -16 -16 -16 -16 -17 -17 -17 -16 -16 -17 -17 -17 -17 -17 -17 -18 -19 -20 -20 -20 -20 -20 -20 -20 -21 -21 -22 -22 -22 -24 -24 -24 -24 -24 -24 -24 -24 -24 -24 -24
-15 -15 -15 -15 -15 -16 -15 -16 -16 -16 -15 -16 -16 -16 -16 -17 -17 -17 -17 -17 -17 -17 -17 -17 -18 -17 -17 -17 -18 -19 -20 -21 -21 -21 -21 -21 -21 -21 -21 -21 -22 -22 -23 -24 -25 -25 -25 -25 -25 -25 -24 -24 -24 -24
-15 -15 -15 -16 -16 -16 -16 -16 -16 -16 -16 -16 -16 -17 -17 -17 -17 -17 -17 -17 -17 -17 -18 -18 -18 -18 -18 -18 -19 -19 -20 -21 -21 -21 -21 -21 -21 -22 -22 -22 -22 -22 -23 -24 -25 -25 -25 -25 -25 -25 -25 -25 -25 -24
-16 -16 -16 -16 -16 -16 -16 -16 -16 -16 -16 -16 -17 -17 -17 -17 -18 -18 -18 -18 -18 -18 -18 -18 -18 -18 -18 -19 -19 -20 -21 -21 -22 -21 -22 -22 -22 -22 -22 -22 -22 -23 -23 -25 -26 -26 -25 -25 -26 -26 -26 -25 -25 -25
-16 -16 -16 -16 -16 -16 -16 -16 -16 -16 -16 -17 -18 -18 -18 -18 -18 -18 -18 -18 -18 -19 -19 -19 -18 -18 -19 -20 -20 -21 -22 -22 -22 -22 -22 -22 -22 -22 -23 -23 -23 -23 -24 -26 -26 -26 -26 -26 -26 -26 -26 -26 -26 -25
-17 -17 -17 -17 -17 -17 -16 -16 -17 -17 -18 -18 -18 -18 -18 -19 -19 -19 -19 -19 -19 -19 -19 -19 -19 -19 -20 -21 -21 -22 -22 -22 -22 -22 -22 -23 -23 -23 -23 -23 -23 -24 -25 -26 -26 -26 -26 -26 -26 -26 -26 -26 -26 -26
-18 -18 -18 -18 -17 -17 -17 -18 -18 -19 -19 -19 -19 -19 -19 -19 -20 -20 -19 -19 -19 -19 -19 -20 -20 -21 -21 -22 -22 -22 -22 -22 -22 -22 -23 -23 -23 -23 -23 -23 -24 -25 -26 -26 -26 -26 -26 -26 -26 -26 -26 -26 -26 -26
-19 -19 -19 -19 -19 -19 -19 -19 -19 -19 -19 -20 -20 -20 -20 -20 -20 -20 -20 -20 -19 -20 -20 -21 -21 -22 -22 -23 -23 -23 -23 -23 -23 -23 -23 -23 -24 -24 -24 -24 -25 -26 -27 -27 -27 -27 -27 -27 -27 -27 -27 -27 -27 -27
-19 -20 -20 -20 -20 -20 -20 -20 -20 -20 -21 -21 -21 -21 -21 -20 -20 -20 -20 -20 -20 -21 -21 -22 -22 -23 -23 -23 -23 -23 -23 -23 -23 -24 -24 -24 -24 -24 -25 -26 -27 -28 -28 -28 -28 -28 -28 -29 -29 -28 -28 -28 -28 -28
-21 -21 -20 -21 -21 -21 -22 -22 -21 -22 -21 -21 -21 -21 -21 -20 -20 -20 -21 -21 -21 -22 -22 -23 -23 -23 -23 -23 -23 -23 -24 -24 -24 -24 -24 -24 -25 -26 -27 -28 -29 -29 -29 -29 -29 -29 -29 -29 -29 -29 -29 -29 -29 -28
-22 -22 -22 -22 -22 -22 -22 -22 -22 -22 -21 -21 -21 -21 -21 -21 -21 -22 -22 -22 -23 -23 -23 -24 -24 -24 -24 -24 -24 -24 -24 -24 -24 -24 -24 -25 -27 -28 -29 -29 -29 -30 -30 -30 -30 -30 -30 -30 -29 -29 -29 -29 -29 -29
-23 -23 -23 -23 -23 -22 -22 -22 -22 -22 -21 -21 -21 -22 -22 -22 -23 -23 -23 -23 -24 -24 -24 -24 -24 -24 -24 -24 -24 -24 -24 -25 -25 -25 -26 -28 -29 -29 -29 -30 -30 -30 -30 -30 -30 -30 -30 -30 -30 -30 -30 -30 -30 -29
-23 -23 -23 -23 -22 -22 -22 -22 -22 -22 -22 -22 -23 -23 -23 -23 -24 -24 -24 -24 -24 -24 -24 -25 -25 -25 -25 -25 -25 -25 -25 -25 -26 -27 -28 -29 -29 -30 -30 -30 -30 -30 -30 -30 -30 -30 -30 -30 -30 -30 -30 -30 -30 -30
-24 -24 -23 -23 -23 -23 -23 -23 -23 -23 -23 -24 -24 -24 -24 -24 -24 -25 -25 -25 -25 -25 -25 -25 -25 -25 -25 -25 -25 -26 -26 -27 -28 -28 -29 -29 -30 -30 -30 -30 -30 -30 -30 -30 -30 -30 -30 -29 -29 -29 -29 -29 -29 -29
-25 -25 -25 -25 -25 -24 -24 -24 -24 -24 -25 -25 -25 -25 -25 -25 -25 -25 -25 -25 -25 -25 -25 -25 -26 -26 -26 -26 -26 -27 -28 -28 -29 -29 -30 -30 -30 -30 -30 -30 -30 -30 -30 -30 -30 -30 -30 -30 -30 -30 -30 -29 -29 -29
-25 -25 -25 -25 -25 -25 -25 -25 -25 -25 -25 -26 -25 -25 -26 -26 -26 -26 -26 -26 -26 -26 -26 -26 -26 -26 -27 -27 -28 -29 -29 -29 -30 -30 -30 -30 -30 -30 -30 -30 -30 -30 -30 -30 -30 -30 -30 -30 -30 -30 -30 -30 -30 -30
-26 -26 -26 -26 -26 -26 -26 -26 -26 -26 -26 -26 -26 -26 -26 -26 -26 -26 -26 -26 -26 -26 -26 -27 -27 -28 -29 -29 -29 -30 -30 -30 -30 -30 -30 -30 -30 -30 -30 -30 -30 -31 -30 -30 -30 -30 -30 -30 -30 -30 -30 -30 -30 -31

GFSWCAN_500_temp_096.txt.gz
Temp
-20 -21 -22 -21 -23 -21 -19 -19 -18 -17 -17 -17 -16 -17 -17 -17 -15 -15 -14 -14 -15 -14 -14 -14 -14 -14 -14 -13 -13 -13 -14 -14 -14 -14 -14 -15 -15 -14 -15 -16 -19 -21 -22 -22 -22 -23 -23 -23 -23 -23 -22 -22 -22 -21
-20 -21 -22 -21 -21 -21 -19 -18 -17 -17 -17 -17 -16 -17 -17 -16 -15 -15 -14 -14 -14 -14 -14 -14 -14 -14 -13 -13 -13 -13 -13 -14 -14 -14 -15 -15 -15 -15 -15 -17 -19 -20 -22 -22 -23 -22 -23 -23 -23 -23 -23 -22 -22 -22
-21 -21 -21 -20 -20 -20 -19 -18 -18 -17 -17 -17 -17 -16 -16 -16 -15 -15 -14 -14 -14 -14 -14 -14 -14 -14 -14 -14 -13 -13 -14 -14 -14 -15 -15 -15 -15 -15 -15 -16 -18 -20 -22 -23 -23 -23 -23 -23 -23 -23 -23 -23 -22 -22
-21 -21 -21 -20 -19 -19 -19 -17 -17 -18 -17 -17 -17 -16 -16 -15 -15 -15 -14 -14 -14 -14 -14 -14 -14 -14 -14 -14 -14 -14 -14 -14 -15 -15 -15 -15 -15 -15 -16 -16 -17 -19 -21 -23 -23 -23 -23 -23 -23 -23 -23 -23 -23 -23
-22 -22 -21 -19 -18 -18 -19 -17 -17 -17 -17 -17 -17 -16 -16 -15 -15 -15 -15 -15 -14 -14 -14 -14 -14 -14 -15 -14 -14 -14 -14 -14 -14 -15 -15 -15 -15 -15 -16 -16 -17 -18 -20 -21 -22 -23 -23 -23 -22 -23 -23 -23 -24 -23
-22 -22 -22 -19 -17 -18 -18 -18 -17 -17 -17 -17 -17 -16 -15 -15 -15 -15 -14 -14 -14 -14 -14 -14 -14 -14 -14 -14 -14 -14 -14 -14 -15 -16 -16 -16 -15 -15 -16 -16 -17 -18 -19 -20 -21 -22 -22 -22 -22 -22 -23 -24 -24 -23
-22 -23 -21 -19 -17 -17 -18 -17 -17 -17 -17 -17 -16 -16 -15 -15 -15 -15 -14 -14 -15 -14 -14 -14 -15 -15 -15 -15 -14 -14 -14 -14 -15 -16 -16 -16 -16 -16 -16 -16 -17 -17 -19 -19 -20 -22 -22 -21 -21 -21 -23 -24 -25 -24
-23 -23 -21 -17 -17 -17 -17 -17 -17 -17 -18 -17 -16 -16 -15 -15 -14 -14 -14 -15 -14 -14 -14 -14 -15 -15 -15 -15 -15 -14 -14 -14 -15 -16 -16 -16 -16 -16 -16 -16 -17 -18 -19 -20 -21 -22 -22 -21 -21 -21 -23 -25 -25 -24
-24 -22 -21 -17 -16 -17 -17 -18 -18 -17 -16 -16 -16 -15 -15 -14 -14 -14 -15 -15 -14 -14 -14 -15 -15 -15 -15 -15 -15 -14 -14 -14 -15 -16 -16 -16 -16 -16 -16 -17 -17 -18 -19 -20 -21 -22 -22 -22 -22 -23 -24 -25 -24 -24
-23 -22 -18 -17 -17 -17 -18 -17 -16 -16 -16 -16 -15 -15 -14 -14 -14 -15 -15 -14 -14 -14 -14 -15 -15 -15 -15 -15 -15 -15 -14 -14 -15 -16 -17 -17 -17 -17 -17 -17 -17 -18 -19 -20 -20 -22 -22 -22 -23 -24 -24 -24 -24 -24
-22 -19 -18 -17 -16 -16 -16 -16 -16 -16 -16 -16 -15 -14 -14 -15 -15 -15 -15 -14 -15 -15 -15 -15 -15 -15 -15 -15 -15 -15 -15 -15 -15 -17 -17 -17 -17 -17 -17 -17 -17 -18 -19 -20 -21 -21 -22 -23 -23 -24 -23 -24 -23 -23
-19 -18 -17 -16 -16 -16 -15 -15 -15 -15 -16 -15 -14 -15 -15 -15 -15 -15 -15 -15 -15 -15 -15 -15 -15 -15 -15 -15 -16 -16 -15 -15 -16 -16 -17 -18 -17 -18 -17 -18 -18 -18 -20 -20 -21 -22 -23 -23 -23 -24 -24 -24 -24 -23
-18 -17 -16 -16 -16 -15 -16 -16 -16 -16 -15 -15 -15 -15 -16 -16 -15 -14 -14 -15 -15 -15 -15 -15 -15 -15 -15 -15 -16 -16 -15 -16 -16 -16 -17 -18 -18 -18 -18 -18 -18 -19 -20 -21 -21 -22 -23 -23 -23 -24 -24 -24 -24 -24
-19 -18 -17 -16 -15 -16 -16 -16 -16 -16 -16 -16 -15 -15 -15 -15 -15 -15 -16 -16 -16 -15 -15 -15 -15 -15 -15 -16 -16 -16 -16 -16 -16 -17 -18 -18 -18 -18 -18 -19 -19 -19 -20 -20 -21 -22 -23 -24 -24 -24 -24 -24 -24 -24
-19 -18 -17 -16 -16 -16 -16 -16 -16 -16 -16 -15 -15 -15 -15 -16 -16 -16 -16 -16 -16 -15 -15 -15 -15 -15 -16 -16 -16 -16 -16 -16 -16 -17 -18 -18 -19 -19 -19 -19 -19 -20 -20 -20 -21 -22 -22 -23 -24 -24 -24 -24 -24 -24
-18 -17 -16 -16 -16 -16 -16 -16 -16 -16 -16 -15 -15 -15 -15 -16 -16 -16 -16 -16 -16 -15 -15 -15 -15 -16 -16 -16 -17 -16 -16 -16 -17 -17 -18 -19 -19 -19 -20 -20 -20 -20 -20 -21 -21 -22 -22 -23 -24 -24 -24 -24 -24 -24
-17 -17 -17 -17 -16 -16 -16 -16 -16 -16 -16 -15 -15 -16 -16 -16 -16 -16 -16 -16 -16 -16 -16 -16 -16 -16 -16 -16 -16 -16 -17 -17 -18 -18 -19 -20 -20 -20 -20 -20 -20 -20 -21 -21 -22 -22 -22 -23 -24 -24 -25 -25 -25 -24
-17 -18 -17 -16 -16 -16 -16 -16 -16 -15 -15 -15 -16 -16 -16 -16 -16 -16 -16 -16 -16 -16 -16 -16 -16 -16 -16 -17 -16 -17 -17 -18 -18 -19 -19 -20 -20 -20 -20 -21 -21 -21 -21 -22 -22 -23 -23 -23 -24 -25 -25 -25 -25 -25
-17 -16 -16 -16 -16 -16 -16 -16 -15 -15 -15 -16 -16 -16 -16 -17 -17 -17 -17 -17 -17 -17 -16 -16 -16 -17 -17 -17 -17 -17 -18 -18 -19 -20 -20 -20 -20 -20 -21 -21 -21 -22 -22 -22 -23 -23 -23 -24 -25 -26 -26 -26 -26 -25
-16 -16 -16 -16 -16 -16 -16 -15 -16 -16 -16 -16 -16 -16 -17 -17 -17 -17 -17 -17 -17 -17 -17 -17 -17 -17 -17 -17 -17 -18 -18 -18 -19 -20 -21 -21 -21 -21 -21 -22 -22 -22 -23 -23 -23 -23 -23 -24 -25 -26 -26 -26 -26 -26
-16 -16 -16 -16 -16 -16 -16 -16 -16 -16 -16 -16 -17 -17 -17 -18 -18 -18 -17 -17 -18 -18 -17 -17 -17 -17 -18 -18 -18 -18 -18 -19 -20 -21 -21 -21 -21 -22 -22 -22 -22 -23 -23 -23 -23 -24 -24 -25 -26 -26 -26 -26 -26 -26
-16 -16 -16 -17 -17 -16 -16 -16 -16 -16 -16 -16 -17 -18 -18 -18 -18 -18 -18 -18 -18 -17 -17 -17 -18 -18 -18 -18 -18 -18 -19 -20 -21 -21 -22 -22 -22 -22 -22 -23 -23 -23 -23 -24 -24 -24 -25 -26 -27 -27 -26 -26 -27 -27
-17 -17 -17 -17 -17 -17 -16 -17 -16 -16 -17 -18 -18 -18 -18 -18 -18 -18 -18 -19 -18 -17 -18 -18 -18 -18 -18 -18 -19 -20 -20 -21 -21 -22 -22 -22 -22 -23 -23 -23 -23 -24 -24 -24 -25 -26 -26 -27 -27 -27 -27 -27 -27 -27
-19 -19 -19 -18 -18 -17 -17 -17 -17 -18 -19 -19 -19 -19 -19 -19 -19 -18 -19 -19 -18 -18 -19 -19 -19 -19 -19 -19 -20 -21 -21 -22 -22 -22 -22 -23 -23 -23 -23 -24 -24 -24 -24 -25 -26 -27 -28 -28 -28 -28 -28 -28 -29 -29
-20 -20 -20 -19 -18 -18 -18 -18 -19 -19 -19 -20 -20 -20 -20 -20 -19 -19 -19 -19 -19 -19 -19 -19 -19 -19 -20 -20 -21 -21 -22 -22 -23 -23 -23 -23 -23 -24 -24 -24 -24 -25 -26 -27 -28 -29 -29 -29 -29 -29 -30 -30 -30 -29
-20 -20 -19 -18 -19 -19 -19 -19 -19 -20 -20 -21 -21 -21 -21 -20 -20 -20 -20 -20 -20 -20 -20 -20 -20 -20 -21 -21 -22 -22 -23 -23 -23 -23 -24 -24 -24 -24 -24 -25 -25 -27 -28 -29 -29 -29 -29 -30 -30 -30 -30 -30 -30 -30
-19 -19 -19 -19 -19 -20 -20 -20 -21 -21 -21 -21 -21 -21 -21 -21 -21 -20 -21 -20 -20 -20 -20 -21 -21 -22 -22 -23 -23 -23 -24 -24 -24 -24 -24 -24 -24 -25 -25 -26 -27 -28 -29 -30 -30 -30 -30 -30 -30 -30 -30 -30 -30 -30
-20 -20 -20 -20 -20 -21 -21 -21 -22 -22 -22 -22 -22 -22 -22 -21 -21 -21 -21 -21 -21 -21 -22 -22 -22 -23 -23 -24 -24 -24 -24 -24 -24 -24 -24 -25 -25 -25 -26 -27 -28 -29 -29 -30 -30 -30 -30 -30 -30 -30 -30 -30 -30 -30
-22 -22 -22 -22 -22 -22 -23 -23 -23 -22 -22 -22 -22 -22 -22 -22 -22 -22 -22 -22 -22 -23 -23 -23 -24 -24 -24 -24 -24 -25 -24 -24 -24 -25 -25 -25 -26 -27 -27 -29 -29 -30 -30 -30 -30 -30 -30 -30 -30 -30 -30 -30 -30 -30
-23 -23 -23 -23 -23 -23 -23 -23 -23 -23 -22 -22 -22 -22 -22 -22 -22 -23 -23 -23 -23 -24 -24 -24 -25 -25 -25 -25 -25 -25 -25 -25 -25 -25 -26 -26 -27 -28 -29 -29 -30 -30 -30 -30 -30 -30 -30 -30 -30 -30 -30 -30 -30 -30
-24 -24 -24 -24 -24 -24 -23 -23 -23 -23 -23 -23 -23 -23 -23 -23 -24 -24 -24 -24 -25 -25 -25 -25 -25 -25 -25 -25 -25 -25 -25 -26 -26 -26 -27 -28 -29 -30 -30 -30 -30 -30 -30 -30 -30 -30 -30 -30 -31 -31 -31 -31 -31 -31
-25 -24 -24 -24 -24 -24 -24 -24 -24 -24 -24 -24 -24 -24 -24 -25 -25 -25 -25 -25 -25 -25 -25 -26 -26 -26 -26 -26 -26 -26 -26 -27 -27 -28 -29 -29 -30 -30 -30 -30 -30 -30 -30 -30 -30 -30 -30 -30 -30 -30 -31 -31 -31 -31
-26 -25 -25 -25 -25 -25 -25 -25 -25 -25 -25 -25 -25 -25 -25 -25 -25 -25 -26 -26 -26 -26 -26 -26 -26 -26 -26 -26 -27 -27 -27 -28 -29 -29 -30 -30 -30 -29 -29 -30 -30 -30 -30 -30 -30 -30 -30 -31 -31 -31 -31 -31 -31 -32

GFSWCAN_500_temp_099.txt.gz
Temp
-19 -19 -19 -20 -20 -20 -19 -18 -18 -18 -18 -18 -17 -17 -16 -17 -17 -17 -16 -16 -16 -16 -15 -15 -14 -14 -14 -15 -14 -14 -14 -14 -14 -14 -14 -14 -14 -14 -14 -15 -15 -16 -18 -19 -21 -21 -22 -23 -23 -23 -23 -23 -23 -22
-19 -19 -19 -19 -20 -19 -18 -17 -18 -18 -18 -17 -17 -17 -17 -17 -17 -16 -16 -16 -15 -15 -14 -14 -15 -14 -14 -14 -14 -14 -14 -14 -14 -14 -14 -14 -14 -15 -15 -15 -15 -16 -17 -19 -21 -22 -23 -23 -23 -23 -23 -23 -23 -23
-19 -19 -19 -19 -19 -18 -18 -18 -17 -18 -17 -17 -17 -17 -17 -17 -17 -17 -16 -16 -15 -15 -15 -14 -15 -15 -14 -14 -14 -14 -14 -14 -14 -14 -14 -14 -15 -15 -15 -15 -15 -16 -17 -19 -21 -22 -23 -23 -23 -24 -24 -23 -23 -23
-19 -19 -19 -20 -19 -18 -18 -16 -17 -17 -17 -17 -17 -17 -17 -17 -17 -17 -17 -16 -15 -15 -14 -15 -15 -14 -14 -14 -14 -14 -14 -14 -14 -15 -15 -15 -15 -15 -15 -15 -16 -16 -17 -18 -19 -21 -22 -23 -23 -23 -23 -23 -23 -23
-19 -19 -20 -20 -20 -18 -17 -17 -18 -18 -18 -18 -17 -18 -17 -17 -17 -17 -16 -16 -15 -15 -14 -15 -14 -14 -14 -14 -14 -14 -14 -14 -14 -15 -15 -15 -15 -15 -15 -15 -16 -16 -17 -18 -19 -20 -21 -22 -22 -22 -22 -22 -23 -23
-20 -20 -20 -20 -20 -19 -17 -17 -17 -18 -18 -17 -17 -17 -17 -17 -17 -17 -16 -16 -16 -15 -14 -14 -14 -14 -15 -15 -14 -14 -14 -14 -14 -14 -15 -15 -15 -16 -16 -16 -16 -16 -17 -17 -18 -18 -19 -20 -21 -21 -21 -22 -23 -23
-22 -23 -22 -21 -21 -19 -18 -17 -17 -18 -17 -17 -17 -17 -17 -17 -16 -16 -15 -16 -15 -15 -14 -15 -15 -15 -14 -15 -14 -14 -14 -14 -14 -14 -15 -15 -16 -16 -16 -16 -16 -16 -17 -17 -18 -18 -18 -18 -19 -20 -21 -22 -22 -23
-22 -23 -22 -22 -22 -18 -17 -18 -18 -17 -17 -17 -17 -17 -17 -16 -16 -16 -15 -15 -16 -15 -15 -15 -15 -15 -15 -15 -14 -14 -14 -14 -14 -14 -14 -15 -15 -16 -16 -16 -16 -16 -17 -17 -17 -18 -19 -19 -20 -20 -20 -21 -22 -24
-23 -23 -23 -23 -22 -18 -18 -18 -17 -17 -17 -17 -17 -16 -17 -16 -16 -16 -16 -16 -15 -15 -14 -15 -15 -15 -15 -15 -15 -14 -14 -14 -14 -14 -14 -15 -15 -16 -16 -17 -17 -17 -17 -17 -18 -19 -20 -20 -22 -22 -22 -22 -24 -25
-24 -23 -24 -23 -21 -18 -17 -17 -17 -17 -18 -17 -17 -17 -17 -16 -16 -16 -16 -15 -15 -14 -14 -14 -15 -15 -14 -15 -15 -14 -14 -14 -15 -15 -15 -15 -16 -16 -17 -17 -17 -17 -17 -18 -18 -19 -20 -20 -22 -23 -23 -24 -24 -24
-23 -24 -23 -23 -20 -18 -17 -17 -17 -17 -17 -17 -17 -17 -16 -16 -16 -16 -15 -14 -14 -14 -14 -14 -14 -14 -15 -15 -15 -15 -15 -15 -15 -15 -15 -15 -16 -16 -17 -18 -18 -17 -17 -18 -18 -19 -20 -21 -21 -23 -23 -23 -23 -23
-24 -23 -23 -23 -19 -18 -17 -17 -17 -17 -17 -17 -17 -17 -17 -16 -15 -15 -14 -14 -14 -14 -15 -14 -14 -15 -15 -15 -15 -15 -15 -15 -15 -15 -15 -15 -16 -17 -18 -18 -18 -18 -18 -18 -19 -19 -20 -21 -21 -22 -23 -23 -23 -23
-23 -23 -24 -21 -18 -17 -17 -17 -17 -17 -17 -18 -17 -17 -17 -16 -15 -15 -13 -13 -14 -15 -15 -15 -15 -15 -15 -15 -15 -15 -15 -15 -15 -15 -15 -16 -16 -17 -18 -18 -18 -18 -18 -18 -19 -19 -20 -21 -21 -22 -22 -23 -24 -24
-23 -24 -22 -18 -17 -17 -17 -17 -17 -18 -18 -18 -17 -16 -16 -15 -14 -13 -14 -15 -16 -15 -15 -15 -15 -15 -15 -15 -15 -16 -15 -15 -15 -16 -16 -16 -16 -17 -18 -18 -19 -19 -19 -19 -19 -20 -20 -21 -22 -22 -22 -23 -24 -24
-24 -24 -20 -18 -17 -17 -17 -17 -18 -18 -18 -17 -16 -16 -15 -14 -14 -15 -15 -15 -15 -15 -15 -15 -15 -15 -15 -15 -16 -16 -16 -16 -16 -16 -16 -16 -17 -17 -18 -18 -19 -19 -20 -20 -20 -20 -21 -21 -22 -22 -22 -23 -24 -24
-23 -21 -19 -18 -17 -18 -18 -18 -18 -18 -17 -16 -16 -15 -15 -15 -15 -16 -16 -15 -15 -15 -15 -15 -15 -15 -15 -16 -16 -16 -16 -16 -16 -16 -16 -16 -16 -17 -18 -19 -19 -20 -20 -20 -20 -21 -21 -22 -22 -22 -22 -23 -23 -24
-22 -20 -19 -18 -18 -18 -18 -17 -17 -17 -16 -16 -15 -15 -15 -16 -16 -16 -16 -16 -15 -15 -15 -15 -15 -15 -15 -16 -16 -16 -16 -16 -16 -16 -16 -16 -17 -17 -18 -19 -20 -20 -20 -21 -21 -21 -21 -22 -22 -23 -23 -23 -24 -24
-21 -20 -18 -17 -17 -17 -17 -17 -17 -17 -16 -16 -16 -16 -16 -16 -16 -16 -16 -16 -16 -16 -15 -15 -15 -15 -16 -16 -16 -16 -16 -16 -16 -16 -16 -16 -17 -18 -19 -19 -20 -21 -21 -21 -21 -21 -22 -22 -23 -23 -23 -24 -24 -25
-20 -18 -17 -17 -17 -17 -17 -17 -17 -16 -16 -16 -16 -16 -16 -16 -16 -16 -16 -16 -16 -16 -16 -15 -15 -16 -16 -16 -16 -16 -17 -16 -16 -16 -17 -17 -17 -18 -19 -20 -21 -21 -21 -21 -22 -22 -22 -23 -23 -24 -24 -24 -25 -25
-20 -19 -18 -18 -18 -17 -17 -16 -16 -16 -16 -16 -16 -16 -16 -16 -16 -16 -16 -16 -16 -16 -16 -16 -16 -16 -16 -16 -16 -17 -17 -17 -17 -17 -17 -17 -18 -18 -19 -20 -21 -22 -22 -22 -22 -22 -23 -23 -24 -24 -24 -24 -25 -26
-19 -19 -18 -17 -17 -17 -16 -16 -16 -17 -16 -16 -16 -17 -17 -17 -16 -16 -16 -16 -16 -16 -16 -16 -16 -16 -17 -17 -17 -17 -17 -17 -17 -17 -17 -18 -18 -19 -20 -21 -22 -22 -22 -22 -22 -23 -23 -24 -24 -24 -25 -25 -26 -27
-19 -18 -17 -18 -17 -17 -17 -16 -17 -16 -17 -17 -17 -17 -17 -17 -17 -17 -17 -17 -17 -17 -16 -16 -16 -17 -17 -17 -17 -18 -18 -18 -18 -18 -18 -18 -19 -20 -21 -22 -22 -22 -22 -23 -23 -24 -24 -24 -24 -25 -25 -26 -26 -27
-19 -18 -18 -18 -18 -17 -17 -17 -17 -16 -16 -17 -17 -17 -17 -17 -17 -17 -17 -17 -17 -17 -17 -17 -17 -17 -17 -18 -18 -18 -18 -18 -18 -18 -19 -19 -20 -21 -22 -22 -22 -23 -23 -23 -24 -24 -25 -25 -25 -26 -27 -27 -28 -28
-20 -20 -19 -19 -18 -17 -17 -17 -17 -17 -18 -18 -18 -18 -18 -18 -18 -18 -18 -18 -17 -17 -17 -17 -17 -18 -18 -18 -18 -18 -18 -18 -19 -19 -20 -20 -21 -22 -22 -23 -23 -23 -24 -24 -24 -25 -25 -26 -27 -28 -28 -29 -29 -29
-21 -21 -20 -18 -17 -17 -17 -18 -18 -18 -18 -19 -19 -19 -19 -18 -18 -18 -18 -18 -18 -18 -18 -18 -18 -18 -19 -19 -19 -19 -19 -19 -19 -20 -21 -22 -22 -23 -23 -23 -24 -24 -24 -25 -25 -26 -27 -28 -29 -29 -30 -30 -30 -30
-22 -21 -19 -19 -19 -18 -18 -19 -19 -19 -19 -19 -19 -19 -19 -19 -19 -18 -19 -19 -19 -19 -19 -19 -19 -19 -19 -19 -19 -19 -20 -20 -21 -21 -22 -22 -23 -23 -24 -24 -24 -24 -25 -25 -26 -27 -28 -29 -30 -30 -30 -30 -30 -30
-21 -20 -20 -20 -19 -19 -19 -19 -19 -20 -20 -19 -19 -19 -19 -19 -18 -20 -20 -20 -20 -20 -20 -20 -20 -20 -20 -20 -20 -20 -21 -21 -22 -23 -23 -23 -24 -24 -24 -24 -24 -25 -25 -26 -27 -28 -29 -30 -30 -30 -30 -30 -31 -31
-20 -19 -20 -20 -20 -20 -20 -20 -20 -20 -20 -20 -20 -20 -20 -20 -20 -21 -21 -20 -20 -20 -20 -20 -20 -20 -20 -20 -21 -21 -22 -23 -23 -23 -24 -24 -24 -24 -24 -25 -25 -25 -26 -27 -28 -29 -30 -30 -31 -31 -31 -31 -31 -31
-20 -20 -20 -20 -20 -20 -20 -20 -20 -20 -20 -20 -20 -21 -21 -21 -21 -21 -21 -21 -21 -21 -21 -21 -21 -21 -21 -22 -22 -23 -23 -24 -24 -24 -24 -24 -25 -25 -25 -25 -26 -26 -27 -28 -29 -30 -30 -30 -30 -30 -30 -31 -31 -31
-22 -22 -22 -22 -21 -22 -22 -22 -22 -22 -22 -22 -21 -21 -22 -22 -22 -22 -22 -22 -22 -22 -22 -22 -22 -22 -23 -23 -24 -24 -24 -24 -25 -25 -25 -25 -25 -25 -26 -26 -27 -27 -28 -29 -30 -30 -30 -30 -30 -30 -31 -31 -31 -31
-23 -23 -23 -22 -22 -23 -22 -22 -23 -22 -22 -22 -22 -22 -22 -22 -22 -22 -22 -22 -22 -22 -23 -23 -23 -24 -24 -24 -24 -25 -25 -25 -25 -25 -25 -26 -26 -26 -26 -27 -28 -29 -29 -29 -30 -30 -30 -30 -30 -30 -30 -31 -31 -31
-23 -23 -23 -23 -23 -23 -23 -23 -23 -23 -23 -23 -23 -23 -23 -23 -23 -23 -23 -23 -23 -24 -24 -24 -24 -25 -25 -25 -25 -25 -25 -25 -26 -26 -26 -26 -26 -27 -28 -29 -29 -29 -30 -30 -29 -30 -30 -30 -30 -30 -30 -31 -31 -32
-24 -23 -23 -23 -23 -24 -24 -24 -23 -23 -23 -23 -23 -23 -23 -23 -23 -24 -24 -24 -24 -25 -25 -25 -25 -25 -25 -26 -26 -26 -26 -26 -26 -26 -27 -27 -28 -28 -29 -29 -30 -30 -29 -29 -29 -29 -29 -30 -30 -31 -31 -32 -33 -33

GFSWCAN_500_temp_102.txt.gz
Temp
-17 -17 -19 -19 -19 -19 -20 -20 -20 -18 -18 -18 -18 -18 -18 -18 -18 -17 -17 -17 -17 -17 -16 -16 -16 -16 -15 -15 -15 -15 -14 -14 -14 -14 -14 -14 -14 -14 -14 -14 -15 -15 -15 -16 -17 -19 -20 -22 -23 -23 -23 -23 -23 -23
-17 -18 -19 -20 -19 -19 -19 -19 -18 -17 -17 -17 -18 -18 -18 -18 -18 -17 -17 -17 -17 -16 -17 -16 -15 -15 -15 -15 -15 -14 -14 -14 -14 -14 -14 -14 -14 -15 -15 -15 -15 -15 -16 -16 -17 -18 -20 -22 -23 -24 -24 -24 -23 -23
-17 -17 -19 -20 -19 -19 -19 -18 -17 -17 -17 -18 -19 -18 -18 -18 -17 -17 -17 -16 -16 -16 -16 -16 -15 -15 -15 -15 -14 -14 -14 -14 -14 -14 -14 -14 -15 -15 -15 -15 -15 -16 -16 -16 -17 -18 -19 -21 -22 -23 -23 -23 -24 -23
-17 -18 -19 -19 -19 -19 -18 -18 -17 -17 -17 -18 -18 -18 -18 -18 -17 -17 -17 -16 -16 -16 -16 -15 -15 -15 -15 -15 -15 -14 -14 -14 -14 -14 -14 -14 -15 -15 -15 -15 -16 -16 -16 -16 -17 -17 -18 -18 -20 -21 -22 -23 -23 -23
-18 -19 -20 -19 -19 -19 -19 -17 -17 -17 -17 -18 -18 -18 -18 -17 -17 -17 -17 -16 -17 -16 -15 -15 -14 -15 -15 -15 -15 -14 -14 -14 -14 -14 -14 -14 -15 -15 -15 -15 -16 -16 -16 -16 -17 -17 -17 -17 -18 -18 -20 -22 -22 -22
-19 -20 -19 -20 -19 -19 -19 -18 -17 -17 -17 -18 -18 -18 -18 -18 -17 -17 -17 -17 -17 -17 -16 -15 -15 -14 -15 -15 -15 -14 -14 -14 -14 -14 -14 -14 -15 -15 -15 -16 -16 -16 -16 -16 -17 -17 -18 -18 -18 -18 -18 -19 -21 -22
-20 -19 -20 -20 -20 -19 -20 -19 -18 -17 -17 -18 -18 -18 -17 -17 -17 -17 -17 -16 -17 -17 -16 -15 -15 -15 -15 -15 -15 -14 -14 -14 -14 -14 -14 -14 -15 -15 -15 -16 -16 -16 -16 -17 -17 -17 -18 -18 -18 -18 -17 -18 -18 -21
-19 -19 -21 -21 -22 -22 -21 -20 -18 -17 -17 -18 -18 -18 -18 -17 -18 -17 -17 -17 -16 -17 -16 -15 -15 -15 -15 -15 -14 -14 -14 -14 -14 -14 -14 -15 -15 -15 -15 -16 -16 -16 -17 -17 -17 -17 -18 -18 -18 -18 -18 -18 -19 -20
-19 -20 -21 -21 -22 -23 -22 -21 -18 -17 -18 -18 -18 -18 -17 -18 -17 -17 -17 -17 -17 -16 -15 -14 -15 -15 -15 -15 -14 -14 -14 -14 -14 -14 -14 -15 -15 -15 -15 -15 -16 -17 -17 -17 -17 -18 -18 -19 -19 -19 -20 -21 -21 -21
-19 -20 -22 -23 -23 -23 -22 -22 -19 -17 -18 -17 -18 -18 -18 -17 -17 -17 -17 -17 -17 -16 -15 -14 -15 -15 -15 -15 -14 -14 -14 -14 -14 -14 -14 -15 -15 -15 -15 -16 -16 -17 -17 -18 -18 -18 -18 -19 -19 -20 -20 -22 -23 -24
-20 -20 -23 -24 -23 -23 -23 -22 -18 -18 -18 -19 -19 -17 -17 -17 -17 -17 -16 -16 -16 -15 -14 -14 -14 -15 -15 -15 -14 -14 -14 -14 -14 -15 -14 -15 -15 -15 -15 -16 -16 -17 -17 -18 -18 -18 -19 -19 -19 -20 -20 -21 -22 -23
-21 -23 -24 -24 -24 -23 -24 -21 -18 -17 -18 -17 -18 -17 -17 -17 -17 -17 -16 -16 -14 -14 -14 -14 -14 -14 -15 -15 -15 -15 -14 -14 -15 -15 -15 -15 -15 -15 -16 -16 -16 -17 -18 -18 -18 -19 -19 -19 -20 -20 -20 -21 -21 -22
-24 -25 -24 -24 -24 -24 -23 -21 -18 -18 -18 -18 -19 -18 -17 -17 -16 -15 -14 -13 -12 -13 -14 -15 -15 -15 -15 -15 -14 -15 -14 -15 -15 -15 -15 -15 -15 -15 -16 -16 -17 -17 -18 -18 -19 -19 -20 -20 -20 -20 -21 -21 -21 -22
-24 -24 -24 -24 -24 -25 -24 -21 -19 -18 -18 -18 -18 -17 -17 -16 -15 -15 -15 -15 -14 -15 -15 -15 -15 -14 -15 -15 -14 -15 -15 -14 -15 -15 -15 -15 -15 -15 -16 -16 -16 -17 -18 -18 -19 -20 -20 -20 -21 -21 -21 -21 -22 -22
-24 -24 -24 -24 -25 -24 -22 -23 -20 -19 -18 -18 -18 -17 -16 -15 -15 -15 -15 -15 -15 -15 -15 -14 -15 -15 -15 -14 -14 -15 -14 -14 -15 -15 -15 -15 -15 -16 -16 -16 -16 -17 -17 -18 -19 -20 -21 -21 -21 -21 -22 -22 -22 -22
-24 -24 -25 -25 -25 -24 -22 -20 -19 -18 -18 -18 -17 -16 -16 -16 -16 -16 -16 -15 -15 -14 -14 -15 -15 -15 -14 -14 -15 -15 -15 -15 -15 -15 -15 -16 -16 -16 -16 -16 -16 -17 -17 -18 -19 -20 -21 -21 -22 -22 -22 -22 -23 -23
-24 -25 -25 -24 -24 -23 -21 -20 -19 -18 -18 -18 -17 -17 -17 -17 -16 -16 -16 -15 -14 -14 -14 -15 -15 -15 -14 -14 -15 -15 -15 -15 -15 -16 -16 -16 -16 -16 -16 -16 -16 -17 -17 -18 -20 -20 -21 -22 -22 -22 -22 -23 -23 -23
-26 -25 -24 -24 -22 -22 -21 -20 -19 -18 -18 -18 -18 -17 -17 -17 -16 -16 -15 -15 -15 -15 -15 -15 -15 -15 -15 -15 -15 -15 -15 -15 -16 -16 -16 -16 -16 -16 -16 -16 -16 -17 -18 -19 -20 -21 -21 -22 -22 -23 -23 -23 -23 -23
-26 -25 -24 -23 -22 -21 -21 -20 -19 -18 -18 -18 -18 -18 -18 -17 -16 -15 -15 -15 -15 -15 -16 -15 -15 -15 -15 -15 -15 -15 -16 -16 -16 -16 -16 -16 -16 -16 -16 -16 -16 -17 -18 -19 -20 -21 -22 -22 -23 -23 -23 -23 -24 -24
-25 -24 -23 -22 -21 -21 -20 -19 -19 -19 -19 -18 -18 -18 -17 -17 -16 -16 -16 -16 -16 -16 -15 -16 -16 -16 -16 -16 -16 -16 -16 -16 -16 -16 -16 -17 -17 -17 -17 -17 -17 -18 -19 -20 -21 -21 -22 -23 -23 -23 -23 -24 -24 -24
-24 -23 -22 -21 -20 -19 -19 -19 -19 -19 -19 -18 -18 -18 -17 -17 -17 -16 -16 -16 -15 -16 -16 -16 -16 -16 -16 -16 -16 -16 -16 -16 -17 -17 -17 -17 -17 -17 -17 -17 -18 -18 -20 -21 -21 -22 -23 -23 -23 -24 -24 -24 -24 -25
-24 -23 -23 -22 -20 -19 -19 -19 -18 -18 -18 -18 -18 -17 -17 -17 -17 -17 -16 -16 -16 -16 -16 -16 -16 -16 -16 -17 -17 -16 -17 -17 -17 -17 -17 -18 -18 -17 -18 -18 -18 -20 -21 -21 -22 -23 -23 -23 -24 -24 -24 -25 -25 -26
-23 -23 -22 -21 -20 -19 -18 -18 -18 -18 -18 -18 -18 -17 -17 -17 -17 -16 -16 -16 -16 -16 -16 -16 -16 -16 -17 -17 -17 -17 -17 -18 -18 -18 -18 -18 -18 -18 -18 -18 -19 -20 -21 -22 -23 -23 -23 -24 -24 -25 -25 -26 -27 -28
-23 -22 -21 -20 -19 -19 -18 -18 -18 -18 -18 -18 -18 -18 -18 -17 -17 -16 -17 -17 -16 -16 -16 -16 -16 -17 -17 -17 -17 -17 -18 -18 -18 -18 -18 -18 -18 -18 -19 -20 -21 -21 -22 -23 -23 -24 -24 -24 -25 -25 -26 -27 -29 -29
-23 -22 -21 -19 -18 -18 -18 -18 -18 -18 -18 -18 -18 -17 -17 -17 -17 -17 -17 -17 -17 -17 -17 -17 -17 -17 -17 -18 -18 -18 -18 -18 -18 -19 -19 -19 -19 -19 -20 -21 -21 -22 -23 -23 -24 -24 -24 -25 -26 -26 -27 -29 -29 -30
-22 -21 -20 -19 -18 -18 -18 -18 -18 -18 -18 -18 -18 -18 -18 -18 -18 -18 -18 -18 -18 -18 -17 -18 -17 -17 -18 -18 -18 -18 -19 -19 -19 -19 -19 -19 -19 -20 -21 -22 -22 -23 -23 -24 -24 -25 -25 -25 -26 -27 -29 -29 -30 -30
-21 -20 -20 -19 -19 -19 -19 -19 -19 -19 -19 -19 -19 -19 -19 -19 -18 -18 -18 -18 -18 -18 -18 -18 -18 -18 -18 -18 -19 -19 -19 -19 -19 -19 -19 -20 -21 -22 -22 -23 -23 -24 -24 -24 -25 -25 -26 -26 -27 -28 -29 -30 -31 -31
-20 -20 -21 -20 -20 -20 -21 -20 -20 -20 -20 -20 -20 -20 -20 -19 -19 -19 -19 -18 -18 -18 -18 -18 -18 -19 -19 -20 -20 -20 -20 -20 -20 -20 -20 -21 -22 -23 -23 -24 -24 -24 -24 -25 -25 -26 -26 -27 -28 -29 -30 -30 -30 -30
-21 -21 -21 -21 -21 -21 -21 -20 -20 -21 -21 -21 -20 -20 -19 -19 -19 -19 -19 -19 -19 -19 -19 -19 -20 -20 -20 -20 -20 -20 -20 -20 -21 -22 -22 -23 -23 -24 -24 -24 -24 -25 -25 -26 -26 -26 -27 -28 -28 -29 -29 -30 -30 -30
-22 -22 -22 -21 -21 -21 -21 -21 -21 -21 -21 -21 -20 -20 -20 -20 -19 -19 -19 -20 -20 -20 -20 -20 -21 -21 -21 -21 -21 -21 -21 -22 -22 -23 -24 -24 -24 -24 -24 -25 -25 -26 -26 -26 -27 -27 -28 -29 -29 -29 -29 -29 -29 -29
-23 -23 -23 -23 -22 -22 -22 -21 -21 -21 -21 -21 -21 -21 -20 -20 -20 -20 -21 -21 -21 -21 -21 -21 -22 -22 -22 -22 -22 -22 -23 -23 -24 -24 -24 -25 -25 -25 -25 -25 -26 -26 -26 -27 -28 -29 -28 -29 -29 -29 -29 -29 -29 -30
-23 -23 -23 -22 -22 -22 -22 -22 -22 -22 -22 -22 -22 -21 -21 -21 -21 -21 -22 -22 -22 -22 -22 -22 -22 -22 -23 -23 -23 -24 -24 -25 -25 -25 -25 -25 -25 -26 -26 -26 -26 -27 -27 -28 -28 -28 -28 -28 -28 -29 -29 -29 -29 -30
-23 -23 -23 -23 -23 -23 -23 -23 -23 -23 -23 -22 -22 -22 -22 -22 -22 -22 -22 -22 -22 -23 -23 -23 -23 -23 -24 -24 -25 -25 -25 -25 -25 -26 -26 -26 -26 -26 -26 -27 -27 -28 -29 -29 -29 -29 -29 -29 -29 -29 -29 -29 -30 -30

GFSWCAN_500_temp_105.txt.gz
Temp
-15 -16 -17 -17 -17 -17 -17 -18 -19 -20 -18 -18 -17 -17 -17 -18 -18 -18 -18 -17 -17 -18 -17 -17 -17 -16 -16 -15 -15 -15 -15 -14 -14 -14 -14 -14 -14 -15 -15 -15 -15 -15 -15 -16 -16 -17 -17 -17 -18 -21 -22 -24 -24 -23
-16 -16 -17 -17 -16 -16 -16 -17 -18 -19 -16 -16 -16 -16 -18 -18 -18 -18 -17 -17 -17 -18 -17 -17 -17 -16 -16 -16 -15 -15 -15 -14 -14 -14 -14 -14 -14 -15 -15 -15 -15 -15 -16 -16 -16 -17 -17 -17 -19 -20 -22 -23 -23 -23
-16 -16 -17 -17 -17 -16 -16 -17 -18 -19 -16 -15 -16 -17 -17 -18 -18 -17 -17 -17 -18 -18 -18 -18 -17 -16 -15 -15 -15 -15 -15 -14 -14 -14 -14 -14 -14 -14 -14 -15 -15 -15 -16 -16 -16 -17 -17 -17 -18 -19 -20 -21 -23 -23
-16 -16 -17 -17 -17 -16 -16 -16 -17 -18 -16 -16 -17 -17 -18 -17 -17 -17 -17 -17 -17 -17 -17 -17 -17 -16 -15 -15 -15 -15 -14 -14 -14 -14 -14 -14 -14 -14 -14 -15 -15 -15 -16 -16 -17 -17 -17 -18 -18 -17 -17 -18 -20 -22
-16 -16 -17 -17 -17 -16 -16 -17 -17 -18 -17 -16 -17 -17 -18 -17 -17 -17 -17 -17 -17 -17 -17 -17 -17 -16 -15 -15 -15 -15 -15 -14 -14 -14 -14 -14 -14 -14 -14 -15 -15 -15 -16 -16 -17 -17 -17 -18 -18 -18 -18 -18 -17 -19
-16 -17 -17 -17 -17 -16 -17 -17 -17 -18 -18 -16 -17 -17 -18 -18 -17 -17 -17 -16 -17 -17 -17 -17 -16 -16 -15 -15 -15 -15 -15 -15 -14 -14 -14 -14 -14 -14 -14 -15 -15 -15 -16 -16 -16 -17 -17 -18 -18 -18 -18 -18 -18 -17
-17 -17 -17 -17 -16 -16 -18 -18 -18 -17 -18 -16 -16 -17 -18 -18 -17 -17 -16 -16 -17 -18 -17 -16 -16 -15 -15 -15 -15 -15 -15 -15 -14 -14 -14 -14 -14 -14 -14 -15 -15 -15 -16 -16 -16 -17 -17 -18 -18 -18 -19 -19 -19 -18
-17 -17 -17 -17 -17 -18 -19 -18 -18 -18 -18 -17 -16 -17 -18 -18 -18 -17 -17 -17 -17 -17 -17 -16 -15 -15 -15 -15 -15 -15 -15 -15 -14 -14 -14 -14 -14 -14 -14 -15 -15 -15 -15 -16 -17 -17 -18 -18 -18 -18 -19 -19 -19 -19
-17 -17 -17 -17 -18 -19 -19 -19 -20 -20 -19 -18 -17 -17 -18 -18 -18 -17 -17 -17 -17 -17 -17 -16 -15 -15 -15 -15 -15 -15 -15 -14 -14 -14 -14 -14 -14 -15 -15 -15 -15 -15 -15 -16 -17 -17 -18 -18 -19 -19 -19 -19 -19 -19
-17 -17 -17 -18 -19 -18 -20 -20 -21 -21 -20 -19 -19 -18 -18 -17 -17 -17 -17 -17 -17 -17 -17 -16 -15 -14 -15 -15 -15 -15 -15 -14 -14 -14 -14 -15 -14 -15 -15 -15 -15 -15 -15 -16 -16 -17 -18 -18 -19 -19 -20 -20 -20 -21
-17 -18 -18 -19 -18 -19 -21 -21 -22 -22 -21 -20 -19 -18 -17 -18 -18 -18 -18 -17 -17 -16 -16 -16 -15 -14 -14 -15 -15 -15 -15 -14 -14 -14 -14 -15 -14 -14 -14 -15 -15 -15 -15 -15 -16 -17 -18 -18 -19 -20 -20 -20 -20 -21
-18 -18 -18 -18 -19 -21 -24 -24 -23 -22 -21 -19 -17 -17 -18 -18 -18 -18 -17 -16 -16 -16 -15 -15 -15 -14 -14 -15 -14 -15 -15 -14 -14 -14 -14 -15 -14 -14 -14 -15 -15 -15 -15 -15 -16 -16 -17 -18 -19 -20 -21 -21 -21 -21
-19 -19 -18 -20 -22 -24 -25 -25 -23 -23 -23 -21 -19 -18 -19 -18 -17 -16 -15 -14 -14 -15 -16 -16 -15 -15 -15 -14 -14 -14 -14 -14 -14 -14 -15 -15 -14 -15 -15 -15 -15 -15 -15 -15 -16 -16 -17 -18 -19 -20 -21 -21 -21 -21
-20 -20 -22 -24 -26 -26 -25 -24 -24 -25 -25 -21 -19 -19 -19 -18 -16 -15 -15 -15 -16 -17 -17 -16 -15 -14 -15 -15 -14 -14 -14 -14 -14 -15 -15 -15 -14 -15 -15 -15 -15 -15 -15 -15 -16 -16 -17 -18 -19 -21 -21 -22 -22 -22
-20 -22 -24 -25 -26 -25 -25 -24 -25 -25 -24 -21 -18 -19 -18 -16 -16 -16 -16 -16 -17 -17 -16 -16 -15 -15 -15 -14 -14 -14 -14 -14 -14 -15 -15 -14 -15 -15 -15 -15 -15 -15 -15 -16 -16 -16 -17 -19 -20 -21 -21 -22 -22 -22
-22 -24 -26 -26 -26 -25 -26 -25 -24 -25 -23 -20 -19 -18 -18 -17 -16 -16 -16 -17 -16 -16 -16 -14 -14 -14 -14 -14 -14 -14 -14 -14 -15 -14 -14 -15 -15 -15 -15 -16 -16 -16 -16 -16 -16 -16 -17 -18 -19 -20 -22 -22 -23 -23
-25 -25 -25 -24 -25 -25 -25 -24 -24 -24 -24 -20 -18 -18 -17 -17 -17 -17 -17 -17 -16 -16 -15 -15 -14 -14 -14 -14 -14 -14 -15 -15 -14 -14 -15 -15 -15 -15 -16 -16 -16 -16 -16 -16 -16 -17 -17 -18 -20 -20 -22 -22 -23 -23
-24 -24 -24 -24 -25 -25 -25 -24 -24 -24 -23 -20 -19 -19 -18 -17 -17 -17 -17 -17 -17 -16 -16 -15 -15 -15 -15 -15 -15 -15 -14 -14 -14 -14 -15 -15 -16 -16 -16 -16 -16 -16 -16 -17 -17 -17 -18 -19 -20 -21 -22 -23 -23 -23
-25 -25 -25 -25 -25 -25 -25 -25 -25 -24 -21 -20 -19 -19 -18 -18 -18 -17 -17 -17 -17 -16 -16 -15 -15 -15 -15 -15 -15 -15 -15 -15 -15 -15 -15 -16 -16 -16 -16 -16 -16 -17 -17 -17 -17 -17 -18 -19 -20 -21 -22 -23 -23 -23
-25 -26 -25 -25 -25 -26 -26 -25 -24 -22 -21 -19 -19 -18 -18 -18 -17 -17 -17 -17 -17 -16 -15 -15 -16 -16 -15 -15 -15 -15 -15 -15 -15 -16 -16 -16 -16 -17 -17 -17 -17 -17 -17 -17 -17 -18 -19 -20 -21 -22 -23 -23 -24 -24
-27 -26 -25 -25 -25 -26 -25 -24 -23 -22 -20 -19 -19 -18 -18 -18 -17 -17 -17 -17 -16 -15 -16 -16 -16 -16 -16 -15 -15 -15 -15 -15 -15 -16 -16 -17 -17 -17 -17 -17 -17 -17 -17 -18 -18 -19 -19 -20 -21 -22 -23 -24 -24 -25
-27 -26 -26 -26 -26 -26 -24 -23 -22 -21 -20 -19 -19 -19 -18 -18 -17 -17 -17 -17 -17 -16 -16 -16 -16 -16 -16 -15 -16 -15 -15 -16 -16 -17 -17 -17 -17 -17 -17 -17 -17 -18 -18 -18 -19 -19 -20 -21 -22 -23 -23 -24 -25 -25
-26 -26 -26 -26 -26 -25 -24 -23 -21 -19 -20 -20 -19 -19 -18 -18 -18 -18 -17 -17 -17 -16 -16 -16 -16 -16 -16 -16 -16 -16 -16 -16 -17 -17 -17 -17 -17 -17 -17 -18 -18 -18 -18 -19 -19 -20 -21 -22 -23 -23 -24 -25 -25 -26
-26 -26 -26 -26 -26 -24 -23 -21 -21 -20 -20 -20 -19 -19 -18 -18 -18 -18 -18 -17 -17 -16 -16 -16 -16 -16 -16 -16 -16 -16 -16 -16 -17 -17 -17 -17 -17 -18 -18 -18 -19 -19 -19 -20 -20 -21 -22 -23 -23 -24 -25 -25 -25 -26
-26 -26 -26 -26 -25 -23 -21 -21 -20 -20 -20 -20 -19 -19 -19 -19 -18 -18 -18 -17 -17 -17 -16 -16 -16 -16 -16 -17 -17 -17 -17 -17 -17 -17 -18 -18 -18 -18 -18 -19 -19 -19 -20 -20 -21 -22 -23 -23 -24 -25 -25 -25 -26 -27
-26 -25 -25 -24 -23 -22 -21 -20 -20 -20 -19 -19 -19 -19 -19 -19 -18 -18 -18 -17 -17 -17 -17 -17 -17 -17 -17 -17 -17 -17 -17 -17 -18 -18 -18 -18 -18 -19 -19 -19 -19 -20 -21 -21 -22 -23 -23 -24 -24 -25 -25 -26 -27 -27
-24 -23 -22 -21 -21 -20 -20 -19 -19 -19 -19 -19 -19 -19 -19 -19 -18 -18 -18 -17 -17 -17 -17 -17 -17 -17 -18 -18 -18 -18 -18 -18 -18 -18 -19 -19 -19 -19 -20 -20 -21 -21 -22 -22 -23 -24 -24 -24 -25 -25 -26 -26 -27 -28
-22 -22 -22 -22 -21 -20 -20 -19 -19 -19 -19 -19 -19 -19 -19 -18 -18 -18 -18 -17 -17 -17 -17 -17 -18 -18 -18 -18 -18 -18 -18 -18 -19 -19 -19 -19 -20 -20 -21 -21 -22 -22 -23 -23 -24 -24 -24 -25 -25 -26 -26 -27 -28 -28
-22 -22 -21 -21 -21 -21 -21 -21 -21 -21 -20 -20 -19 -19 -19 -18 -18 -18 -18 -18 -18 -18 -18 -18 -18 -18 -18 -18 -18 -18 -19 -19 -20 -20 -20 -20 -21 -21 -22 -22 -23 -23 -24 -24 -24 -25 -25 -26 -26 -27 -27 -28 -28 -27
-22 -22 -22 -21 -21 -21 -21 -21 -21 -21 -21 -20 -20 -20 -19 -19 -19 -19 -19 -19 -19 -19 -19 -19 -19 -19 -19 -19 -19 -19 -20 -20 -20 -21 -21 -21 -22 -22 -23 -23 -24 -24 -24 -25 -25 -25 -25 -26 -27 -28 -28 -28 -28 -28
-23 -23 -23 -23 -22 -22 -22 -21 -21 -21 -21 -20 -20 -20 -20 -19 -19 -19 -19 -19 -19 -19 -19 -19 -19 -19 -20 -20 -20 -20 -21 -21 -22 -22 -22 -22 -23 -23 -24 -24 -25 -25 -25 -25 -25 -26 -27 -28 -28 -28 -28 -28 -28 -29
-23 -24 -24 -23 -23 -23 -23 -22 -22 -22 -22 -21 -21 -21 -21 -20 -20 -20 -20 -20 -20 -20 -20 -20 -20 -21 -21 -21 -21 -22 -22 -22 -22 -23 -23 -24 -24 -24 -25 -25 -25 -25 -26 -26 -26 -27 -28 -29 -29 -29 -29 -29 -29 -29
-23 -23 -23 -23 -23 -22 -22 -22 -22 -22 -22 -22 -21 -21 -21 -21 -21 -21 -21 -21 -21 -21 -21 -21 -21 -22 -22 -22 -22 -22 -23 -23 -23 -24 -24 -25 -25 -25 -25 -25 -26 -26 -26 -27 -28 -28 -29 -29 -29 -29 -29 -29 -29 -30

GFSWCAN_500_temp_108.txt.gz
Temp
-14 -14 -14 -15 -16 -16 -16 -15 -15 -14 -14 -15 -15 -16 -16 -16 -16 -17 -17 -17 -17 -18 -18 -18 -17 -17 -17 -16 -15 -15 -15 -15 -15 -14 -14 -14 -14 -14 -15 -15 -15 -15 -15 -15 -16 -16 -16 -17 -17 -17 -18 -19 -22 -23
-14 -14 -15 -15 -16 -16 -16 -16 -15 -15 -14 -14 -15 -15 -16 -16 -16 -16 -16 -17 -17 -17 -17 -17 -17 -16 -16 -16 -15 -15 -15 -15 -15 -14 -14 -14 -14 -14 -14 -14 -14 -14 -15 -15 -16 -16 -16 -17 -18 -18 -18 -17 -18 -20
-14 -14 -14 -15 -16 -16 -16 -16 -15 -15 -15 -14 -15 -15 -15 -16 -16 -16 -16 -17 -17 -17 -17 -17 -17 -17 -16 -16 -15 -14 -15 -14 -14 -14 -14 -14 -14 -14 -14 -14 -14 -15 -15 -15 -16 -16 -17 -17 -18 -18 -18 -18 -18 -17
-14 -15 -15 -15 -15 -16 -16 -16 -15 -15 -15 -14 -14 -15 -15 -16 -16 -16 -16 -17 -17 -17 -17 -17 -17 -17 -16 -15 -15 -15 -15 -14 -14 -14 -14 -14 -14 -14 -14 -14 -14 -14 -14 -15 -16 -16 -17 -17 -18 -18 -18 -18 -18 -18
-14 -15 -14 -15 -15 -15 -16 -16 -16 -15 -16 -16 -14 -15 -15 -15 -16 -16 -16 -17 -17 -17 -17 -17 -16 -16 -16 -15 -15 -15 -15 -14 -14 -14 -14 -14 -14 -14 -14 -14 -14 -14 -14 -15 -15 -16 -16 -17 -18 -18 -18 -19 -18 -18
-15 -15 -15 -15 -15 -16 -16 -16 -16 -15 -16 -17 -17 -14 -15 -15 -16 -16 -16 -16 -17 -17 -17 -17 -17 -16 -16 -15 -15 -15 -15 -14 -14 -14 -14 -14 -14 -14 -14 -14 -14 -14 -14 -15 -15 -15 -16 -17 -18 -18 -18 -19 -19 -19
-15 -15 -15 -16 -16 -16 -16 -16 -16 -16 -16 -16 -17 -16 -15 -16 -15 -15 -16 -16 -17 -17 -17 -16 -16 -15 -16 -15 -15 -15 -15 -14 -14 -14 -14 -14 -14 -14 -14 -14 -14 -14 -14 -14 -15 -15 -16 -16 -17 -18 -18 -19 -19 -19
-15 -15 -16 -16 -16 -16 -16 -16 -16 -16 -17 -17 -17 -17 -17 -16 -15 -15 -16 -16 -17 -17 -17 -16 -15 -16 -16 -15 -15 -15 -15 -14 -15 -14 -14 -14 -14 -14 -14 -14 -14 -14 -14 -14 -15 -15 -15 -16 -17 -17 -17 -18 -19 -19
-15 -16 -16 -16 -16 -17 -17 -17 -16 -17 -18 -18 -18 -18 -19 -17 -16 -15 -16 -16 -17 -17 -17 -17 -16 -16 -15 -15 -15 -15 -14 -15 -14 -14 -14 -14 -14 -14 -14 -14 -14 -14 -14 -14 -15 -15 -15 -16 -17 -17 -18 -18 -19 -20
-15 -16 -16 -16 -17 -17 -18 -17 -17 -18 -18 -19 -19 -19 -19 -18 -16 -16 -17 -17 -17 -16 -17 -16 -16 -16 -16 -15 -15 -15 -15 -14 -15 -14 -14 -14 -14 -14 -14 -14 -14 -14 -14 -15 -15 -15 -15 -16 -17 -17 -18 -18 -19 -20
-16 -17 -17 -17 -17 -18 -17 -17 -18 -19 -20 -20 -19 -20 -21 -20 -18 -18 -18 -17 -17 -16 -16 -17 -16 -16 -15 -15 -15 -14 -14 -14 -14 -14 -14 -14 -14 -14 -14 -14 -14 -14 -15 -15 -15 -15 -15 -16 -16 -17 -18 -19 -20 -20
-17 -17 -17 -17 -18 -17 -18 -19 -20 -20 -20 -21 -21 -23 -23 -22 -21 -20 -18 -17 -16 -15 -16 -17 -17 -16 -15 -15 -14 -14 -14 -14 -14 -14 -14 -14 -14 -14 -14 -14 -14 -15 -15 -15 -15 -15 -15 -16 -16 -17 -18 -19 -20 -21
-18 -18 -18 -18 -17 -18 -19 -19 -20 -21 -23 -24 -25 -25 -24 -24 -23 -19 -16 -15 -14 -14 -15 -17 -17 -16 -16 -14 -14 -14 -14 -14 -14 -14 -14 -15 -14 -14 -14 -15 -15 -15 -15 -15 -15 -15 -15 -16 -16 -17 -18 -19 -20 -20
-19 -18 -18 -17 -18 -19 -18 -20 -22 -24 -26 -26 -25 -24 -24 -24 -20 -16 -15 -14 -14 -15 -17 -17 -17 -16 -15 -14 -14 -14 -14 -14 -14 -13 -15 -14 -14 -14 -14 -15 -15 -15 -15 -15 -15 -15 -16 -16 -17 -17 -17 -18 -19 -20
-19 -18 -18 -19 -19 -19 -20 -23 -26 -27 -27 -26 -25 -25 -24 -22 -18 -16 -15 -15 -15 -17 -17 -17 -17 -17 -16 -13 -13 -14 -13 -13 -13 -14 -14 -14 -14 -14 -15 -15 -15 -15 -15 -15 -15 -16 -16 -16 -17 -17 -18 -18 -20 -21
-18 -19 -20 -20 -20 -22 -24 -28 -28 -28 -27 -26 -25 -25 -23 -20 -18 -17 -16 -16 -17 -17 -17 -17 -16 -15 -14 -13 -13 -13 -13 -13 -15 -14 -14 -14 -14 -15 -15 -15 -15 -16 -16 -15 -16 -16 -16 -16 -17 -17 -18 -19 -20 -21
-20 -20 -20 -21 -23 -27 -27 -28 -27 -27 -27 -27 -25 -24 -23 -20 -19 -18 -18 -17 -17 -17 -16 -16 -16 -15 -13 -13 -13 -13 -14 -15 -15 -14 -14 -14 -15 -14 -15 -15 -16 -16 -16 -16 -16 -16 -16 -17 -17 -18 -18 -19 -20 -21
-21 -21 -22 -23 -26 -27 -27 -27 -27 -26 -26 -25 -24 -24 -22 -21 -20 -18 -18 -18 -17 -17 -17 -17 -16 -15 -13 -14 -15 -15 -15 -15 -14 -14 -14 -15 -15 -15 -15 -15 -16 -16 -16 -16 -16 -16 -16 -17 -17 -18 -18 -19 -21 -22
-24 -25 -25 -26 -26 -26 -27 -27 -26 -26 -25 -24 -24 -24 -23 -21 -20 -19 -18 -18 -18 -17 -17 -17 -16 -15 -14 -15 -15 -15 -15 -15 -15 -15 -15 -15 -15 -15 -15 -16 -16 -16 -16 -16 -16 -16 -17 -17 -18 -18 -19 -20 -21 -22
-24 -24 -25 -27 -27 -27 -26 -26 -26 -26 -25 -25 -23 -24 -23 -21 -19 -19 -18 -18 -17 -17 -17 -16 -16 -16 -16 -15 -15 -15 -15 -15 -15 -15 -15 -15 -15 -15 -16 -16 -16 -16 -16 -16 -16 -17 -17 -17 -18 -19 -19 -20 -21 -22
-25 -25 -26 -26 -26 -26 -26 -27 -26 -25 -25 -25 -24 -22 -21 -20 -19 -18 -18 -18 -17 -17 -17 -17 -17 -16 -16 -16 -16 -16 -16 -15 -15 -15 -15 -15 -15 -16 -16 -16 -16 -16 -16 -17 -17 -17 -17 -18 -19 -19 -20 -21 -22 -23
-25 -26 -26 -26 -27 -27 -27 -25 -25 -25 -25 -25 -23 -22 -21 -20 -20 -19 -18 -18 -17 -17 -17 -17 -17 -16 -16 -16 -16 -16 -15 -15 -15 -15 -15 -15 -15 -16 -16 -16 -16 -16 -17 -17 -17 -17 -18 -19 -19 -20 -21 -22 -22 -23
-26 -26 -26 -27 -27 -27 -26 -26 -26 -26 -25 -24 -24 -23 -22 -21 -19 -19 -18 -18 -17 -17 -17 -16 -16 -16 -16 -16 -16 -16 -16 -16 -16 -16 -16 -16 -16 -16 -16 -16 -16 -17 -17 -17 -18 -18 -19 -19 -20 -20 -21 -22 -23 -23
-27 -27 -27 -27 -27 -27 -26 -26 -26 -25 -25 -24 -23 -22 -21 -19 -19 -19 -18 -18 -17 -17 -17 -16 -16 -16 -16 -16 -16 -16 -16 -16 -16 -16 -16 -16 -17 -17 -17 -17 -17 -17 -17 -18 -19 -19 -19 -20 -20 -21 -22 -23 -23 -24
-28 -27 -27 -27 -26 -26 -26 -26 -26 -26 -24 -23 -23 -22 -21 -20 -19 -19 -18 -18 -17 -17 -17 -17 -17 -17 -16 -16 -16 -16 -16 -16 -16 -16 -16 -17 -17 -17 -17 -17 -17 -18 -18 -19 -19 -19 -20 -21 -21 -22 -22 -23 -23 -24
-27 -27 -27 -27 -27 -26 -26 -26 -25 -24 -24 -23 -22 -21 -20 -20 -19 -18 -18 -18 -18 -18 -18 -18 -17 -17 -17 -17 -17 -16 -17 -17 -17 -17 -17 -17 -18 -18 -18 -18 -18 -19 -19 -20 -20 -20 -21 -21 -22 -23 -23 -23 -24 -25
-27 -27 -27 -26 -26 -26 -25 -26 -25 -24 -23 -22 -21 -21 -20 -20 -19 -19 -18 -18 -18 -18 -18 -18 -17 -17 -17 -17 -17 -17 -17 -17 -17 -17 -18 -18 -18 -18 -18 -18 -19 -20 -20 -20 -20 -21 -22 -22 -23 -23 -24 -24 -25 -25
-26 -26 -26 -26 -26 -25 -25 -25 -24 -23 -22 -22 -21 -20 -20 -19 -19 -19 -18 -18 -18 -18 -18 -18 -18 -17 -17 -17 -17 -17 -17 -18 -18 -18 -18 -18 -18 -19 -19 -19 -20 -20 -21 -21 -21 -22 -23 -23 -23 -24 -25 -25 -25 -27
-24 -24 -24 -24 -24 -24 -24 -24 -23 -22 -22 -21 -20 -20 -20 -19 -19 -19 -19 -19 -19 -18 -18 -18 -18 -18 -18 -18 -18 -18 -18 -18 -18 -19 -19 -19 -19 -20 -20 -20 -21 -21 -21 -22 -23 -23 -23 -24 -24 -25 -25 -26 -27 -28
-24 -24 -24 -24 -24 -23 -23 -23 -22 -22 -21 -21 -20 -20 -19 -19 -19 -19 -19 -19 -19 -19 -18 -18 -18 -18 -18 -18 -19 -19 -19 -19 -19 -19 -19 -20 -20 -21 -21 -21 -22 -22 -22 -23 -23 -24 -24 -25 -25 -25 -26 -27 -28 -29
-24 -24 -24 -24 -24 -23 -23 -23 -22 -22 -21 -21 -20 -20 -19 -19 -19 -19 -19 -19 -19 -19 -19 -19 -19 -19 -19 -19 -19 -20 -20 -20 -20 -20 -20 -21 -21 -21 -22 -22 -22 -23 -23 -24 -24 -25 -25 -25 -26 -26 -27 -28 -29 -29
-25 -25 -25 -24 -24 -23 -23 -22 -22 -21 -21 -20 -20 -20 -20 -19 -20 -20 -19 -19 -19 -19 -19 -20 -20 -20 -20 -20 -20 -20 -20 -21 -21 -21 -21 -21 -22 -22 -23 -23 -24 -24 -25 -25 -25 -25 -26 -26 -27 -28 -29 -29 -29 -29
-24 -25 -25 -24 -24 -24 -24 -23 -23 -22 -22 -21 -21 -20 -20 -20 -20 -20 -20 -20 -20 -20 -20 -20 -20 -20 -20 -21 -21 -21 -21 -21 -21 -22 -22 -22 -23 -23 -24 -24 -25 -25 -25 -25 -26 -26 -26 -27 -28 -29 -29 -29 -29 -29

GFSWCAN_500_temp_111.txt.gz
Temp
-12 -13 -12 -14 -14 -14 -13 -14 -14 -13 -13 -13 -13 -13 -13 -14 -15 -15 -16 -16 -16 -16 -16 -16 -16 -16 -15 -15 -14 -14 -14 -14 -14 -14 -13 -13 -13 -13 -13 -13 -13 -14 -14 -14 -15 -15 -15 -16 -17 -17 -18 -18 -17 -18
-12 -13 -13 -14 -14 -14 -13 -14 -14 -13 -13 -13 -13 -13 -13 -13 -14 -15 -16 -16 -16 -16 -16 -16 -16 -15 -15 -15 -15 -14 -14 -13 -13 -14 -13 -13 -13 -13 -13 -13 -13 -14 -14 -14 -14 -15 -15 -16 -17 -18 -18 -18 -18 -17
-12 -13 -12 -14 -14 -15 -14 -13 -14 -14 -14 -13 -14 -14 -14 -14 -13 -14 -15 -16 -16 -16 -16 -16 -15 -15 -15 -15 -15 -14 -14 -14 -13 -13 -13 -13 -13 -13 -13 -13 -13 -13 -14 -14 -14 -14 -15 -15 -16 -17 -17 -18 -19 -18
-12 -13 -13 -14 -14 -15 -14 -14 -14 -14 -15 -14 -14 -14 -14 -15 -14 -14 -14 -15 -16 -16 -16 -16 -16 -15 -15 -15 -15 -14 -14 -14 -14 -13 -13 -13 -13 -13 -13 -13 -13 -13 -13 -14 -14 -14 -14 -15 -15 -17 -17 -18 -19 -19
-12 -12 -14 -14 -14 -14 -14 -15 -14 -14 -15 -15 -14 -14 -14 -15 -15 -15 -14 -14 -15 -16 -15 -16 -16 -16 -15 -15 -15 -14 -14 -14 -14 -13 -13 -13 -13 -13 -13 -13 -13 -13 -13 -14 -14 -14 -14 -15 -15 -16 -17 -17 -18 -19
-12 -13 -14 -14 -14 -14 -14 -15 -15 -14 -15 -15 -14 -14 -14 -14 -15 -15 -15 -14 -14 -15 -16 -16 -16 -15 -15 -14 -14 -14 -14 -14 -13 -13 -13 -13 -13 -13 -13 -13 -13 -13 -13 -14 -14 -14 -14 -14 -15 -15 -16 -17 -17 -18
-13 -14 -14 -14 -15 -14 -15 -15 -16 -16 -16 -15 -15 -15 -14 -15 -14 -15 -15 -15 -15 -16 -16 -16 -16 -15 -15 -14 -15 -14 -14 -14 -14 -14 -14 -13 -13 -13 -13 -13 -13 -13 -13 -14 -14 -14 -14 -14 -14 -15 -15 -16 -17 -17
-13 -14 -14 -14 -15 -15 -15 -15 -16 -16 -16 -16 -16 -15 -15 -15 -16 -14 -15 -16 -15 -16 -16 -16 -15 -16 -15 -15 -14 -14 -14 -14 -14 -14 -14 -13 -13 -13 -13 -13 -13 -14 -14 -14 -14 -14 -14 -14 -14 -15 -15 -16 -16 -17
-13 -14 -14 -15 -15 -15 -15 -16 -16 -16 -17 -17 -17 -16 -15 -15 -16 -17 -16 -16 -16 -16 -15 -15 -16 -16 -15 -15 -15 -14 -14 -14 -14 -14 -13 -13 -13 -13 -13 -13 -14 -14 -14 -14 -14 -14 -14 -14 -14 -15 -15 -15 -16 -17
-14 -14 -14 -15 -15 -16 -16 -16 -16 -16 -17 -17 -17 -17 -16 -16 -17 -18 -19 -18 -17 -16 -15 -15 -16 -16 -15 -15 -15 -15 -14 -14 -14 -14 -13 -13 -14 -13 -13 -14 -14 -14 -14 -14 -14 -14 -14 -15 -15 -15 -15 -16 -16 -17
-14 -15 -15 -15 -15 -16 -16 -17 -17 -17 -17 -17 -17 -17 -17 -19 -19 -19 -19 -18 -18 -16 -15 -16 -16 -16 -16 -16 -15 -15 -14 -14 -14 -13 -13 -13 -14 -13 -14 -14 -14 -14 -14 -14 -14 -14 -15 -15 -15 -15 -15 -16 -16 -17
-15 -16 -16 -15 -16 -16 -17 -17 -18 -18 -18 -18 -18 -19 -20 -20 -20 -19 -19 -19 -18 -16 -15 -15 -16 -17 -17 -16 -16 -15 -14 -14 -13 -13 -13 -13 -14 -13 -14 -14 -14 -14 -14 -14 -15 -15 -15 -15 -15 -15 -16 -16 -16 -17
-15 -16 -16 -16 -16 -17 -18 -18 -19 -19 -18 -18 -20 -20 -20 -20 -21 -20 -19 -18 -18 -16 -15 -15 -16 -17 -17 -17 -16 -15 -14 -13 -13 -13 -13 -14 -14 -14 -14 -14 -14 -14 -15 -15 -15 -15 -15 -15 -15 -16 -16 -16 -16 -17
-16 -17 -17 -17 -17 -17 -18 -19 -19 -19 -19 -20 -20 -21 -21 -20 -19 -19 -18 -19 -18 -17 -16 -16 -17 -17 -17 -18 -17 -15 -13 -13 -13 -12 -14 -14 -14 -13 -14 -14 -14 -14 -15 -15 -15 -15 -15 -15 -15 -16 -16 -16 -17 -17
-17 -17 -18 -18 -18 -19 -19 -19 -20 -20 -20 -21 -21 -21 -21 -22 -22 -22 -23 -22 -21 -19 -17 -17 -18 -18 -18 -18 -16 -15 -13 -12 -12 -14 -14 -14 -14 -14 -14 -14 -14 -14 -15 -15 -15 -15 -15 -15 -16 -16 -16 -16 -17 -18
-18 -18 -18 -19 -20 -19 -19 -20 -21 -20 -21 -22 -22 -22 -24 -25 -26 -26 -25 -24 -23 -20 -19 -21 -19 -18 -17 -17 -15 -13 -12 -11 -13 -14 -14 -14 -14 -14 -14 -14 -14 -15 -15 -15 -15 -16 -16 -16 -16 -16 -16 -16 -17 -18
-18 -19 -19 -19 -19 -19 -20 -20 -20 -21 -22 -24 -25 -27 -28 -27 -26 -26 -25 -25 -24 -23 -21 -20 -18 -17 -17 -16 -14 -13 -12 -15 -15 -15 -15 -14 -14 -14 -14 -14 -15 -15 -15 -15 -15 -16 -16 -16 -16 -16 -16 -17 -18 -18
-19 -19 -19 -20 -19 -19 -20 -20 -21 -23 -25 -26 -28 -28 -28 -27 -27 -26 -24 -25 -25 -23 -21 -19 -18 -17 -16 -15 -14 -16 -16 -15 -15 -15 -15 -14 -14 -14 -14 -15 -15 -15 -15 -15 -15 -16 -16 -16 -16 -16 -17 -18 -18 -18
-20 -20 -20 -20 -20 -21 -21 -23 -26 -27 -28 -28 -28 -28 -28 -27 -26 -26 -23 -23 -22 -20 -19 -19 -18 -17 -16 -16 -17 -17 -16 -15 -14 -15 -14 -14 -14 -15 -15 -15 -15 -15 -15 -15 -16 -16 -16 -16 -16 -17 -17 -18 -18 -19
-20 -21 -21 -21 -21 -22 -26 -28 -28 -28 -28 -27 -26 -26 -26 -26 -26 -25 -22 -21 -21 -20 -18 -18 -17 -17 -17 -17 -17 -17 -16 -15 -15 -15 -15 -15 -15 -15 -15 -15 -15 -15 -15 -15 -16 -16 -16 -16 -17 -17 -17 -18 -19 -20
-22 -21 -22 -22 -24 -25 -28 -28 -28 -28 -27 -26 -25 -26 -26 -26 -25 -24 -23 -21 -20 -19 -18 -18 -18 -17 -17 -17 -17 -16 -16 -15 -15 -15 -15 -15 -15 -15 -15 -15 -16 -16 -16 -16 -16 -16 -16 -17 -17 -17 -18 -18 -19 -20
-22 -23 -24 -25 -26 -27 -28 -28 -28 -27 -26 -25 -25 -25 -25 -25 -24 -23 -21 -20 -20 -19 -18 -18 -17 -17 -17 -17 -17 -16 -16 -16 -16 -16 -16 -16 -15 -15 -15 -16 -16 -16 -16 -16 -16 -17 -17 -17 -17 -18 -18 -19 -20 -21
-25 -25 -25 -25 -26 -27 -27 -27 -26 -26 -25 -25 -25 -25 -24 -24 -24 -23 -21 -20 -19 -19 -18 -18 -18 -17 -17 -17 -17 -16 -16 -16 -16 -16 -16 -16 -16 -16 -15 -16 -16 -16 -16 -16 -16 -17 -17 -18 -18 -19 -19 -20 -20 -21
-27 -26 -27 -27 -27 -27 -27 -27 -27 -26 -25 -25 -25 -25 -25 -24 -23 -22 -22 -20 -19 -19 -18 -18 -18 -18 -17 -17 -17 -17 -16 -16 -16 -16 -16 -16 -16 -16 -16 -16 -16 -16 -16 -17 -17 -17 -18 -18 -19 -19 -20 -20 -21 -22
-28 -29 -29 -28 -27 -27 -27 -27 -26 -26 -25 -25 -25 -25 -24 -23 -22 -21 -21 -21 -20 -19 -18 -18 -17 -17 -17 -17 -17 -16 -16 -16 -16 -16 -16 -16 -16 -16 -16 -16 -16 -17 -17 -17 -17 -18 -18 -19 -19 -20 -20 -21 -22 -23
-29 -29 -28 -28 -27 -27 -28 -27 -27 -26 -25 -25 -25 -25 -25 -23 -22 -21 -20 -19 -19 -18 -18 -18 -18 -17 -17 -17 -16 -16 -17 -17 -17 -17 -16 -16 -16 -16 -17 -17 -17 -17 -17 -18 -18 -18 -19 -19 -20 -21 -21 -22 -23 -23
-28 -28 -28 -27 -27 -26 -26 -26 -26 -26 -26 -25 -24 -24 -24 -24 -22 -21 -20 -20 -19 -18 -18 -18 -17 -18 -17 -17 -17 -17 -17 -17 -17 -17 -17 -17 -17 -17 -17 -17 -18 -18 -18 -18 -19 -19 -20 -20 -21 -21 -22 -23 -24 -24
-28 -28 -28 -28 -27 -27 -26 -26 -26 -26 -26 -25 -24 -24 -23 -23 -23 -21 -20 -19 -19 -18 -18 -18 -18 -18 -18 -18 -18 -17 -17 -17 -17 -17 -17 -17 -17 -18 -18 -18 -18 -18 -19 -19 -19 -20 -21 -21 -22 -22 -23 -24 -24 -24
-28 -27 -27 -27 -27 -27 -26 -26 -26 -25 -25 -24 -24 -24 -22 -22 -21 -20 -20 -19 -19 -19 -19 -18 -18 -19 -19 -18 -18 -18 -18 -18 -18 -18 -18 -18 -18 -18 -19 -19 -19 -19 -19 -20 -21 -21 -22 -22 -23 -23 -24 -24 -24 -25
-28 -27 -27 -27 -26 -26 -25 -25 -25 -25 -24 -24 -24 -23 -22 -22 -21 -20 -20 -19 -19 -19 -19 -19 -19 -19 -19 -19 -18 -18 -18 -18 -18 -19 -19 -19 -19 -19 -19 -19 -20 -20 -20 -21 -22 -22 -23 -23 -24 -24 -24 -25 -25 -26
-26 -26 -26 -25 -25 -25 -25 -25 -25 -24 -24 -24 -23 -23 -22 -22 -21 -20 -20 -20 -20 -19 -19 -19 -19 -19 -19 -19 -19 -19 -19 -19 -19 -19 -20 -20 -20 -20 -20 -20 -21 -21 -22 -22 -23 -23 -24 -24 -25 -25 -25 -26 -27 -28
-26 -25 -25 -25 -25 -25 -25 -25 -24 -24 -24 -24 -23 -22 -22 -21 -21 -20 -20 -20 -20 -19 -19 -19 -19 -19 -19 -19 -19 -19 -20 -20 -20 -20 -20 -20 -21 -21 -21 -22 -22 -22 -23 -23 -24 -24 -25 -25 -25 -26 -26 -27 -28 -28
-25 -25 -25 -25 -25 -25 -25 -25 -24 -24 -23 -23 -22 -21 -21 -20 -20 -20 -20 -20 -20 -20 -20 -20 -20 -20 -20 -20 -20 -20 -20 -21 -21 -21 -21 -21 -22 -22 -22 -23 -23 -23 -24 -24 -25 -25 -25 -26 -26 -26 -27 -28 -28 -28

GFSWCAN_500_temp_114.txt.gz
Temp
-12 -12 -12 -11 -11 -12 -12 -13 -13 -13 -12 -12 -13 -13 -13 -13 -13 -13 -14 -14 -13 -14 -14 -14 -14 -14 -14 -13 -13 -14 -13 -13 -13 -13 -13 -13 -13 -12 -12 -12 -13 -13 -13 -13 -13 -13 -14 -14 -14 -15 -16 -16 -17 -16
-12 -13 -12 -12 -11 -12 -13 -13 -13 -13 -12 -12 -12 -12 -13 -13 -13 -13 -13 -14 -14 -13 -14 -14 -14 -14 -13 -14 -13 -14 -14 -13 -13 -13 -13 -13 -12 -12 -12 -12 -12 -13 -13 -13 -13 -13 -13 -14 -14 -14 -15 -16 -16 -16
-12 -13 -13 -12 -12 -11 -13 -13 -13 -13 -13 -13 -12 -12 -13 -13 -13 -14 -14 -13 -14 -14 -14 -14 -14 -14 -14 -14 -14 -13 -13 -13 -13 -13 -13 -13 -12 -12 -12 -12 -12 -13 -13 -13 -13 -13 -13 -13 -14 -14 -14 -15 -15 -16
-13 -13 -13 -13 -12 -11 -13 -13 -13 -13 -13 -13 -13 -12 -12 -13 -13 -13 -13 -14 -14 -14 -14 -14 -14 -14 -14 -14 -14 -14 -13 -13 -13 -13 -13 -13 -12 -12 -12 -12 -12 -13 -13 -13 -13 -13 -13 -13 -13 -14 -14 -15 -15 -16
-13 -14 -13 -13 -12 -12 -14 -14 -13 -13 -14 -13 -13 -13 -13 -12 -12 -14 -14 -14 -14 -14 -15 -14 -14 -14 -14 -14 -14 -14 -14 -14 -13 -13 -13 -13 -12 -12 -12 -12 -12 -13 -13 -13 -13 -13 -13 -13 -13 -14 -14 -15 -15 -15
-13 -14 -14 -13 -12 -13 -13 -14 -14 -14 -14 -14 -13 -13 -14 -13 -13 -13 -13 -14 -14 -14 -15 -15 -15 -14 -14 -14 -14 -14 -14 -14 -13 -13 -13 -13 -12 -12 -12 -12 -12 -13 -13 -13 -13 -13 -13 -13 -13 -14 -14 -14 -15 -15
-14 -14 -14 -13 -13 -13 -14 -14 -14 -14 -14 -15 -14 -14 -14 -14 -14 -13 -14 -15 -15 -15 -15 -15 -15 -15 -14 -15 -14 -14 -14 -14 -13 -13 -13 -13 -13 -12 -13 -13 -12 -13 -13 -13 -13 -13 -13 -14 -14 -14 -14 -14 -15 -16
-13 -14 -14 -13 -13 -14 -14 -14 -15 -14 -15 -15 -15 -14 -14 -14 -14 -14 -14 -15 -16 -15 -15 -15 -14 -15 -15 -15 -15 -15 -14 -14 -13 -13 -13 -13 -13 -12 -13 -12 -13 -13 -13 -13 -13 -13 -13 -14 -14 -14 -14 -14 -15 -15
-14 -14 -15 -14 -13 -14 -14 -15 -15 -15 -15 -15 -15 -15 -14 -14 -15 -16 -15 -16 -16 -16 -16 -15 -15 -16 -16 -16 -15 -15 -14 -14 -13 -13 -13 -13 -13 -13 -13 -12 -13 -13 -13 -13 -13 -13 -13 -14 -14 -14 -14 -14 -15 -15
-15 -15 -14 -14 -14 -14 -15 -15 -15 -15 -15 -16 -15 -15 -15 -15 -16 -17 -16 -16 -16 -15 -15 -15 -15 -15 -16 -16 -16 -15 -15 -14 -13 -13 -13 -13 -13 -13 -12 -13 -13 -13 -13 -13 -13 -14 -14 -14 -14 -14 -15 -14 -15 -15
-14 -14 -15 -15 -15 -15 -16 -15 -15 -16 -16 -15 -16 -16 -16 -17 -17 -17 -17 -16 -16 -15 -14 -15 -16 -16 -16 -16 -16 -16 -15 -14 -14 -13 -13 -12 -13 -13 -12 -13 -13 -13 -13 -13 -13 -14 -14 -14 -14 -14 -15 -15 -15 -15
-14 -14 -15 -16 -16 -16 -15 -16 -16 -16 -16 -16 -16 -17 -17 -17 -17 -17 -16 -16 -15 -15 -14 -15 -17 -17 -17 -17 -17 -17 -16 -15 -13 -13 -13 -12 -15 -13 -13 -13 -13 -13 -13 -13 -14 -14 -14 -14 -14 -15 -15 -15 -15 -15
-16 -15 -16 -16 -16 -16 -15 -16 -16 -17 -17 -17 -17 -17 -17 -17 -17 -16 -15 -15 -15 -14 -15 -17 -18 -18 -18 -18 -18 -18 -16 -15 -14 -13 -12 -13 -15 -14 -13 -13 -14 -13 -13 -13 -14 -14 -14 -14 -15 -15 -15 -15 -15 -16
-16 -16 -16 -16 -16 -16 -17 -17 -17 -17 -18 -18 -18 -18 -18 -17 -16 -15 -16 -16 -17 -18 -19 -19 -19 -20 -20 -19 -20 -18 -17 -16 -13 -12 -12 -14 -15 -14 -13 -14 -14 -14 -14 -14 -14 -14 -14 -14 -15 -15 -15 -15 -16 -16
-17 -17 -17 -17 -17 -17 -17 -18 -18 -17 -18 -18 -19 -18 -16 -16 -17 -16 -17 -18 -19 -20 -20 -20 -20 -20 -20 -21 -20 -19 -17 -15 -12 -12 -13 -15 -15 -14 -13 -14 -14 -14 -14 -14 -14 -14 -14 -14 -15 -15 -15 -15 -15 -16
-17 -17 -17 -17 -17 -18 -18 -18 -19 -19 -18 -19 -18 -17 -16 -17 -17 -17 -19 -20 -21 -21 -22 -22 -22 -22 -22 -21 -19 -17 -15 -13 -13 -13 -16 -15 -16 -15 -14 -14 -14 -14 -14 -14 -14 -14 -14 -15 -15 -15 -15 -15 -16 -16
-18 -17 -17 -18 -18 -19 -19 -19 -19 -19 -18 -18 -17 -17 -18 -18 -18 -20 -21 -22 -23 -24 -23 -24 -22 -21 -22 -20 -18 -16 -14 -14 -15 -17 -17 -16 -16 -16 -15 -14 -14 -15 -15 -15 -15 -15 -15 -15 -15 -15 -15 -16 -16 -16
-18 -18 -18 -19 -19 -20 -19 -19 -19 -19 -19 -18 -18 -18 -20 -20 -21 -22 -24 -25 -26 -26 -26 -25 -25 -24 -21 -18 -16 -15 -16 -17 -18 -18 -17 -16 -16 -16 -15 -15 -15 -15 -15 -15 -15 -15 -15 -15 -15 -16 -16 -16 -16 -16
-19 -19 -19 -19 -19 -20 -20 -20 -20 -20 -19 -19 -20 -21 -21 -22 -23 -27 -27 -28 -27 -26 -26 -26 -25 -24 -21 -19 -17 -18 -18 -18 -18 -17 -17 -16 -16 -16 -16 -16 -15 -15 -15 -15 -15 -15 -15 -15 -16 -16 -16 -16 -16 -16
-20 -19 -19 -20 -20 -20 -20 -20 -20 -20 -20 -20 -21 -22 -24 -25 -27 -28 -27 -27 -27 -27 -25 -25 -24 -23 -22 -20 -19 -19 -18 -18 -18 -17 -17 -16 -16 -16 -16 -16 -16 -16 -15 -15 -15 -15 -15 -16 -16 -16 -16 -16 -17 -17
-20 -20 -20 -20 -20 -21 -21 -20 -20 -21 -21 -22 -24 -26 -27 -28 -28 -28 -28 -27 -27 -26 -25 -25 -24 -24 -23 -22 -20 -19 -18 -18 -18 -18 -17 -16 -16 -17 -16 -16 -16 -16 -16 -15 -16 -16 -16 -16 -16 -16 -16 -17 -17 -17
-20 -20 -20 -21 -22 -22 -21 -21 -22 -23 -24 -25 -27 -28 -28 -28 -28 -28 -28 -27 -26 -24 -24 -23 -23 -22 -21 -21 -19 -18 -18 -18 -17 -17 -17 -17 -16 -17 -17 -16 -16 -16 -16 -16 -16 -16 -16 -16 -16 -17 -17 -17 -17 -18
-20 -21 -22 -22 -22 -22 -22 -23 -24 -24 -25 -25 -27 -27 -27 -27 -27 -27 -27 -25 -25 -25 -24 -23 -22 -22 -20 -19 -18 -18 -18 -18 -17 -17 -17 -17 -17 -17 -17 -17 -16 -16 -16 -16 -16 -16 -16 -16 -17 -17 -17 -18 -18 -18
-22 -23 -22 -22 -22 -22 -23 -24 -25 -26 -25 -26 -26 -26 -26 -25 -26 -25 -24 -24 -24 -24 -24 -23 -22 -21 -19 -18 -18 -18 -18 -17 -17 -17 -17 -17 -17 -17 -17 -17 -16 -16 -16 -17 -17 -17 -17 -17 -17 -18 -18 -18 -18 -19
-23 -23 -23 -23 -23 -24 -25 -26 -26 -26 -25 -25 -26 -26 -25 -25 -25 -24 -23 -24 -23 -24 -23 -22 -21 -21 -20 -20 -19 -18 -17 -17 -17 -17 -17 -17 -17 -17 -17 -16 -16 -16 -17 -17 -17 -17 -17 -18 -18 -18 -18 -19 -19 -20
-25 -25 -25 -24 -25 -26 -26 -27 -27 -27 -26 -26 -26 -26 -26 -26 -25 -24 -24 -24 -23 -22 -22 -21 -20 -20 -19 -19 -19 -18 -18 -17 -17 -17 -17 -17 -17 -17 -17 -17 -17 -17 -17 -17 -17 -18 -18 -18 -19 -19 -19 -19 -20 -20
-27 -28 -26 -27 -27 -27 -27 -27 -27 -27 -27 -27 -26 -26 -26 -25 -24 -24 -24 -24 -22 -22 -22 -21 -20 -19 -19 -18 -18 -18 -18 -17 -17 -17 -17 -18 -17 -17 -17 -18 -18 -18 -18 -18 -18 -18 -19 -19 -19 -20 -20 -20 -21 -21
-28 -28 -28 -28 -28 -28 -28 -27 -27 -26 -26 -26 -26 -25 -25 -24 -24 -24 -23 -22 -22 -21 -21 -20 -19 -19 -18 -18 -18 -18 -18 -17 -17 -17 -18 -18 -18 -18 -18 -18 -18 -18 -18 -18 -19 -19 -20 -20 -20 -20 -21 -21 -22 -22
-29 -29 -29 -28 -29 -27 -28 -27 -27 -27 -27 -26 -25 -25 -25 -25 -24 -24 -23 -22 -21 -21 -20 -20 -19 -19 -18 -18 -18 -18 -18 -18 -18 -18 -18 -18 -18 -18 -19 -19 -19 -19 -19 -19 -19 -20 -20 -20 -21 -21 -22 -22 -23 -23
-29 -28 -28 -28 -28 -28 -27 -27 -27 -27 -26 -26 -26 -25 -25 -25 -24 -23 -23 -22 -22 -21 -20 -20 -19 -19 -19 -19 -19 -19 -18 -18 -18 -18 -18 -18 -19 -19 -19 -19 -19 -20 -20 -20 -20 -21 -21 -21 -22 -22 -23 -23 -23 -24
-28 -28 -27 -27 -27 -28 -27 -27 -27 -26 -26 -26 -25 -25 -25 -24 -24 -24 -23 -23 -22 -21 -20 -20 -20 -19 -19 -19 -19 -19 -19 -19 -19 -19 -19 -19 -19 -20 -20 -20 -20 -20 -21 -21 -21 -22 -22 -22 -23 -23 -23 -24 -24 -25
-28 -28 -27 -28 -27 -27 -27 -26 -26 -25 -25 -25 -25 -24 -24 -24 -24 -23 -23 -22 -21 -21 -21 -20 -20 -20 -20 -19 -19 -19 -19 -19 -19 -19 -20 -20 -20 -20 -20 -21 -21 -21 -21 -22 -22 -22 -23 -23 -24 -24 -24 -25 -25 -26
-28 -28 -27 -27 -27 -27 -26 -26 -26 -25 -25 -25 -25 -25 -24 -24 -23 -23 -22 -21 -21 -21 -21 -21 -20 -20 -20 -20 -20 -20 -20 -20 -20 -20 -20 -21 -21 -21 -21 -22 -22 -22 -23 -23 -23 -23 -24 -24 -24 -25 -25 -25 -26 -27

GFSWCAN_500_temp_117.txt.gz
Temp
-12 -12 -12 -12 -12 -13 -11 -11 -13 -13 -12 -12 -12 -12 -12 -12 -12 -12 -12 -12 -12 -12 -13 -12 -12 -12 -12 -12 -12 -12 -12 -12 -12 -12 -12 -12 -12 -12 -12 -12 -12 -12 -12 -12 -12 -12 -12 -12 -12 -13 -13 -14 -14 -15
-12 -12 -12 -12 -12 -12 -12 -12 -12 -13 -13 -13 -12 -12 -12 -12 -13 -13 -13 -12 -13 -13 -13 -13 -13 -12 -12 -12 -12 -12 -12 -12 -12 -12 -12 -12 -12 -12 -12 -12 -12 -12 -12 -12 -12 -12 -12 -12 -12 -13 -13 -13 -14 -15
-12 -12 -12 -12 -12 -12 -12 -12 -12 -12 -13 -13 -13 -13 -12 -12 -12 -13 -13 -13 -13 -13 -13 -13 -13 -13 -13 -13 -13 -13 -12 -12 -12 -12 -12 -12 -12 -12 -12 -12 -12 -12 -12 -12 -12 -12 -12 -12 -12 -12 -13 -13 -14 -14
-12 -12 -12 -13 -13 -13 -13 -12 -12 -13 -12 -13 -13 -13 -13 -12 -12 -12 -13 -13 -13 -13 -14 -13 -13 -13 -13 -13 -13 -13 -13 -13 -13 -12 -12 -12 -12 -12 -13 -12 -12 -12 -12 -12 -12 -12 -12 -13 -13 -12 -13 -13 -13 -14
-13 -13 -13 -13 -13 -13 -13 -13 -13 -13 -13 -12 -13 -14 -13 -13 -13 -12 -12 -12 -13 -14 -14 -14 -14 -14 -14 -14 -14 -14 -14 -13 -13 -13 -13 -12 -13 -12 -13 -13 -12 -12 -12 -13 -13 -13 -13 -13 -13 -13 -13 -13 -13 -13
-13 -13 -13 -13 -13 -13 -14 -14 -13 -13 -13 -13 -13 -14 -14 -13 -14 -13 -13 -12 -13 -14 -14 -15 -15 -14 -14 -14 -14 -14 -14 -14 -13 -13 -13 -13 -13 -12 -12 -13 -12 -12 -13 -13 -13 -13 -13 -13 -13 -13 -13 -13 -13 -13
-13 -13 -13 -13 -13 -13 -13 -14 -14 -13 -14 -14 -13 -13 -13 -14 -14 -14 -13 -14 -13 -13 -13 -13 -14 -15 -15 -15 -15 -14 -14 -14 -14 -13 -13 -13 -13 -12 -12 -14 -13 -12 -13 -13 -13 -13 -13 -13 -13 -13 -13 -13 -13 -13
-14 -13 -13 -14 -13 -13 -14 -14 -15 -15 -14 -14 -14 -14 -13 -14 -14 -15 -15 -15 -15 -14 -14 -13 -13 -15 -16 -16 -16 -15 -15 -14 -14 -13 -13 -13 -13 -12 -12 -14 -13 -13 -13 -13 -13 -13 -13 -13 -13 -14 -14 -13 -13 -14
-14 -14 -14 -14 -14 -14 -14 -14 -14 -14 -15 -15 -14 -14 -14 -14 -15 -15 -15 -15 -15 -15 -14 -13 -13 -14 -15 -15 -16 -16 -16 -15 -14 -13 -14 -13 -12 -12 -14 -14 -13 -13 -13 -13 -13 -14 -14 -14 -14 -14 -14 -14 -14 -14
-15 -14 -15 -15 -15 -15 -15 -14 -14 -14 -15 -14 -15 -14 -14 -15 -15 -16 -16 -16 -15 -15 -15 -13 -14 -14 -15 -16 -17 -17 -16 -16 -15 -14 -14 -13 -12 -13 -14 -14 -13 -13 -13 -13 -13 -14 -14 -14 -14 -14 -14 -14 -14 -14
-16 -15 -14 -15 -15 -15 -15 -15 -15 -15 -15 -15 -15 -15 -15 -15 -16 -16 -16 -15 -15 -15 -14 -14 -14 -14 -15 -17 -17 -18 -17 -16 -16 -15 -14 -12 -12 -14 -15 -14 -13 -14 -14 -14 -14 -14 -14 -14 -14 -14 -14 -14 -14 -14
-16 -15 -15 -15 -15 -15 -15 -15 -15 -15 -15 -15 -16 -16 -16 -16 -16 -16 -15 -15 -14 -15 -15 -14 -14 -16 -17 -18 -18 -18 -18 -18 -16 -15 -14 -12 -13 -15 -15 -15 -14 -15 -14 -14 -14 -14 -14 -14 -14 -14 -14 -14 -15 -15
-16 -16 -15 -16 -17 -16 -16 -15 -15 -15 -16 -16 -16 -16 -16 -16 -16 -15 -15 -15 -15 -16 -16 -16 -17 -17 -18 -19 -19 -19 -18 -17 -17 -16 -14 -13 -14 -15 -16 -16 -14 -15 -14 -14 -14 -14 -14 -14 -14 -14 -14 -15 -15 -15
-17 -16 -17 -16 -16 -15 -16 -16 -16 -16 -16 -16 -16 -16 -16 -15 -15 -15 -15 -16 -18 -18 -17 -17 -18 -18 -19 -19 -19 -19 -19 -18 -17 -15 -14 -14 -15 -17 -16 -15 -15 -15 -15 -15 -14 -15 -15 -14 -14 -14 -15 -15 -15 -15
-18 -17 -18 -17 -17 -16 -17 -17 -17 -17 -17 -17 -17 -16 -15 -16 -17 -17 -17 -18 -18 -18 -18 -18 -18 -19 -19 -18 -18 -19 -18 -16 -15 -14 -15 -16 -16 -17 -16 -15 -15 -15 -15 -15 -15 -15 -15 -15 -15 -15 -15 -15 -15 -15
-19 -19 -18 -17 -17 -17 -17 -17 -17 -17 -18 -18 -17 -16 -17 -17 -17 -17 -18 -19 -19 -19 -19 -19 -19 -19 -19 -18 -17 -17 -17 -16 -16 -16 -17 -16 -17 -17 -16 -16 -16 -15 -16 -16 -15 -15 -15 -15 -15 -15 -15 -15 -15 -16
-18 -18 -17 -18 -18 -17 -18 -18 -18 -18 -18 -17 -17 -17 -17 -17 -17 -18 -18 -19 -19 -20 -19 -20 -20 -20 -19 -17 -16 -16 -17 -18 -19 -18 -18 -18 -17 -18 -17 -16 -16 -16 -16 -16 -16 -16 -15 -15 -15 -15 -15 -15 -16 -16
-18 -18 -18 -18 -17 -17 -18 -19 -19 -19 -18 -17 -17 -17 -17 -18 -19 -19 -20 -20 -20 -21 -22 -20 -20 -18 -17 -16 -17 -18 -19 -19 -20 -20 -20 -20 -18 -18 -17 -17 -16 -15 -16 -16 -16 -16 -16 -16 -16 -16 -16 -16 -16 -16
-19 -18 -18 -18 -18 -19 -19 -19 -19 -18 -18 -18 -18 -18 -19 -19 -20 -20 -20 -21 -21 -21 -21 -20 -19 -17 -18 -18 -19 -20 -21 -21 -21 -21 -20 -19 -18 -18 -17 -18 -17 -16 -16 -17 -17 -17 -16 -16 -16 -16 -16 -16 -16 -17
-19 -19 -19 -19 -19 -20 -20 -20 -19 -19 -19 -18 -19 -19 -20 -20 -20 -20 -21 -20 -21 -21 -20 -19 -19 -20 -21 -22 -23 -23 -23 -23 -23 -22 -20 -18 -18 -18 -18 -17 -17 -16 -16 -17 -17 -17 -16 -16 -16 -16 -17 -17 -17 -17
-20 -20 -20 -20 -20 -21 -20 -20 -20 -19 -19 -19 -20 -20 -20 -21 -21 -21 -21 -21 -21 -20 -20 -21 -23 -25 -26 -26 -26 -25 -25 -25 -24 -22 -21 -19 -18 -18 -18 -18 -17 -17 -17 -17 -17 -17 -17 -17 -17 -17 -17 -17 -17 -17
-20 -20 -20 -21 -21 -20 -20 -20 -20 -20 -20 -20 -21 -21 -21 -20 -21 -21 -22 -21 -21 -22 -24 -26 -27 -27 -27 -26 -26 -26 -25 -24 -23 -21 -20 -19 -18 -18 -18 -18 -17 -17 -17 -17 -17 -17 -17 -17 -17 -17 -17 -17 -18 -18
-20 -20 -21 -21 -21 -21 -20 -20 -20 -20 -21 -21 -21 -21 -20 -21 -21 -22 -23 -23 -25 -26 -27 -27 -27 -26 -26 -26 -26 -26 -26 -24 -23 -21 -20 -18 -18 -18 -18 -18 -18 -17 -17 -17 -17 -17 -17 -17 -17 -17 -17 -17 -18 -18
-21 -22 -21 -21 -21 -21 -21 -20 -20 -21 -21 -21 -21 -22 -22 -22 -23 -24 -24 -25 -27 -27 -27 -26 -26 -25 -25 -25 -25 -24 -24 -24 -22 -21 -20 -19 -18 -18 -18 -18 -17 -17 -17 -17 -17 -17 -17 -17 -17 -17 -18 -18 -18 -19
-22 -22 -22 -21 -21 -21 -21 -21 -21 -21 -22 -22 -23 -23 -23 -25 -25 -25 -25 -26 -26 -26 -25 -25 -25 -24 -24 -23 -23 -23 -23 -22 -21 -20 -20 -20 -18 -18 -18 -18 -18 -17 -17 -17 -17 -17 -17 -17 -18 -18 -18 -18 -19 -19
-22 -22 -22 -21 -21 -21 -21 -21 -22 -22 -23 -24 -24 -25 -25 -26 -26 -25 -25 -26 -25 -24 -24 -24 -24 -24 -23 -23 -23 -22 -21 -21 -21 -20 -20 -19 -18 -18 -18 -18 -17 -17 -17 -17 -17 -18 -18 -18 -18 -18 -19 -19 -19 -20
-22 -22 -22 -21 -22 -22 -23 -23 -24 -24 -24 -24 -25 -26 -26 -26 -25 -25 -25 -24 -24 -24 -24 -23 -23 -23 -22 -22 -22 -22 -21 -20 -19 -20 -19 -18 -18 -18 -18 -18 -18 -18 -18 -18 -18 -18 -18 -19 -19 -19 -19 -19 -20 -20
-22 -22 -22 -23 -23 -24 -24 -25 -25 -26 -26 -26 -25 -26 -26 -25 -25 -25 -25 -24 -24 -24 -23 -23 -22 -22 -22 -21 -21 -20 -20 -19 -19 -19 -19 -18 -18 -18 -19 -19 -18 -18 -19 -19 -19 -19 -19 -19 -19 -19 -20 -20 -20 -21
-24 -24 -24 -24 -25 -26 -26 -26 -25 -26 -27 -26 -26 -26 -25 -26 -25 -25 -25 -24 -24 -23 -22 -22 -22 -21 -21 -20 -20 -19 -19 -18 -18 -18 -18 -18 -19 -19 -19 -19 -19 -19 -19 -19 -19 -19 -19 -20 -20 -20 -20 -21 -21 -21
-25 -26 -26 -26 -27 -28 -27 -27 -27 -27 -26 -26 -26 -26 -26 -25 -25 -25 -25 -24 -23 -22 -22 -22 -21 -20 -20 -20 -19 -19 -19 -19 -19 -19 -19 -18 -18 -19 -19 -19 -19 -20 -20 -20 -20 -20 -20 -20 -20 -21 -21 -21 -21 -22
-27 -28 -28 -28 -28 -28 -28 -28 -28 -27 -26 -26 -26 -26 -26 -25 -25 -25 -25 -24 -23 -23 -22 -22 -21 -20 -20 -19 -19 -19 -19 -19 -19 -19 -19 -19 -19 -19 -19 -20 -20 -20 -20 -20 -20 -21 -21 -21 -21 -21 -22 -22 -22 -22
-28 -29 -29 -29 -28 -28 -28 -28 -28 -27 -26 -26 -26 -26 -26 -25 -25 -25 -25 -24 -23 -23 -22 -22 -21 -21 -20 -20 -20 -20 -19 -19 -19 -19 -19 -19 -19 -20 -20 -21 -21 -21 -21 -21 -21 -21 -21 -21 -22 -22 -22 -22 -23 -23
-29 -29 -28 -28 -28 -28 -28 -28 -27 -27 -27 -26 -26 -25 -25 -25 -25 -25 -25 -24 -23 -23 -22 -22 -21 -21 -21 -20 -20 -20 -20 -20 -20 -20 -20 -20 -20 -21 -21 -21 -21 -21 -21 -21 -22 -22 -22 -22 -23 -23 -23 -23 -23 -24

GFSWCAN_500_temp_120.txt.gz
Temp
-12 -12 -12 -12 -12 -12 -12 -12 -12 -11 -12 -12 -12 -12 -12 -12 -12 -12 -12 -12 -13 -13 -13 -12 -12 -12 -12 -12 -13 -12 -12 -12 -12 -12 -12 -12 -12 -12 -12 -12 -12 -12 -12 -12 -12 -12 -12 -12 -12 -12 -12 -12 -13 -13
-12 -12 -12 -12 -12 -12 -12 -12 -12 -12 -11 -12 -12 -12 -12 -12 -11 -12 -12 -12 -13 -13 -13 -13 -13 -13 -12 -12 -13 -13 -13 -12 -12 -12 -12 -12 -12 -12 -12 -12 -12 -12 -12 -12 -12 -12 -12 -12 -12 -12 -12 -12 -12 -13
-12 -13 -13 -12 -12 -12 -12 -12 -12 -13 -12 -12 -12 -12 -12 -12 -12 -12 -12 -12 -12 -13 -13 -13 -14 -13 -13 -13 -13 -13 -13 -13 -13 -12 -12 -12 -12 -12 -12 -12 -12 -12 -12 -12 -12 -12 -13 -13 -13 -12 -12 -13 -12 -13
-13 -13 -12 -12 -13 -13 -12 -13 -12 -13 -13 -13 -12 -13 -13 -13 -13 -12 -12 -12 -12 -12 -12 -13 -14 -14 -14 -14 -13 -13 -13 -13 -13 -13 -13 -13 -12 -12 -12 -12 -13 -12 -12 -13 -13 -13 -13 -13 -13 -13 -13 -13 -13 -13
-14 -13 -13 -13 -13 -13 -13 -13 -13 -13 -13 -13 -13 -12 -13 -13 -13 -13 -13 -13 -13 -12 -12 -13 -13 -13 -14 -14 -14 -14 -13 -13 -14 -13 -13 -13 -13 -12 -12 -12 -13 -12 -12 -13 -13 -13 -13 -13 -13 -13 -13 -13 -13 -13
-14 -14 -14 -13 -13 -13 -13 -13 -13 -13 -13 -13 -14 -14 -13 -13 -13 -13 -13 -14 -14 -13 -12 -13 -13 -13 -13 -14 -14 -15 -15 -14 -14 -14 -14 -13 -13 -13 -12 -12 -14 -13 -12 -13 -13 -13 -13 -13 -13 -13 -13 -13 -13 -13
-14 -14 -14 -14 -14 -14 -13 -14 -14 -13 -13 -13 -14 -14 -14 -14 -14 -13 -13 -14 -14 -13 -13 -13 -14 -14 -13 -14 -14 -14 -15 -15 -15 -14 -14 -14 -14 -13 -12 -13 -15 -13 -12 -13 -13 -13 -13 -13 -13 -13 -14 -14 -14 -14
-14 -14 -14 -14 -14 -14 -14 -14 -14 -13 -14 -14 -14 -14 -14 -14 -13 -14 -14 -14 -14 -14 -13 -12 -13 -14 -15 -14 -14 -14 -15 -15 -14 -15 -14 -14 -14 -13 -12 -14 -15 -14 -13 -13 -13 -13 -13 -13 -14 -14 -14 -14 -14 -14
-13 -15 -15 -15 -14 -15 -15 -14 -14 -14 -14 -14 -14 -14 -14 -14 -13 -15 -15 -15 -14 -14 -13 -12 -13 -14 -15 -15 -15 -15 -15 -15 -15 -14 -15 -15 -14 -13 -13 -15 -15 -15 -13 -13 -13 -13 -14 -14 -14 -14 -14 -14 -14 -14
-14 -14 -15 -15 -15 -16 -14 -15 -15 -14 -14 -14 -14 -14 -14 -14 -15 -15 -15 -15 -15 -13 -12 -12 -14 -14 -15 -15 -16 -16 -16 -16 -15 -15 -15 -14 -13 -13 -15 -15 -16 -14 -14 -13 -13 -14 -14 -13 -14 -14 -14 -14 -15 -15
-15 -15 -16 -16 -16 -16 -14 -15 -15 -15 -15 -15 -14 -14 -14 -15 -15 -15 -15 -15 -14 -13 -13 -13 -14 -15 -15 -17 -17 -17 -17 -17 -16 -15 -15 -14 -13 -14 -16 -16 -16 -15 -15 -14 -14 -15 -14 -14 -14 -14 -14 -15 -15 -15
-16 -17 -17 -17 -17 -17 -16 -15 -15 -15 -15 -15 -15 -15 -15 -15 -15 -15 -15 -15 -13 -13 -13 -13 -15 -16 -16 -17 -17 -17 -17 -17 -16 -15 -15 -14 -14 -14 -15 -16 -17 -16 -15 -15 -14 -14 -14 -14 -14 -15 -15 -15 -15 -15
-18 -18 -17 -18 -18 -16 -16 -15 -16 -16 -16 -15 -15 -15 -15 -15 -15 -14 -13 -13 -13 -14 -15 -16 -16 -17 -17 -17 -17 -17 -17 -17 -16 -15 -14 -14 -14 -15 -16 -16 -17 -16 -16 -15 -15 -15 -14 -15 -15 -15 -15 -15 -15 -15
-20 -19 -19 -19 -19 -18 -16 -16 -15 -16 -16 -17 -16 -17 -16 -16 -15 -14 -13 -15 -16 -16 -16 -16 -17 -17 -17 -18 -18 -17 -17 -17 -16 -14 -14 -15 -15 -16 -17 -17 -17 -17 -17 -16 -16 -15 -15 -15 -15 -15 -15 -15 -15 -15
-22 -22 -20 -19 -20 -19 -18 -17 -16 -17 -16 -17 -18 -17 -16 -16 -15 -14 -15 -16 -16 -17 -17 -17 -17 -17 -17 -18 -18 -17 -17 -16 -16 -15 -15 -16 -16 -17 -17 -17 -17 -17 -17 -17 -16 -16 -16 -15 -15 -15 -15 -15 -16 -15
-23 -22 -21 -20 -20 -20 -19 -19 -17 -17 -17 -18 -18 -17 -16 -16 -15 -16 -16 -17 -17 -18 -18 -18 -18 -18 -18 -18 -17 -17 -17 -16 -17 -17 -17 -17 -17 -17 -17 -17 -17 -17 -17 -17 -17 -16 -16 -16 -16 -16 -16 -16 -16 -16
-23 -23 -20 -20 -20 -18 -18 -18 -18 -18 -17 -18 -17 -16 -16 -17 -17 -17 -17 -18 -18 -18 -18 -18 -18 -18 -19 -17 -16 -16 -17 -18 -18 -18 -17 -17 -17 -17 -17 -17 -17 -17 -17 -17 -17 -17 -16 -16 -16 -16 -16 -16 -16 -16
-22 -22 -21 -21 -19 -19 -19 -19 -18 -18 -19 -18 -17 -16 -16 -17 -17 -17 -18 -18 -19 -19 -19 -19 -19 -18 -18 -17 -17 -17 -18 -18 -18 -18 -18 -18 -18 -18 -18 -18 -18 -17 -17 -17 -17 -17 -16 -17 -17 -16 -16 -16 -16 -16
-21 -21 -21 -20 -20 -20 -20 -19 -19 -19 -18 -18 -17 -17 -18 -17 -17 -18 -19 -19 -20 -20 -19 -19 -18 -17 -17 -18 -19 -19 -18 -18 -18 -18 -18 -18 -18 -18 -19 -19 -18 -18 -18 -18 -18 -17 -16 -16 -17 -17 -17 -17 -17 -17
-21 -21 -21 -20 -19 -20 -20 -20 -19 -18 -17 -17 -17 -17 -18 -18 -19 -19 -19 -20 -20 -19 -19 -18 -18 -18 -19 -19 -19 -19 -19 -19 -18 -18 -18 -19 -19 -19 -19 -19 -19 -19 -18 -18 -18 -18 -17 -16 -17 -17 -17 -17 -17 -17
-21 -21 -21 -21 -20 -20 -20 -19 -19 -19 -18 -18 -18 -18 -19 -19 -19 -19 -19 -20 -20 -19 -18 -18 -19 -20 -20 -19 -19 -19 -19 -19 -19 -20 -20 -21 -20 -20 -20 -19 -19 -19 -19 -18 -19 -18 -18 -17 -17 -17 -17 -17 -17 -17
-22 -21 -20 -21 -21 -21 -21 -20 -20 -20 -20 -19 -19 -19 -19 -20 -20 -20 -21 -20 -19 -19 -19 -20 -20 -20 -20 -19 -19 -20 -21 -22 -22 -24 -24 -24 -24 -23 -21 -20 -20 -20 -19 -19 -18 -18 -18 -18 -18 -17 -17 -17 -17 -17
-22 -22 -21 -22 -22 -22 -21 -21 -21 -21 -20 -20 -20 -20 -20 -20 -20 -20 -20 -19 -19 -20 -21 -20 -20 -20 -20 -21 -21 -23 -25 -26 -26 -27 -26 -26 -25 -24 -23 -22 -21 -20 -19 -19 -18 -18 -19 -18 -18 -17 -17 -17 -17 -17
-22 -22 -21 -22 -21 -21 -21 -20 -21 -21 -21 -20 -20 -21 -20 -21 -21 -21 -20 -19 -20 -21 -21 -20 -20 -20 -22 -24 -26 -27 -27 -27 -27 -27 -26 -25 -25 -24 -22 -21 -20 -20 -19 -18 -18 -18 -18 -18 -18 -17 -17 -17 -17 -18
-22 -23 -23 -22 -22 -21 -21 -21 -21 -21 -21 -21 -21 -21 -21 -21 -21 -20 -20 -21 -21 -21 -21 -21 -22 -23 -24 -26 -26 -26 -26 -27 -26 -26 -26 -25 -23 -23 -22 -21 -21 -20 -19 -19 -19 -18 -19 -18 -18 -17 -17 -18 -18 -18
-23 -22 -22 -21 -21 -21 -21 -22 -21 -21 -22 -22 -22 -21 -21 -21 -21 -20 -21 -21 -21 -22 -23 -23 -24 -24 -24 -25 -25 -25 -25 -25 -25 -25 -25 -24 -24 -23 -22 -21 -20 -20 -19 -19 -19 -18 -18 -18 -18 -18 -18 -18 -18 -19
-23 -22 -22 -21 -21 -22 -22 -22 -22 -22 -22 -22 -22 -22 -22 -21 -21 -22 -22 -23 -23 -24 -24 -23 -23 -24 -24 -24 -24 -24 -24 -23 -24 -23 -23 -23 -23 -22 -21 -20 -20 -20 -19 -19 -18 -18 -19 -19 -18 -18 -19 -19 -19 -19
-23 -22 -22 -22 -23 -23 -23 -23 -23 -23 -23 -22 -22 -22 -22 -22 -23 -23 -24 -24 -25 -25 -24 -23 -23 -24 -23 -23 -23 -23 -23 -23 -23 -22 -21 -21 -21 -20 -20 -19 -19 -19 -19 -19 -19 -19 -19 -19 -19 -19 -19 -19 -19 -19
-23 -23 -23 -23 -23 -23 -23 -23 -23 -23 -23 -23 -23 -23 -23 -24 -24 -24 -25 -25 -25 -24 -24 -23 -23 -23 -23 -23 -23 -23 -22 -22 -21 -20 -20 -20 -20 -20 -20 -20 -20 -21 -20 -20 -19 -19 -19 -19 -19 -20 -20 -20 -20 -20
-24 -24 -24 -24 -24 -24 -24 -24 -24 -24 -24 -24 -24 -24 -25 -25 -25 -25 -25 -25 -24 -24 -23 -23 -23 -23 -22 -22 -22 -22 -22 -21 -21 -21 -20 -20 -20 -21 -21 -21 -21 -21 -20 -20 -20 -20 -20 -20 -20 -20 -20 -20 -20 -20
-25 -25 -25 -24 -24 -25 -25 -26 -25 -25 -25 -25 -26 -26 -26 -26 -25 -25 -25 -25 -25 -24 -23 -23 -23 -23 -22 -21 -21 -21 -21 -21 -21 -20 -20 -20 -20 -21 -22 -21 -21 -20 -20 -20 -20 -21 -21 -21 -20 -20 -20 -21 -21 -21
-26 -26 -26 -26 -26 -27 -27 -27 -27 -26 -27 -27 -27 -26 -26 -26 -25 -25 -25 -24 -24 -23 -22 -23 -23 -22 -22 -21 -21 -21 -21 -21 -21 -21 -21 -21 -21 -21 -21 -20 -20 -20 -20 -21 -21 -21 -21 -21 -21 -21 -21 -21 -22 -22
-28 -28 -28 -28 -28 -28 -29 -29 -29 -29 -28 -27 -27 -26 -26 -26 -25 -25 -25 -24 -24 -23 -23 -22 -22 -22 -22 -21 -21 -20 -20 -20 -20 -20 -21 -21 -20 -20 -21 -21 -21 -21 -21 -21 -21 -21 -21 -21 -21 -22 -22 -22 -22 -22